<?xml version="1.0" encoding="UTF-8" standalone="no" ?>
<gpx xmlns="http://www.topografix.com/GPX/1/1" xmlns:xsi="http://www.w3.org/2001/XMLSchema-instance" xsi:schemaLocation="http://www.topografix.com/GPX/1/1 http://www.topografix.com/GPX/1/1/gpx.xsd" version="1.1" creator="VisuGPX - https://www.visugpx.com">
  <metadata>
    <name>Bivouac lac du clou et lacs verdet</name>
    <desc><![CDATA[Trace AlpineQuest 02/08/2022 14:29:21]]></desc>
  </metadata>
  <trk>
    <name><![CDATA[Bivouac lac du clou et lacs verdet_1]]></name>
    <trkseg>
      <trkpt lat="45.54428" lon="6.9147">
        <ele>1681.298</ele>
        <time>2022-08-02T12:29:21Z</time>
      </trkpt>
      <trkpt lat="45.54427" lon="6.91472">
        <ele>1691.958</ele>
        <time>2022-08-02T12:29:32Z</time>
      </trkpt>
      <trkpt lat="45.54428" lon="6.91471">
        <ele>1693.406</ele>
        <time>2022-08-02T12:29:42Z</time>
      </trkpt>
      <trkpt lat="45.54428" lon="6.91471">
        <ele>1695.226</ele>
        <time>2022-08-02T12:29:51Z</time>
      </trkpt>
      <trkpt lat="45.54428" lon="6.9147">
        <ele>1696.85</ele>
        <time>2022-08-02T12:30:00Z</time>
      </trkpt>
      <trkpt lat="45.54427" lon="6.91471">
        <ele>1698.113</ele>
        <time>2022-08-02T12:30:09Z</time>
      </trkpt>
      <trkpt lat="45.54427" lon="6.9147">
        <ele>1698.886</ele>
        <time>2022-08-02T12:30:18Z</time>
      </trkpt>
      <trkpt lat="45.54427" lon="6.91469">
        <ele>1699.16</ele>
        <time>2022-08-02T12:30:28Z</time>
      </trkpt>
      <trkpt lat="45.54426" lon="6.91471">
        <ele>1697.116</ele>
        <time>2022-08-02T12:30:37Z</time>
      </trkpt>
      <trkpt lat="45.54427" lon="6.91471">
        <ele>1697.335</ele>
        <time>2022-08-02T12:30:47Z</time>
      </trkpt>
      <trkpt lat="45.54426" lon="6.91471">
        <ele>1697.01</ele>
        <time>2022-08-02T12:30:57Z</time>
      </trkpt>
      <trkpt lat="45.54427" lon="6.91469">
        <ele>1697.358</ele>
        <time>2022-08-02T12:31:06Z</time>
      </trkpt>
      <trkpt lat="45.54429" lon="6.9147">
        <ele>1696.124</ele>
        <time>2022-08-02T12:31:15Z</time>
      </trkpt>
      <trkpt lat="45.54428" lon="6.91471">
        <ele>1696.53</ele>
        <time>2022-08-02T12:31:25Z</time>
      </trkpt>
      <trkpt lat="45.54428" lon="6.91471">
        <ele>1696.492</ele>
        <time>2022-08-02T12:31:35Z</time>
      </trkpt>
      <trkpt lat="45.54428" lon="6.91471">
        <ele>1696.477</ele>
        <time>2022-08-02T12:31:44Z</time>
      </trkpt>
      <trkpt lat="45.54428" lon="6.91471">
        <ele>1696.489</ele>
        <time>2022-08-02T12:31:54Z</time>
      </trkpt>
      <trkpt lat="45.54427" lon="6.91471">
        <ele>1696.56</ele>
        <time>2022-08-02T12:32:04Z</time>
      </trkpt>
      <trkpt lat="45.54427" lon="6.91472">
        <ele>1695.944</ele>
        <time>2022-08-02T12:32:13Z</time>
      </trkpt>
      <trkpt lat="45.54427" lon="6.91471">
        <ele>1696.704</ele>
        <time>2022-08-02T12:32:23Z</time>
      </trkpt>
      <trkpt lat="45.54428" lon="6.9147">
        <ele>1696.59</ele>
        <time>2022-08-02T12:32:33Z</time>
      </trkpt>
      <trkpt lat="45.54428" lon="6.91471">
        <ele>1697.001</ele>
        <time>2022-08-02T12:32:42Z</time>
      </trkpt>
      <trkpt lat="45.54428" lon="6.91471">
        <ele>1696.836</ele>
        <time>2022-08-02T12:32:52Z</time>
      </trkpt>
      <trkpt lat="45.54428" lon="6.91471">
        <ele>1696.827</ele>
        <time>2022-08-02T12:33:01Z</time>
      </trkpt>
      <trkpt lat="45.54428" lon="6.91471">
        <ele>1696.822</ele>
        <time>2022-08-02T12:33:11Z</time>
      </trkpt>
      <trkpt lat="45.54428" lon="6.91471">
        <ele>1696.101</ele>
        <time>2022-08-02T12:33:21Z</time>
      </trkpt>
      <trkpt lat="45.54428" lon="6.91472">
        <ele>1695.292</ele>
        <time>2022-08-02T12:33:31Z</time>
      </trkpt>
      <trkpt lat="45.54415" lon="6.91474">
        <ele>1692.582</ele>
        <time>2022-08-02T12:33:41Z</time>
      </trkpt>
      <trkpt lat="45.54414" lon="6.91474">
        <ele>1693.019</ele>
        <time>2022-08-02T12:33:50Z</time>
      </trkpt>
      <trkpt lat="45.54413" lon="6.91472">
        <ele>1694.336</ele>
        <time>2022-08-02T12:34:00Z</time>
      </trkpt>
      <trkpt lat="45.54413" lon="6.91472">
        <ele>1694.662</ele>
        <time>2022-08-02T12:34:09Z</time>
      </trkpt>
      <trkpt lat="45.54413" lon="6.91472">
        <ele>1694.659</ele>
        <time>2022-08-02T12:34:19Z</time>
      </trkpt>
      <trkpt lat="45.54415" lon="6.91472">
        <ele>1693.63</ele>
        <time>2022-08-02T12:34:28Z</time>
      </trkpt>
      <trkpt lat="45.54415" lon="6.91471">
        <ele>1694.013</ele>
        <time>2022-08-02T12:34:38Z</time>
      </trkpt>
      <trkpt lat="45.54415" lon="6.91471">
        <ele>1693.956</ele>
        <time>2022-08-02T12:34:47Z</time>
      </trkpt>
      <trkpt lat="45.54415" lon="6.91471">
        <ele>1693.968</ele>
        <time>2022-08-02T12:34:57Z</time>
      </trkpt>
      <trkpt lat="45.54415" lon="6.91471">
        <ele>1693.966</ele>
        <time>2022-08-02T12:35:07Z</time>
      </trkpt>
      <trkpt lat="45.54415" lon="6.91471">
        <ele>1693.966</ele>
        <time>2022-08-02T12:35:17Z</time>
      </trkpt>
      <trkpt lat="45.54415" lon="6.91471">
        <ele>1693.962</ele>
        <time>2022-08-02T12:35:26Z</time>
      </trkpt>
      <trkpt lat="45.54414" lon="6.91472">
        <ele>1693.354</ele>
        <time>2022-08-02T12:35:35Z</time>
      </trkpt>
      <trkpt lat="45.54415" lon="6.91473">
        <ele>1692.567</ele>
        <time>2022-08-02T12:35:45Z</time>
      </trkpt>
      <trkpt lat="45.54414" lon="6.91473">
        <ele>1692.652</ele>
        <time>2022-08-02T12:35:55Z</time>
      </trkpt>
      <trkpt lat="45.54415" lon="6.91472">
        <ele>1692.998</ele>
        <time>2022-08-02T12:36:04Z</time>
      </trkpt>
      <trkpt lat="45.54415" lon="6.91473">
        <ele>1692.809</ele>
        <time>2022-08-02T12:36:14Z</time>
      </trkpt>
      <trkpt lat="45.54415" lon="6.91472">
        <ele>1692.843</ele>
        <time>2022-08-02T12:36:23Z</time>
      </trkpt>
      <trkpt lat="45.54415" lon="6.91472">
        <ele>1692.866</ele>
        <time>2022-08-02T12:36:33Z</time>
      </trkpt>
      <trkpt lat="45.54415" lon="6.91472">
        <ele>1692.868</ele>
        <time>2022-08-02T12:36:42Z</time>
      </trkpt>
      <trkpt lat="45.54415" lon="6.91472">
        <ele>1692.856</ele>
        <time>2022-08-02T12:36:52Z</time>
      </trkpt>
      <trkpt lat="45.54415" lon="6.91472">
        <ele>1692.844</ele>
        <time>2022-08-02T12:37:02Z</time>
      </trkpt>
      <trkpt lat="45.54415" lon="6.91472">
        <ele>1692.837</ele>
        <time>2022-08-02T12:37:12Z</time>
      </trkpt>
      <trkpt lat="45.54415" lon="6.91472">
        <ele>1692.828</ele>
        <time>2022-08-02T12:37:21Z</time>
      </trkpt>
      <trkpt lat="45.54415" lon="6.91472">
        <ele>1693.284</ele>
        <time>2022-08-02T12:37:31Z</time>
      </trkpt>
      <trkpt lat="45.54415" lon="6.91472">
        <ele>1694.738</ele>
        <time>2022-08-02T12:37:41Z</time>
      </trkpt>
      <trkpt lat="45.54415" lon="6.91472">
        <ele>1694.714</ele>
        <time>2022-08-02T12:37:50Z</time>
      </trkpt>
      <trkpt lat="45.54415" lon="6.91472">
        <ele>1693.961</ele>
        <time>2022-08-02T12:38:00Z</time>
      </trkpt>
      <trkpt lat="45.54415" lon="6.91472">
        <ele>1693.578</ele>
        <time>2022-08-02T12:38:09Z</time>
      </trkpt>
      <trkpt lat="45.54414" lon="6.91473">
        <ele>1692.71</ele>
        <time>2022-08-02T12:38:18Z</time>
      </trkpt>
      <trkpt lat="45.54414" lon="6.91473">
        <ele>1692.507</ele>
        <time>2022-08-02T12:38:28Z</time>
      </trkpt>
      <trkpt lat="45.54414" lon="6.91474">
        <ele>1691.741</ele>
        <time>2022-08-02T12:38:37Z</time>
      </trkpt>
      <trkpt lat="45.54414" lon="6.91471">
        <ele>1693.787</ele>
        <time>2022-08-02T12:38:47Z</time>
      </trkpt>
      <trkpt lat="45.54419" lon="6.91473">
        <ele>1694.06</ele>
        <time>2022-08-02T12:38:57Z</time>
      </trkpt>
      <trkpt lat="45.5443" lon="6.91475">
        <ele>1693.2</ele>
        <time>2022-08-02T12:39:07Z</time>
      </trkpt>
      <trkpt lat="45.54441" lon="6.91471">
        <ele>1693.781</ele>
        <time>2022-08-02T12:39:17Z</time>
      </trkpt>
      <trkpt lat="45.54452" lon="6.91467">
        <ele>1695.049</ele>
        <time>2022-08-02T12:39:26Z</time>
      </trkpt>
      <trkpt lat="45.54461" lon="6.9146">
        <ele>1696.254</ele>
        <time>2022-08-02T12:39:35Z</time>
      </trkpt>
      <trkpt lat="45.54472" lon="6.91455">
        <ele>1696.598</ele>
        <time>2022-08-02T12:39:44Z</time>
      </trkpt>
      <trkpt lat="45.54484" lon="6.91447">
        <ele>1698.225</ele>
        <time>2022-08-02T12:39:54Z</time>
      </trkpt>
      <trkpt lat="45.54493" lon="6.91438">
        <ele>1698.016</ele>
        <time>2022-08-02T12:40:03Z</time>
      </trkpt>
      <trkpt lat="45.54503" lon="6.91429">
        <ele>1699.764</ele>
        <time>2022-08-02T12:40:13Z</time>
      </trkpt>
      <trkpt lat="45.54513" lon="6.91416">
        <ele>1701.411</ele>
        <time>2022-08-02T12:40:23Z</time>
      </trkpt>
      <trkpt lat="45.54523" lon="6.91409">
        <ele>1702.87</ele>
        <time>2022-08-02T12:40:32Z</time>
      </trkpt>
      <trkpt lat="45.54532" lon="6.91397">
        <ele>1702.585</ele>
        <time>2022-08-02T12:40:42Z</time>
      </trkpt>
      <trkpt lat="45.54542" lon="6.91388">
        <ele>1703.787</ele>
        <time>2022-08-02T12:40:51Z</time>
      </trkpt>
      <trkpt lat="45.54553" lon="6.91381">
        <ele>1704.368</ele>
        <time>2022-08-02T12:41:01Z</time>
      </trkpt>
      <trkpt lat="45.54563" lon="6.91373">
        <ele>1705.082</ele>
        <time>2022-08-02T12:41:11Z</time>
      </trkpt>
      <trkpt lat="45.54573" lon="6.91367">
        <ele>1705.938</ele>
        <time>2022-08-02T12:41:20Z</time>
      </trkpt>
      <trkpt lat="45.54583" lon="6.91362">
        <ele>1706.583</ele>
        <time>2022-08-02T12:41:29Z</time>
      </trkpt>
      <trkpt lat="45.54595" lon="6.91356">
        <ele>1705.581</ele>
        <time>2022-08-02T12:41:39Z</time>
      </trkpt>
      <trkpt lat="45.54607" lon="6.91349">
        <ele>1707.027</ele>
        <time>2022-08-02T12:41:49Z</time>
      </trkpt>
      <trkpt lat="45.54617" lon="6.91341">
        <ele>1706.823</ele>
        <time>2022-08-02T12:41:58Z</time>
      </trkpt>
      <trkpt lat="45.54622" lon="6.91333">
        <ele>1708.136</ele>
        <time>2022-08-02T12:42:08Z</time>
      </trkpt>
      <trkpt lat="45.54626" lon="6.91338">
        <ele>1709.436</ele>
        <time>2022-08-02T12:42:17Z</time>
      </trkpt>
      <trkpt lat="45.54625" lon="6.91336">
        <ele>1709.087</ele>
        <time>2022-08-02T12:42:27Z</time>
      </trkpt>
      <trkpt lat="45.54635" lon="6.91337">
        <ele>1709.086</ele>
        <time>2022-08-02T12:42:36Z</time>
      </trkpt>
      <trkpt lat="45.54632" lon="6.91348">
        <ele>1710.676</ele>
        <time>2022-08-02T12:42:45Z</time>
      </trkpt>
      <trkpt lat="45.54625" lon="6.91357">
        <ele>1711.243</ele>
        <time>2022-08-02T12:42:55Z</time>
      </trkpt>
      <trkpt lat="45.54618" lon="6.91365">
        <ele>1712.635</ele>
        <time>2022-08-02T12:43:04Z</time>
      </trkpt>
      <trkpt lat="45.54611" lon="6.91373">
        <ele>1713.464</ele>
        <time>2022-08-02T12:43:14Z</time>
      </trkpt>
      <trkpt lat="45.54604" lon="6.91378">
        <ele>1714.372</ele>
        <time>2022-08-02T12:43:23Z</time>
      </trkpt>
      <trkpt lat="45.54597" lon="6.91381">
        <ele>1716.517</ele>
        <time>2022-08-02T12:43:32Z</time>
      </trkpt>
      <trkpt lat="45.5459" lon="6.91386">
        <ele>1717.976</ele>
        <time>2022-08-02T12:43:42Z</time>
      </trkpt>
      <trkpt lat="45.54587" lon="6.91394">
        <ele>1718.798</ele>
        <time>2022-08-02T12:43:51Z</time>
      </trkpt>
      <trkpt lat="45.54586" lon="6.91405">
        <ele>1720.819</ele>
        <time>2022-08-02T12:44:00Z</time>
      </trkpt>
      <trkpt lat="45.54586" lon="6.91418">
        <ele>1722.231</ele>
        <time>2022-08-02T12:44:09Z</time>
      </trkpt>
      <trkpt lat="45.54583" lon="6.9143">
        <ele>1723.139</ele>
        <time>2022-08-02T12:44:19Z</time>
      </trkpt>
      <trkpt lat="45.54579" lon="6.91439">
        <ele>1723.481</ele>
        <time>2022-08-02T12:44:28Z</time>
      </trkpt>
      <trkpt lat="45.54572" lon="6.91448">
        <ele>1724.77</ele>
        <time>2022-08-02T12:44:38Z</time>
      </trkpt>
      <trkpt lat="45.54567" lon="6.91456">
        <ele>1725.766</ele>
        <time>2022-08-02T12:44:47Z</time>
      </trkpt>
      <trkpt lat="45.54566" lon="6.91468">
        <ele>1727.756</ele>
        <time>2022-08-02T12:44:56Z</time>
      </trkpt>
      <trkpt lat="45.54569" lon="6.9148">
        <ele>1729.251</ele>
        <time>2022-08-02T12:45:06Z</time>
      </trkpt>
      <trkpt lat="45.54572" lon="6.91491">
        <ele>1732.419</ele>
        <time>2022-08-02T12:45:15Z</time>
      </trkpt>
      <trkpt lat="45.54571" lon="6.91503">
        <ele>1734.977</ele>
        <time>2022-08-02T12:45:25Z</time>
      </trkpt>
      <trkpt lat="45.54564" lon="6.91512">
        <ele>1734.45</ele>
        <time>2022-08-02T12:45:35Z</time>
      </trkpt>
      <trkpt lat="45.54557" lon="6.91518">
        <ele>1734.513</ele>
        <time>2022-08-02T12:45:44Z</time>
      </trkpt>
      <trkpt lat="45.5455" lon="6.91523">
        <ele>1736.088</ele>
        <time>2022-08-02T12:45:53Z</time>
      </trkpt>
      <trkpt lat="45.54542" lon="6.91526">
        <ele>1737.302</ele>
        <time>2022-08-02T12:46:02Z</time>
      </trkpt>
      <trkpt lat="45.54535" lon="6.91534">
        <ele>1738.287</ele>
        <time>2022-08-02T12:46:12Z</time>
      </trkpt>
      <trkpt lat="45.54532" lon="6.91544">
        <ele>1740.646</ele>
        <time>2022-08-02T12:46:21Z</time>
      </trkpt>
      <trkpt lat="45.5453" lon="6.91555">
        <ele>1742.13</ele>
        <time>2022-08-02T12:46:31Z</time>
      </trkpt>
      <trkpt lat="45.54529" lon="6.91567">
        <ele>1744.808</ele>
        <time>2022-08-02T12:46:41Z</time>
      </trkpt>
      <trkpt lat="45.54528" lon="6.91577">
        <ele>1746.068</ele>
        <time>2022-08-02T12:46:50Z</time>
      </trkpt>
      <trkpt lat="45.54528" lon="6.9159">
        <ele>1748.019</ele>
        <time>2022-08-02T12:47:00Z</time>
      </trkpt>
      <trkpt lat="45.54524" lon="6.91602">
        <ele>1748.534</ele>
        <time>2022-08-02T12:47:10Z</time>
      </trkpt>
      <trkpt lat="45.54521" lon="6.91611">
        <ele>1749.467</ele>
        <time>2022-08-02T12:47:19Z</time>
      </trkpt>
      <trkpt lat="45.54519" lon="6.91625">
        <ele>1750.528</ele>
        <time>2022-08-02T12:47:29Z</time>
      </trkpt>
      <trkpt lat="45.54518" lon="6.91637">
        <ele>1751.801</ele>
        <time>2022-08-02T12:47:38Z</time>
      </trkpt>
      <trkpt lat="45.5452" lon="6.9164">
        <ele>1753.961</ele>
        <time>2022-08-02T12:47:48Z</time>
      </trkpt>
      <trkpt lat="45.54522" lon="6.91642">
        <ele>1756.161</ele>
        <time>2022-08-02T12:47:58Z</time>
      </trkpt>
      <trkpt lat="45.5453" lon="6.91646">
        <ele>1756.245</ele>
        <time>2022-08-02T12:48:07Z</time>
      </trkpt>
      <trkpt lat="45.54539" lon="6.91648">
        <ele>1756.516</ele>
        <time>2022-08-02T12:48:17Z</time>
      </trkpt>
      <trkpt lat="45.54548" lon="6.91648">
        <ele>1757.462</ele>
        <time>2022-08-02T12:48:26Z</time>
      </trkpt>
      <trkpt lat="45.54556" lon="6.91647">
        <ele>1756.567</ele>
        <time>2022-08-02T12:48:35Z</time>
      </trkpt>
      <trkpt lat="45.54565" lon="6.91645">
        <ele>1758.086</ele>
        <time>2022-08-02T12:48:44Z</time>
      </trkpt>
      <trkpt lat="45.54574" lon="6.91639">
        <ele>1759.281</ele>
        <time>2022-08-02T12:48:54Z</time>
      </trkpt>
      <trkpt lat="45.54581" lon="6.9163">
        <ele>1759.618</ele>
        <time>2022-08-02T12:49:04Z</time>
      </trkpt>
      <trkpt lat="45.54588" lon="6.91618">
        <ele>1760.661</ele>
        <time>2022-08-02T12:49:14Z</time>
      </trkpt>
      <trkpt lat="45.54593" lon="6.9161">
        <ele>1762.108</ele>
        <time>2022-08-02T12:49:23Z</time>
      </trkpt>
      <trkpt lat="45.54597" lon="6.91598">
        <ele>1762.745</ele>
        <time>2022-08-02T12:49:32Z</time>
      </trkpt>
      <trkpt lat="45.546" lon="6.91584">
        <ele>1763.973</ele>
        <time>2022-08-02T12:49:42Z</time>
      </trkpt>
      <trkpt lat="45.54603" lon="6.91572">
        <ele>1765.016</ele>
        <time>2022-08-02T12:49:51Z</time>
      </trkpt>
      <trkpt lat="45.54608" lon="6.9156">
        <ele>1766.331</ele>
        <time>2022-08-02T12:50:01Z</time>
      </trkpt>
      <trkpt lat="45.54616" lon="6.91552">
        <ele>1768.184</ele>
        <time>2022-08-02T12:50:11Z</time>
      </trkpt>
      <trkpt lat="45.54625" lon="6.91547">
        <ele>1769.433</ele>
        <time>2022-08-02T12:50:20Z</time>
      </trkpt>
      <trkpt lat="45.54633" lon="6.91548">
        <ele>1770.086</ele>
        <time>2022-08-02T12:50:29Z</time>
      </trkpt>
      <trkpt lat="45.54644" lon="6.91556">
        <ele>1771.733</ele>
        <time>2022-08-02T12:50:39Z</time>
      </trkpt>
      <trkpt lat="45.54652" lon="6.91562">
        <ele>1773.223</ele>
        <time>2022-08-02T12:50:48Z</time>
      </trkpt>
      <trkpt lat="45.5466" lon="6.91562">
        <ele>1773.67</ele>
        <time>2022-08-02T12:50:57Z</time>
      </trkpt>
      <trkpt lat="45.5467" lon="6.91553">
        <ele>1775.396</ele>
        <time>2022-08-02T12:51:07Z</time>
      </trkpt>
      <trkpt lat="45.54678" lon="6.91543">
        <ele>1777.865</ele>
        <time>2022-08-02T12:51:17Z</time>
      </trkpt>
      <trkpt lat="45.54685" lon="6.91535">
        <ele>1777.968</ele>
        <time>2022-08-02T12:51:26Z</time>
      </trkpt>
      <trkpt lat="45.54693" lon="6.91529">
        <ele>1779.218</ele>
        <time>2022-08-02T12:51:36Z</time>
      </trkpt>
      <trkpt lat="45.547" lon="6.91521">
        <ele>1780.218</ele>
        <time>2022-08-02T12:51:46Z</time>
      </trkpt>
      <trkpt lat="45.54709" lon="6.91515">
        <ele>1781.041</ele>
        <time>2022-08-02T12:51:55Z</time>
      </trkpt>
      <trkpt lat="45.54715" lon="6.91507">
        <ele>1782.746</ele>
        <time>2022-08-02T12:52:04Z</time>
      </trkpt>
      <trkpt lat="45.54724" lon="6.91499">
        <ele>1782.664</ele>
        <time>2022-08-02T12:52:14Z</time>
      </trkpt>
      <trkpt lat="45.54729" lon="6.9149">
        <ele>1782.841</ele>
        <time>2022-08-02T12:52:23Z</time>
      </trkpt>
      <trkpt lat="45.54737" lon="6.91481">
        <ele>1784.271</ele>
        <time>2022-08-02T12:52:33Z</time>
      </trkpt>
      <trkpt lat="45.54744" lon="6.91474">
        <ele>1785.748</ele>
        <time>2022-08-02T12:52:42Z</time>
      </trkpt>
      <trkpt lat="45.54752" lon="6.91465">
        <ele>1787.695</ele>
        <time>2022-08-02T12:52:52Z</time>
      </trkpt>
      <trkpt lat="45.5476" lon="6.91457">
        <ele>1788.773</ele>
        <time>2022-08-02T12:53:02Z</time>
      </trkpt>
      <trkpt lat="45.54766" lon="6.91451">
        <ele>1789.092</ele>
        <time>2022-08-02T12:53:11Z</time>
      </trkpt>
      <trkpt lat="45.54774" lon="6.91444">
        <ele>1789.93</ele>
        <time>2022-08-02T12:53:21Z</time>
      </trkpt>
      <trkpt lat="45.54781" lon="6.91437">
        <ele>1791.576</ele>
        <time>2022-08-02T12:53:31Z</time>
      </trkpt>
      <trkpt lat="45.54789" lon="6.91431">
        <ele>1791.705</ele>
        <time>2022-08-02T12:53:40Z</time>
      </trkpt>
      <trkpt lat="45.54798" lon="6.91425">
        <ele>1791.8</ele>
        <time>2022-08-02T12:53:50Z</time>
      </trkpt>
      <trkpt lat="45.54806" lon="6.91418">
        <ele>1791.438</ele>
        <time>2022-08-02T12:54:00Z</time>
      </trkpt>
      <trkpt lat="45.54813" lon="6.9141">
        <ele>1793.135</ele>
        <time>2022-08-02T12:54:09Z</time>
      </trkpt>
      <trkpt lat="45.5482" lon="6.91403">
        <ele>1794.42</ele>
        <time>2022-08-02T12:54:19Z</time>
      </trkpt>
      <trkpt lat="45.54825" lon="6.914">
        <ele>1795.229</ele>
        <time>2022-08-02T12:54:28Z</time>
      </trkpt>
      <trkpt lat="45.54826" lon="6.91402">
        <ele>1795.371</ele>
        <time>2022-08-02T12:54:37Z</time>
      </trkpt>
      <trkpt lat="45.54827" lon="6.91403">
        <ele>1795.704</ele>
        <time>2022-08-02T12:54:47Z</time>
      </trkpt>
      <trkpt lat="45.54826" lon="6.91411">
        <ele>1794.618</ele>
        <time>2022-08-02T12:54:57Z</time>
      </trkpt>
      <trkpt lat="45.5482" lon="6.91426">
        <ele>1795.401</ele>
        <time>2022-08-02T12:55:07Z</time>
      </trkpt>
      <trkpt lat="45.54811" lon="6.91435">
        <ele>1796.258</ele>
        <time>2022-08-02T12:55:16Z</time>
      </trkpt>
      <trkpt lat="45.54802" lon="6.91442">
        <ele>1796.978</ele>
        <time>2022-08-02T12:55:25Z</time>
      </trkpt>
      <trkpt lat="45.54793" lon="6.91449">
        <ele>1798.128</ele>
        <time>2022-08-02T12:55:34Z</time>
      </trkpt>
      <trkpt lat="45.54785" lon="6.91462">
        <ele>1797.757</ele>
        <time>2022-08-02T12:55:44Z</time>
      </trkpt>
      <trkpt lat="45.54779" lon="6.91473">
        <ele>1799.306</ele>
        <time>2022-08-02T12:55:53Z</time>
      </trkpt>
      <trkpt lat="45.54771" lon="6.91485">
        <ele>1800.828</ele>
        <time>2022-08-02T12:56:03Z</time>
      </trkpt>
      <trkpt lat="45.54766" lon="6.91498">
        <ele>1801.445</ele>
        <time>2022-08-02T12:56:12Z</time>
      </trkpt>
      <trkpt lat="45.5476" lon="6.91509">
        <ele>1801.681</ele>
        <time>2022-08-02T12:56:21Z</time>
      </trkpt>
      <trkpt lat="45.54753" lon="6.91522">
        <ele>1801.069</ele>
        <time>2022-08-02T12:56:31Z</time>
      </trkpt>
      <trkpt lat="45.54746" lon="6.91532">
        <ele>1802.012</ele>
        <time>2022-08-02T12:56:40Z</time>
      </trkpt>
      <trkpt lat="45.54739" lon="6.91542">
        <ele>1801.715</ele>
        <time>2022-08-02T12:56:49Z</time>
      </trkpt>
      <trkpt lat="45.54733" lon="6.91553">
        <ele>1802.371</ele>
        <time>2022-08-02T12:56:59Z</time>
      </trkpt>
      <trkpt lat="45.54731" lon="6.91565">
        <ele>1802.398</ele>
        <time>2022-08-02T12:57:08Z</time>
      </trkpt>
      <trkpt lat="45.54729" lon="6.91577">
        <ele>1803.275</ele>
        <time>2022-08-02T12:57:18Z</time>
      </trkpt>
      <trkpt lat="45.54725" lon="6.91589">
        <ele>1803.702</ele>
        <time>2022-08-02T12:57:27Z</time>
      </trkpt>
      <trkpt lat="45.5472" lon="6.91599">
        <ele>1804.369</ele>
        <time>2022-08-02T12:57:36Z</time>
      </trkpt>
      <trkpt lat="45.54713" lon="6.9161">
        <ele>1805.321</ele>
        <time>2022-08-02T12:57:46Z</time>
      </trkpt>
      <trkpt lat="45.54707" lon="6.91622">
        <ele>1806.832</ele>
        <time>2022-08-02T12:57:56Z</time>
      </trkpt>
      <trkpt lat="45.54702" lon="6.91631">
        <ele>1807.367</ele>
        <time>2022-08-02T12:58:05Z</time>
      </trkpt>
      <trkpt lat="45.54697" lon="6.91642">
        <ele>1809.681</ele>
        <time>2022-08-02T12:58:15Z</time>
      </trkpt>
      <trkpt lat="45.54691" lon="6.91653">
        <ele>1810.784</ele>
        <time>2022-08-02T12:58:25Z</time>
      </trkpt>
      <trkpt lat="45.54686" lon="6.91664">
        <ele>1812.85</ele>
        <time>2022-08-02T12:58:34Z</time>
      </trkpt>
      <trkpt lat="45.54684" lon="6.91678">
        <ele>1813.442</ele>
        <time>2022-08-02T12:58:44Z</time>
      </trkpt>
      <trkpt lat="45.54679" lon="6.91691">
        <ele>1813.528</ele>
        <time>2022-08-02T12:58:54Z</time>
      </trkpt>
      <trkpt lat="45.54672" lon="6.917">
        <ele>1814.12</ele>
        <time>2022-08-02T12:59:03Z</time>
      </trkpt>
      <trkpt lat="45.54662" lon="6.91708">
        <ele>1816.497</ele>
        <time>2022-08-02T12:59:13Z</time>
      </trkpt>
      <trkpt lat="45.54655" lon="6.91715">
        <ele>1816.477</ele>
        <time>2022-08-02T12:59:22Z</time>
      </trkpt>
      <trkpt lat="45.54647" lon="6.91721">
        <ele>1817.42</ele>
        <time>2022-08-02T12:59:31Z</time>
      </trkpt>
      <trkpt lat="45.5464" lon="6.91727">
        <ele>1819.425</ele>
        <time>2022-08-02T12:59:41Z</time>
      </trkpt>
      <trkpt lat="45.54634" lon="6.91739">
        <ele>1820.688</ele>
        <time>2022-08-02T12:59:51Z</time>
      </trkpt>
      <trkpt lat="45.54631" lon="6.91751">
        <ele>1822.193</ele>
        <time>2022-08-02T13:00:00Z</time>
      </trkpt>
      <trkpt lat="45.54631" lon="6.91764">
        <ele>1823.321</ele>
        <time>2022-08-02T13:00:09Z</time>
      </trkpt>
      <trkpt lat="45.54632" lon="6.91778">
        <ele>1823.788</ele>
        <time>2022-08-02T13:00:19Z</time>
      </trkpt>
      <trkpt lat="45.54627" lon="6.91788">
        <ele>1824.918</ele>
        <time>2022-08-02T13:00:28Z</time>
      </trkpt>
      <trkpt lat="45.54621" lon="6.918">
        <ele>1825.424</ele>
        <time>2022-08-02T13:00:38Z</time>
      </trkpt>
      <trkpt lat="45.54614" lon="6.91809">
        <ele>1825.914</ele>
        <time>2022-08-02T13:00:48Z</time>
      </trkpt>
      <trkpt lat="45.54608" lon="6.91819">
        <ele>1826.914</ele>
        <time>2022-08-02T13:00:57Z</time>
      </trkpt>
      <trkpt lat="45.54604" lon="6.9183">
        <ele>1827.91</ele>
        <time>2022-08-02T13:01:07Z</time>
      </trkpt>
      <trkpt lat="45.54599" lon="6.91841">
        <ele>1828.422</ele>
        <time>2022-08-02T13:01:16Z</time>
      </trkpt>
      <trkpt lat="45.54594" lon="6.91854">
        <ele>1829.16</ele>
        <time>2022-08-02T13:01:26Z</time>
      </trkpt>
      <trkpt lat="45.54588" lon="6.91863">
        <ele>1829.577</ele>
        <time>2022-08-02T13:01:35Z</time>
      </trkpt>
      <trkpt lat="45.54581" lon="6.91872">
        <ele>1830.65</ele>
        <time>2022-08-02T13:01:44Z</time>
      </trkpt>
      <trkpt lat="45.54573" lon="6.91882">
        <ele>1832.574</ele>
        <time>2022-08-02T13:01:53Z</time>
      </trkpt>
      <trkpt lat="45.54566" lon="6.9189">
        <ele>1834.258</ele>
        <time>2022-08-02T13:02:02Z</time>
      </trkpt>
      <trkpt lat="45.54556" lon="6.91897">
        <ele>1835.68</ele>
        <time>2022-08-02T13:02:12Z</time>
      </trkpt>
      <trkpt lat="45.54548" lon="6.91904">
        <ele>1836.817</ele>
        <time>2022-08-02T13:02:21Z</time>
      </trkpt>
      <trkpt lat="45.5454" lon="6.91911">
        <ele>1837.556</ele>
        <time>2022-08-02T13:02:31Z</time>
      </trkpt>
      <trkpt lat="45.54533" lon="6.91919">
        <ele>1839.37</ele>
        <time>2022-08-02T13:02:41Z</time>
      </trkpt>
      <trkpt lat="45.54525" lon="6.91927">
        <ele>1839.905</ele>
        <time>2022-08-02T13:02:51Z</time>
      </trkpt>
      <trkpt lat="45.54517" lon="6.91934">
        <ele>1840.898</ele>
        <time>2022-08-02T13:03:01Z</time>
      </trkpt>
      <trkpt lat="45.54507" lon="6.91939">
        <ele>1840.597</ele>
        <time>2022-08-02T13:03:11Z</time>
      </trkpt>
      <trkpt lat="45.54498" lon="6.91939">
        <ele>1840.73</ele>
        <time>2022-08-02T13:03:21Z</time>
      </trkpt>
      <trkpt lat="45.5449" lon="6.91941">
        <ele>1841.378</ele>
        <time>2022-08-02T13:03:30Z</time>
      </trkpt>
      <trkpt lat="45.54489" lon="6.91953">
        <ele>1842.671</ele>
        <time>2022-08-02T13:03:40Z</time>
      </trkpt>
      <trkpt lat="45.545" lon="6.91955">
        <ele>1844.318</ele>
        <time>2022-08-02T13:03:49Z</time>
      </trkpt>
      <trkpt lat="45.54509" lon="6.91952">
        <ele>1845.276</ele>
        <time>2022-08-02T13:03:58Z</time>
      </trkpt>
      <trkpt lat="45.5452" lon="6.91948">
        <ele>1848.238</ele>
        <time>2022-08-02T13:04:08Z</time>
      </trkpt>
      <trkpt lat="45.54527" lon="6.91945">
        <ele>1849.277</ele>
        <time>2022-08-02T13:04:17Z</time>
      </trkpt>
      <trkpt lat="45.54537" lon="6.91941">
        <ele>1849.459</ele>
        <time>2022-08-02T13:04:27Z</time>
      </trkpt>
      <trkpt lat="45.54545" lon="6.91937">
        <ele>1849.652</ele>
        <time>2022-08-02T13:04:37Z</time>
      </trkpt>
      <trkpt lat="45.54553" lon="6.91932">
        <ele>1850.328</ele>
        <time>2022-08-02T13:04:46Z</time>
      </trkpt>
      <trkpt lat="45.5456" lon="6.91928">
        <ele>1850.909</ele>
        <time>2022-08-02T13:04:55Z</time>
      </trkpt>
      <trkpt lat="45.54567" lon="6.91923">
        <ele>1852.593</ele>
        <time>2022-08-02T13:05:05Z</time>
      </trkpt>
      <trkpt lat="45.54574" lon="6.9192">
        <ele>1854.747</ele>
        <time>2022-08-02T13:05:14Z</time>
      </trkpt>
      <trkpt lat="45.54584" lon="6.91916">
        <ele>1856.577</ele>
        <time>2022-08-02T13:05:24Z</time>
      </trkpt>
      <trkpt lat="45.54593" lon="6.91915">
        <ele>1857.675</ele>
        <time>2022-08-02T13:05:34Z</time>
      </trkpt>
      <trkpt lat="45.54603" lon="6.91914">
        <ele>1857.484</ele>
        <time>2022-08-02T13:05:43Z</time>
      </trkpt>
      <trkpt lat="45.54608" lon="6.91911">
        <ele>1857.298</ele>
        <time>2022-08-02T13:05:52Z</time>
      </trkpt>
      <trkpt lat="45.54607" lon="6.9191">
        <ele>1856.846</ele>
        <time>2022-08-02T13:06:02Z</time>
      </trkpt>
      <trkpt lat="45.54609" lon="6.9191">
        <ele>1856.58</ele>
        <time>2022-08-02T13:06:12Z</time>
      </trkpt>
      <trkpt lat="45.54615" lon="6.91906">
        <ele>1858.216</ele>
        <time>2022-08-02T13:06:22Z</time>
      </trkpt>
      <trkpt lat="45.54622" lon="6.919">
        <ele>1859.392</ele>
        <time>2022-08-02T13:06:31Z</time>
      </trkpt>
      <trkpt lat="45.5463" lon="6.91895">
        <ele>1860.635</ele>
        <time>2022-08-02T13:06:40Z</time>
      </trkpt>
      <trkpt lat="45.54639" lon="6.91891">
        <ele>1862.039</ele>
        <time>2022-08-02T13:06:50Z</time>
      </trkpt>
      <trkpt lat="45.54648" lon="6.91887">
        <ele>1862.909</ele>
        <time>2022-08-02T13:07:00Z</time>
      </trkpt>
      <trkpt lat="45.54657" lon="6.91884">
        <ele>1863.991</ele>
        <time>2022-08-02T13:07:10Z</time>
      </trkpt>
      <trkpt lat="45.54666" lon="6.91882">
        <ele>1864.179</ele>
        <time>2022-08-02T13:07:20Z</time>
      </trkpt>
      <trkpt lat="45.54672" lon="6.9188">
        <ele>1865.296</ele>
        <time>2022-08-02T13:07:29Z</time>
      </trkpt>
      <trkpt lat="45.54679" lon="6.91878">
        <ele>1866.219</ele>
        <time>2022-08-02T13:07:39Z</time>
      </trkpt>
      <trkpt lat="45.54687" lon="6.91877">
        <ele>1866.375</ele>
        <time>2022-08-02T13:07:48Z</time>
      </trkpt>
      <trkpt lat="45.54697" lon="6.91872">
        <ele>1867.857</ele>
        <time>2022-08-02T13:07:58Z</time>
      </trkpt>
      <trkpt lat="45.54704" lon="6.91867">
        <ele>1869.341</ele>
        <time>2022-08-02T13:08:08Z</time>
      </trkpt>
      <trkpt lat="45.54712" lon="6.9186">
        <ele>1869.996</ele>
        <time>2022-08-02T13:08:18Z</time>
      </trkpt>
      <trkpt lat="45.54719" lon="6.91854">
        <ele>1870.442</ele>
        <time>2022-08-02T13:08:27Z</time>
      </trkpt>
      <trkpt lat="45.54726" lon="6.91848">
        <ele>1871.363</ele>
        <time>2022-08-02T13:08:36Z</time>
      </trkpt>
      <trkpt lat="45.54734" lon="6.9184">
        <ele>1871.906</ele>
        <time>2022-08-02T13:08:46Z</time>
      </trkpt>
      <trkpt lat="45.54741" lon="6.91833">
        <ele>1872.378</ele>
        <time>2022-08-02T13:08:56Z</time>
      </trkpt>
      <trkpt lat="45.54748" lon="6.91826">
        <ele>1872.841</ele>
        <time>2022-08-02T13:09:05Z</time>
      </trkpt>
      <trkpt lat="45.54755" lon="6.91819">
        <ele>1874.692</ele>
        <time>2022-08-02T13:09:15Z</time>
      </trkpt>
      <trkpt lat="45.54762" lon="6.91812">
        <ele>1875.738</ele>
        <time>2022-08-02T13:09:25Z</time>
      </trkpt>
      <trkpt lat="45.54769" lon="6.91804">
        <ele>1876.523</ele>
        <time>2022-08-02T13:09:34Z</time>
      </trkpt>
      <trkpt lat="45.54776" lon="6.91796">
        <ele>1877.843</ele>
        <time>2022-08-02T13:09:44Z</time>
      </trkpt>
      <trkpt lat="45.54784" lon="6.91789">
        <ele>1878.177</ele>
        <time>2022-08-02T13:09:53Z</time>
      </trkpt>
      <trkpt lat="45.54791" lon="6.91782">
        <ele>1879.157</ele>
        <time>2022-08-02T13:10:02Z</time>
      </trkpt>
      <trkpt lat="45.54798" lon="6.91776">
        <ele>1879.45</ele>
        <time>2022-08-02T13:10:12Z</time>
      </trkpt>
      <trkpt lat="45.54805" lon="6.91768">
        <ele>1880.995</ele>
        <time>2022-08-02T13:10:22Z</time>
      </trkpt>
      <trkpt lat="45.54812" lon="6.91761">
        <ele>1881.25</ele>
        <time>2022-08-02T13:10:31Z</time>
      </trkpt>
      <trkpt lat="45.54819" lon="6.91754">
        <ele>1882.043</ele>
        <time>2022-08-02T13:10:40Z</time>
      </trkpt>
      <trkpt lat="45.54827" lon="6.91747">
        <ele>1883.781</ele>
        <time>2022-08-02T13:10:50Z</time>
      </trkpt>
      <trkpt lat="45.54833" lon="6.9174">
        <ele>1884.498</ele>
        <time>2022-08-02T13:11:00Z</time>
      </trkpt>
      <trkpt lat="45.54839" lon="6.91731">
        <ele>1885.826</ele>
        <time>2022-08-02T13:11:09Z</time>
      </trkpt>
      <trkpt lat="45.54843" lon="6.9172">
        <ele>1888.476</ele>
        <time>2022-08-02T13:11:19Z</time>
      </trkpt>
      <trkpt lat="45.54845" lon="6.91709">
        <ele>1891.492</ele>
        <time>2022-08-02T13:11:29Z</time>
      </trkpt>
      <trkpt lat="45.54845" lon="6.91697">
        <ele>1894</ele>
        <time>2022-08-02T13:11:39Z</time>
      </trkpt>
      <trkpt lat="45.54849" lon="6.91685">
        <ele>1894.576</ele>
        <time>2022-08-02T13:11:49Z</time>
      </trkpt>
      <trkpt lat="45.54853" lon="6.91675">
        <ele>1896.396</ele>
        <time>2022-08-02T13:11:58Z</time>
      </trkpt>
      <trkpt lat="45.54862" lon="6.9167">
        <ele>1894.541</ele>
        <time>2022-08-02T13:12:08Z</time>
      </trkpt>
      <trkpt lat="45.54872" lon="6.91669">
        <ele>1894.002</ele>
        <time>2022-08-02T13:12:18Z</time>
      </trkpt>
      <trkpt lat="45.54881" lon="6.91669">
        <ele>1894.355</ele>
        <time>2022-08-02T13:12:27Z</time>
      </trkpt>
      <trkpt lat="45.54889" lon="6.91666">
        <ele>1894.563</ele>
        <time>2022-08-02T13:12:36Z</time>
      </trkpt>
      <trkpt lat="45.54897" lon="6.9166">
        <ele>1894.521</ele>
        <time>2022-08-02T13:12:46Z</time>
      </trkpt>
      <trkpt lat="45.54904" lon="6.91651">
        <ele>1895.487</ele>
        <time>2022-08-02T13:12:56Z</time>
      </trkpt>
      <trkpt lat="45.54913" lon="6.91644">
        <ele>1896.562</ele>
        <time>2022-08-02T13:13:06Z</time>
      </trkpt>
      <trkpt lat="45.54921" lon="6.91638">
        <ele>1897.113</ele>
        <time>2022-08-02T13:13:16Z</time>
      </trkpt>
      <trkpt lat="45.54929" lon="6.91635">
        <ele>1897.354</ele>
        <time>2022-08-02T13:13:26Z</time>
      </trkpt>
      <trkpt lat="45.54939" lon="6.91631">
        <ele>1897.698</ele>
        <time>2022-08-02T13:13:36Z</time>
      </trkpt>
      <trkpt lat="45.54948" lon="6.91628">
        <ele>1897.67</ele>
        <time>2022-08-02T13:13:45Z</time>
      </trkpt>
      <trkpt lat="45.54957" lon="6.91626">
        <ele>1898.856</ele>
        <time>2022-08-02T13:13:55Z</time>
      </trkpt>
      <trkpt lat="45.54968" lon="6.91625">
        <ele>1899.924</ele>
        <time>2022-08-02T13:14:05Z</time>
      </trkpt>
      <trkpt lat="45.54977" lon="6.91631">
        <ele>1899.685</ele>
        <time>2022-08-02T13:14:14Z</time>
      </trkpt>
      <trkpt lat="45.54983" lon="6.91644">
        <ele>1900.833</ele>
        <time>2022-08-02T13:14:24Z</time>
      </trkpt>
      <trkpt lat="45.54981" lon="6.91658">
        <ele>1901.265</ele>
        <time>2022-08-02T13:14:34Z</time>
      </trkpt>
      <trkpt lat="45.54976" lon="6.91672">
        <ele>1901.265</ele>
        <time>2022-08-02T13:14:44Z</time>
      </trkpt>
      <trkpt lat="45.5497" lon="6.91681">
        <ele>1901.355</ele>
        <time>2022-08-02T13:14:53Z</time>
      </trkpt>
      <trkpt lat="45.54963" lon="6.9169">
        <ele>1901.99</ele>
        <time>2022-08-02T13:15:03Z</time>
      </trkpt>
      <trkpt lat="45.54955" lon="6.91698">
        <ele>1902.614</ele>
        <time>2022-08-02T13:15:13Z</time>
      </trkpt>
      <trkpt lat="45.54948" lon="6.91707">
        <ele>1903.082</ele>
        <time>2022-08-02T13:15:23Z</time>
      </trkpt>
      <trkpt lat="45.54941" lon="6.91715">
        <ele>1903.482</ele>
        <time>2022-08-02T13:15:33Z</time>
      </trkpt>
      <trkpt lat="45.54934" lon="6.91722">
        <ele>1904.337</ele>
        <time>2022-08-02T13:15:42Z</time>
      </trkpt>
      <trkpt lat="45.54925" lon="6.9173">
        <ele>1905.186</ele>
        <time>2022-08-02T13:15:52Z</time>
      </trkpt>
      <trkpt lat="45.54916" lon="6.91736">
        <ele>1905.965</ele>
        <time>2022-08-02T13:16:02Z</time>
      </trkpt>
      <trkpt lat="45.54915" lon="6.91739">
        <ele>1907.166</ele>
        <time>2022-08-02T13:16:12Z</time>
      </trkpt>
      <trkpt lat="45.54916" lon="6.91739">
        <ele>1907.131</ele>
        <time>2022-08-02T13:16:21Z</time>
      </trkpt>
      <trkpt lat="45.54915" lon="6.9174">
        <ele>1905.952</ele>
        <time>2022-08-02T13:16:30Z</time>
      </trkpt>
      <trkpt lat="45.54915" lon="6.91748">
        <ele>1906.712</ele>
        <time>2022-08-02T13:16:40Z</time>
      </trkpt>
      <trkpt lat="45.54915" lon="6.9175">
        <ele>1908.997</ele>
        <time>2022-08-02T13:16:50Z</time>
      </trkpt>
      <trkpt lat="45.54912" lon="6.91749">
        <ele>1909.156</ele>
        <time>2022-08-02T13:17:00Z</time>
      </trkpt>
      <trkpt lat="45.54913" lon="6.9175">
        <ele>1908.424</ele>
        <time>2022-08-02T13:17:10Z</time>
      </trkpt>
      <trkpt lat="45.54913" lon="6.91748">
        <ele>1908.655</ele>
        <time>2022-08-02T13:17:19Z</time>
      </trkpt>
      <trkpt lat="45.54914" lon="6.9175">
        <ele>1908.377</ele>
        <time>2022-08-02T13:17:28Z</time>
      </trkpt>
      <trkpt lat="45.54917" lon="6.91762">
        <ele>1906.641</ele>
        <time>2022-08-02T13:17:37Z</time>
      </trkpt>
      <trkpt lat="45.5492" lon="6.91774">
        <ele>1906.844</ele>
        <time>2022-08-02T13:17:47Z</time>
      </trkpt>
      <trkpt lat="45.54921" lon="6.91779">
        <ele>1906.674</ele>
        <time>2022-08-02T13:17:57Z</time>
      </trkpt>
      <trkpt lat="45.5492" lon="6.91779">
        <ele>1904.914</ele>
        <time>2022-08-02T13:18:06Z</time>
      </trkpt>
      <trkpt lat="45.54922" lon="6.91783">
        <ele>1903.937</ele>
        <time>2022-08-02T13:18:15Z</time>
      </trkpt>
      <trkpt lat="45.54926" lon="6.91796">
        <ele>1905.668</ele>
        <time>2022-08-02T13:18:25Z</time>
      </trkpt>
      <trkpt lat="45.54929" lon="6.91809">
        <ele>1907.519</ele>
        <time>2022-08-02T13:18:35Z</time>
      </trkpt>
      <trkpt lat="45.5493" lon="6.91818">
        <ele>1908.444</ele>
        <time>2022-08-02T13:18:44Z</time>
      </trkpt>
      <trkpt lat="45.54932" lon="6.91828">
        <ele>1910.271</ele>
        <time>2022-08-02T13:18:53Z</time>
      </trkpt>
      <trkpt lat="45.54935" lon="6.91836">
        <ele>1911.556</ele>
        <time>2022-08-02T13:19:03Z</time>
      </trkpt>
      <trkpt lat="45.54938" lon="6.91846">
        <ele>1913.033</ele>
        <time>2022-08-02T13:19:12Z</time>
      </trkpt>
      <trkpt lat="45.54942" lon="6.91856">
        <ele>1912.455</ele>
        <time>2022-08-02T13:19:22Z</time>
      </trkpt>
      <trkpt lat="45.54945" lon="6.91862">
        <ele>1913.91</ele>
        <time>2022-08-02T13:19:32Z</time>
      </trkpt>
      <trkpt lat="45.5495" lon="6.9187">
        <ele>1915.031</ele>
        <time>2022-08-02T13:19:42Z</time>
      </trkpt>
      <trkpt lat="45.54954" lon="6.91878">
        <ele>1915.425</ele>
        <time>2022-08-02T13:19:51Z</time>
      </trkpt>
      <trkpt lat="45.5496" lon="6.91888">
        <ele>1917.1</ele>
        <time>2022-08-02T13:20:01Z</time>
      </trkpt>
      <trkpt lat="45.54966" lon="6.91897">
        <ele>1917.184</ele>
        <time>2022-08-02T13:20:11Z</time>
      </trkpt>
      <trkpt lat="45.54973" lon="6.91904">
        <ele>1918.746</ele>
        <time>2022-08-02T13:20:20Z</time>
      </trkpt>
      <trkpt lat="45.5498" lon="6.9191">
        <ele>1920.009</ele>
        <time>2022-08-02T13:20:29Z</time>
      </trkpt>
      <trkpt lat="45.54985" lon="6.91916">
        <ele>1920.706</ele>
        <time>2022-08-02T13:20:38Z</time>
      </trkpt>
      <trkpt lat="45.54991" lon="6.91924">
        <ele>1921.411</ele>
        <time>2022-08-02T13:20:48Z</time>
      </trkpt>
      <trkpt lat="45.54998" lon="6.91935">
        <ele>1921.948</ele>
        <time>2022-08-02T13:20:58Z</time>
      </trkpt>
      <trkpt lat="45.55004" lon="6.91948">
        <ele>1922.459</ele>
        <time>2022-08-02T13:21:08Z</time>
      </trkpt>
      <trkpt lat="45.55009" lon="6.91959">
        <ele>1922.018</ele>
        <time>2022-08-02T13:21:17Z</time>
      </trkpt>
      <trkpt lat="45.55012" lon="6.91972">
        <ele>1919.044</ele>
        <time>2022-08-02T13:21:27Z</time>
      </trkpt>
      <trkpt lat="45.5502" lon="6.91982">
        <ele>1922.454</ele>
        <time>2022-08-02T13:21:37Z</time>
      </trkpt>
      <trkpt lat="45.55029" lon="6.91991">
        <ele>1925.681</ele>
        <time>2022-08-02T13:21:47Z</time>
      </trkpt>
      <trkpt lat="45.55035" lon="6.92002">
        <ele>1925.425</ele>
        <time>2022-08-02T13:21:56Z</time>
      </trkpt>
      <trkpt lat="45.55042" lon="6.92013">
        <ele>1925.896</ele>
        <time>2022-08-02T13:22:06Z</time>
      </trkpt>
      <trkpt lat="45.5505" lon="6.92021">
        <ele>1927.335</ele>
        <time>2022-08-02T13:22:15Z</time>
      </trkpt>
      <trkpt lat="45.55057" lon="6.92031">
        <ele>1926.417</ele>
        <time>2022-08-02T13:22:25Z</time>
      </trkpt>
      <trkpt lat="45.55063" lon="6.92042">
        <ele>1926.772</ele>
        <time>2022-08-02T13:22:35Z</time>
      </trkpt>
      <trkpt lat="45.55069" lon="6.92054">
        <ele>1926.302</ele>
        <time>2022-08-02T13:22:45Z</time>
      </trkpt>
      <trkpt lat="45.55074" lon="6.92063">
        <ele>1927.173</ele>
        <time>2022-08-02T13:22:54Z</time>
      </trkpt>
      <trkpt lat="45.5508" lon="6.92074">
        <ele>1927.996</ele>
        <time>2022-08-02T13:23:04Z</time>
      </trkpt>
      <trkpt lat="45.55084" lon="6.92084">
        <ele>1928.669</ele>
        <time>2022-08-02T13:23:13Z</time>
      </trkpt>
      <trkpt lat="45.55087" lon="6.92095">
        <ele>1929.862</ele>
        <time>2022-08-02T13:23:22Z</time>
      </trkpt>
      <trkpt lat="45.55091" lon="6.92107">
        <ele>1930.956</ele>
        <time>2022-08-02T13:23:32Z</time>
      </trkpt>
      <trkpt lat="45.55094" lon="6.92121">
        <ele>1933.019</ele>
        <time>2022-08-02T13:23:42Z</time>
      </trkpt>
      <trkpt lat="45.55096" lon="6.92132">
        <ele>1933.485</ele>
        <time>2022-08-02T13:23:51Z</time>
      </trkpt>
      <trkpt lat="45.55098" lon="6.92146">
        <ele>1933.11</ele>
        <time>2022-08-02T13:24:01Z</time>
      </trkpt>
      <trkpt lat="45.55102" lon="6.92158">
        <ele>1933.277</ele>
        <time>2022-08-02T13:24:10Z</time>
      </trkpt>
      <trkpt lat="45.55107" lon="6.92169">
        <ele>1935.385</ele>
        <time>2022-08-02T13:24:19Z</time>
      </trkpt>
      <trkpt lat="45.55115" lon="6.92181">
        <ele>1934.756</ele>
        <time>2022-08-02T13:24:29Z</time>
      </trkpt>
      <trkpt lat="45.55121" lon="6.92193">
        <ele>1935.83</ele>
        <time>2022-08-02T13:24:39Z</time>
      </trkpt>
      <trkpt lat="45.55123" lon="6.92203">
        <ele>1937.479</ele>
        <time>2022-08-02T13:24:48Z</time>
      </trkpt>
      <trkpt lat="45.55124" lon="6.92212">
        <ele>1938.455</ele>
        <time>2022-08-02T13:24:58Z</time>
      </trkpt>
      <trkpt lat="45.55127" lon="6.92221">
        <ele>1940.467</ele>
        <time>2022-08-02T13:25:08Z</time>
      </trkpt>
      <trkpt lat="45.55133" lon="6.92226">
        <ele>1940.73</ele>
        <time>2022-08-02T13:25:18Z</time>
      </trkpt>
      <trkpt lat="45.5514" lon="6.92227">
        <ele>1942.913</ele>
        <time>2022-08-02T13:25:28Z</time>
      </trkpt>
      <trkpt lat="45.55147" lon="6.92227">
        <ele>1943.309</ele>
        <time>2022-08-02T13:25:37Z</time>
      </trkpt>
      <trkpt lat="45.55153" lon="6.9223">
        <ele>1942.688</ele>
        <time>2022-08-02T13:25:46Z</time>
      </trkpt>
      <trkpt lat="45.55158" lon="6.92236">
        <ele>1942.115</ele>
        <time>2022-08-02T13:25:56Z</time>
      </trkpt>
      <trkpt lat="45.55158" lon="6.92237">
        <ele>1942.548</ele>
        <time>2022-08-02T13:26:06Z</time>
      </trkpt>
      <trkpt lat="45.55158" lon="6.92236">
        <ele>1939.228</ele>
        <time>2022-08-02T13:26:15Z</time>
      </trkpt>
      <trkpt lat="45.55158" lon="6.92235">
        <ele>1939.174</ele>
        <time>2022-08-02T13:26:25Z</time>
      </trkpt>
      <trkpt lat="45.55156" lon="6.92237">
        <ele>1937.941</ele>
        <time>2022-08-02T13:26:35Z</time>
      </trkpt>
      <trkpt lat="45.55158" lon="6.92242">
        <ele>1940.193</ele>
        <time>2022-08-02T13:26:45Z</time>
      </trkpt>
      <trkpt lat="45.55155" lon="6.92254">
        <ele>1941.091</ele>
        <time>2022-08-02T13:26:55Z</time>
      </trkpt>
      <trkpt lat="45.55149" lon="6.92259">
        <ele>1943.743</ele>
        <time>2022-08-02T13:27:04Z</time>
      </trkpt>
      <trkpt lat="45.55139" lon="6.92258">
        <ele>1946.589</ele>
        <time>2022-08-02T13:27:14Z</time>
      </trkpt>
      <trkpt lat="45.5513" lon="6.92258">
        <ele>1948.712</ele>
        <time>2022-08-02T13:27:24Z</time>
      </trkpt>
      <trkpt lat="45.55124" lon="6.92259">
        <ele>1951.443</ele>
        <time>2022-08-02T13:27:33Z</time>
      </trkpt>
      <trkpt lat="45.55118" lon="6.92261">
        <ele>1952.059</ele>
        <time>2022-08-02T13:27:42Z</time>
      </trkpt>
      <trkpt lat="45.55111" lon="6.92266">
        <ele>1953.333</ele>
        <time>2022-08-02T13:27:52Z</time>
      </trkpt>
      <trkpt lat="45.55105" lon="6.9227">
        <ele>1954.955</ele>
        <time>2022-08-02T13:28:02Z</time>
      </trkpt>
      <trkpt lat="45.55097" lon="6.92275">
        <ele>1956.651</ele>
        <time>2022-08-02T13:28:12Z</time>
      </trkpt>
      <trkpt lat="45.5509" lon="6.92279">
        <ele>1955.801</ele>
        <time>2022-08-02T13:28:21Z</time>
      </trkpt>
      <trkpt lat="45.55083" lon="6.9228">
        <ele>1957.612</ele>
        <time>2022-08-02T13:28:31Z</time>
      </trkpt>
      <trkpt lat="45.55077" lon="6.92278">
        <ele>1960.12</ele>
        <time>2022-08-02T13:28:41Z</time>
      </trkpt>
      <trkpt lat="45.5507" lon="6.92275">
        <ele>1961.397</ele>
        <time>2022-08-02T13:28:51Z</time>
      </trkpt>
      <trkpt lat="45.55066" lon="6.92272">
        <ele>1963.407</ele>
        <time>2022-08-02T13:29:01Z</time>
      </trkpt>
      <trkpt lat="45.55065" lon="6.92269">
        <ele>1963.987</ele>
        <time>2022-08-02T13:29:10Z</time>
      </trkpt>
      <trkpt lat="45.55061" lon="6.92263">
        <ele>1964.719</ele>
        <time>2022-08-02T13:29:20Z</time>
      </trkpt>
      <trkpt lat="45.55056" lon="6.92258">
        <ele>1964.084</ele>
        <time>2022-08-02T13:29:29Z</time>
      </trkpt>
      <trkpt lat="45.5505" lon="6.92254">
        <ele>1966.738</ele>
        <time>2022-08-02T13:29:38Z</time>
      </trkpt>
      <trkpt lat="45.55044" lon="6.92248">
        <ele>1966.615</ele>
        <time>2022-08-02T13:29:48Z</time>
      </trkpt>
      <trkpt lat="45.5504" lon="6.92244">
        <ele>1967.872</ele>
        <time>2022-08-02T13:29:58Z</time>
      </trkpt>
      <trkpt lat="45.55036" lon="6.92238">
        <ele>1971.575</ele>
        <time>2022-08-02T13:30:07Z</time>
      </trkpt>
      <trkpt lat="45.5503" lon="6.92234">
        <ele>1974.081</ele>
        <time>2022-08-02T13:30:16Z</time>
      </trkpt>
      <trkpt lat="45.55024" lon="6.92228">
        <ele>1974.81</ele>
        <time>2022-08-02T13:30:25Z</time>
      </trkpt>
      <trkpt lat="45.55019" lon="6.9222">
        <ele>1976.702</ele>
        <time>2022-08-02T13:30:35Z</time>
      </trkpt>
      <trkpt lat="45.55013" lon="6.92217">
        <ele>1977.215</ele>
        <time>2022-08-02T13:30:44Z</time>
      </trkpt>
      <trkpt lat="45.55011" lon="6.92217">
        <ele>1974.257</ele>
        <time>2022-08-02T13:30:54Z</time>
      </trkpt>
      <trkpt lat="45.55012" lon="6.92216">
        <ele>1973.659</ele>
        <time>2022-08-02T13:31:03Z</time>
      </trkpt>
      <trkpt lat="45.55012" lon="6.92216">
        <ele>1974.525</ele>
        <time>2022-08-02T13:31:13Z</time>
      </trkpt>
      <trkpt lat="45.55017" lon="6.92225">
        <ele>1975.714</ele>
        <time>2022-08-02T13:31:22Z</time>
      </trkpt>
      <trkpt lat="45.55023" lon="6.92233">
        <ele>1975.766</ele>
        <time>2022-08-02T13:31:31Z</time>
      </trkpt>
      <trkpt lat="45.55028" lon="6.9224">
        <ele>1974.905</ele>
        <time>2022-08-02T13:31:41Z</time>
      </trkpt>
      <trkpt lat="45.55032" lon="6.92248">
        <ele>1976.081</ele>
        <time>2022-08-02T13:31:51Z</time>
      </trkpt>
      <trkpt lat="45.55037" lon="6.92258">
        <ele>1978.909</ele>
        <time>2022-08-02T13:32:01Z</time>
      </trkpt>
      <trkpt lat="45.5504" lon="6.92269">
        <ele>1979.806</ele>
        <time>2022-08-02T13:32:11Z</time>
      </trkpt>
      <trkpt lat="45.55042" lon="6.92283">
        <ele>1979.759</ele>
        <time>2022-08-02T13:32:21Z</time>
      </trkpt>
      <trkpt lat="45.55042" lon="6.92297">
        <ele>1979.448</ele>
        <time>2022-08-02T13:32:31Z</time>
      </trkpt>
      <trkpt lat="45.55043" lon="6.92311">
        <ele>1979.922</ele>
        <time>2022-08-02T13:32:41Z</time>
      </trkpt>
      <trkpt lat="45.55043" lon="6.92313">
        <ele>1979.55</ele>
        <time>2022-08-02T13:32:50Z</time>
      </trkpt>
      <trkpt lat="45.55043" lon="6.92318">
        <ele>1981.378</ele>
        <time>2022-08-02T13:32:59Z</time>
      </trkpt>
      <trkpt lat="45.55044" lon="6.92329">
        <ele>1982.557</ele>
        <time>2022-08-02T13:33:09Z</time>
      </trkpt>
      <trkpt lat="45.55047" lon="6.92339">
        <ele>1981.141</ele>
        <time>2022-08-02T13:33:19Z</time>
      </trkpt>
      <trkpt lat="45.55049" lon="6.92348">
        <ele>1982.016</ele>
        <time>2022-08-02T13:33:28Z</time>
      </trkpt>
      <trkpt lat="45.55053" lon="6.92355">
        <ele>1983.881</ele>
        <time>2022-08-02T13:33:38Z</time>
      </trkpt>
      <trkpt lat="45.55057" lon="6.92361">
        <ele>1985.498</ele>
        <time>2022-08-02T13:33:47Z</time>
      </trkpt>
      <trkpt lat="45.55061" lon="6.92368">
        <ele>1988.516</ele>
        <time>2022-08-02T13:33:57Z</time>
      </trkpt>
      <trkpt lat="45.55064" lon="6.92372">
        <ele>1990.546</ele>
        <time>2022-08-02T13:34:06Z</time>
      </trkpt>
      <trkpt lat="45.55068" lon="6.92379">
        <ele>1991.554</ele>
        <time>2022-08-02T13:34:15Z</time>
      </trkpt>
      <trkpt lat="45.55072" lon="6.92384">
        <ele>1993.266</ele>
        <time>2022-08-02T13:34:24Z</time>
      </trkpt>
      <trkpt lat="45.55076" lon="6.9239">
        <ele>1996.302</ele>
        <time>2022-08-02T13:34:33Z</time>
      </trkpt>
      <trkpt lat="45.5508" lon="6.92397">
        <ele>1996.825</ele>
        <time>2022-08-02T13:34:43Z</time>
      </trkpt>
      <trkpt lat="45.55084" lon="6.92401">
        <ele>1998.558</ele>
        <time>2022-08-02T13:34:53Z</time>
      </trkpt>
      <trkpt lat="45.55088" lon="6.92404">
        <ele>1998.31</ele>
        <time>2022-08-02T13:35:02Z</time>
      </trkpt>
      <trkpt lat="45.55093" lon="6.92408">
        <ele>2001.253</ele>
        <time>2022-08-02T13:35:12Z</time>
      </trkpt>
      <trkpt lat="45.55097" lon="6.92413">
        <ele>2001.12</ele>
        <time>2022-08-02T13:35:22Z</time>
      </trkpt>
      <trkpt lat="45.55099" lon="6.92416">
        <ele>2000.207</ele>
        <time>2022-08-02T13:35:31Z</time>
      </trkpt>
      <trkpt lat="45.55102" lon="6.92418">
        <ele>1999.087</ele>
        <time>2022-08-02T13:35:40Z</time>
      </trkpt>
      <trkpt lat="45.55105" lon="6.92421">
        <ele>2001.379</ele>
        <time>2022-08-02T13:35:50Z</time>
      </trkpt>
      <trkpt lat="45.55109" lon="6.92423">
        <ele>2003.054</ele>
        <time>2022-08-02T13:36:00Z</time>
      </trkpt>
      <trkpt lat="45.55114" lon="6.92429">
        <ele>2003.611</ele>
        <time>2022-08-02T13:36:10Z</time>
      </trkpt>
      <trkpt lat="45.55119" lon="6.92433">
        <ele>2004.267</ele>
        <time>2022-08-02T13:36:19Z</time>
      </trkpt>
      <trkpt lat="45.55125" lon="6.92438">
        <ele>2005.323</ele>
        <time>2022-08-02T13:36:29Z</time>
      </trkpt>
      <trkpt lat="45.55129" lon="6.92442">
        <ele>2005.322</ele>
        <time>2022-08-02T13:36:38Z</time>
      </trkpt>
      <trkpt lat="45.55133" lon="6.92448">
        <ele>2006.138</ele>
        <time>2022-08-02T13:36:48Z</time>
      </trkpt>
      <trkpt lat="45.55137" lon="6.92453">
        <ele>2007.121</ele>
        <time>2022-08-02T13:36:58Z</time>
      </trkpt>
      <trkpt lat="45.55142" lon="6.92458">
        <ele>2010.39</ele>
        <time>2022-08-02T13:37:07Z</time>
      </trkpt>
      <trkpt lat="45.55147" lon="6.92464">
        <ele>2012.62</ele>
        <time>2022-08-02T13:37:16Z</time>
      </trkpt>
      <trkpt lat="45.55151" lon="6.92471">
        <ele>2010.825</ele>
        <time>2022-08-02T13:37:25Z</time>
      </trkpt>
      <trkpt lat="45.55155" lon="6.92474">
        <ele>2010.881</ele>
        <time>2022-08-02T13:37:35Z</time>
      </trkpt>
      <trkpt lat="45.55158" lon="6.9248">
        <ele>2011.093</ele>
        <time>2022-08-02T13:37:44Z</time>
      </trkpt>
      <trkpt lat="45.5516" lon="6.92486">
        <ele>2013.655</ele>
        <time>2022-08-02T13:37:54Z</time>
      </trkpt>
      <trkpt lat="45.55164" lon="6.92493">
        <ele>2014.267</ele>
        <time>2022-08-02T13:38:04Z</time>
      </trkpt>
      <trkpt lat="45.55167" lon="6.925">
        <ele>2016.61</ele>
        <time>2022-08-02T13:38:14Z</time>
      </trkpt>
      <trkpt lat="45.55171" lon="6.92508">
        <ele>2018.561</ele>
        <time>2022-08-02T13:38:23Z</time>
      </trkpt>
      <trkpt lat="45.55175" lon="6.92513">
        <ele>2018.988</ele>
        <time>2022-08-02T13:38:33Z</time>
      </trkpt>
      <trkpt lat="45.55178" lon="6.92521">
        <ele>2020.479</ele>
        <time>2022-08-02T13:38:42Z</time>
      </trkpt>
      <trkpt lat="45.55178" lon="6.92529">
        <ele>2021.965</ele>
        <time>2022-08-02T13:38:52Z</time>
      </trkpt>
      <trkpt lat="45.55181" lon="6.92537">
        <ele>2024.081</ele>
        <time>2022-08-02T13:39:02Z</time>
      </trkpt>
      <trkpt lat="45.55186" lon="6.92545">
        <ele>2024.954</ele>
        <time>2022-08-02T13:39:11Z</time>
      </trkpt>
      <trkpt lat="45.5519" lon="6.92552">
        <ele>2025.411</ele>
        <time>2022-08-02T13:39:20Z</time>
      </trkpt>
      <trkpt lat="45.55195" lon="6.92561">
        <ele>2028.337</ele>
        <time>2022-08-02T13:39:29Z</time>
      </trkpt>
      <trkpt lat="45.55198" lon="6.92569">
        <ele>2030.232</ele>
        <time>2022-08-02T13:39:39Z</time>
      </trkpt>
      <trkpt lat="45.55202" lon="6.92575">
        <ele>2031.242</ele>
        <time>2022-08-02T13:39:48Z</time>
      </trkpt>
      <trkpt lat="45.55204" lon="6.92583">
        <ele>2031.433</ele>
        <time>2022-08-02T13:39:57Z</time>
      </trkpt>
      <trkpt lat="45.55206" lon="6.92591">
        <ele>2034.624</ele>
        <time>2022-08-02T13:40:07Z</time>
      </trkpt>
      <trkpt lat="45.55208" lon="6.92598">
        <ele>2036.729</ele>
        <time>2022-08-02T13:40:16Z</time>
      </trkpt>
      <trkpt lat="45.55211" lon="6.92609">
        <ele>2036.488</ele>
        <time>2022-08-02T13:40:26Z</time>
      </trkpt>
      <trkpt lat="45.55213" lon="6.92619">
        <ele>2036.861</ele>
        <time>2022-08-02T13:40:36Z</time>
      </trkpt>
      <trkpt lat="45.55216" lon="6.92628">
        <ele>2036.878</ele>
        <time>2022-08-02T13:40:45Z</time>
      </trkpt>
      <trkpt lat="45.55219" lon="6.92635">
        <ele>2039.515</ele>
        <time>2022-08-02T13:40:54Z</time>
      </trkpt>
      <trkpt lat="45.55224" lon="6.92643">
        <ele>2041.117</ele>
        <time>2022-08-02T13:41:04Z</time>
      </trkpt>
      <trkpt lat="45.55227" lon="6.92649">
        <ele>2043.118</ele>
        <time>2022-08-02T13:41:13Z</time>
      </trkpt>
      <trkpt lat="45.55229" lon="6.92655">
        <ele>2042.981</ele>
        <time>2022-08-02T13:41:22Z</time>
      </trkpt>
      <trkpt lat="45.55234" lon="6.92662">
        <ele>2043.556</ele>
        <time>2022-08-02T13:41:32Z</time>
      </trkpt>
      <trkpt lat="45.55237" lon="6.92665">
        <ele>2044.708</ele>
        <time>2022-08-02T13:41:42Z</time>
      </trkpt>
      <trkpt lat="45.55239" lon="6.92672">
        <ele>2044.647</ele>
        <time>2022-08-02T13:41:51Z</time>
      </trkpt>
      <trkpt lat="45.55242" lon="6.92678">
        <ele>2047.569</ele>
        <time>2022-08-02T13:42:01Z</time>
      </trkpt>
      <trkpt lat="45.55244" lon="6.92684">
        <ele>2050.517</ele>
        <time>2022-08-02T13:42:11Z</time>
      </trkpt>
      <trkpt lat="45.55246" lon="6.9269">
        <ele>2051.358</ele>
        <time>2022-08-02T13:42:21Z</time>
      </trkpt>
      <trkpt lat="45.5525" lon="6.92696">
        <ele>2052.719</ele>
        <time>2022-08-02T13:42:30Z</time>
      </trkpt>
      <trkpt lat="45.55255" lon="6.92701">
        <ele>2054.094</ele>
        <time>2022-08-02T13:42:39Z</time>
      </trkpt>
      <trkpt lat="45.5526" lon="6.92705">
        <ele>2056.432</ele>
        <time>2022-08-02T13:42:49Z</time>
      </trkpt>
      <trkpt lat="45.55265" lon="6.92713">
        <ele>2056.239</ele>
        <time>2022-08-02T13:42:59Z</time>
      </trkpt>
      <trkpt lat="45.55271" lon="6.92721">
        <ele>2055.882</ele>
        <time>2022-08-02T13:43:08Z</time>
      </trkpt>
      <trkpt lat="45.55275" lon="6.92728">
        <ele>2056.189</ele>
        <time>2022-08-02T13:43:18Z</time>
      </trkpt>
      <trkpt lat="45.55279" lon="6.92734">
        <ele>2056.131</ele>
        <time>2022-08-02T13:43:28Z</time>
      </trkpt>
      <trkpt lat="45.5528" lon="6.92739">
        <ele>2054.552</ele>
        <time>2022-08-02T13:43:38Z</time>
      </trkpt>
      <trkpt lat="45.5528" lon="6.9274">
        <ele>2054.407</ele>
        <time>2022-08-02T13:43:47Z</time>
      </trkpt>
      <trkpt lat="45.5528" lon="6.9274">
        <ele>2054.394</ele>
        <time>2022-08-02T13:43:57Z</time>
      </trkpt>
      <trkpt lat="45.55283" lon="6.92741">
        <ele>2056.446</ele>
        <time>2022-08-02T13:44:07Z</time>
      </trkpt>
      <trkpt lat="45.55286" lon="6.92745">
        <ele>2057.949</ele>
        <time>2022-08-02T13:44:17Z</time>
      </trkpt>
      <trkpt lat="45.55289" lon="6.92748">
        <ele>2058.322</ele>
        <time>2022-08-02T13:44:26Z</time>
      </trkpt>
      <trkpt lat="45.55294" lon="6.92753">
        <ele>2059.77</ele>
        <time>2022-08-02T13:44:36Z</time>
      </trkpt>
      <trkpt lat="45.55296" lon="6.92757">
        <ele>2060.95</ele>
        <time>2022-08-02T13:44:46Z</time>
      </trkpt>
      <trkpt lat="45.55299" lon="6.92761">
        <ele>2061.786</ele>
        <time>2022-08-02T13:44:55Z</time>
      </trkpt>
      <trkpt lat="45.55301" lon="6.92768">
        <ele>2063.983</ele>
        <time>2022-08-02T13:45:05Z</time>
      </trkpt>
      <trkpt lat="45.55307" lon="6.92775">
        <ele>2066.048</ele>
        <time>2022-08-02T13:45:15Z</time>
      </trkpt>
      <trkpt lat="45.55308" lon="6.92782">
        <ele>2066.26</ele>
        <time>2022-08-02T13:45:25Z</time>
      </trkpt>
      <trkpt lat="45.5531" lon="6.92789">
        <ele>2068.788</ele>
        <time>2022-08-02T13:45:35Z</time>
      </trkpt>
      <trkpt lat="45.55311" lon="6.92797">
        <ele>2070.111</ele>
        <time>2022-08-02T13:45:45Z</time>
      </trkpt>
      <trkpt lat="45.55311" lon="6.92804">
        <ele>2068.551</ele>
        <time>2022-08-02T13:45:54Z</time>
      </trkpt>
      <trkpt lat="45.55311" lon="6.92814">
        <ele>2068.454</ele>
        <time>2022-08-02T13:46:04Z</time>
      </trkpt>
      <trkpt lat="45.55312" lon="6.92822">
        <ele>2071.335</ele>
        <time>2022-08-02T13:46:13Z</time>
      </trkpt>
      <trkpt lat="45.55313" lon="6.92832">
        <ele>2074.105</ele>
        <time>2022-08-02T13:46:23Z</time>
      </trkpt>
      <trkpt lat="45.55313" lon="6.92841">
        <ele>2075.007</ele>
        <time>2022-08-02T13:46:33Z</time>
      </trkpt>
      <trkpt lat="45.55314" lon="6.92854">
        <ele>2076.181</ele>
        <time>2022-08-02T13:46:43Z</time>
      </trkpt>
      <trkpt lat="45.55317" lon="6.92865">
        <ele>2077.139</ele>
        <time>2022-08-02T13:46:53Z</time>
      </trkpt>
      <trkpt lat="45.55322" lon="6.9287">
        <ele>2077.588</ele>
        <time>2022-08-02T13:47:02Z</time>
      </trkpt>
      <trkpt lat="45.55327" lon="6.92878">
        <ele>2079.505</ele>
        <time>2022-08-02T13:47:12Z</time>
      </trkpt>
      <trkpt lat="45.5533" lon="6.92886">
        <ele>2080.795</ele>
        <time>2022-08-02T13:47:22Z</time>
      </trkpt>
      <trkpt lat="45.55332" lon="6.9289">
        <ele>2080.603</ele>
        <time>2022-08-02T13:47:31Z</time>
      </trkpt>
      <trkpt lat="45.55336" lon="6.92896">
        <ele>2079.62</ele>
        <time>2022-08-02T13:47:41Z</time>
      </trkpt>
      <trkpt lat="45.55339" lon="6.92909">
        <ele>2080.878</ele>
        <time>2022-08-02T13:47:51Z</time>
      </trkpt>
      <trkpt lat="45.55339" lon="6.92922">
        <ele>2081.834</ele>
        <time>2022-08-02T13:48:00Z</time>
      </trkpt>
      <trkpt lat="45.55342" lon="6.92934">
        <ele>2082.983</ele>
        <time>2022-08-02T13:48:10Z</time>
      </trkpt>
      <trkpt lat="45.55343" lon="6.92946">
        <ele>2082.855</ele>
        <time>2022-08-02T13:48:20Z</time>
      </trkpt>
      <trkpt lat="45.55344" lon="6.92955">
        <ele>2084.248</ele>
        <time>2022-08-02T13:48:29Z</time>
      </trkpt>
      <trkpt lat="45.55342" lon="6.92967">
        <ele>2085.114</ele>
        <time>2022-08-02T13:48:39Z</time>
      </trkpt>
      <trkpt lat="45.55344" lon="6.92975">
        <ele>2087.201</ele>
        <time>2022-08-02T13:48:49Z</time>
      </trkpt>
      <trkpt lat="45.55344" lon="6.92975">
        <ele>2086.792</ele>
        <time>2022-08-02T13:48:58Z</time>
      </trkpt>
      <trkpt lat="45.55345" lon="6.92978">
        <ele>2089.077</ele>
        <time>2022-08-02T13:49:08Z</time>
      </trkpt>
      <trkpt lat="45.55345" lon="6.92981">
        <ele>2088.179</ele>
        <time>2022-08-02T13:49:17Z</time>
      </trkpt>
      <trkpt lat="45.55345" lon="6.92985">
        <ele>2090.39</ele>
        <time>2022-08-02T13:49:26Z</time>
      </trkpt>
      <trkpt lat="45.55345" lon="6.92993">
        <ele>2090.183</ele>
        <time>2022-08-02T13:49:35Z</time>
      </trkpt>
      <trkpt lat="45.55345" lon="6.93003">
        <ele>2091.372</ele>
        <time>2022-08-02T13:49:45Z</time>
      </trkpt>
      <trkpt lat="45.55347" lon="6.93013">
        <ele>2092.185</ele>
        <time>2022-08-02T13:49:55Z</time>
      </trkpt>
      <trkpt lat="45.5535" lon="6.93023">
        <ele>2094.435</ele>
        <time>2022-08-02T13:50:05Z</time>
      </trkpt>
      <trkpt lat="45.5535" lon="6.93032">
        <ele>2094.338</ele>
        <time>2022-08-02T13:50:14Z</time>
      </trkpt>
      <trkpt lat="45.55354" lon="6.9304">
        <ele>2096.061</ele>
        <time>2022-08-02T13:50:24Z</time>
      </trkpt>
      <trkpt lat="45.55357" lon="6.93047">
        <ele>2097.609</ele>
        <time>2022-08-02T13:50:34Z</time>
      </trkpt>
      <trkpt lat="45.55361" lon="6.93053">
        <ele>2099.292</ele>
        <time>2022-08-02T13:50:43Z</time>
      </trkpt>
      <trkpt lat="45.55366" lon="6.93057">
        <ele>2100.97</ele>
        <time>2022-08-02T13:50:53Z</time>
      </trkpt>
      <trkpt lat="45.55371" lon="6.93059">
        <ele>2102.448</ele>
        <time>2022-08-02T13:51:03Z</time>
      </trkpt>
      <trkpt lat="45.55374" lon="6.93061">
        <ele>2104.472</ele>
        <time>2022-08-02T13:51:12Z</time>
      </trkpt>
      <trkpt lat="45.55374" lon="6.93062">
        <ele>2103.625</ele>
        <time>2022-08-02T13:51:22Z</time>
      </trkpt>
      <trkpt lat="45.55375" lon="6.93063">
        <ele>2103.797</ele>
        <time>2022-08-02T13:51:31Z</time>
      </trkpt>
      <trkpt lat="45.55379" lon="6.93064">
        <ele>2104.626</ele>
        <time>2022-08-02T13:51:41Z</time>
      </trkpt>
      <trkpt lat="45.55384" lon="6.93066">
        <ele>2106.568</ele>
        <time>2022-08-02T13:51:51Z</time>
      </trkpt>
      <trkpt lat="45.55388" lon="6.93069">
        <ele>2106.942</ele>
        <time>2022-08-02T13:52:00Z</time>
      </trkpt>
      <trkpt lat="45.55393" lon="6.93073">
        <ele>2108.234</ele>
        <time>2022-08-02T13:52:09Z</time>
      </trkpt>
      <trkpt lat="45.55398" lon="6.93078">
        <ele>2110.223</ele>
        <time>2022-08-02T13:52:19Z</time>
      </trkpt>
      <trkpt lat="45.55403" lon="6.9308">
        <ele>2111.78</ele>
        <time>2022-08-02T13:52:28Z</time>
      </trkpt>
      <trkpt lat="45.55407" lon="6.93083">
        <ele>2111.226</ele>
        <time>2022-08-02T13:52:37Z</time>
      </trkpt>
      <trkpt lat="45.55411" lon="6.93087">
        <ele>2112.526</ele>
        <time>2022-08-02T13:52:47Z</time>
      </trkpt>
      <trkpt lat="45.55414" lon="6.93088">
        <ele>2114.577</ele>
        <time>2022-08-02T13:52:56Z</time>
      </trkpt>
      <trkpt lat="45.55418" lon="6.93092">
        <ele>2117.456</ele>
        <time>2022-08-02T13:53:06Z</time>
      </trkpt>
      <trkpt lat="45.55419" lon="6.93093">
        <ele>2116.612</ele>
        <time>2022-08-02T13:53:15Z</time>
      </trkpt>
      <trkpt lat="45.55421" lon="6.93092">
        <ele>2116.736</ele>
        <time>2022-08-02T13:53:24Z</time>
      </trkpt>
      <trkpt lat="45.55425" lon="6.93094">
        <ele>2118.461</ele>
        <time>2022-08-02T13:53:34Z</time>
      </trkpt>
      <trkpt lat="45.55429" lon="6.93095">
        <ele>2119.575</ele>
        <time>2022-08-02T13:53:43Z</time>
      </trkpt>
      <trkpt lat="45.55433" lon="6.93095">
        <ele>2120.431</ele>
        <time>2022-08-02T13:53:52Z</time>
      </trkpt>
      <trkpt lat="45.55438" lon="6.93094">
        <ele>2120.429</ele>
        <time>2022-08-02T13:54:02Z</time>
      </trkpt>
      <trkpt lat="45.55442" lon="6.93093">
        <ele>2122.066</ele>
        <time>2022-08-02T13:54:11Z</time>
      </trkpt>
      <trkpt lat="45.55447" lon="6.93091">
        <ele>2122.338</ele>
        <time>2022-08-02T13:54:20Z</time>
      </trkpt>
      <trkpt lat="45.55451" lon="6.9309">
        <ele>2125.167</ele>
        <time>2022-08-02T13:54:29Z</time>
      </trkpt>
      <trkpt lat="45.55457" lon="6.93091">
        <ele>2125.759</ele>
        <time>2022-08-02T13:54:39Z</time>
      </trkpt>
      <trkpt lat="45.55462" lon="6.93087">
        <ele>2127.604</ele>
        <time>2022-08-02T13:54:48Z</time>
      </trkpt>
      <trkpt lat="45.55467" lon="6.93086">
        <ele>2128.813</ele>
        <time>2022-08-02T13:54:57Z</time>
      </trkpt>
      <trkpt lat="45.55473" lon="6.93085">
        <ele>2129.954</ele>
        <time>2022-08-02T13:55:06Z</time>
      </trkpt>
      <trkpt lat="45.55479" lon="6.93084">
        <ele>2130.548</ele>
        <time>2022-08-02T13:55:16Z</time>
      </trkpt>
      <trkpt lat="45.55485" lon="6.93083">
        <ele>2130.758</ele>
        <time>2022-08-02T13:55:25Z</time>
      </trkpt>
      <trkpt lat="45.55491" lon="6.93079">
        <ele>2132.152</ele>
        <time>2022-08-02T13:55:35Z</time>
      </trkpt>
      <trkpt lat="45.55496" lon="6.93074">
        <ele>2133.659</ele>
        <time>2022-08-02T13:55:45Z</time>
      </trkpt>
      <trkpt lat="45.55502" lon="6.93073">
        <ele>2133.74</ele>
        <time>2022-08-02T13:55:55Z</time>
      </trkpt>
      <trkpt lat="45.55502" lon="6.93073">
        <ele>2133.859</ele>
        <time>2022-08-02T13:56:05Z</time>
      </trkpt>
      <trkpt lat="45.55505" lon="6.93077">
        <ele>2132.711</ele>
        <time>2022-08-02T13:56:14Z</time>
      </trkpt>
      <trkpt lat="45.55509" lon="6.93086">
        <ele>2133.442</ele>
        <time>2022-08-02T13:56:24Z</time>
      </trkpt>
      <trkpt lat="45.55513" lon="6.93096">
        <ele>2134.212</ele>
        <time>2022-08-02T13:56:34Z</time>
      </trkpt>
      <trkpt lat="45.55517" lon="6.93104">
        <ele>2135.545</ele>
        <time>2022-08-02T13:56:43Z</time>
      </trkpt>
      <trkpt lat="45.55521" lon="6.93112">
        <ele>2137.521</ele>
        <time>2022-08-02T13:56:52Z</time>
      </trkpt>
      <trkpt lat="45.55523" lon="6.93121">
        <ele>2138.447</ele>
        <time>2022-08-02T13:57:02Z</time>
      </trkpt>
      <trkpt lat="45.55525" lon="6.9313">
        <ele>2138.494</ele>
        <time>2022-08-02T13:57:11Z</time>
      </trkpt>
      <trkpt lat="45.55526" lon="6.93139">
        <ele>2139.69</ele>
        <time>2022-08-02T13:57:21Z</time>
      </trkpt>
      <trkpt lat="45.55526" lon="6.93147">
        <ele>2140.859</ele>
        <time>2022-08-02T13:57:30Z</time>
      </trkpt>
      <trkpt lat="45.55527" lon="6.93156">
        <ele>2142.508</ele>
        <time>2022-08-02T13:57:39Z</time>
      </trkpt>
      <trkpt lat="45.55529" lon="6.93165">
        <ele>2143.895</ele>
        <time>2022-08-02T13:57:49Z</time>
      </trkpt>
      <trkpt lat="45.5553" lon="6.93174">
        <ele>2145.058</ele>
        <time>2022-08-02T13:57:58Z</time>
      </trkpt>
      <trkpt lat="45.55532" lon="6.93184">
        <ele>2146.937</ele>
        <time>2022-08-02T13:58:08Z</time>
      </trkpt>
      <trkpt lat="45.55533" lon="6.93195">
        <ele>2146.571</ele>
        <time>2022-08-02T13:58:17Z</time>
      </trkpt>
      <trkpt lat="45.55537" lon="6.93207">
        <ele>2148.308</ele>
        <time>2022-08-02T13:58:27Z</time>
      </trkpt>
      <trkpt lat="45.55539" lon="6.93217">
        <ele>2149.964</ele>
        <time>2022-08-02T13:58:37Z</time>
      </trkpt>
      <trkpt lat="45.55542" lon="6.93229">
        <ele>2151.249</ele>
        <time>2022-08-02T13:58:47Z</time>
      </trkpt>
      <trkpt lat="45.55543" lon="6.93237">
        <ele>2151.985</ele>
        <time>2022-08-02T13:58:56Z</time>
      </trkpt>
      <trkpt lat="45.55544" lon="6.93249">
        <ele>2152.318</ele>
        <time>2022-08-02T13:59:05Z</time>
      </trkpt>
      <trkpt lat="45.55545" lon="6.93261">
        <ele>2152.43</ele>
        <time>2022-08-02T13:59:14Z</time>
      </trkpt>
      <trkpt lat="45.55546" lon="6.93273">
        <ele>2152.642</ele>
        <time>2022-08-02T13:59:23Z</time>
      </trkpt>
      <trkpt lat="45.55547" lon="6.93285">
        <ele>2154.778</ele>
        <time>2022-08-02T13:59:32Z</time>
      </trkpt>
      <trkpt lat="45.55547" lon="6.93296">
        <ele>2154.829</ele>
        <time>2022-08-02T13:59:41Z</time>
      </trkpt>
      <trkpt lat="45.55549" lon="6.93308">
        <ele>2155.345</ele>
        <time>2022-08-02T13:59:51Z</time>
      </trkpt>
      <trkpt lat="45.55552" lon="6.9332">
        <ele>2156.473</ele>
        <time>2022-08-02T14:00:01Z</time>
      </trkpt>
      <trkpt lat="45.55554" lon="6.93329">
        <ele>2156.879</ele>
        <time>2022-08-02T14:00:10Z</time>
      </trkpt>
      <trkpt lat="45.55556" lon="6.93334">
        <ele>2156.825</ele>
        <time>2022-08-02T14:00:19Z</time>
      </trkpt>
      <trkpt lat="45.55558" lon="6.93339">
        <ele>2156.564</ele>
        <time>2022-08-02T14:00:29Z</time>
      </trkpt>
      <trkpt lat="45.55563" lon="6.93349">
        <ele>2159.387</ele>
        <time>2022-08-02T14:00:39Z</time>
      </trkpt>
      <trkpt lat="45.55565" lon="6.93358">
        <ele>2160.04</ele>
        <time>2022-08-02T14:00:48Z</time>
      </trkpt>
      <trkpt lat="45.55567" lon="6.93365">
        <ele>2160.563</ele>
        <time>2022-08-02T14:00:57Z</time>
      </trkpt>
      <trkpt lat="45.55571" lon="6.93375">
        <ele>2162.195</ele>
        <time>2022-08-02T14:01:07Z</time>
      </trkpt>
      <trkpt lat="45.55572" lon="6.93385">
        <ele>2162.77</ele>
        <time>2022-08-02T14:01:16Z</time>
      </trkpt>
      <trkpt lat="45.55575" lon="6.93395">
        <ele>2164.373</ele>
        <time>2022-08-02T14:01:25Z</time>
      </trkpt>
      <trkpt lat="45.55576" lon="6.93406">
        <ele>2164.247</ele>
        <time>2022-08-02T14:01:35Z</time>
      </trkpt>
      <trkpt lat="45.55578" lon="6.93416">
        <ele>2166.419</ele>
        <time>2022-08-02T14:01:45Z</time>
      </trkpt>
      <trkpt lat="45.55581" lon="6.93426">
        <ele>2167.337</ele>
        <time>2022-08-02T14:01:55Z</time>
      </trkpt>
      <trkpt lat="45.55585" lon="6.93435">
        <ele>2168.62</ele>
        <time>2022-08-02T14:02:05Z</time>
      </trkpt>
      <trkpt lat="45.55589" lon="6.93445">
        <ele>2169.821</ele>
        <time>2022-08-02T14:02:15Z</time>
      </trkpt>
      <trkpt lat="45.55591" lon="6.93452">
        <ele>2170.286</ele>
        <time>2022-08-02T14:02:24Z</time>
      </trkpt>
      <trkpt lat="45.55592" lon="6.9346">
        <ele>2170.154</ele>
        <time>2022-08-02T14:02:33Z</time>
      </trkpt>
      <trkpt lat="45.55596" lon="6.93469">
        <ele>2170.946</ele>
        <time>2022-08-02T14:02:43Z</time>
      </trkpt>
      <trkpt lat="45.55601" lon="6.93476">
        <ele>2171.547</ele>
        <time>2022-08-02T14:02:53Z</time>
      </trkpt>
      <trkpt lat="45.5561" lon="6.93478">
        <ele>2173.951</ele>
        <time>2022-08-02T14:03:03Z</time>
      </trkpt>
      <trkpt lat="45.55618" lon="6.93481">
        <ele>2173.818</ele>
        <time>2022-08-02T14:03:12Z</time>
      </trkpt>
      <trkpt lat="45.55624" lon="6.93488">
        <ele>2175.95</ele>
        <time>2022-08-02T14:03:22Z</time>
      </trkpt>
      <trkpt lat="45.55631" lon="6.93494">
        <ele>2176.694</ele>
        <time>2022-08-02T14:03:32Z</time>
      </trkpt>
      <trkpt lat="45.55635" lon="6.93503">
        <ele>2177.231</ele>
        <time>2022-08-02T14:03:42Z</time>
      </trkpt>
      <trkpt lat="45.55637" lon="6.93511">
        <ele>2178.307</ele>
        <time>2022-08-02T14:03:51Z</time>
      </trkpt>
      <trkpt lat="45.55639" lon="6.93521">
        <ele>2179.731</ele>
        <time>2022-08-02T14:04:01Z</time>
      </trkpt>
      <trkpt lat="45.55641" lon="6.9353">
        <ele>2181.038</ele>
        <time>2022-08-02T14:04:11Z</time>
      </trkpt>
      <trkpt lat="45.55642" lon="6.93539">
        <ele>2183.015</ele>
        <time>2022-08-02T14:04:20Z</time>
      </trkpt>
      <trkpt lat="45.55643" lon="6.93548">
        <ele>2184.425</ele>
        <time>2022-08-02T14:04:30Z</time>
      </trkpt>
      <trkpt lat="45.55645" lon="6.93556">
        <ele>2185.348</ele>
        <time>2022-08-02T14:04:39Z</time>
      </trkpt>
      <trkpt lat="45.55645" lon="6.93566">
        <ele>2186.28</ele>
        <time>2022-08-02T14:04:49Z</time>
      </trkpt>
      <trkpt lat="45.55646" lon="6.93575">
        <ele>2187.196</ele>
        <time>2022-08-02T14:04:58Z</time>
      </trkpt>
      <trkpt lat="45.55645" lon="6.93583">
        <ele>2187.998</ele>
        <time>2022-08-02T14:05:07Z</time>
      </trkpt>
      <trkpt lat="45.55643" lon="6.93593">
        <ele>2188.993</ele>
        <time>2022-08-02T14:05:17Z</time>
      </trkpt>
      <trkpt lat="45.55637" lon="6.93603">
        <ele>2189.913</ele>
        <time>2022-08-02T14:05:27Z</time>
      </trkpt>
      <trkpt lat="45.55632" lon="6.93608">
        <ele>2189.844</ele>
        <time>2022-08-02T14:05:37Z</time>
      </trkpt>
      <trkpt lat="45.55626" lon="6.93611">
        <ele>2189.112</ele>
        <time>2022-08-02T14:05:47Z</time>
      </trkpt>
      <trkpt lat="45.55619" lon="6.93616">
        <ele>2189.745</ele>
        <time>2022-08-02T14:05:57Z</time>
      </trkpt>
      <trkpt lat="45.55613" lon="6.93619">
        <ele>2191.936</ele>
        <time>2022-08-02T14:06:06Z</time>
      </trkpt>
      <trkpt lat="45.55606" lon="6.93621">
        <ele>2192.714</ele>
        <time>2022-08-02T14:06:16Z</time>
      </trkpt>
      <trkpt lat="45.55601" lon="6.93623">
        <ele>2193.105</ele>
        <time>2022-08-02T14:06:25Z</time>
      </trkpt>
      <trkpt lat="45.55595" lon="6.93626">
        <ele>2194.227</ele>
        <time>2022-08-02T14:06:35Z</time>
      </trkpt>
      <trkpt lat="45.55593" lon="6.93632">
        <ele>2195.936</ele>
        <time>2022-08-02T14:06:45Z</time>
      </trkpt>
      <trkpt lat="45.55595" lon="6.93642">
        <ele>2197.475</ele>
        <time>2022-08-02T14:06:55Z</time>
      </trkpt>
      <trkpt lat="45.556" lon="6.93651">
        <ele>2199.896</ele>
        <time>2022-08-02T14:07:05Z</time>
      </trkpt>
      <trkpt lat="45.55604" lon="6.9366">
        <ele>2201.613</ele>
        <time>2022-08-02T14:07:15Z</time>
      </trkpt>
      <trkpt lat="45.55609" lon="6.93667">
        <ele>2202.538</ele>
        <time>2022-08-02T14:07:25Z</time>
      </trkpt>
      <trkpt lat="45.55613" lon="6.93675">
        <ele>2204.849</ele>
        <time>2022-08-02T14:07:35Z</time>
      </trkpt>
      <trkpt lat="45.55619" lon="6.9368">
        <ele>2207.768</ele>
        <time>2022-08-02T14:07:45Z</time>
      </trkpt>
      <trkpt lat="45.55624" lon="6.93684">
        <ele>2209.549</ele>
        <time>2022-08-02T14:07:55Z</time>
      </trkpt>
      <trkpt lat="45.5563" lon="6.93687">
        <ele>2211.099</ele>
        <time>2022-08-02T14:08:04Z</time>
      </trkpt>
      <trkpt lat="45.55636" lon="6.93688">
        <ele>2212.606</ele>
        <time>2022-08-02T14:08:13Z</time>
      </trkpt>
      <trkpt lat="45.55642" lon="6.93689">
        <ele>2213.274</ele>
        <time>2022-08-02T14:08:22Z</time>
      </trkpt>
      <trkpt lat="45.55647" lon="6.93691">
        <ele>2215.175</ele>
        <time>2022-08-02T14:08:31Z</time>
      </trkpt>
      <trkpt lat="45.55654" lon="6.93692">
        <ele>2216.479</ele>
        <time>2022-08-02T14:08:41Z</time>
      </trkpt>
      <trkpt lat="45.55659" lon="6.93692">
        <ele>2218.111</ele>
        <time>2022-08-02T14:08:51Z</time>
      </trkpt>
      <trkpt lat="45.55665" lon="6.9369">
        <ele>2218.96</ele>
        <time>2022-08-02T14:09:00Z</time>
      </trkpt>
      <trkpt lat="45.55671" lon="6.9369">
        <ele>2219.577</ele>
        <time>2022-08-02T14:09:10Z</time>
      </trkpt>
      <trkpt lat="45.55677" lon="6.93692">
        <ele>2220.852</ele>
        <time>2022-08-02T14:09:19Z</time>
      </trkpt>
      <trkpt lat="45.55682" lon="6.93694">
        <ele>2221.426</ele>
        <time>2022-08-02T14:09:29Z</time>
      </trkpt>
      <trkpt lat="45.55688" lon="6.93699">
        <ele>2220.853</ele>
        <time>2022-08-02T14:09:39Z</time>
      </trkpt>
      <trkpt lat="45.55694" lon="6.93703">
        <ele>2221.417</ele>
        <time>2022-08-02T14:09:49Z</time>
      </trkpt>
      <trkpt lat="45.55698" lon="6.93707">
        <ele>2222.157</ele>
        <time>2022-08-02T14:09:59Z</time>
      </trkpt>
      <trkpt lat="45.55703" lon="6.93712">
        <ele>2222.802</ele>
        <time>2022-08-02T14:10:08Z</time>
      </trkpt>
      <trkpt lat="45.55708" lon="6.93718">
        <ele>2223.73</ele>
        <time>2022-08-02T14:10:17Z</time>
      </trkpt>
      <trkpt lat="45.55715" lon="6.93723">
        <ele>2224.485</ele>
        <time>2022-08-02T14:10:27Z</time>
      </trkpt>
      <trkpt lat="45.5572" lon="6.93729">
        <ele>2225.566</ele>
        <time>2022-08-02T14:10:36Z</time>
      </trkpt>
      <trkpt lat="45.55725" lon="6.93734">
        <ele>2226.594</ele>
        <time>2022-08-02T14:10:45Z</time>
      </trkpt>
      <trkpt lat="45.5573" lon="6.93742">
        <ele>2226.201</ele>
        <time>2022-08-02T14:10:54Z</time>
      </trkpt>
      <trkpt lat="45.55729" lon="6.93743">
        <ele>2224.888</ele>
        <time>2022-08-02T14:11:04Z</time>
      </trkpt>
      <trkpt lat="45.55728" lon="6.93742">
        <ele>2223.668</ele>
        <time>2022-08-02T14:11:13Z</time>
      </trkpt>
      <trkpt lat="45.55728" lon="6.93742">
        <ele>2223.335</ele>
        <time>2022-08-02T14:11:22Z</time>
      </trkpt>
      <trkpt lat="45.55729" lon="6.93743">
        <ele>2224.445</ele>
        <time>2022-08-02T14:11:32Z</time>
      </trkpt>
      <trkpt lat="45.5573" lon="6.93743">
        <ele>2224.893</ele>
        <time>2022-08-02T14:11:41Z</time>
      </trkpt>
      <trkpt lat="45.5573" lon="6.93742">
        <ele>2226.143</ele>
        <time>2022-08-02T14:11:50Z</time>
      </trkpt>
      <trkpt lat="45.55731" lon="6.93746">
        <ele>2227.305</ele>
        <time>2022-08-02T14:12:00Z</time>
      </trkpt>
      <trkpt lat="45.55732" lon="6.93746">
        <ele>2228.036</ele>
        <time>2022-08-02T14:12:10Z</time>
      </trkpt>
      <trkpt lat="45.55732" lon="6.93746">
        <ele>2227.593</ele>
        <time>2022-08-02T14:12:20Z</time>
      </trkpt>
      <trkpt lat="45.55732" lon="6.93745">
        <ele>2227.809</ele>
        <time>2022-08-02T14:12:30Z</time>
      </trkpt>
      <trkpt lat="45.55738" lon="6.93749">
        <ele>2225.256</ele>
        <time>2022-08-02T14:12:39Z</time>
      </trkpt>
      <trkpt lat="45.55739" lon="6.93749">
        <ele>2225.862</ele>
        <time>2022-08-02T14:12:48Z</time>
      </trkpt>
      <trkpt lat="45.55739" lon="6.93752">
        <ele>2226.755</ele>
        <time>2022-08-02T14:12:57Z</time>
      </trkpt>
      <trkpt lat="45.55739" lon="6.93752">
        <ele>2226.792</ele>
        <time>2022-08-02T14:13:07Z</time>
      </trkpt>
      <trkpt lat="45.55739" lon="6.93752">
        <ele>2226.78</ele>
        <time>2022-08-02T14:13:17Z</time>
      </trkpt>
      <trkpt lat="45.55738" lon="6.93753">
        <ele>2226.762</ele>
        <time>2022-08-02T14:13:27Z</time>
      </trkpt>
      <trkpt lat="45.55739" lon="6.93753">
        <ele>2227.576</ele>
        <time>2022-08-02T14:13:36Z</time>
      </trkpt>
      <trkpt lat="45.55741" lon="6.93757">
        <ele>2226.631</ele>
        <time>2022-08-02T14:13:46Z</time>
      </trkpt>
      <trkpt lat="45.55747" lon="6.93768">
        <ele>2225.627</ele>
        <time>2022-08-02T14:13:56Z</time>
      </trkpt>
      <trkpt lat="45.55754" lon="6.93776">
        <ele>2225.224</ele>
        <time>2022-08-02T14:14:05Z</time>
      </trkpt>
      <trkpt lat="45.55763" lon="6.93785">
        <ele>2225.565</ele>
        <time>2022-08-02T14:14:15Z</time>
      </trkpt>
      <trkpt lat="45.55771" lon="6.93792">
        <ele>2226.003</ele>
        <time>2022-08-02T14:14:24Z</time>
      </trkpt>
      <trkpt lat="45.5578" lon="6.93797">
        <ele>2226.46</ele>
        <time>2022-08-02T14:14:33Z</time>
      </trkpt>
      <trkpt lat="45.55785" lon="6.93794">
        <ele>2227.876</ele>
        <time>2022-08-02T14:14:43Z</time>
      </trkpt>
      <trkpt lat="45.55786" lon="6.93794">
        <ele>2228.306</ele>
        <time>2022-08-02T14:14:53Z</time>
      </trkpt>
      <trkpt lat="45.55791" lon="6.93798">
        <ele>2226.369</ele>
        <time>2022-08-02T14:15:02Z</time>
      </trkpt>
      <trkpt lat="45.55792" lon="6.93797">
        <ele>2228.384</ele>
        <time>2022-08-02T14:15:12Z</time>
      </trkpt>
      <trkpt lat="45.55793" lon="6.93798">
        <ele>2228.78</ele>
        <time>2022-08-02T14:15:21Z</time>
      </trkpt>
      <trkpt lat="45.5579" lon="6.93807">
        <ele>2227.888</ele>
        <time>2022-08-02T14:15:31Z</time>
      </trkpt>
      <trkpt lat="45.5579" lon="6.93821">
        <ele>2226.612</ele>
        <time>2022-08-02T14:15:41Z</time>
      </trkpt>
      <trkpt lat="45.55789" lon="6.93835">
        <ele>2224.997</ele>
        <time>2022-08-02T14:15:51Z</time>
      </trkpt>
      <trkpt lat="45.55789" lon="6.93847">
        <ele>2223.99</ele>
        <time>2022-08-02T14:16:00Z</time>
      </trkpt>
      <trkpt lat="45.5579" lon="6.93861">
        <ele>2223.631</ele>
        <time>2022-08-02T14:16:10Z</time>
      </trkpt>
      <trkpt lat="45.55791" lon="6.9387">
        <ele>2222.344</ele>
        <time>2022-08-02T14:16:19Z</time>
      </trkpt>
      <trkpt lat="45.55791" lon="6.93885">
        <ele>2221.784</ele>
        <time>2022-08-02T14:16:29Z</time>
      </trkpt>
      <trkpt lat="45.55789" lon="6.93898">
        <ele>2221.612</ele>
        <time>2022-08-02T14:16:38Z</time>
      </trkpt>
      <trkpt lat="45.55786" lon="6.93912">
        <ele>2219.815</ele>
        <time>2022-08-02T14:16:48Z</time>
      </trkpt>
      <trkpt lat="45.55782" lon="6.93927">
        <ele>2219.779</ele>
        <time>2022-08-02T14:16:58Z</time>
      </trkpt>
      <trkpt lat="45.55776" lon="6.93942">
        <ele>2219.02</ele>
        <time>2022-08-02T14:17:08Z</time>
      </trkpt>
      <trkpt lat="45.55774" lon="6.93956">
        <ele>2218.331</ele>
        <time>2022-08-02T14:17:17Z</time>
      </trkpt>
      <trkpt lat="45.55774" lon="6.93968">
        <ele>2217.03</ele>
        <time>2022-08-02T14:17:27Z</time>
      </trkpt>
      <trkpt lat="45.55777" lon="6.9398">
        <ele>2216.002</ele>
        <time>2022-08-02T14:17:37Z</time>
      </trkpt>
      <trkpt lat="45.55778" lon="6.93992">
        <ele>2215.235</ele>
        <time>2022-08-02T14:17:46Z</time>
      </trkpt>
      <trkpt lat="45.55785" lon="6.94003">
        <ele>2215.858</ele>
        <time>2022-08-02T14:17:56Z</time>
      </trkpt>
      <trkpt lat="45.55789" lon="6.94003">
        <ele>2216.067</ele>
        <time>2022-08-02T14:18:06Z</time>
      </trkpt>
      <trkpt lat="45.55791" lon="6.94002">
        <ele>2214.199</ele>
        <time>2022-08-02T14:18:15Z</time>
      </trkpt>
      <trkpt lat="45.55794" lon="6.9399">
        <ele>2213.941</ele>
        <time>2022-08-02T14:18:25Z</time>
      </trkpt>
      <trkpt lat="45.55801" lon="6.93981">
        <ele>2213.406</ele>
        <time>2022-08-02T14:18:35Z</time>
      </trkpt>
      <trkpt lat="45.55808" lon="6.93973">
        <ele>2212.107</ele>
        <time>2022-08-02T14:18:44Z</time>
      </trkpt>
      <trkpt lat="45.55814" lon="6.93961">
        <ele>2210.331</ele>
        <time>2022-08-02T14:18:54Z</time>
      </trkpt>
      <trkpt lat="45.55818" lon="6.9395">
        <ele>2209.142</ele>
        <time>2022-08-02T14:19:03Z</time>
      </trkpt>
      <trkpt lat="45.55819" lon="6.93935">
        <ele>2208.87</ele>
        <time>2022-08-02T14:19:13Z</time>
      </trkpt>
      <trkpt lat="45.55822" lon="6.93923">
        <ele>2207.431</ele>
        <time>2022-08-02T14:19:22Z</time>
      </trkpt>
      <trkpt lat="45.55831" lon="6.93915">
        <ele>2206.171</ele>
        <time>2022-08-02T14:19:32Z</time>
      </trkpt>
      <trkpt lat="45.5584" lon="6.93925">
        <ele>2202.156</ele>
        <time>2022-08-02T14:19:42Z</time>
      </trkpt>
      <trkpt lat="45.5584" lon="6.93932">
        <ele>2201.948</ele>
        <time>2022-08-02T14:19:51Z</time>
      </trkpt>
      <trkpt lat="45.55843" lon="6.93937">
        <ele>2201.048</ele>
        <time>2022-08-02T14:20:01Z</time>
      </trkpt>
      <trkpt lat="45.55847" lon="6.93947">
        <ele>2201.488</ele>
        <time>2022-08-02T14:20:10Z</time>
      </trkpt>
      <trkpt lat="45.55855" lon="6.93952">
        <ele>2203.091</ele>
        <time>2022-08-02T14:20:19Z</time>
      </trkpt>
      <trkpt lat="45.55865" lon="6.93955">
        <ele>2204.438</ele>
        <time>2022-08-02T14:20:29Z</time>
      </trkpt>
      <trkpt lat="45.55874" lon="6.9396">
        <ele>2205.468</ele>
        <time>2022-08-02T14:20:39Z</time>
      </trkpt>
      <trkpt lat="45.5588" lon="6.93968">
        <ele>2205.605</ele>
        <time>2022-08-02T14:20:49Z</time>
      </trkpt>
      <trkpt lat="45.55886" lon="6.93976">
        <ele>2206.091</ele>
        <time>2022-08-02T14:20:58Z</time>
      </trkpt>
      <trkpt lat="45.5589" lon="6.93986">
        <ele>2206.183</ele>
        <time>2022-08-02T14:21:08Z</time>
      </trkpt>
      <trkpt lat="45.55894" lon="6.93995">
        <ele>2207.229</ele>
        <time>2022-08-02T14:21:18Z</time>
      </trkpt>
      <trkpt lat="45.55901" lon="6.94002">
        <ele>2209.053</ele>
        <time>2022-08-02T14:21:28Z</time>
      </trkpt>
      <trkpt lat="45.55909" lon="6.94">
        <ele>2211.722</ele>
        <time>2022-08-02T14:21:37Z</time>
      </trkpt>
      <trkpt lat="45.55917" lon="6.93996">
        <ele>2212.694</ele>
        <time>2022-08-02T14:21:47Z</time>
      </trkpt>
      <trkpt lat="45.55925" lon="6.93996">
        <ele>2212.69</ele>
        <time>2022-08-02T14:21:57Z</time>
      </trkpt>
      <trkpt lat="45.55931" lon="6.94002">
        <ele>2212.329</ele>
        <time>2022-08-02T14:22:07Z</time>
      </trkpt>
      <trkpt lat="45.55936" lon="6.94007">
        <ele>2213.011</ele>
        <time>2022-08-02T14:22:17Z</time>
      </trkpt>
      <trkpt lat="45.55939" lon="6.94011">
        <ele>2214.376</ele>
        <time>2022-08-02T14:22:26Z</time>
      </trkpt>
      <trkpt lat="45.55944" lon="6.94014">
        <ele>2215.932</ele>
        <time>2022-08-02T14:22:35Z</time>
      </trkpt>
      <trkpt lat="45.5595" lon="6.94013">
        <ele>2217.686</ele>
        <time>2022-08-02T14:22:45Z</time>
      </trkpt>
      <trkpt lat="45.55955" lon="6.9401">
        <ele>2219.064</ele>
        <time>2022-08-02T14:22:54Z</time>
      </trkpt>
      <trkpt lat="45.55959" lon="6.94004">
        <ele>2219.992</ele>
        <time>2022-08-02T14:23:03Z</time>
      </trkpt>
      <trkpt lat="45.55964" lon="6.93997">
        <ele>2222.185</ele>
        <time>2022-08-02T14:23:13Z</time>
      </trkpt>
      <trkpt lat="45.55967" lon="6.93989">
        <ele>2223.403</ele>
        <time>2022-08-02T14:23:22Z</time>
      </trkpt>
      <trkpt lat="45.55968" lon="6.93982">
        <ele>2223.514</ele>
        <time>2022-08-02T14:23:31Z</time>
      </trkpt>
      <trkpt lat="45.55969" lon="6.93972">
        <ele>2224.311</ele>
        <time>2022-08-02T14:23:41Z</time>
      </trkpt>
      <trkpt lat="45.55971" lon="6.93964">
        <ele>2224.424</ele>
        <time>2022-08-02T14:23:51Z</time>
      </trkpt>
      <trkpt lat="45.55975" lon="6.93957">
        <ele>2226.015</ele>
        <time>2022-08-02T14:24:01Z</time>
      </trkpt>
      <trkpt lat="45.55982" lon="6.93956">
        <ele>2226.467</ele>
        <time>2022-08-02T14:24:10Z</time>
      </trkpt>
      <trkpt lat="45.55989" lon="6.93962">
        <ele>2225.91</ele>
        <time>2022-08-02T14:24:19Z</time>
      </trkpt>
      <trkpt lat="45.55994" lon="6.93964">
        <ele>2227.134</ele>
        <time>2022-08-02T14:24:29Z</time>
      </trkpt>
      <trkpt lat="45.56001" lon="6.93968">
        <ele>2228.254</ele>
        <time>2022-08-02T14:24:39Z</time>
      </trkpt>
      <trkpt lat="45.56008" lon="6.93967">
        <ele>2228.855</ele>
        <time>2022-08-02T14:24:48Z</time>
      </trkpt>
      <trkpt lat="45.56014" lon="6.93965">
        <ele>2230.418</ele>
        <time>2022-08-02T14:24:57Z</time>
      </trkpt>
      <trkpt lat="45.56021" lon="6.93965">
        <ele>2231.816</ele>
        <time>2022-08-02T14:25:07Z</time>
      </trkpt>
      <trkpt lat="45.56028" lon="6.93964">
        <ele>2233.231</ele>
        <time>2022-08-02T14:25:16Z</time>
      </trkpt>
      <trkpt lat="45.56034" lon="6.93964">
        <ele>2234.099</ele>
        <time>2022-08-02T14:25:25Z</time>
      </trkpt>
      <trkpt lat="45.5604" lon="6.93962">
        <ele>2235.822</ele>
        <time>2022-08-02T14:25:34Z</time>
      </trkpt>
      <trkpt lat="45.56048" lon="6.93961">
        <ele>2236.48</ele>
        <time>2022-08-02T14:25:44Z</time>
      </trkpt>
      <trkpt lat="45.56056" lon="6.93961">
        <ele>2237.609</ele>
        <time>2022-08-02T14:25:53Z</time>
      </trkpt>
      <trkpt lat="45.56063" lon="6.93963">
        <ele>2238.291</ele>
        <time>2022-08-02T14:26:02Z</time>
      </trkpt>
      <trkpt lat="45.56072" lon="6.93962">
        <ele>2238.239</ele>
        <time>2022-08-02T14:26:12Z</time>
      </trkpt>
      <trkpt lat="45.56078" lon="6.93957">
        <ele>2239.506</ele>
        <time>2022-08-02T14:26:21Z</time>
      </trkpt>
      <trkpt lat="45.56081" lon="6.93946">
        <ele>2239.871</ele>
        <time>2022-08-02T14:26:30Z</time>
      </trkpt>
      <trkpt lat="45.56084" lon="6.93941">
        <ele>2241.071</ele>
        <time>2022-08-02T14:26:39Z</time>
      </trkpt>
      <trkpt lat="45.56087" lon="6.93932">
        <ele>2242.504</ele>
        <time>2022-08-02T14:26:49Z</time>
      </trkpt>
      <trkpt lat="45.56092" lon="6.93923">
        <ele>2242.741</ele>
        <time>2022-08-02T14:26:59Z</time>
      </trkpt>
      <trkpt lat="45.56098" lon="6.93914">
        <ele>2243.345</ele>
        <time>2022-08-02T14:27:09Z</time>
      </trkpt>
      <trkpt lat="45.56102" lon="6.93909">
        <ele>2244.699</ele>
        <time>2022-08-02T14:27:18Z</time>
      </trkpt>
      <trkpt lat="45.56105" lon="6.93907">
        <ele>2244.862</ele>
        <time>2022-08-02T14:27:28Z</time>
      </trkpt>
      <trkpt lat="45.56112" lon="6.93904">
        <ele>2245.211</ele>
        <time>2022-08-02T14:27:38Z</time>
      </trkpt>
      <trkpt lat="45.56121" lon="6.939">
        <ele>2245.745</ele>
        <time>2022-08-02T14:27:48Z</time>
      </trkpt>
      <trkpt lat="45.56127" lon="6.93896">
        <ele>2246.5</ele>
        <time>2022-08-02T14:27:57Z</time>
      </trkpt>
      <trkpt lat="45.56134" lon="6.93892">
        <ele>2246.947</ele>
        <time>2022-08-02T14:28:06Z</time>
      </trkpt>
      <trkpt lat="45.56136" lon="6.93892">
        <ele>2248.449</ele>
        <time>2022-08-02T14:28:15Z</time>
      </trkpt>
      <trkpt lat="45.56136" lon="6.93891">
        <ele>2250.753</ele>
        <time>2022-08-02T14:28:24Z</time>
      </trkpt>
      <trkpt lat="45.56137" lon="6.93889">
        <ele>2248.459</ele>
        <time>2022-08-02T14:28:34Z</time>
      </trkpt>
      <trkpt lat="45.56145" lon="6.93886">
        <ele>2248.422</ele>
        <time>2022-08-02T14:28:43Z</time>
      </trkpt>
      <trkpt lat="45.56148" lon="6.93877">
        <ele>2250.017</ele>
        <time>2022-08-02T14:28:53Z</time>
      </trkpt>
      <trkpt lat="45.56153" lon="6.9387">
        <ele>2249.946</ele>
        <time>2022-08-02T14:29:03Z</time>
      </trkpt>
      <trkpt lat="45.56158" lon="6.93865">
        <ele>2251.976</ele>
        <time>2022-08-02T14:29:13Z</time>
      </trkpt>
      <trkpt lat="45.5616" lon="6.9386">
        <ele>2253.069</ele>
        <time>2022-08-02T14:29:23Z</time>
      </trkpt>
      <trkpt lat="45.56163" lon="6.93857">
        <ele>2253.511</ele>
        <time>2022-08-02T14:29:33Z</time>
      </trkpt>
      <trkpt lat="45.56163" lon="6.93858">
        <ele>2252.757</ele>
        <time>2022-08-02T14:29:43Z</time>
      </trkpt>
      <trkpt lat="45.56168" lon="6.93851">
        <ele>2255.899</ele>
        <time>2022-08-02T14:29:53Z</time>
      </trkpt>
      <trkpt lat="45.56171" lon="6.93849">
        <ele>2257.797</ele>
        <time>2022-08-02T14:30:02Z</time>
      </trkpt>
      <trkpt lat="45.56175" lon="6.93845">
        <ele>2259.681</ele>
        <time>2022-08-02T14:30:12Z</time>
      </trkpt>
      <trkpt lat="45.5618" lon="6.93841">
        <ele>2261.382</ele>
        <time>2022-08-02T14:30:22Z</time>
      </trkpt>
      <trkpt lat="45.56183" lon="6.93838">
        <ele>2262.652</ele>
        <time>2022-08-02T14:30:31Z</time>
      </trkpt>
      <trkpt lat="45.56183" lon="6.93839">
        <ele>2262.857</ele>
        <time>2022-08-02T14:30:41Z</time>
      </trkpt>
      <trkpt lat="45.56183" lon="6.93839">
        <ele>2262.851</ele>
        <time>2022-08-02T14:30:51Z</time>
      </trkpt>
      <trkpt lat="45.56185" lon="6.93839">
        <ele>2263.368</ele>
        <time>2022-08-02T14:31:01Z</time>
      </trkpt>
      <trkpt lat="45.5619" lon="6.93837">
        <ele>2263.974</ele>
        <time>2022-08-02T14:31:10Z</time>
      </trkpt>
      <trkpt lat="45.56195" lon="6.93836">
        <ele>2265.54</ele>
        <time>2022-08-02T14:31:20Z</time>
      </trkpt>
      <trkpt lat="45.56201" lon="6.93833">
        <ele>2266.719</ele>
        <time>2022-08-02T14:31:30Z</time>
      </trkpt>
      <trkpt lat="45.56206" lon="6.93831">
        <ele>2269.26</ele>
        <time>2022-08-02T14:31:39Z</time>
      </trkpt>
      <trkpt lat="45.56211" lon="6.93828">
        <ele>2271.311</ele>
        <time>2022-08-02T14:31:49Z</time>
      </trkpt>
      <trkpt lat="45.56217" lon="6.93828">
        <ele>2272.629</ele>
        <time>2022-08-02T14:31:59Z</time>
      </trkpt>
      <trkpt lat="45.56221" lon="6.93825">
        <ele>2274.637</ele>
        <time>2022-08-02T14:32:08Z</time>
      </trkpt>
      <trkpt lat="45.56225" lon="6.9382">
        <ele>2275.726</ele>
        <time>2022-08-02T14:32:17Z</time>
      </trkpt>
      <trkpt lat="45.56229" lon="6.93816">
        <ele>2277.428</ele>
        <time>2022-08-02T14:32:27Z</time>
      </trkpt>
      <trkpt lat="45.56233" lon="6.93814">
        <ele>2277.963</ele>
        <time>2022-08-02T14:32:36Z</time>
      </trkpt>
      <trkpt lat="45.56238" lon="6.93811">
        <ele>2278.136</ele>
        <time>2022-08-02T14:32:45Z</time>
      </trkpt>
      <trkpt lat="45.56242" lon="6.93807">
        <ele>2278.762</ele>
        <time>2022-08-02T14:32:55Z</time>
      </trkpt>
      <trkpt lat="45.56246" lon="6.93802">
        <ele>2280.428</ele>
        <time>2022-08-02T14:33:05Z</time>
      </trkpt>
      <trkpt lat="45.56248" lon="6.93799">
        <ele>2281.895</ele>
        <time>2022-08-02T14:33:14Z</time>
      </trkpt>
      <trkpt lat="45.56249" lon="6.93795">
        <ele>2281.843</ele>
        <time>2022-08-02T14:33:23Z</time>
      </trkpt>
      <trkpt lat="45.5625" lon="6.93792">
        <ele>2282.97</ele>
        <time>2022-08-02T14:33:33Z</time>
      </trkpt>
      <trkpt lat="45.56249" lon="6.93786">
        <ele>2283.503</ele>
        <time>2022-08-02T14:33:42Z</time>
      </trkpt>
      <trkpt lat="45.56248" lon="6.9378">
        <ele>2283.261</ele>
        <time>2022-08-02T14:33:52Z</time>
      </trkpt>
      <trkpt lat="45.56248" lon="6.93776">
        <ele>2284.702</ele>
        <time>2022-08-02T14:34:01Z</time>
      </trkpt>
      <trkpt lat="45.56248" lon="6.9377">
        <ele>2285.993</ele>
        <time>2022-08-02T14:34:10Z</time>
      </trkpt>
      <trkpt lat="45.56249" lon="6.93763">
        <ele>2287.886</ele>
        <time>2022-08-02T14:34:19Z</time>
      </trkpt>
      <trkpt lat="45.5625" lon="6.93757">
        <ele>2289.268</ele>
        <time>2022-08-02T14:34:29Z</time>
      </trkpt>
      <trkpt lat="45.56251" lon="6.93754">
        <ele>2290.525</ele>
        <time>2022-08-02T14:34:39Z</time>
      </trkpt>
      <trkpt lat="45.56253" lon="6.93747">
        <ele>2291.377</ele>
        <time>2022-08-02T14:34:49Z</time>
      </trkpt>
      <trkpt lat="45.56257" lon="6.93745">
        <ele>2294.013</ele>
        <time>2022-08-02T14:34:59Z</time>
      </trkpt>
      <trkpt lat="45.5626" lon="6.93744">
        <ele>2294.853</ele>
        <time>2022-08-02T14:35:08Z</time>
      </trkpt>
      <trkpt lat="45.56264" lon="6.93743">
        <ele>2296.645</ele>
        <time>2022-08-02T14:35:18Z</time>
      </trkpt>
      <trkpt lat="45.56266" lon="6.93742">
        <ele>2296.893</ele>
        <time>2022-08-02T14:35:27Z</time>
      </trkpt>
      <trkpt lat="45.56266" lon="6.93743">
        <ele>2296.959</ele>
        <time>2022-08-02T14:35:37Z</time>
      </trkpt>
      <trkpt lat="45.56266" lon="6.93743">
        <ele>2296.963</ele>
        <time>2022-08-02T14:35:46Z</time>
      </trkpt>
      <trkpt lat="45.56267" lon="6.93744">
        <ele>2296.053</ele>
        <time>2022-08-02T14:35:56Z</time>
      </trkpt>
      <trkpt lat="45.56267" lon="6.93743">
        <ele>2296.579</ele>
        <time>2022-08-02T14:36:06Z</time>
      </trkpt>
      <trkpt lat="45.56268" lon="6.93741">
        <ele>2297.949</ele>
        <time>2022-08-02T14:36:16Z</time>
      </trkpt>
      <trkpt lat="45.56272" lon="6.93738">
        <ele>2300.132</ele>
        <time>2022-08-02T14:36:25Z</time>
      </trkpt>
      <trkpt lat="45.56275" lon="6.93736">
        <ele>2299.758</ele>
        <time>2022-08-02T14:36:35Z</time>
      </trkpt>
      <trkpt lat="45.56277" lon="6.93731">
        <ele>2301.306</ele>
        <time>2022-08-02T14:36:44Z</time>
      </trkpt>
      <trkpt lat="45.56281" lon="6.93728">
        <ele>2302.298</ele>
        <time>2022-08-02T14:36:53Z</time>
      </trkpt>
      <trkpt lat="45.56284" lon="6.93724">
        <ele>2303.645</ele>
        <time>2022-08-02T14:37:02Z</time>
      </trkpt>
      <trkpt lat="45.56289" lon="6.9372">
        <ele>2306.272</ele>
        <time>2022-08-02T14:37:12Z</time>
      </trkpt>
      <trkpt lat="45.56289" lon="6.9372">
        <ele>2305.646</ele>
        <time>2022-08-02T14:37:21Z</time>
      </trkpt>
      <trkpt lat="45.5629" lon="6.9372">
        <ele>2305.525</ele>
        <time>2022-08-02T14:37:31Z</time>
      </trkpt>
      <trkpt lat="45.5629" lon="6.9372">
        <ele>2305.533</ele>
        <time>2022-08-02T14:37:40Z</time>
      </trkpt>
      <trkpt lat="45.5629" lon="6.9372">
        <ele>2305.529</ele>
        <time>2022-08-02T14:37:49Z</time>
      </trkpt>
      <trkpt lat="45.5629" lon="6.9372">
        <ele>2305.529</ele>
        <time>2022-08-02T14:37:58Z</time>
      </trkpt>
      <trkpt lat="45.5629" lon="6.9372">
        <ele>2305.535</ele>
        <time>2022-08-02T14:38:08Z</time>
      </trkpt>
      <trkpt lat="45.5629" lon="6.9372">
        <ele>2305.529</ele>
        <time>2022-08-02T14:38:17Z</time>
      </trkpt>
      <trkpt lat="45.5629" lon="6.9372">
        <ele>2305.536</ele>
        <time>2022-08-02T14:38:26Z</time>
      </trkpt>
      <trkpt lat="45.5629" lon="6.9372">
        <ele>2305.544</ele>
        <time>2022-08-02T14:38:36Z</time>
      </trkpt>
      <trkpt lat="45.5629" lon="6.9372">
        <ele>2306.003</ele>
        <time>2022-08-02T14:38:45Z</time>
      </trkpt>
      <trkpt lat="45.5629" lon="6.93719">
        <ele>2306.188</ele>
        <time>2022-08-02T14:38:55Z</time>
      </trkpt>
      <trkpt lat="45.56291" lon="6.93719">
        <ele>2305.987</ele>
        <time>2022-08-02T14:39:05Z</time>
      </trkpt>
      <trkpt lat="45.56292" lon="6.93713">
        <ele>2307.332</ele>
        <time>2022-08-02T14:39:14Z</time>
      </trkpt>
      <trkpt lat="45.56294" lon="6.93709">
        <ele>2308.549</ele>
        <time>2022-08-02T14:39:23Z</time>
      </trkpt>
      <trkpt lat="45.56296" lon="6.93704">
        <ele>2310.507</ele>
        <time>2022-08-02T14:39:33Z</time>
      </trkpt>
      <trkpt lat="45.56298" lon="6.93698">
        <ele>2312.503</ele>
        <time>2022-08-02T14:39:43Z</time>
      </trkpt>
      <trkpt lat="45.563" lon="6.93693">
        <ele>2313.06</ele>
        <time>2022-08-02T14:39:53Z</time>
      </trkpt>
      <trkpt lat="45.56303" lon="6.93689">
        <ele>2313.809</ele>
        <time>2022-08-02T14:40:02Z</time>
      </trkpt>
      <trkpt lat="45.56304" lon="6.93684">
        <ele>2315.771</ele>
        <time>2022-08-02T14:40:12Z</time>
      </trkpt>
      <trkpt lat="45.56306" lon="6.93679">
        <ele>2316.36</ele>
        <time>2022-08-02T14:40:22Z</time>
      </trkpt>
      <trkpt lat="45.56308" lon="6.93676">
        <ele>2318.671</ele>
        <time>2022-08-02T14:40:31Z</time>
      </trkpt>
      <trkpt lat="45.5631" lon="6.93672">
        <ele>2319.895</ele>
        <time>2022-08-02T14:40:41Z</time>
      </trkpt>
      <trkpt lat="45.56312" lon="6.93669">
        <ele>2321.472</ele>
        <time>2022-08-02T14:40:50Z</time>
      </trkpt>
      <trkpt lat="45.56315" lon="6.93665">
        <ele>2322.571</ele>
        <time>2022-08-02T14:40:59Z</time>
      </trkpt>
      <trkpt lat="45.56319" lon="6.93662">
        <ele>2324.531</ele>
        <time>2022-08-02T14:41:09Z</time>
      </trkpt>
      <trkpt lat="45.56324" lon="6.93658">
        <ele>2325.554</ele>
        <time>2022-08-02T14:41:19Z</time>
      </trkpt>
      <trkpt lat="45.56329" lon="6.93657">
        <ele>2327.175</ele>
        <time>2022-08-02T14:41:29Z</time>
      </trkpt>
      <trkpt lat="45.56332" lon="6.93655">
        <ele>2329.223</ele>
        <time>2022-08-02T14:41:39Z</time>
      </trkpt>
      <trkpt lat="45.56333" lon="6.9365">
        <ele>2329.908</ele>
        <time>2022-08-02T14:41:49Z</time>
      </trkpt>
      <trkpt lat="45.56331" lon="6.93647">
        <ele>2330.563</ele>
        <time>2022-08-02T14:41:58Z</time>
      </trkpt>
      <trkpt lat="45.56329" lon="6.93643">
        <ele>2331.772</ele>
        <time>2022-08-02T14:42:08Z</time>
      </trkpt>
      <trkpt lat="45.56328" lon="6.93636">
        <ele>2332.728</ele>
        <time>2022-08-02T14:42:17Z</time>
      </trkpt>
      <trkpt lat="45.56328" lon="6.9363">
        <ele>2333.559</ele>
        <time>2022-08-02T14:42:27Z</time>
      </trkpt>
      <trkpt lat="45.56331" lon="6.93628">
        <ele>2335.5</ele>
        <time>2022-08-02T14:42:36Z</time>
      </trkpt>
      <trkpt lat="45.56332" lon="6.93627">
        <ele>2335.636</ele>
        <time>2022-08-02T14:42:45Z</time>
      </trkpt>
      <trkpt lat="45.56334" lon="6.93623">
        <ele>2337.075</ele>
        <time>2022-08-02T14:42:55Z</time>
      </trkpt>
      <trkpt lat="45.56337" lon="6.9362">
        <ele>2338.19</ele>
        <time>2022-08-02T14:43:04Z</time>
      </trkpt>
      <trkpt lat="45.56341" lon="6.93616">
        <ele>2338.789</ele>
        <time>2022-08-02T14:43:14Z</time>
      </trkpt>
      <trkpt lat="45.56344" lon="6.93612">
        <ele>2340.873</ele>
        <time>2022-08-02T14:43:24Z</time>
      </trkpt>
      <trkpt lat="45.56346" lon="6.93605">
        <ele>2342.147</ele>
        <time>2022-08-02T14:43:34Z</time>
      </trkpt>
      <trkpt lat="45.56347" lon="6.93598">
        <ele>2343.816</ele>
        <time>2022-08-02T14:43:44Z</time>
      </trkpt>
      <trkpt lat="45.56346" lon="6.93594">
        <ele>2344.043</ele>
        <time>2022-08-02T14:43:53Z</time>
      </trkpt>
      <trkpt lat="45.56347" lon="6.93588">
        <ele>2343.865</ele>
        <time>2022-08-02T14:44:03Z</time>
      </trkpt>
      <trkpt lat="45.56348" lon="6.93585">
        <ele>2344.88</ele>
        <time>2022-08-02T14:44:13Z</time>
      </trkpt>
      <trkpt lat="45.5635" lon="6.93583">
        <ele>2346.453</ele>
        <time>2022-08-02T14:44:23Z</time>
      </trkpt>
      <trkpt lat="45.56352" lon="6.9358">
        <ele>2347.833</ele>
        <time>2022-08-02T14:44:33Z</time>
      </trkpt>
      <trkpt lat="45.56353" lon="6.93574">
        <ele>2349.105</ele>
        <time>2022-08-02T14:44:43Z</time>
      </trkpt>
      <trkpt lat="45.56354" lon="6.93569">
        <ele>2350.203</ele>
        <time>2022-08-02T14:44:53Z</time>
      </trkpt>
      <trkpt lat="45.56356" lon="6.93564">
        <ele>2350.72</ele>
        <time>2022-08-02T14:45:03Z</time>
      </trkpt>
      <trkpt lat="45.56358" lon="6.93558">
        <ele>2351.976</ele>
        <time>2022-08-02T14:45:13Z</time>
      </trkpt>
      <trkpt lat="45.56361" lon="6.93552">
        <ele>2353.816</ele>
        <time>2022-08-02T14:45:23Z</time>
      </trkpt>
      <trkpt lat="45.56363" lon="6.93548">
        <ele>2354.882</ele>
        <time>2022-08-02T14:45:33Z</time>
      </trkpt>
      <trkpt lat="45.56366" lon="6.93545">
        <ele>2356.919</ele>
        <time>2022-08-02T14:45:43Z</time>
      </trkpt>
      <trkpt lat="45.56369" lon="6.93542">
        <ele>2357.446</ele>
        <time>2022-08-02T14:45:53Z</time>
      </trkpt>
      <trkpt lat="45.56371" lon="6.93539">
        <ele>2359.309</ele>
        <time>2022-08-02T14:46:03Z</time>
      </trkpt>
      <trkpt lat="45.56374" lon="6.93535">
        <ele>2360.723</ele>
        <time>2022-08-02T14:46:13Z</time>
      </trkpt>
      <trkpt lat="45.56377" lon="6.93532">
        <ele>2362.176</ele>
        <time>2022-08-02T14:46:23Z</time>
      </trkpt>
      <trkpt lat="45.56377" lon="6.93528">
        <ele>2362.952</ele>
        <time>2022-08-02T14:46:33Z</time>
      </trkpt>
      <trkpt lat="45.56377" lon="6.93524">
        <ele>2364.365</ele>
        <time>2022-08-02T14:46:43Z</time>
      </trkpt>
      <trkpt lat="45.5638" lon="6.93518">
        <ele>2364.887</ele>
        <time>2022-08-02T14:46:53Z</time>
      </trkpt>
      <trkpt lat="45.56384" lon="6.93514">
        <ele>2366.034</ele>
        <time>2022-08-02T14:47:03Z</time>
      </trkpt>
      <trkpt lat="45.56385" lon="6.93507">
        <ele>2366.736</ele>
        <time>2022-08-02T14:47:13Z</time>
      </trkpt>
      <trkpt lat="45.56387" lon="6.93498">
        <ele>2368.125</ele>
        <time>2022-08-02T14:47:23Z</time>
      </trkpt>
      <trkpt lat="45.56386" lon="6.93493">
        <ele>2368.245</ele>
        <time>2022-08-02T14:47:33Z</time>
      </trkpt>
      <trkpt lat="45.56384" lon="6.93495">
        <ele>2368.079</ele>
        <time>2022-08-02T14:47:43Z</time>
      </trkpt>
      <trkpt lat="45.56383" lon="6.93495">
        <ele>2368.331</ele>
        <time>2022-08-02T14:47:52Z</time>
      </trkpt>
      <trkpt lat="45.56384" lon="6.93495">
        <ele>2368.53</ele>
        <time>2022-08-02T14:48:01Z</time>
      </trkpt>
      <trkpt lat="45.56387" lon="6.93489">
        <ele>2368.705</ele>
        <time>2022-08-02T14:48:11Z</time>
      </trkpt>
      <trkpt lat="45.5639" lon="6.93481">
        <ele>2370.88</ele>
        <time>2022-08-02T14:48:20Z</time>
      </trkpt>
      <trkpt lat="45.56395" lon="6.93474">
        <ele>2371.006</ele>
        <time>2022-08-02T14:48:30Z</time>
      </trkpt>
      <trkpt lat="45.56399" lon="6.93467">
        <ele>2372.028</ele>
        <time>2022-08-02T14:48:40Z</time>
      </trkpt>
      <trkpt lat="45.56405" lon="6.9346">
        <ele>2371.812</ele>
        <time>2022-08-02T14:48:49Z</time>
      </trkpt>
      <trkpt lat="45.56411" lon="6.93451">
        <ele>2372.08</ele>
        <time>2022-08-02T14:48:58Z</time>
      </trkpt>
      <trkpt lat="45.56415" lon="6.93442">
        <ele>2372.652</ele>
        <time>2022-08-02T14:49:07Z</time>
      </trkpt>
      <trkpt lat="45.56415" lon="6.9344">
        <ele>2372.768</ele>
        <time>2022-08-02T14:49:16Z</time>
      </trkpt>
      <trkpt lat="45.56415" lon="6.9344">
        <ele>2373.499</ele>
        <time>2022-08-02T14:49:25Z</time>
      </trkpt>
      <trkpt lat="45.56415" lon="6.9344">
        <ele>2373.516</ele>
        <time>2022-08-02T14:49:35Z</time>
      </trkpt>
      <trkpt lat="45.56419" lon="6.93434">
        <ele>2374.449</ele>
        <time>2022-08-02T14:49:45Z</time>
      </trkpt>
      <trkpt lat="45.56423" lon="6.9343">
        <ele>2374.565</ele>
        <time>2022-08-02T14:49:54Z</time>
      </trkpt>
      <trkpt lat="45.56428" lon="6.93424">
        <ele>2375.392</ele>
        <time>2022-08-02T14:50:04Z</time>
      </trkpt>
      <trkpt lat="45.56432" lon="6.9342">
        <ele>2375.051</ele>
        <time>2022-08-02T14:50:13Z</time>
      </trkpt>
      <trkpt lat="45.56438" lon="6.93412">
        <ele>2374.732</ele>
        <time>2022-08-02T14:50:23Z</time>
      </trkpt>
      <trkpt lat="45.56446" lon="6.93405">
        <ele>2374.785</ele>
        <time>2022-08-02T14:50:33Z</time>
      </trkpt>
      <trkpt lat="45.56454" lon="6.93398">
        <ele>2374.908</ele>
        <time>2022-08-02T14:50:43Z</time>
      </trkpt>
      <trkpt lat="45.56461" lon="6.93388">
        <ele>2374.907</ele>
        <time>2022-08-02T14:50:53Z</time>
      </trkpt>
      <trkpt lat="45.5647" lon="6.93382">
        <ele>2375.309</ele>
        <time>2022-08-02T14:51:03Z</time>
      </trkpt>
      <trkpt lat="45.56477" lon="6.93376">
        <ele>2375.855</ele>
        <time>2022-08-02T14:51:13Z</time>
      </trkpt>
      <trkpt lat="45.56481" lon="6.93372">
        <ele>2375.878</ele>
        <time>2022-08-02T14:51:23Z</time>
      </trkpt>
      <trkpt lat="45.56488" lon="6.93365">
        <ele>2376.003</ele>
        <time>2022-08-02T14:51:33Z</time>
      </trkpt>
      <trkpt lat="45.56497" lon="6.9336">
        <ele>2375.51</ele>
        <time>2022-08-02T14:51:43Z</time>
      </trkpt>
      <trkpt lat="45.56506" lon="6.93355">
        <ele>2375.712</ele>
        <time>2022-08-02T14:51:53Z</time>
      </trkpt>
      <trkpt lat="45.56515" lon="6.93348">
        <ele>2376.623</ele>
        <time>2022-08-02T14:52:03Z</time>
      </trkpt>
      <trkpt lat="45.56523" lon="6.93342">
        <ele>2375.146</ele>
        <time>2022-08-02T14:52:13Z</time>
      </trkpt>
      <trkpt lat="45.5653" lon="6.93334">
        <ele>2374.263</ele>
        <time>2022-08-02T14:52:23Z</time>
      </trkpt>
      <trkpt lat="45.56536" lon="6.93324">
        <ele>2374.004</ele>
        <time>2022-08-02T14:52:33Z</time>
      </trkpt>
      <trkpt lat="45.56536" lon="6.9332">
        <ele>2374.391</ele>
        <time>2022-08-02T14:52:43Z</time>
      </trkpt>
      <trkpt lat="45.56536" lon="6.9332">
        <ele>2374.576</ele>
        <time>2022-08-02T14:52:53Z</time>
      </trkpt>
      <trkpt lat="45.56539" lon="6.93318">
        <ele>2373.258</ele>
        <time>2022-08-02T14:53:03Z</time>
      </trkpt>
      <trkpt lat="45.5654" lon="6.93311">
        <ele>2374.093</ele>
        <time>2022-08-02T14:53:13Z</time>
      </trkpt>
      <trkpt lat="45.5654" lon="6.9331">
        <ele>2373.402</ele>
        <time>2022-08-02T14:53:23Z</time>
      </trkpt>
      <trkpt lat="45.56539" lon="6.9331">
        <ele>2372.854</ele>
        <time>2022-08-02T14:53:33Z</time>
      </trkpt>
      <trkpt lat="45.56539" lon="6.93308">
        <ele>2374.37</ele>
        <time>2022-08-02T14:53:43Z</time>
      </trkpt>
      <trkpt lat="45.56535" lon="6.93292">
        <ele>2374.409</ele>
        <time>2022-08-02T14:53:53Z</time>
      </trkpt>
      <trkpt lat="45.56529" lon="6.9328">
        <ele>2374.993</ele>
        <time>2022-08-02T14:54:02Z</time>
      </trkpt>
      <trkpt lat="45.56523" lon="6.93267">
        <ele>2375.863</ele>
        <time>2022-08-02T14:54:12Z</time>
      </trkpt>
      <trkpt lat="45.56522" lon="6.93263">
        <ele>2375.132</ele>
        <time>2022-08-02T14:54:21Z</time>
      </trkpt>
      <trkpt lat="45.56519" lon="6.93251">
        <ele>2375.153</ele>
        <time>2022-08-02T14:54:31Z</time>
      </trkpt>
      <trkpt lat="45.56517" lon="6.93249">
        <ele>2375.883</ele>
        <time>2022-08-02T14:54:41Z</time>
      </trkpt>
      <trkpt lat="45.56516" lon="6.93249">
        <ele>2376.632</ele>
        <time>2022-08-02T14:54:51Z</time>
      </trkpt>
      <trkpt lat="45.56516" lon="6.93249">
        <ele>2376.635</ele>
        <time>2022-08-02T14:55:00Z</time>
      </trkpt>
      <trkpt lat="45.56516" lon="6.93249">
        <ele>2376.773</ele>
        <time>2022-08-02T14:55:10Z</time>
      </trkpt>
      <trkpt lat="45.5652" lon="6.93242">
        <ele>2376.425</ele>
        <time>2022-08-02T14:55:20Z</time>
      </trkpt>
      <trkpt lat="45.56525" lon="6.93231">
        <ele>2377.119</ele>
        <time>2022-08-02T14:55:29Z</time>
      </trkpt>
      <trkpt lat="45.56531" lon="6.9322">
        <ele>2377.731</ele>
        <time>2022-08-02T14:55:39Z</time>
      </trkpt>
      <trkpt lat="45.56536" lon="6.93207">
        <ele>2378.98</ele>
        <time>2022-08-02T14:55:49Z</time>
      </trkpt>
      <trkpt lat="45.56537" lon="6.93203">
        <ele>2379.388</ele>
        <time>2022-08-02T14:55:59Z</time>
      </trkpt>
      <trkpt lat="45.56539" lon="6.93195">
        <ele>2380.339</ele>
        <time>2022-08-02T14:56:09Z</time>
      </trkpt>
      <trkpt lat="45.56539" lon="6.93193">
        <ele>2379.888</ele>
        <time>2022-08-02T14:56:18Z</time>
      </trkpt>
      <trkpt lat="45.5654" lon="6.93195">
        <ele>2379.395</ele>
        <time>2022-08-02T14:56:28Z</time>
      </trkpt>
      <trkpt lat="45.5654" lon="6.93195">
        <ele>2379.374</ele>
        <time>2022-08-02T14:56:37Z</time>
      </trkpt>
      <trkpt lat="45.56543" lon="6.93194">
        <ele>2379.754</ele>
        <time>2022-08-02T14:56:47Z</time>
      </trkpt>
      <trkpt lat="45.56544" lon="6.93196">
        <ele>2380.46</ele>
        <time>2022-08-02T14:56:56Z</time>
      </trkpt>
      <trkpt lat="45.56543" lon="6.93195">
        <ele>2380.26</ele>
        <time>2022-08-02T14:57:05Z</time>
      </trkpt>
      <trkpt lat="45.56543" lon="6.93196">
        <ele>2380.665</ele>
        <time>2022-08-02T14:57:15Z</time>
      </trkpt>
      <trkpt lat="45.56539" lon="6.93189">
        <ele>2379.991</ele>
        <time>2022-08-02T14:57:24Z</time>
      </trkpt>
      <trkpt lat="45.56539" lon="6.93189">
        <ele>2379.144</ele>
        <time>2022-08-02T14:57:34Z</time>
      </trkpt>
      <trkpt lat="45.56535" lon="6.93188">
        <ele>2377.987</ele>
        <time>2022-08-02T14:57:44Z</time>
      </trkpt>
      <trkpt lat="45.56537" lon="6.9319">
        <ele>2378.674</ele>
        <time>2022-08-02T14:57:54Z</time>
      </trkpt>
      <trkpt lat="45.56537" lon="6.93192">
        <ele>2379.061</ele>
        <time>2022-08-02T14:58:03Z</time>
      </trkpt>
      <trkpt lat="45.56539" lon="6.93195">
        <ele>2378.277</ele>
        <time>2022-08-02T14:58:13Z</time>
      </trkpt>
      <trkpt lat="45.5654" lon="6.93207">
        <ele>2376.049</ele>
        <time>2022-08-02T14:58:22Z</time>
      </trkpt>
      <trkpt lat="45.56538" lon="6.93218">
        <ele>2375.911</ele>
        <time>2022-08-02T14:58:32Z</time>
      </trkpt>
      <trkpt lat="45.56539" lon="6.93227">
        <ele>2375.721</ele>
        <time>2022-08-02T14:58:42Z</time>
      </trkpt>
      <trkpt lat="45.56537" lon="6.93242">
        <ele>2374.386</ele>
        <time>2022-08-02T14:58:51Z</time>
      </trkpt>
      <trkpt lat="45.56535" lon="6.93256">
        <ele>2372.987</ele>
        <time>2022-08-02T14:59:01Z</time>
      </trkpt>
      <trkpt lat="45.56534" lon="6.9327">
        <ele>2373.267</ele>
        <time>2022-08-02T14:59:11Z</time>
      </trkpt>
      <trkpt lat="45.56536" lon="6.93277">
        <ele>2374.246</ele>
        <time>2022-08-02T14:59:21Z</time>
      </trkpt>
      <trkpt lat="45.56536" lon="6.93281">
        <ele>2373.439</ele>
        <time>2022-08-02T14:59:31Z</time>
      </trkpt>
      <trkpt lat="45.56538" lon="6.93284">
        <ele>2373.193</ele>
        <time>2022-08-02T14:59:41Z</time>
      </trkpt>
      <trkpt lat="45.56538" lon="6.93283">
        <ele>2373.238</ele>
        <time>2022-08-02T14:59:51Z</time>
      </trkpt>
      <trkpt lat="45.56538" lon="6.93283">
        <ele>2373.227</ele>
        <time>2022-08-02T15:00:00Z</time>
      </trkpt>
      <trkpt lat="45.56538" lon="6.93284">
        <ele>2372.923</ele>
        <time>2022-08-02T15:00:09Z</time>
      </trkpt>
      <trkpt lat="45.56537" lon="6.93286">
        <ele>2372.438</ele>
        <time>2022-08-02T15:00:19Z</time>
      </trkpt>
      <trkpt lat="45.56537" lon="6.9329">
        <ele>2372.827</ele>
        <time>2022-08-02T15:00:28Z</time>
      </trkpt>
      <trkpt lat="45.56539" lon="6.93291">
        <ele>2373.398</ele>
        <time>2022-08-02T15:00:38Z</time>
      </trkpt>
      <trkpt lat="45.56539" lon="6.93293">
        <ele>2374.607</ele>
        <time>2022-08-02T15:00:47Z</time>
      </trkpt>
      <trkpt lat="45.56539" lon="6.93293">
        <ele>2374.566</ele>
        <time>2022-08-02T15:00:57Z</time>
      </trkpt>
      <trkpt lat="45.56539" lon="6.93294">
        <ele>2374.549</ele>
        <time>2022-08-02T15:01:06Z</time>
      </trkpt>
      <trkpt lat="45.5654" lon="6.93295">
        <ele>2376.065</ele>
        <time>2022-08-02T15:01:15Z</time>
      </trkpt>
      <trkpt lat="45.56541" lon="6.933">
        <ele>2373.887</ele>
        <time>2022-08-02T15:01:25Z</time>
      </trkpt>
      <trkpt lat="45.5654" lon="6.93301">
        <ele>2373.372</ele>
        <time>2022-08-02T15:01:35Z</time>
      </trkpt>
      <trkpt lat="45.56545" lon="6.93301">
        <ele>2372.909</ele>
        <time>2022-08-02T15:01:44Z</time>
      </trkpt>
      <trkpt lat="45.56545" lon="6.93301">
        <ele>2373.888</ele>
        <time>2022-08-02T15:01:54Z</time>
      </trkpt>
      <trkpt lat="45.56545" lon="6.93302">
        <ele>2373.681</ele>
        <time>2022-08-02T15:02:03Z</time>
      </trkpt>
      <trkpt lat="45.56545" lon="6.93302">
        <ele>2373.682</ele>
        <time>2022-08-02T15:02:12Z</time>
      </trkpt>
      <trkpt lat="45.56545" lon="6.93302">
        <ele>2373.684</ele>
        <time>2022-08-02T15:02:22Z</time>
      </trkpt>
      <trkpt lat="45.56545" lon="6.93302">
        <ele>2373.692</ele>
        <time>2022-08-02T15:02:31Z</time>
      </trkpt>
      <trkpt lat="45.56546" lon="6.93301">
        <ele>2375.058</ele>
        <time>2022-08-02T15:02:41Z</time>
      </trkpt>
      <trkpt lat="45.56545" lon="6.93301">
        <ele>2375.096</ele>
        <time>2022-08-02T15:02:51Z</time>
      </trkpt>
      <trkpt lat="45.56545" lon="6.93301">
        <ele>2375.233</ele>
        <time>2022-08-02T15:03:01Z</time>
      </trkpt>
      <trkpt lat="45.5654" lon="6.93308">
        <ele>2374.329</ele>
        <time>2022-08-02T15:03:11Z</time>
      </trkpt>
      <trkpt lat="45.56539" lon="6.93312">
        <ele>2373.843</ele>
        <time>2022-08-02T15:03:20Z</time>
      </trkpt>
      <trkpt lat="45.5654" lon="6.93312">
        <ele>2373.833</ele>
        <time>2022-08-02T15:03:30Z</time>
      </trkpt>
      <trkpt lat="45.56539" lon="6.93312">
        <ele>2374.062</ele>
        <time>2022-08-02T15:03:39Z</time>
      </trkpt>
      <trkpt lat="45.56539" lon="6.93311">
        <ele>2373.574</ele>
        <time>2022-08-02T15:03:48Z</time>
      </trkpt>
      <trkpt lat="45.56539" lon="6.93303">
        <ele>2375.435</ele>
        <time>2022-08-02T15:03:58Z</time>
      </trkpt>
      <trkpt lat="45.56539" lon="6.93302">
        <ele>2376.079</ele>
        <time>2022-08-02T15:04:07Z</time>
      </trkpt>
      <trkpt lat="45.56541" lon="6.93292">
        <ele>2376.999</ele>
        <time>2022-08-02T15:04:17Z</time>
      </trkpt>
      <trkpt lat="45.56543" lon="6.93281">
        <ele>2376.961</ele>
        <time>2022-08-02T15:04:27Z</time>
      </trkpt>
      <trkpt lat="45.56544" lon="6.93269">
        <ele>2376.813</ele>
        <time>2022-08-02T15:04:37Z</time>
      </trkpt>
      <trkpt lat="45.56544" lon="6.9327">
        <ele>2375.53</ele>
        <time>2022-08-02T15:04:46Z</time>
      </trkpt>
      <trkpt lat="45.56547" lon="6.9326">
        <ele>2375.834</ele>
        <time>2022-08-02T15:04:56Z</time>
      </trkpt>
      <trkpt lat="45.56549" lon="6.93252">
        <ele>2376.187</ele>
        <time>2022-08-02T15:05:06Z</time>
      </trkpt>
      <trkpt lat="45.56549" lon="6.93252">
        <ele>2375.445</ele>
        <time>2022-08-02T15:05:15Z</time>
      </trkpt>
      <trkpt lat="45.56549" lon="6.93253">
        <ele>2374.248</ele>
        <time>2022-08-02T15:05:25Z</time>
      </trkpt>
      <trkpt lat="45.56549" lon="6.93253">
        <ele>2374.237</ele>
        <time>2022-08-02T15:05:35Z</time>
      </trkpt>
      <trkpt lat="45.56549" lon="6.93253">
        <ele>2374.235</ele>
        <time>2022-08-02T15:05:45Z</time>
      </trkpt>
      <trkpt lat="45.56549" lon="6.93247">
        <ele>2374.104</ele>
        <time>2022-08-02T15:05:55Z</time>
      </trkpt>
      <trkpt lat="45.56547" lon="6.93234">
        <ele>2374.357</ele>
        <time>2022-08-02T15:06:04Z</time>
      </trkpt>
      <trkpt lat="45.56545" lon="6.93223">
        <ele>2374.261</ele>
        <time>2022-08-02T15:06:14Z</time>
      </trkpt>
      <trkpt lat="45.56545" lon="6.93214">
        <ele>2374.216</ele>
        <time>2022-08-02T15:06:23Z</time>
      </trkpt>
      <trkpt lat="45.56542" lon="6.93207">
        <ele>2375.255</ele>
        <time>2022-08-02T15:06:33Z</time>
      </trkpt>
      <trkpt lat="45.56538" lon="6.93197">
        <ele>2377.635</ele>
        <time>2022-08-02T15:06:43Z</time>
      </trkpt>
      <trkpt lat="45.56537" lon="6.93191">
        <ele>2378.387</ele>
        <time>2022-08-02T15:06:53Z</time>
      </trkpt>
      <trkpt lat="45.56537" lon="6.93188">
        <ele>2378.935</ele>
        <time>2022-08-02T15:07:02Z</time>
      </trkpt>
      <trkpt lat="45.56534" lon="6.93187">
        <ele>2377.706</ele>
        <time>2022-08-02T15:07:12Z</time>
      </trkpt>
      <trkpt lat="45.56535" lon="6.93186">
        <ele>2377.887</ele>
        <time>2022-08-02T15:07:21Z</time>
      </trkpt>
      <trkpt lat="45.56535" lon="6.93186">
        <ele>2379.192</ele>
        <time>2022-08-02T15:07:31Z</time>
      </trkpt>
      <trkpt lat="45.56536" lon="6.93189">
        <ele>2378.5</ele>
        <time>2022-08-02T15:07:40Z</time>
      </trkpt>
      <trkpt lat="45.56539" lon="6.93186">
        <ele>2379.536</ele>
        <time>2022-08-02T15:07:50Z</time>
      </trkpt>
      <trkpt lat="45.56539" lon="6.93187">
        <ele>2379.058</ele>
        <time>2022-08-02T15:08:00Z</time>
      </trkpt>
      <trkpt lat="45.5654" lon="6.93187">
        <ele>2377.961</ele>
        <time>2022-08-02T15:08:09Z</time>
      </trkpt>
      <trkpt lat="45.56541" lon="6.93191">
        <ele>2376.044</ele>
        <time>2022-08-02T15:08:18Z</time>
      </trkpt>
      <trkpt lat="45.56548" lon="6.93194">
        <ele>2376.422</ele>
        <time>2022-08-02T15:08:27Z</time>
      </trkpt>
      <trkpt lat="45.56553" lon="6.93179">
        <ele>2379.302</ele>
        <time>2022-08-02T15:08:36Z</time>
      </trkpt>
      <trkpt lat="45.5656" lon="6.93167">
        <ele>2379.708</ele>
        <time>2022-08-02T15:08:46Z</time>
      </trkpt>
      <trkpt lat="45.56567" lon="6.93164">
        <ele>2379.537</ele>
        <time>2022-08-02T15:08:55Z</time>
      </trkpt>
      <trkpt lat="45.56576" lon="6.93162">
        <ele>2379.684</ele>
        <time>2022-08-02T15:09:04Z</time>
      </trkpt>
      <trkpt lat="45.56583" lon="6.93156">
        <ele>2380.656</ele>
        <time>2022-08-02T15:09:13Z</time>
      </trkpt>
      <trkpt lat="45.56593" lon="6.9315">
        <ele>2380.961</ele>
        <time>2022-08-02T15:09:23Z</time>
      </trkpt>
      <trkpt lat="45.56599" lon="6.93145">
        <ele>2381.554</ele>
        <time>2022-08-02T15:09:32Z</time>
      </trkpt>
      <trkpt lat="45.56607" lon="6.93143">
        <ele>2382.188</ele>
        <time>2022-08-02T15:09:42Z</time>
      </trkpt>
      <trkpt lat="45.56614" lon="6.9314">
        <ele>2383.037</ele>
        <time>2022-08-02T15:09:51Z</time>
      </trkpt>
      <trkpt lat="45.56623" lon="6.93138">
        <ele>2384.716</ele>
        <time>2022-08-02T15:10:01Z</time>
      </trkpt>
      <trkpt lat="45.56631" lon="6.93135">
        <ele>2385.495</ele>
        <time>2022-08-02T15:10:10Z</time>
      </trkpt>
      <trkpt lat="45.56642" lon="6.93136">
        <ele>2385.949</ele>
        <time>2022-08-02T15:10:20Z</time>
      </trkpt>
      <trkpt lat="45.56652" lon="6.93138">
        <ele>2387.245</ele>
        <time>2022-08-02T15:10:30Z</time>
      </trkpt>
      <trkpt lat="45.56661" lon="6.93136">
        <ele>2387.621</ele>
        <time>2022-08-02T15:10:39Z</time>
      </trkpt>
      <trkpt lat="45.56664" lon="6.9314">
        <ele>2386.464</ele>
        <time>2022-08-02T15:10:49Z</time>
      </trkpt>
      <trkpt lat="45.56664" lon="6.93139">
        <ele>2385.051</ele>
        <time>2022-08-02T15:10:59Z</time>
      </trkpt>
      <trkpt lat="45.56664" lon="6.9314">
        <ele>2385.023</ele>
        <time>2022-08-02T15:11:08Z</time>
      </trkpt>
      <trkpt lat="45.56664" lon="6.9314">
        <ele>2385.305</ele>
        <time>2022-08-02T15:11:18Z</time>
      </trkpt>
      <trkpt lat="45.56664" lon="6.9314">
        <ele>2385.145</ele>
        <time>2022-08-02T15:11:27Z</time>
      </trkpt>
      <trkpt lat="45.56664" lon="6.9314">
        <ele>2385.243</ele>
        <time>2022-08-02T15:11:37Z</time>
      </trkpt>
      <trkpt lat="45.56664" lon="6.9314">
        <ele>2385.295</ele>
        <time>2022-08-02T15:11:47Z</time>
      </trkpt>
      <trkpt lat="45.56664" lon="6.93141">
        <ele>2385.314</ele>
        <time>2022-08-02T15:11:56Z</time>
      </trkpt>
      <trkpt lat="45.56665" lon="6.93141">
        <ele>2386.747</ele>
        <time>2022-08-02T15:12:05Z</time>
      </trkpt>
      <trkpt lat="45.56662" lon="6.93146">
        <ele>2383.235</ele>
        <time>2022-08-02T15:12:15Z</time>
      </trkpt>
      <trkpt lat="45.56662" lon="6.93157">
        <ele>2381.492</ele>
        <time>2022-08-02T15:12:25Z</time>
      </trkpt>
      <trkpt lat="45.56664" lon="6.93165">
        <ele>2378.365</ele>
        <time>2022-08-02T15:12:34Z</time>
      </trkpt>
      <trkpt lat="45.56667" lon="6.93174">
        <ele>2376.024</ele>
        <time>2022-08-02T15:12:44Z</time>
      </trkpt>
      <trkpt lat="45.56668" lon="6.93185">
        <ele>2375.007</ele>
        <time>2022-08-02T15:12:53Z</time>
      </trkpt>
      <trkpt lat="45.56668" lon="6.93186">
        <ele>2375.418</ele>
        <time>2022-08-02T15:13:03Z</time>
      </trkpt>
      <trkpt lat="45.56668" lon="6.93186">
        <ele>2375.612</ele>
        <time>2022-08-02T15:13:13Z</time>
      </trkpt>
      <trkpt lat="45.56668" lon="6.93185">
        <ele>2376.479</ele>
        <time>2022-08-02T15:13:22Z</time>
      </trkpt>
      <trkpt lat="45.56667" lon="6.93185">
        <ele>2376.538</ele>
        <time>2022-08-02T15:13:32Z</time>
      </trkpt>
      <trkpt lat="45.56663" lon="6.93193">
        <ele>2374.022</ele>
        <time>2022-08-02T15:13:41Z</time>
      </trkpt>
      <trkpt lat="45.56658" lon="6.93194">
        <ele>2373.372</ele>
        <time>2022-08-02T15:13:50Z</time>
      </trkpt>
      <trkpt lat="45.56658" lon="6.93194">
        <ele>2372.67</ele>
        <time>2022-08-02T15:13:59Z</time>
      </trkpt>
      <trkpt lat="45.56649" lon="6.93189">
        <ele>2373.8</ele>
        <time>2022-08-02T15:14:09Z</time>
      </trkpt>
      <trkpt lat="45.56641" lon="6.93186">
        <ele>2373.918</ele>
        <time>2022-08-02T15:14:18Z</time>
      </trkpt>
      <trkpt lat="45.56632" lon="6.93188">
        <ele>2374.072</ele>
        <time>2022-08-02T15:14:27Z</time>
      </trkpt>
      <trkpt lat="45.56621" lon="6.93192">
        <ele>2374.295</ele>
        <time>2022-08-02T15:14:37Z</time>
      </trkpt>
      <trkpt lat="45.56613" lon="6.93195">
        <ele>2375.866</ele>
        <time>2022-08-02T15:14:47Z</time>
      </trkpt>
      <trkpt lat="45.56607" lon="6.932">
        <ele>2376.122</ele>
        <time>2022-08-02T15:14:56Z</time>
      </trkpt>
      <trkpt lat="45.56601" lon="6.93205">
        <ele>2376.981</ele>
        <time>2022-08-02T15:15:05Z</time>
      </trkpt>
      <trkpt lat="45.56593" lon="6.9321">
        <ele>2376.976</ele>
        <time>2022-08-02T15:15:15Z</time>
      </trkpt>
      <trkpt lat="45.56589" lon="6.93215">
        <ele>2375.589</ele>
        <time>2022-08-02T15:15:25Z</time>
      </trkpt>
      <trkpt lat="45.56589" lon="6.93214">
        <ele>2375.396</ele>
        <time>2022-08-02T15:15:34Z</time>
      </trkpt>
      <trkpt lat="45.56591" lon="6.93215">
        <ele>2375.716</ele>
        <time>2022-08-02T15:15:43Z</time>
      </trkpt>
      <trkpt lat="45.56592" lon="6.93216">
        <ele>2374.095</ele>
        <time>2022-08-02T15:15:53Z</time>
      </trkpt>
      <trkpt lat="45.56591" lon="6.93218">
        <ele>2374.977</ele>
        <time>2022-08-02T15:16:03Z</time>
      </trkpt>
      <trkpt lat="45.56595" lon="6.93209">
        <ele>2376.349</ele>
        <time>2022-08-02T15:16:13Z</time>
      </trkpt>
      <trkpt lat="45.56598" lon="6.93209">
        <ele>2375.584</ele>
        <time>2022-08-02T15:16:23Z</time>
      </trkpt>
      <trkpt lat="45.56598" lon="6.93209">
        <ele>2375.528</ele>
        <time>2022-08-02T15:16:32Z</time>
      </trkpt>
      <trkpt lat="45.56598" lon="6.93209">
        <ele>2375.511</ele>
        <time>2022-08-02T15:16:42Z</time>
      </trkpt>
      <trkpt lat="45.56598" lon="6.93209">
        <ele>2375.471</ele>
        <time>2022-08-02T15:16:51Z</time>
      </trkpt>
      <trkpt lat="45.56597" lon="6.93209">
        <ele>2375.07</ele>
        <time>2022-08-02T15:17:00Z</time>
      </trkpt>
      <trkpt lat="45.56597" lon="6.93209">
        <ele>2375.047</ele>
        <time>2022-08-02T15:17:09Z</time>
      </trkpt>
      <trkpt lat="45.56597" lon="6.9321">
        <ele>2375.86</ele>
        <time>2022-08-02T15:17:19Z</time>
      </trkpt>
      <trkpt lat="45.56597" lon="6.93211">
        <ele>2375.683</ele>
        <time>2022-08-02T15:17:29Z</time>
      </trkpt>
      <trkpt lat="45.56597" lon="6.93211">
        <ele>2375.546</ele>
        <time>2022-08-02T15:17:38Z</time>
      </trkpt>
      <trkpt lat="45.56597" lon="6.93211">
        <ele>2375.562</ele>
        <time>2022-08-02T15:17:47Z</time>
      </trkpt>
      <trkpt lat="45.56597" lon="6.93211">
        <ele>2375.552</ele>
        <time>2022-08-02T15:17:56Z</time>
      </trkpt>
      <trkpt lat="45.56597" lon="6.93211">
        <ele>2375.554</ele>
        <time>2022-08-02T15:18:05Z</time>
      </trkpt>
      <trkpt lat="45.56597" lon="6.93211">
        <ele>2375.569</ele>
        <time>2022-08-02T15:18:14Z</time>
      </trkpt>
      <trkpt lat="45.56598" lon="6.9321">
        <ele>2375.546</ele>
        <time>2022-08-02T15:18:23Z</time>
      </trkpt>
      <trkpt lat="45.56599" lon="6.9321">
        <ele>2376.738</ele>
        <time>2022-08-02T15:18:33Z</time>
      </trkpt>
      <trkpt lat="45.56599" lon="6.9321">
        <ele>2376.758</ele>
        <time>2022-08-02T15:18:42Z</time>
      </trkpt>
      <trkpt lat="45.56599" lon="6.9321">
        <ele>2376.739</ele>
        <time>2022-08-02T15:18:52Z</time>
      </trkpt>
      <trkpt lat="45.56599" lon="6.9321">
        <ele>2376.789</ele>
        <time>2022-08-02T15:19:02Z</time>
      </trkpt>
      <trkpt lat="45.56599" lon="6.93211">
        <ele>2376.848</ele>
        <time>2022-08-02T15:19:11Z</time>
      </trkpt>
      <trkpt lat="45.56598" lon="6.9321">
        <ele>2376.911</ele>
        <time>2022-08-02T15:19:21Z</time>
      </trkpt>
      <trkpt lat="45.56598" lon="6.93211">
        <ele>2375.152</ele>
        <time>2022-08-02T15:19:31Z</time>
      </trkpt>
      <trkpt lat="45.56597" lon="6.93211">
        <ele>2374.983</ele>
        <time>2022-08-02T15:19:40Z</time>
      </trkpt>
      <trkpt lat="45.56592" lon="6.93209">
        <ele>2375.127</ele>
        <time>2022-08-02T15:19:49Z</time>
      </trkpt>
      <trkpt lat="45.56585" lon="6.93209">
        <ele>2377.632</ele>
        <time>2022-08-02T15:19:59Z</time>
      </trkpt>
      <trkpt lat="45.56579" lon="6.93205">
        <ele>2377.839</ele>
        <time>2022-08-02T15:20:09Z</time>
      </trkpt>
      <trkpt lat="45.56574" lon="6.93205">
        <ele>2377.037</ele>
        <time>2022-08-02T15:20:18Z</time>
      </trkpt>
      <trkpt lat="45.56565" lon="6.93203">
        <ele>2376.973</ele>
        <time>2022-08-02T15:20:28Z</time>
      </trkpt>
      <trkpt lat="45.56557" lon="6.932">
        <ele>2376.282</ele>
        <time>2022-08-02T15:20:37Z</time>
      </trkpt>
      <trkpt lat="45.56549" lon="6.93199">
        <ele>2377.467</ele>
        <time>2022-08-02T15:20:46Z</time>
      </trkpt>
      <trkpt lat="45.56543" lon="6.93196">
        <ele>2378.38</ele>
        <time>2022-08-02T15:20:56Z</time>
      </trkpt>
      <trkpt lat="45.56538" lon="6.93192">
        <ele>2379.127</ele>
        <time>2022-08-02T15:21:05Z</time>
      </trkpt>
      <trkpt lat="45.56536" lon="6.93185">
        <ele>2380.66</ele>
        <time>2022-08-02T15:21:15Z</time>
      </trkpt>
      <trkpt lat="45.56536" lon="6.93185">
        <ele>2381.068</ele>
        <time>2022-08-02T15:21:24Z</time>
      </trkpt>
      <trkpt lat="45.56538" lon="6.93186">
        <ele>2378.429</ele>
        <time>2022-08-02T15:21:34Z</time>
      </trkpt>
      <trkpt lat="45.56538" lon="6.93186">
        <ele>2378.05</ele>
        <time>2022-08-02T15:21:44Z</time>
      </trkpt>
      <trkpt lat="45.56538" lon="6.93186">
        <ele>2378.268</ele>
        <time>2022-08-02T15:21:53Z</time>
      </trkpt>
      <trkpt lat="45.56538" lon="6.93186">
        <ele>2378.299</ele>
        <time>2022-08-02T15:22:02Z</time>
      </trkpt>
      <trkpt lat="45.56538" lon="6.93186">
        <ele>2378.316</ele>
        <time>2022-08-02T15:22:12Z</time>
      </trkpt>
      <trkpt lat="45.56538" lon="6.93186">
        <ele>2378.35</ele>
        <time>2022-08-02T15:22:21Z</time>
      </trkpt>
      <trkpt lat="45.56538" lon="6.93186">
        <ele>2378.358</ele>
        <time>2022-08-02T15:22:30Z</time>
      </trkpt>
      <trkpt lat="45.56538" lon="6.93186">
        <ele>2378.361</ele>
        <time>2022-08-02T15:22:40Z</time>
      </trkpt>
      <trkpt lat="45.56538" lon="6.93186">
        <ele>2378.361</ele>
        <time>2022-08-02T15:22:49Z</time>
      </trkpt>
      <trkpt lat="45.56538" lon="6.93186">
        <ele>2378.368</ele>
        <time>2022-08-02T15:22:59Z</time>
      </trkpt>
      <trkpt lat="45.56538" lon="6.93186">
        <ele>2378.373</ele>
        <time>2022-08-02T15:23:08Z</time>
      </trkpt>
      <trkpt lat="45.56538" lon="6.93186">
        <ele>2378.391</ele>
        <time>2022-08-02T15:23:18Z</time>
      </trkpt>
      <trkpt lat="45.56538" lon="6.93186">
        <ele>2378.399</ele>
        <time>2022-08-02T15:23:28Z</time>
      </trkpt>
      <trkpt lat="45.56538" lon="6.93186">
        <ele>2378.404</ele>
        <time>2022-08-02T15:23:37Z</time>
      </trkpt>
      <trkpt lat="45.56538" lon="6.93186">
        <ele>2378.407</ele>
        <time>2022-08-02T15:23:47Z</time>
      </trkpt>
      <trkpt lat="45.56538" lon="6.93186">
        <ele>2378.405</ele>
        <time>2022-08-02T15:23:57Z</time>
      </trkpt>
      <trkpt lat="45.56538" lon="6.93186">
        <ele>2378.397</ele>
        <time>2022-08-02T15:24:06Z</time>
      </trkpt>
      <trkpt lat="45.56538" lon="6.93186">
        <ele>2378.42</ele>
        <time>2022-08-02T15:24:15Z</time>
      </trkpt>
      <trkpt lat="45.56539" lon="6.93186">
        <ele>2378.314</ele>
        <time>2022-08-02T15:24:25Z</time>
      </trkpt>
      <trkpt lat="45.56538" lon="6.93188">
        <ele>2380.436</ele>
        <time>2022-08-02T15:24:35Z</time>
      </trkpt>
      <trkpt lat="45.56538" lon="6.93188">
        <ele>2380.474</ele>
        <time>2022-08-02T15:24:44Z</time>
      </trkpt>
      <trkpt lat="45.56538" lon="6.93188">
        <ele>2380.488</ele>
        <time>2022-08-02T15:24:53Z</time>
      </trkpt>
      <trkpt lat="45.56538" lon="6.93188">
        <ele>2380.499</ele>
        <time>2022-08-02T15:25:02Z</time>
      </trkpt>
      <trkpt lat="45.56538" lon="6.93188">
        <ele>2380.497</ele>
        <time>2022-08-02T15:25:11Z</time>
      </trkpt>
      <trkpt lat="45.56538" lon="6.93188">
        <ele>2380.497</ele>
        <time>2022-08-02T15:25:20Z</time>
      </trkpt>
      <trkpt lat="45.56538" lon="6.93188">
        <ele>2380.495</ele>
        <time>2022-08-02T15:25:30Z</time>
      </trkpt>
      <trkpt lat="45.56538" lon="6.93188">
        <ele>2380.492</ele>
        <time>2022-08-02T15:25:39Z</time>
      </trkpt>
      <trkpt lat="45.56538" lon="6.93188">
        <ele>2380.491</ele>
        <time>2022-08-02T15:25:49Z</time>
      </trkpt>
      <trkpt lat="45.56538" lon="6.93188">
        <ele>2380.498</ele>
        <time>2022-08-02T15:25:59Z</time>
      </trkpt>
      <trkpt lat="45.56538" lon="6.93188">
        <ele>2380.48</ele>
        <time>2022-08-02T15:26:09Z</time>
      </trkpt>
      <trkpt lat="45.56538" lon="6.93188">
        <ele>2380.483</ele>
        <time>2022-08-02T15:26:18Z</time>
      </trkpt>
      <trkpt lat="45.56538" lon="6.93188">
        <ele>2380.483</ele>
        <time>2022-08-02T15:26:27Z</time>
      </trkpt>
      <trkpt lat="45.56538" lon="6.93188">
        <ele>2380.492</ele>
        <time>2022-08-02T15:26:37Z</time>
      </trkpt>
      <trkpt lat="45.56538" lon="6.93188">
        <ele>2380.469</ele>
        <time>2022-08-02T15:26:46Z</time>
      </trkpt>
      <trkpt lat="45.56538" lon="6.93188">
        <ele>2380.499</ele>
        <time>2022-08-02T15:26:56Z</time>
      </trkpt>
      <trkpt lat="45.56538" lon="6.93188">
        <ele>2380.509</ele>
        <time>2022-08-02T15:27:06Z</time>
      </trkpt>
      <trkpt lat="45.56538" lon="6.93188">
        <ele>2380.505</ele>
        <time>2022-08-02T15:27:16Z</time>
      </trkpt>
      <trkpt lat="45.56538" lon="6.93188">
        <ele>2380.479</ele>
        <time>2022-08-02T15:27:25Z</time>
      </trkpt>
      <trkpt lat="45.56538" lon="6.93188">
        <ele>2380.456</ele>
        <time>2022-08-02T15:27:34Z</time>
      </trkpt>
      <trkpt lat="45.56538" lon="6.93188">
        <ele>2380.439</ele>
        <time>2022-08-02T15:27:44Z</time>
      </trkpt>
      <trkpt lat="45.56538" lon="6.93188">
        <ele>2380.423</ele>
        <time>2022-08-02T15:27:54Z</time>
      </trkpt>
      <trkpt lat="45.56538" lon="6.93188">
        <ele>2380.432</ele>
        <time>2022-08-02T15:28:03Z</time>
      </trkpt>
      <trkpt lat="45.56538" lon="6.93188">
        <ele>2380.45</ele>
        <time>2022-08-02T15:28:12Z</time>
      </trkpt>
      <trkpt lat="45.56538" lon="6.93189">
        <ele>2380.061</ele>
        <time>2022-08-02T15:28:21Z</time>
      </trkpt>
      <trkpt lat="45.56542" lon="6.93194">
        <ele>2380.203</ele>
        <time>2022-08-02T15:28:31Z</time>
      </trkpt>
      <trkpt lat="45.56545" lon="6.932">
        <ele>2378.105</ele>
        <time>2022-08-02T15:28:41Z</time>
      </trkpt>
      <trkpt lat="45.56549" lon="6.93204">
        <ele>2376.707</ele>
        <time>2022-08-02T15:28:50Z</time>
      </trkpt>
      <trkpt lat="45.56552" lon="6.93211">
        <ele>2377.303</ele>
        <time>2022-08-02T15:29:00Z</time>
      </trkpt>
      <trkpt lat="45.56558" lon="6.93218">
        <ele>2377.251</ele>
        <time>2022-08-02T15:29:09Z</time>
      </trkpt>
      <trkpt lat="45.56565" lon="6.93224">
        <ele>2377.028</ele>
        <time>2022-08-02T15:29:19Z</time>
      </trkpt>
      <trkpt lat="45.56572" lon="6.93228">
        <ele>2376.255</ele>
        <time>2022-08-02T15:29:28Z</time>
      </trkpt>
      <trkpt lat="45.56581" lon="6.93224">
        <ele>2376.88</ele>
        <time>2022-08-02T15:29:38Z</time>
      </trkpt>
      <trkpt lat="45.56588" lon="6.9322">
        <ele>2376.742</ele>
        <time>2022-08-02T15:29:47Z</time>
      </trkpt>
      <trkpt lat="45.56597" lon="6.93215">
        <ele>2376.076</ele>
        <time>2022-08-02T15:29:57Z</time>
      </trkpt>
      <trkpt lat="45.56605" lon="6.93207">
        <ele>2376.053</ele>
        <time>2022-08-02T15:30:06Z</time>
      </trkpt>
      <trkpt lat="45.56606" lon="6.93209">
        <ele>2375.509</ele>
        <time>2022-08-02T15:30:16Z</time>
      </trkpt>
      <trkpt lat="45.56606" lon="6.93208">
        <ele>2375.018</ele>
        <time>2022-08-02T15:30:25Z</time>
      </trkpt>
      <trkpt lat="45.56606" lon="6.93208">
        <ele>2375.061</ele>
        <time>2022-08-02T15:30:35Z</time>
      </trkpt>
      <trkpt lat="45.56607" lon="6.9321">
        <ele>2374.751</ele>
        <time>2022-08-02T15:30:44Z</time>
      </trkpt>
      <trkpt lat="45.56607" lon="6.9321">
        <ele>2374.814</ele>
        <time>2022-08-02T15:30:54Z</time>
      </trkpt>
      <trkpt lat="45.56607" lon="6.9321">
        <ele>2374.812</ele>
        <time>2022-08-02T15:31:04Z</time>
      </trkpt>
      <trkpt lat="45.56607" lon="6.9321">
        <ele>2374.813</ele>
        <time>2022-08-02T15:31:13Z</time>
      </trkpt>
      <trkpt lat="45.56607" lon="6.9321">
        <ele>2374.807</ele>
        <time>2022-08-02T15:31:22Z</time>
      </trkpt>
      <trkpt lat="45.56607" lon="6.9321">
        <ele>2374.81</ele>
        <time>2022-08-02T15:31:32Z</time>
      </trkpt>
      <trkpt lat="45.56607" lon="6.9321">
        <ele>2374.812</ele>
        <time>2022-08-02T15:31:41Z</time>
      </trkpt>
      <trkpt lat="45.56607" lon="6.9321">
        <ele>2374.813</ele>
        <time>2022-08-02T15:31:51Z</time>
      </trkpt>
      <trkpt lat="45.56607" lon="6.9321">
        <ele>2374.812</ele>
        <time>2022-08-02T15:32:00Z</time>
      </trkpt>
      <trkpt lat="45.56607" lon="6.9321">
        <ele>2374.815</ele>
        <time>2022-08-02T15:32:10Z</time>
      </trkpt>
      <trkpt lat="45.56607" lon="6.9321">
        <ele>2374.817</ele>
        <time>2022-08-02T15:32:20Z</time>
      </trkpt>
      <trkpt lat="45.56607" lon="6.9321">
        <ele>2374.81</ele>
        <time>2022-08-02T15:32:30Z</time>
      </trkpt>
      <trkpt lat="45.56607" lon="6.9321">
        <ele>2374.809</ele>
        <time>2022-08-02T15:32:40Z</time>
      </trkpt>
      <trkpt lat="45.56607" lon="6.9321">
        <ele>2374.806</ele>
        <time>2022-08-02T15:32:49Z</time>
      </trkpt>
      <trkpt lat="45.56607" lon="6.9321">
        <ele>2374.807</ele>
        <time>2022-08-02T15:32:59Z</time>
      </trkpt>
      <trkpt lat="45.56607" lon="6.9321">
        <ele>2374.807</ele>
        <time>2022-08-02T15:33:09Z</time>
      </trkpt>
      <trkpt lat="45.56607" lon="6.9321">
        <ele>2374.805</ele>
        <time>2022-08-02T15:33:19Z</time>
      </trkpt>
      <trkpt lat="45.56607" lon="6.9321">
        <ele>2374.805</ele>
        <time>2022-08-02T15:33:28Z</time>
      </trkpt>
      <trkpt lat="45.56607" lon="6.9321">
        <ele>2374.799</ele>
        <time>2022-08-02T15:33:37Z</time>
      </trkpt>
      <trkpt lat="45.56607" lon="6.9321">
        <ele>2374.795</ele>
        <time>2022-08-02T15:33:46Z</time>
      </trkpt>
      <trkpt lat="45.56607" lon="6.9321">
        <ele>2374.782</ele>
        <time>2022-08-02T15:33:56Z</time>
      </trkpt>
      <trkpt lat="45.56607" lon="6.9321">
        <ele>2374.778</ele>
        <time>2022-08-02T15:34:05Z</time>
      </trkpt>
      <trkpt lat="45.56607" lon="6.93209">
        <ele>2375.204</ele>
        <time>2022-08-02T15:34:14Z</time>
      </trkpt>
      <trkpt lat="45.56607" lon="6.93209">
        <ele>2374.018</ele>
        <time>2022-08-02T15:34:24Z</time>
      </trkpt>
      <trkpt lat="45.56607" lon="6.93209">
        <ele>2374.129</ele>
        <time>2022-08-02T15:34:34Z</time>
      </trkpt>
      <trkpt lat="45.56607" lon="6.93209">
        <ele>2374.124</ele>
        <time>2022-08-02T15:34:44Z</time>
      </trkpt>
      <trkpt lat="45.56606" lon="6.93209">
        <ele>2374.392</ele>
        <time>2022-08-02T15:34:54Z</time>
      </trkpt>
      <trkpt lat="45.56607" lon="6.9321">
        <ele>2373.996</ele>
        <time>2022-08-02T15:35:03Z</time>
      </trkpt>
      <trkpt lat="45.56607" lon="6.9321">
        <ele>2373.924</ele>
        <time>2022-08-02T15:35:12Z</time>
      </trkpt>
      <trkpt lat="45.56607" lon="6.9321">
        <ele>2375.432</ele>
        <time>2022-08-02T15:35:22Z</time>
      </trkpt>
      <trkpt lat="45.56606" lon="6.93209">
        <ele>2375.458</ele>
        <time>2022-08-02T15:35:32Z</time>
      </trkpt>
      <trkpt lat="45.56606" lon="6.93209">
        <ele>2375.541</ele>
        <time>2022-08-02T15:35:41Z</time>
      </trkpt>
      <trkpt lat="45.56607" lon="6.9321">
        <ele>2373.555</ele>
        <time>2022-08-02T15:35:51Z</time>
      </trkpt>
      <trkpt lat="45.56606" lon="6.9321">
        <ele>2372.903</ele>
        <time>2022-08-02T15:36:00Z</time>
      </trkpt>
      <trkpt lat="45.56606" lon="6.9321">
        <ele>2372.975</ele>
        <time>2022-08-02T15:36:10Z</time>
      </trkpt>
      <trkpt lat="45.56606" lon="6.9321">
        <ele>2372.99</ele>
        <time>2022-08-02T15:36:20Z</time>
      </trkpt>
      <trkpt lat="45.56606" lon="6.9321">
        <ele>2373.018</ele>
        <time>2022-08-02T15:36:30Z</time>
      </trkpt>
      <trkpt lat="45.56606" lon="6.9321">
        <ele>2373.029</ele>
        <time>2022-08-02T15:36:40Z</time>
      </trkpt>
      <trkpt lat="45.56606" lon="6.9321">
        <ele>2373.037</ele>
        <time>2022-08-02T15:36:50Z</time>
      </trkpt>
      <trkpt lat="45.56606" lon="6.9321">
        <ele>2373.049</ele>
        <time>2022-08-02T15:37:00Z</time>
      </trkpt>
      <trkpt lat="45.56606" lon="6.9321">
        <ele>2373.057</ele>
        <time>2022-08-02T15:37:09Z</time>
      </trkpt>
      <trkpt lat="45.56606" lon="6.9321">
        <ele>2373.077</ele>
        <time>2022-08-02T15:37:19Z</time>
      </trkpt>
      <trkpt lat="45.56606" lon="6.9321">
        <ele>2373.046</ele>
        <time>2022-08-02T15:37:28Z</time>
      </trkpt>
      <trkpt lat="45.56606" lon="6.9321">
        <ele>2373.327</ele>
        <time>2022-08-02T15:37:37Z</time>
      </trkpt>
      <trkpt lat="45.56606" lon="6.9321">
        <ele>2373.445</ele>
        <time>2022-08-02T15:37:46Z</time>
      </trkpt>
      <trkpt lat="45.56606" lon="6.93209">
        <ele>2373.982</ele>
        <time>2022-08-02T15:37:56Z</time>
      </trkpt>
      <trkpt lat="45.56606" lon="6.93208">
        <ele>2374.573</ele>
        <time>2022-08-02T15:38:05Z</time>
      </trkpt>
      <trkpt lat="45.56607" lon="6.93208">
        <ele>2372.447</ele>
        <time>2022-08-02T15:38:14Z</time>
      </trkpt>
      <trkpt lat="45.56607" lon="6.93209">
        <ele>2372.412</ele>
        <time>2022-08-02T15:38:24Z</time>
      </trkpt>
      <trkpt lat="45.56607" lon="6.93209">
        <ele>2372.418</ele>
        <time>2022-08-02T15:38:34Z</time>
      </trkpt>
      <trkpt lat="45.56606" lon="6.93209">
        <ele>2373.044</ele>
        <time>2022-08-02T15:38:43Z</time>
      </trkpt>
      <trkpt lat="45.56606" lon="6.93209">
        <ele>2374.875</ele>
        <time>2022-08-02T15:38:53Z</time>
      </trkpt>
      <trkpt lat="45.56606" lon="6.93208">
        <ele>2373.769</ele>
        <time>2022-08-02T15:39:03Z</time>
      </trkpt>
      <trkpt lat="45.56606" lon="6.93209">
        <ele>2374.386</ele>
        <time>2022-08-02T15:39:13Z</time>
      </trkpt>
      <trkpt lat="45.56606" lon="6.93209">
        <ele>2374.758</ele>
        <time>2022-08-02T15:39:23Z</time>
      </trkpt>
      <trkpt lat="45.56606" lon="6.93209">
        <ele>2374.766</ele>
        <time>2022-08-02T15:39:32Z</time>
      </trkpt>
      <trkpt lat="45.56607" lon="6.93208">
        <ele>2374.915</ele>
        <time>2022-08-02T15:39:42Z</time>
      </trkpt>
      <trkpt lat="45.56606" lon="6.93208">
        <ele>2375.016</ele>
        <time>2022-08-02T15:39:51Z</time>
      </trkpt>
      <trkpt lat="45.56606" lon="6.93208">
        <ele>2375.445</ele>
        <time>2022-08-02T15:40:00Z</time>
      </trkpt>
      <trkpt lat="45.56606" lon="6.93208">
        <ele>2375.545</ele>
        <time>2022-08-02T15:40:10Z</time>
      </trkpt>
      <trkpt lat="45.56606" lon="6.93208">
        <ele>2375.598</ele>
        <time>2022-08-02T15:40:19Z</time>
      </trkpt>
      <trkpt lat="45.56606" lon="6.93208">
        <ele>2375.604</ele>
        <time>2022-08-02T15:40:28Z</time>
      </trkpt>
      <trkpt lat="45.56606" lon="6.93208">
        <ele>2375.611</ele>
        <time>2022-08-02T15:40:37Z</time>
      </trkpt>
      <trkpt lat="45.56606" lon="6.93208">
        <ele>2375.608</ele>
        <time>2022-08-02T15:40:46Z</time>
      </trkpt>
      <trkpt lat="45.56606" lon="6.93208">
        <ele>2375.608</ele>
        <time>2022-08-02T15:40:56Z</time>
      </trkpt>
      <trkpt lat="45.56606" lon="6.93207">
        <ele>2375.873</ele>
        <time>2022-08-02T15:41:06Z</time>
      </trkpt>
      <trkpt lat="45.56605" lon="6.93207">
        <ele>2375.956</ele>
        <time>2022-08-02T15:41:15Z</time>
      </trkpt>
      <trkpt lat="45.56605" lon="6.93207">
        <ele>2375.957</ele>
        <time>2022-08-02T15:41:24Z</time>
      </trkpt>
      <trkpt lat="45.56605" lon="6.93207">
        <ele>2376.042</ele>
        <time>2022-08-02T15:41:34Z</time>
      </trkpt>
      <trkpt lat="45.56605" lon="6.93209">
        <ele>2375.789</ele>
        <time>2022-08-02T15:41:44Z</time>
      </trkpt>
      <trkpt lat="45.56605" lon="6.93208">
        <ele>2375.712</ele>
        <time>2022-08-02T15:41:53Z</time>
      </trkpt>
      <trkpt lat="45.56605" lon="6.93208">
        <ele>2375.701</ele>
        <time>2022-08-02T15:42:03Z</time>
      </trkpt>
      <trkpt lat="45.56604" lon="6.93209">
        <ele>2374.856</ele>
        <time>2022-08-02T15:42:12Z</time>
      </trkpt>
      <trkpt lat="45.56604" lon="6.9321">
        <ele>2373.886</ele>
        <time>2022-08-02T15:42:22Z</time>
      </trkpt>
      <trkpt lat="45.56604" lon="6.9321">
        <ele>2373.226</ele>
        <time>2022-08-02T15:42:31Z</time>
      </trkpt>
      <trkpt lat="45.56605" lon="6.9321">
        <ele>2372.222</ele>
        <time>2022-08-02T15:42:41Z</time>
      </trkpt>
      <trkpt lat="45.56605" lon="6.9321">
        <ele>2372.35</ele>
        <time>2022-08-02T15:42:51Z</time>
      </trkpt>
      <trkpt lat="45.56605" lon="6.9321">
        <ele>2372.371</ele>
        <time>2022-08-02T15:43:00Z</time>
      </trkpt>
      <trkpt lat="45.56605" lon="6.9321">
        <ele>2372.386</ele>
        <time>2022-08-02T15:43:10Z</time>
      </trkpt>
      <trkpt lat="45.56605" lon="6.9321">
        <ele>2372.406</ele>
        <time>2022-08-02T15:43:20Z</time>
      </trkpt>
      <trkpt lat="45.56605" lon="6.9321">
        <ele>2371.542</ele>
        <time>2022-08-02T15:43:29Z</time>
      </trkpt>
      <trkpt lat="45.56605" lon="6.93209">
        <ele>2371.705</ele>
        <time>2022-08-02T15:43:38Z</time>
      </trkpt>
      <trkpt lat="45.56605" lon="6.9321">
        <ele>2371.057</ele>
        <time>2022-08-02T15:43:48Z</time>
      </trkpt>
      <trkpt lat="45.56605" lon="6.9321">
        <ele>2371.472</ele>
        <time>2022-08-02T15:43:58Z</time>
      </trkpt>
      <trkpt lat="45.56605" lon="6.9321">
        <ele>2371.456</ele>
        <time>2022-08-02T15:44:07Z</time>
      </trkpt>
      <trkpt lat="45.56605" lon="6.93209">
        <ele>2371.794</ele>
        <time>2022-08-02T15:44:17Z</time>
      </trkpt>
      <trkpt lat="45.56605" lon="6.93209">
        <ele>2371.78</ele>
        <time>2022-08-02T15:44:27Z</time>
      </trkpt>
      <trkpt lat="45.56605" lon="6.93209">
        <ele>2371.787</ele>
        <time>2022-08-02T15:44:37Z</time>
      </trkpt>
      <trkpt lat="45.56604" lon="6.93209">
        <ele>2372.713</ele>
        <time>2022-08-02T15:44:46Z</time>
      </trkpt>
      <trkpt lat="45.56604" lon="6.93209">
        <ele>2372.419</ele>
        <time>2022-08-02T15:44:56Z</time>
      </trkpt>
      <trkpt lat="45.56604" lon="6.93209">
        <ele>2372.437</ele>
        <time>2022-08-02T15:45:06Z</time>
      </trkpt>
      <trkpt lat="45.56605" lon="6.93208">
        <ele>2371.598</ele>
        <time>2022-08-02T15:45:16Z</time>
      </trkpt>
      <trkpt lat="45.56605" lon="6.93208">
        <ele>2372.025</ele>
        <time>2022-08-02T15:45:25Z</time>
      </trkpt>
      <trkpt lat="45.56605" lon="6.93207">
        <ele>2372.485</ele>
        <time>2022-08-02T15:45:35Z</time>
      </trkpt>
      <trkpt lat="45.56605" lon="6.93207">
        <ele>2372.478</ele>
        <time>2022-08-02T15:45:44Z</time>
      </trkpt>
      <trkpt lat="45.56605" lon="6.93207">
        <ele>2372.476</ele>
        <time>2022-08-02T15:45:53Z</time>
      </trkpt>
      <trkpt lat="45.56605" lon="6.93207">
        <ele>2371.831</ele>
        <time>2022-08-02T15:46:03Z</time>
      </trkpt>
      <trkpt lat="45.56604" lon="6.93207">
        <ele>2371.84</ele>
        <time>2022-08-02T15:46:12Z</time>
      </trkpt>
      <trkpt lat="45.56605" lon="6.93207">
        <ele>2371.665</ele>
        <time>2022-08-02T15:46:22Z</time>
      </trkpt>
      <trkpt lat="45.56604" lon="6.93208">
        <ele>2371.246</ele>
        <time>2022-08-02T15:46:31Z</time>
      </trkpt>
      <trkpt lat="45.56604" lon="6.93208">
        <ele>2370.396</ele>
        <time>2022-08-02T15:46:41Z</time>
      </trkpt>
      <trkpt lat="45.56604" lon="6.93208">
        <ele>2370.083</ele>
        <time>2022-08-02T15:46:51Z</time>
      </trkpt>
      <trkpt lat="45.56605" lon="6.93208">
        <ele>2370.597</ele>
        <time>2022-08-02T15:47:00Z</time>
      </trkpt>
      <trkpt lat="45.56605" lon="6.93208">
        <ele>2370.574</ele>
        <time>2022-08-02T15:47:10Z</time>
      </trkpt>
      <trkpt lat="45.56605" lon="6.93208">
        <ele>2370.574</ele>
        <time>2022-08-02T15:47:20Z</time>
      </trkpt>
      <trkpt lat="45.56605" lon="6.93208">
        <ele>2370.582</ele>
        <time>2022-08-02T15:47:29Z</time>
      </trkpt>
      <trkpt lat="45.56605" lon="6.93208">
        <ele>2370.594</ele>
        <time>2022-08-02T15:47:38Z</time>
      </trkpt>
      <trkpt lat="45.56605" lon="6.93208">
        <ele>2370.955</ele>
        <time>2022-08-02T15:47:47Z</time>
      </trkpt>
      <trkpt lat="45.56606" lon="6.93209">
        <ele>2372.181</ele>
        <time>2022-08-02T15:47:56Z</time>
      </trkpt>
      <trkpt lat="45.56606" lon="6.93209">
        <ele>2372.547</ele>
        <time>2022-08-02T15:48:06Z</time>
      </trkpt>
      <trkpt lat="45.56606" lon="6.93209">
        <ele>2372.555</ele>
        <time>2022-08-02T15:48:15Z</time>
      </trkpt>
      <trkpt lat="45.56606" lon="6.93209">
        <ele>2372.557</ele>
        <time>2022-08-02T15:48:25Z</time>
      </trkpt>
      <trkpt lat="45.56606" lon="6.93209">
        <ele>2372.565</ele>
        <time>2022-08-02T15:48:34Z</time>
      </trkpt>
      <trkpt lat="45.56606" lon="6.93209">
        <ele>2372.57</ele>
        <time>2022-08-02T15:48:43Z</time>
      </trkpt>
      <trkpt lat="45.56606" lon="6.93209">
        <ele>2372.58</ele>
        <time>2022-08-02T15:48:52Z</time>
      </trkpt>
      <trkpt lat="45.56606" lon="6.93209">
        <ele>2372.599</ele>
        <time>2022-08-02T15:49:01Z</time>
      </trkpt>
      <trkpt lat="45.56606" lon="6.93209">
        <ele>2372.612</ele>
        <time>2022-08-02T15:49:11Z</time>
      </trkpt>
      <trkpt lat="45.56606" lon="6.93209">
        <ele>2372.624</ele>
        <time>2022-08-02T15:49:20Z</time>
      </trkpt>
      <trkpt lat="45.56606" lon="6.93209">
        <ele>2372.628</ele>
        <time>2022-08-02T15:49:29Z</time>
      </trkpt>
      <trkpt lat="45.56606" lon="6.93209">
        <ele>2372.632</ele>
        <time>2022-08-02T15:49:38Z</time>
      </trkpt>
      <trkpt lat="45.56606" lon="6.93209">
        <ele>2372.639</ele>
        <time>2022-08-02T15:49:47Z</time>
      </trkpt>
      <trkpt lat="45.56606" lon="6.93209">
        <ele>2372.645</ele>
        <time>2022-08-02T15:49:57Z</time>
      </trkpt>
      <trkpt lat="45.56606" lon="6.93209">
        <ele>2372.66</ele>
        <time>2022-08-02T15:50:07Z</time>
      </trkpt>
      <trkpt lat="45.56606" lon="6.93209">
        <ele>2372.654</ele>
        <time>2022-08-02T15:50:16Z</time>
      </trkpt>
      <trkpt lat="45.56606" lon="6.93209">
        <ele>2372.661</ele>
        <time>2022-08-02T15:50:26Z</time>
      </trkpt>
      <trkpt lat="45.56606" lon="6.93209">
        <ele>2372.682</ele>
        <time>2022-08-02T15:50:35Z</time>
      </trkpt>
      <trkpt lat="45.56606" lon="6.93209">
        <ele>2372.69</ele>
        <time>2022-08-02T15:50:45Z</time>
      </trkpt>
      <trkpt lat="45.56606" lon="6.93209">
        <ele>2372.704</ele>
        <time>2022-08-02T15:50:55Z</time>
      </trkpt>
      <trkpt lat="45.56606" lon="6.93209">
        <ele>2372.725</ele>
        <time>2022-08-02T15:51:05Z</time>
      </trkpt>
      <trkpt lat="45.56606" lon="6.93209">
        <ele>2372.744</ele>
        <time>2022-08-02T15:51:14Z</time>
      </trkpt>
      <trkpt lat="45.56606" lon="6.93209">
        <ele>2372.764</ele>
        <time>2022-08-02T15:51:23Z</time>
      </trkpt>
      <trkpt lat="45.56606" lon="6.93209">
        <ele>2372.785</ele>
        <time>2022-08-02T15:51:32Z</time>
      </trkpt>
      <trkpt lat="45.56606" lon="6.93209">
        <ele>2372.803</ele>
        <time>2022-08-02T15:51:42Z</time>
      </trkpt>
      <trkpt lat="45.56606" lon="6.93209">
        <ele>2372.824</ele>
        <time>2022-08-02T15:51:51Z</time>
      </trkpt>
      <trkpt lat="45.56606" lon="6.93209">
        <ele>2372.831</ele>
        <time>2022-08-02T15:52:00Z</time>
      </trkpt>
      <trkpt lat="45.56606" lon="6.93209">
        <ele>2372.857</ele>
        <time>2022-08-02T15:52:10Z</time>
      </trkpt>
      <trkpt lat="45.56606" lon="6.93209">
        <ele>2372.871</ele>
        <time>2022-08-02T15:52:19Z</time>
      </trkpt>
      <trkpt lat="45.56606" lon="6.93209">
        <ele>2372.881</ele>
        <time>2022-08-02T15:52:29Z</time>
      </trkpt>
      <trkpt lat="45.56606" lon="6.93209">
        <ele>2372.9</ele>
        <time>2022-08-02T15:52:38Z</time>
      </trkpt>
      <trkpt lat="45.56606" lon="6.93209">
        <ele>2372.914</ele>
        <time>2022-08-02T15:52:48Z</time>
      </trkpt>
      <trkpt lat="45.56606" lon="6.93209">
        <ele>2372.939</ele>
        <time>2022-08-02T15:52:57Z</time>
      </trkpt>
      <trkpt lat="45.56606" lon="6.93209">
        <ele>2372.96</ele>
        <time>2022-08-02T15:53:06Z</time>
      </trkpt>
      <trkpt lat="45.56606" lon="6.93209">
        <ele>2372.983</ele>
        <time>2022-08-02T15:53:16Z</time>
      </trkpt>
      <trkpt lat="45.56606" lon="6.93209">
        <ele>2373.003</ele>
        <time>2022-08-02T15:53:25Z</time>
      </trkpt>
      <trkpt lat="45.56606" lon="6.93209">
        <ele>2373.02</ele>
        <time>2022-08-02T15:53:34Z</time>
      </trkpt>
      <trkpt lat="45.56606" lon="6.93209">
        <ele>2373.034</ele>
        <time>2022-08-02T15:53:44Z</time>
      </trkpt>
      <trkpt lat="45.56606" lon="6.93209">
        <ele>2373.044</ele>
        <time>2022-08-02T15:53:54Z</time>
      </trkpt>
      <trkpt lat="45.56606" lon="6.93209">
        <ele>2373.052</ele>
        <time>2022-08-02T15:54:04Z</time>
      </trkpt>
      <trkpt lat="45.56606" lon="6.93209">
        <ele>2373.052</ele>
        <time>2022-08-02T15:54:13Z</time>
      </trkpt>
      <trkpt lat="45.56606" lon="6.93209">
        <ele>2373.058</ele>
        <time>2022-08-02T15:54:23Z</time>
      </trkpt>
      <trkpt lat="45.56606" lon="6.93209">
        <ele>2373.074</ele>
        <time>2022-08-02T15:54:32Z</time>
      </trkpt>
      <trkpt lat="45.56606" lon="6.93209">
        <ele>2373.089</ele>
        <time>2022-08-02T15:54:42Z</time>
      </trkpt>
      <trkpt lat="45.56606" lon="6.93209">
        <ele>2373.103</ele>
        <time>2022-08-02T15:54:51Z</time>
      </trkpt>
      <trkpt lat="45.56606" lon="6.93209">
        <ele>2373.121</ele>
        <time>2022-08-02T15:55:00Z</time>
      </trkpt>
      <trkpt lat="45.56606" lon="6.93209">
        <ele>2373.138</ele>
        <time>2022-08-02T15:55:10Z</time>
      </trkpt>
      <trkpt lat="45.56606" lon="6.93209">
        <ele>2373.154</ele>
        <time>2022-08-02T15:55:19Z</time>
      </trkpt>
      <trkpt lat="45.56606" lon="6.93209">
        <ele>2373.175</ele>
        <time>2022-08-02T15:55:28Z</time>
      </trkpt>
      <trkpt lat="45.56606" lon="6.93209">
        <ele>2373.197</ele>
        <time>2022-08-02T15:55:37Z</time>
      </trkpt>
      <trkpt lat="45.56606" lon="6.93209">
        <ele>2373.223</ele>
        <time>2022-08-02T15:55:47Z</time>
      </trkpt>
      <trkpt lat="45.56606" lon="6.93209">
        <ele>2373.238</ele>
        <time>2022-08-02T15:55:57Z</time>
      </trkpt>
      <trkpt lat="45.56606" lon="6.93209">
        <ele>2373.247</ele>
        <time>2022-08-02T15:56:06Z</time>
      </trkpt>
      <trkpt lat="45.56606" lon="6.93209">
        <ele>2373.257</ele>
        <time>2022-08-02T15:56:16Z</time>
      </trkpt>
      <trkpt lat="45.56606" lon="6.93209">
        <ele>2373.27</ele>
        <time>2022-08-02T15:56:25Z</time>
      </trkpt>
      <trkpt lat="45.56606" lon="6.93209">
        <ele>2373.281</ele>
        <time>2022-08-02T15:56:35Z</time>
      </trkpt>
      <trkpt lat="45.56606" lon="6.93209">
        <ele>2373.292</ele>
        <time>2022-08-02T15:56:44Z</time>
      </trkpt>
      <trkpt lat="45.56606" lon="6.93209">
        <ele>2373.303</ele>
        <time>2022-08-02T15:56:53Z</time>
      </trkpt>
      <trkpt lat="45.56606" lon="6.93209">
        <ele>2373.322</ele>
        <time>2022-08-02T15:57:03Z</time>
      </trkpt>
      <trkpt lat="45.56606" lon="6.93209">
        <ele>2373.332</ele>
        <time>2022-08-02T15:57:13Z</time>
      </trkpt>
      <trkpt lat="45.56606" lon="6.93209">
        <ele>2373.355</ele>
        <time>2022-08-02T15:57:23Z</time>
      </trkpt>
      <trkpt lat="45.56606" lon="6.93209">
        <ele>2373.375</ele>
        <time>2022-08-02T15:57:32Z</time>
      </trkpt>
      <trkpt lat="45.56606" lon="6.93209">
        <ele>2373.387</ele>
        <time>2022-08-02T15:57:41Z</time>
      </trkpt>
      <trkpt lat="45.56606" lon="6.93209">
        <ele>2373.405</ele>
        <time>2022-08-02T15:57:50Z</time>
      </trkpt>
      <trkpt lat="45.56606" lon="6.93207">
        <ele>2374.414</ele>
        <time>2022-08-02T15:57:59Z</time>
      </trkpt>
      <trkpt lat="45.56604" lon="6.9321">
        <ele>2373.519</ele>
        <time>2022-08-02T15:58:08Z</time>
      </trkpt>
      <trkpt lat="45.56604" lon="6.9321">
        <ele>2373.492</ele>
        <time>2022-08-02T15:58:17Z</time>
      </trkpt>
      <trkpt lat="45.56604" lon="6.9321">
        <ele>2373.529</ele>
        <time>2022-08-02T15:58:26Z</time>
      </trkpt>
      <trkpt lat="45.56604" lon="6.9321">
        <ele>2373.541</ele>
        <time>2022-08-02T15:58:36Z</time>
      </trkpt>
      <trkpt lat="45.56604" lon="6.93209">
        <ele>2373.586</ele>
        <time>2022-08-02T15:58:46Z</time>
      </trkpt>
      <trkpt lat="45.56533" lon="6.93201">
        <ele>2403.6</ele>
        <time>2022-08-03T07:30:59Z</time>
      </trkpt>
      <trkpt lat="45.56538" lon="6.93207">
        <ele>2379.235</ele>
        <time>2022-08-03T07:31:09Z</time>
      </trkpt>
      <trkpt lat="45.56539" lon="6.93219">
        <ele>2376.432</ele>
        <time>2022-08-03T07:31:19Z</time>
      </trkpt>
      <trkpt lat="45.56541" lon="6.93234">
        <ele>2375.789</ele>
        <time>2022-08-03T07:31:28Z</time>
      </trkpt>
      <trkpt lat="45.56541" lon="6.9324">
        <ele>2375.886</ele>
        <time>2022-08-03T07:31:38Z</time>
      </trkpt>
      <trkpt lat="45.56544" lon="6.93249">
        <ele>2375.168</ele>
        <time>2022-08-03T07:31:47Z</time>
      </trkpt>
      <trkpt lat="45.56545" lon="6.93266">
        <ele>2376.43</ele>
        <time>2022-08-03T07:31:56Z</time>
      </trkpt>
      <trkpt lat="45.56543" lon="6.93279">
        <ele>2375.882</ele>
        <time>2022-08-03T07:32:05Z</time>
      </trkpt>
      <trkpt lat="45.56541" lon="6.9329">
        <ele>2374.927</ele>
        <time>2022-08-03T07:32:14Z</time>
      </trkpt>
      <trkpt lat="45.56538" lon="6.93307">
        <ele>2374.287</ele>
        <time>2022-08-03T07:32:24Z</time>
      </trkpt>
      <trkpt lat="45.56539" lon="6.93322">
        <ele>2373.563</ele>
        <time>2022-08-03T07:32:33Z</time>
      </trkpt>
      <trkpt lat="45.5655" lon="6.93334">
        <ele>2372.347</ele>
        <time>2022-08-03T07:32:43Z</time>
      </trkpt>
      <trkpt lat="45.56559" lon="6.93344">
        <ele>2370.526</ele>
        <time>2022-08-03T07:32:52Z</time>
      </trkpt>
      <trkpt lat="45.56569" lon="6.9335">
        <ele>2369.855</ele>
        <time>2022-08-03T07:33:02Z</time>
      </trkpt>
      <trkpt lat="45.56579" lon="6.93363">
        <ele>2372.492</ele>
        <time>2022-08-03T07:33:12Z</time>
      </trkpt>
      <trkpt lat="45.56587" lon="6.93377">
        <ele>2374.437</ele>
        <time>2022-08-03T07:33:21Z</time>
      </trkpt>
      <trkpt lat="45.56593" lon="6.9339">
        <ele>2375.922</ele>
        <time>2022-08-03T07:33:31Z</time>
      </trkpt>
      <trkpt lat="45.56601" lon="6.93398">
        <ele>2378.196</ele>
        <time>2022-08-03T07:33:40Z</time>
      </trkpt>
      <trkpt lat="45.56609" lon="6.93406">
        <ele>2379.948</ele>
        <time>2022-08-03T07:33:50Z</time>
      </trkpt>
      <trkpt lat="45.5661" lon="6.93414">
        <ele>2381.152</ele>
        <time>2022-08-03T07:34:00Z</time>
      </trkpt>
      <trkpt lat="45.56611" lon="6.93417">
        <ele>2380.627</ele>
        <time>2022-08-03T07:34:10Z</time>
      </trkpt>
      <trkpt lat="45.56612" lon="6.93418">
        <ele>2381.802</ele>
        <time>2022-08-03T07:34:20Z</time>
      </trkpt>
      <trkpt lat="45.56611" lon="6.93418">
        <ele>2382.205</ele>
        <time>2022-08-03T07:34:30Z</time>
      </trkpt>
      <trkpt lat="45.56614" lon="6.93423">
        <ele>2380.546</ele>
        <time>2022-08-03T07:34:39Z</time>
      </trkpt>
      <trkpt lat="45.56624" lon="6.93432">
        <ele>2381.181</ele>
        <time>2022-08-03T07:34:48Z</time>
      </trkpt>
      <trkpt lat="45.56629" lon="6.93446">
        <ele>2382.479</ele>
        <time>2022-08-03T07:34:57Z</time>
      </trkpt>
      <trkpt lat="45.56629" lon="6.93462">
        <ele>2383.316</ele>
        <time>2022-08-03T07:35:07Z</time>
      </trkpt>
      <trkpt lat="45.5663" lon="6.93473">
        <ele>2382.459</ele>
        <time>2022-08-03T07:35:16Z</time>
      </trkpt>
      <trkpt lat="45.56631" lon="6.93479">
        <ele>2382.99</ele>
        <time>2022-08-03T07:35:26Z</time>
      </trkpt>
      <trkpt lat="45.56632" lon="6.93484">
        <ele>2383.479</ele>
        <time>2022-08-03T07:35:36Z</time>
      </trkpt>
      <trkpt lat="45.56636" lon="6.93494">
        <ele>2383.959</ele>
        <time>2022-08-03T07:35:46Z</time>
      </trkpt>
      <trkpt lat="45.56639" lon="6.93506">
        <ele>2383.818</ele>
        <time>2022-08-03T07:35:56Z</time>
      </trkpt>
      <trkpt lat="45.56642" lon="6.93518">
        <ele>2385.609</ele>
        <time>2022-08-03T07:36:06Z</time>
      </trkpt>
      <trkpt lat="45.56647" lon="6.93528">
        <ele>2386.867</ele>
        <time>2022-08-03T07:36:16Z</time>
      </trkpt>
      <trkpt lat="45.56649" lon="6.9354">
        <ele>2388.234</ele>
        <time>2022-08-03T07:36:25Z</time>
      </trkpt>
      <trkpt lat="45.56652" lon="6.93553">
        <ele>2389.615</ele>
        <time>2022-08-03T07:36:35Z</time>
      </trkpt>
      <trkpt lat="45.56655" lon="6.93564">
        <ele>2391.428</ele>
        <time>2022-08-03T07:36:44Z</time>
      </trkpt>
      <trkpt lat="45.56655" lon="6.93576">
        <ele>2392.722</ele>
        <time>2022-08-03T07:36:53Z</time>
      </trkpt>
      <trkpt lat="45.56656" lon="6.93583">
        <ele>2393.364</ele>
        <time>2022-08-03T07:37:03Z</time>
      </trkpt>
      <trkpt lat="45.56656" lon="6.93583">
        <ele>2393.795</ele>
        <time>2022-08-03T07:37:12Z</time>
      </trkpt>
      <trkpt lat="45.56656" lon="6.93583">
        <ele>2393.801</ele>
        <time>2022-08-03T07:37:22Z</time>
      </trkpt>
      <trkpt lat="45.56656" lon="6.93583">
        <ele>2393.784</ele>
        <time>2022-08-03T07:37:31Z</time>
      </trkpt>
      <trkpt lat="45.56656" lon="6.93583">
        <ele>2393.773</ele>
        <time>2022-08-03T07:37:41Z</time>
      </trkpt>
      <trkpt lat="45.56655" lon="6.93587">
        <ele>2392.701</ele>
        <time>2022-08-03T07:37:50Z</time>
      </trkpt>
      <trkpt lat="45.56654" lon="6.93589">
        <ele>2392.384</ele>
        <time>2022-08-03T07:38:00Z</time>
      </trkpt>
      <trkpt lat="45.56653" lon="6.93592">
        <ele>2390.693</ele>
        <time>2022-08-03T07:38:10Z</time>
      </trkpt>
      <trkpt lat="45.56654" lon="6.93602">
        <ele>2391.074</ele>
        <time>2022-08-03T07:38:19Z</time>
      </trkpt>
      <trkpt lat="45.56653" lon="6.93614">
        <ele>2392.658</ele>
        <time>2022-08-03T07:38:29Z</time>
      </trkpt>
      <trkpt lat="45.56651" lon="6.93625">
        <ele>2393.657</ele>
        <time>2022-08-03T07:38:38Z</time>
      </trkpt>
      <trkpt lat="45.56652" lon="6.93635">
        <ele>2395.642</ele>
        <time>2022-08-03T07:38:47Z</time>
      </trkpt>
      <trkpt lat="45.56652" lon="6.93646">
        <ele>2396.899</ele>
        <time>2022-08-03T07:38:57Z</time>
      </trkpt>
      <trkpt lat="45.56652" lon="6.93655">
        <ele>2398.602</ele>
        <time>2022-08-03T07:39:06Z</time>
      </trkpt>
      <trkpt lat="45.56653" lon="6.93666">
        <ele>2400.368</ele>
        <time>2022-08-03T07:39:16Z</time>
      </trkpt>
      <trkpt lat="45.56651" lon="6.93677">
        <ele>2401.474</ele>
        <time>2022-08-03T07:39:25Z</time>
      </trkpt>
      <trkpt lat="45.56651" lon="6.93686">
        <ele>2404.211</ele>
        <time>2022-08-03T07:39:34Z</time>
      </trkpt>
      <trkpt lat="45.56652" lon="6.93697">
        <ele>2406.13</ele>
        <time>2022-08-03T07:39:44Z</time>
      </trkpt>
      <trkpt lat="45.56654" lon="6.93705">
        <ele>2408.149</ele>
        <time>2022-08-03T07:39:53Z</time>
      </trkpt>
      <trkpt lat="45.56655" lon="6.93713">
        <ele>2410.57</ele>
        <time>2022-08-03T07:40:03Z</time>
      </trkpt>
      <trkpt lat="45.56656" lon="6.93722">
        <ele>2412.444</ele>
        <time>2022-08-03T07:40:12Z</time>
      </trkpt>
      <trkpt lat="45.56656" lon="6.93729">
        <ele>2414.215</ele>
        <time>2022-08-03T07:40:21Z</time>
      </trkpt>
      <trkpt lat="45.56657" lon="6.93736">
        <ele>2414.76</ele>
        <time>2022-08-03T07:40:31Z</time>
      </trkpt>
      <trkpt lat="45.56658" lon="6.93741">
        <ele>2415.666</ele>
        <time>2022-08-03T07:40:41Z</time>
      </trkpt>
      <trkpt lat="45.56659" lon="6.93752">
        <ele>2417.476</ele>
        <time>2022-08-03T07:40:50Z</time>
      </trkpt>
      <trkpt lat="45.56658" lon="6.93763">
        <ele>2419.031</ele>
        <time>2022-08-03T07:41:00Z</time>
      </trkpt>
      <trkpt lat="45.56661" lon="6.93772">
        <ele>2419.437</ele>
        <time>2022-08-03T07:41:09Z</time>
      </trkpt>
      <trkpt lat="45.56661" lon="6.93784">
        <ele>2420.718</ele>
        <time>2022-08-03T07:41:19Z</time>
      </trkpt>
      <trkpt lat="45.5666" lon="6.93795">
        <ele>2423.313</ele>
        <time>2022-08-03T07:41:28Z</time>
      </trkpt>
      <trkpt lat="45.56659" lon="6.93808">
        <ele>2424.128</ele>
        <time>2022-08-03T07:41:38Z</time>
      </trkpt>
      <trkpt lat="45.56657" lon="6.93819">
        <ele>2423.962</ele>
        <time>2022-08-03T07:41:47Z</time>
      </trkpt>
      <trkpt lat="45.56657" lon="6.93831">
        <ele>2423.923</ele>
        <time>2022-08-03T07:41:56Z</time>
      </trkpt>
      <trkpt lat="45.56658" lon="6.93843">
        <ele>2424.567</ele>
        <time>2022-08-03T07:42:06Z</time>
      </trkpt>
      <trkpt lat="45.56656" lon="6.93855">
        <ele>2426.337</ele>
        <time>2022-08-03T07:42:16Z</time>
      </trkpt>
      <trkpt lat="45.56657" lon="6.93861">
        <ele>2427.489</ele>
        <time>2022-08-03T07:42:25Z</time>
      </trkpt>
      <trkpt lat="45.56657" lon="6.93863">
        <ele>2428.111</ele>
        <time>2022-08-03T07:42:35Z</time>
      </trkpt>
      <trkpt lat="45.56656" lon="6.93864">
        <ele>2429.467</ele>
        <time>2022-08-03T07:42:44Z</time>
      </trkpt>
      <trkpt lat="45.56655" lon="6.93871">
        <ele>2430.001</ele>
        <time>2022-08-03T07:42:54Z</time>
      </trkpt>
      <trkpt lat="45.56655" lon="6.9387">
        <ele>2427.658</ele>
        <time>2022-08-03T07:43:04Z</time>
      </trkpt>
      <trkpt lat="45.56655" lon="6.9387">
        <ele>2425.765</ele>
        <time>2022-08-03T07:43:13Z</time>
      </trkpt>
      <trkpt lat="45.56655" lon="6.9387">
        <ele>2425.865</ele>
        <time>2022-08-03T07:43:23Z</time>
      </trkpt>
      <trkpt lat="45.56655" lon="6.93872">
        <ele>2426.626</ele>
        <time>2022-08-03T07:43:33Z</time>
      </trkpt>
      <trkpt lat="45.56657" lon="6.9387">
        <ele>2427.8</ele>
        <time>2022-08-03T07:43:42Z</time>
      </trkpt>
      <trkpt lat="45.56656" lon="6.9387">
        <ele>2428.813</ele>
        <time>2022-08-03T07:43:51Z</time>
      </trkpt>
      <trkpt lat="45.56657" lon="6.9387">
        <ele>2429.648</ele>
        <time>2022-08-03T07:44:01Z</time>
      </trkpt>
      <trkpt lat="45.56657" lon="6.9387">
        <ele>2429.271</ele>
        <time>2022-08-03T07:44:10Z</time>
      </trkpt>
      <trkpt lat="45.56657" lon="6.9387">
        <ele>2429.107</ele>
        <time>2022-08-03T07:44:19Z</time>
      </trkpt>
      <trkpt lat="45.56658" lon="6.93871">
        <ele>2429.38</ele>
        <time>2022-08-03T07:44:28Z</time>
      </trkpt>
      <trkpt lat="45.56661" lon="6.93885">
        <ele>2429.606</ele>
        <time>2022-08-03T07:44:38Z</time>
      </trkpt>
      <trkpt lat="45.56663" lon="6.93895">
        <ele>2430.651</ele>
        <time>2022-08-03T07:44:48Z</time>
      </trkpt>
      <trkpt lat="45.56665" lon="6.93903">
        <ele>2431.657</ele>
        <time>2022-08-03T07:44:57Z</time>
      </trkpt>
      <trkpt lat="45.56669" lon="6.93911">
        <ele>2430.354</ele>
        <time>2022-08-03T07:45:06Z</time>
      </trkpt>
      <trkpt lat="45.56673" lon="6.93921">
        <ele>2431.703</ele>
        <time>2022-08-03T07:45:16Z</time>
      </trkpt>
      <trkpt lat="45.56673" lon="6.93922">
        <ele>2430.865</ele>
        <time>2022-08-03T07:45:25Z</time>
      </trkpt>
      <trkpt lat="45.56673" lon="6.93922">
        <ele>2431.006</ele>
        <time>2022-08-03T07:45:35Z</time>
      </trkpt>
      <trkpt lat="45.56674" lon="6.93924">
        <ele>2431.632</ele>
        <time>2022-08-03T07:45:45Z</time>
      </trkpt>
      <trkpt lat="45.56678" lon="6.93937">
        <ele>2432.05</ele>
        <time>2022-08-03T07:45:55Z</time>
      </trkpt>
      <trkpt lat="45.56686" lon="6.93947">
        <ele>2433.929</ele>
        <time>2022-08-03T07:46:05Z</time>
      </trkpt>
      <trkpt lat="45.56689" lon="6.93963">
        <ele>2435.201</ele>
        <time>2022-08-03T07:46:15Z</time>
      </trkpt>
      <trkpt lat="45.56692" lon="6.93977">
        <ele>2436.026</ele>
        <time>2022-08-03T07:46:25Z</time>
      </trkpt>
      <trkpt lat="45.56695" lon="6.93987">
        <ele>2436.298</ele>
        <time>2022-08-03T07:46:34Z</time>
      </trkpt>
      <trkpt lat="45.56699" lon="6.93997">
        <ele>2436.835</ele>
        <time>2022-08-03T07:46:43Z</time>
      </trkpt>
      <trkpt lat="45.567" lon="6.93999">
        <ele>2437.131</ele>
        <time>2022-08-03T07:46:53Z</time>
      </trkpt>
      <trkpt lat="45.567" lon="6.93998">
        <ele>2437.048</ele>
        <time>2022-08-03T07:47:03Z</time>
      </trkpt>
      <trkpt lat="45.567" lon="6.93998">
        <ele>2437.04</ele>
        <time>2022-08-03T07:47:12Z</time>
      </trkpt>
      <trkpt lat="45.567" lon="6.93998">
        <ele>2437.031</ele>
        <time>2022-08-03T07:47:22Z</time>
      </trkpt>
      <trkpt lat="45.567" lon="6.93998">
        <ele>2437.022</ele>
        <time>2022-08-03T07:47:31Z</time>
      </trkpt>
      <trkpt lat="45.567" lon="6.93998">
        <ele>2437.014</ele>
        <time>2022-08-03T07:47:41Z</time>
      </trkpt>
      <trkpt lat="45.567" lon="6.93998">
        <ele>2437.011</ele>
        <time>2022-08-03T07:47:50Z</time>
      </trkpt>
      <trkpt lat="45.567" lon="6.93998">
        <ele>2437.005</ele>
        <time>2022-08-03T07:47:59Z</time>
      </trkpt>
      <trkpt lat="45.567" lon="6.93998">
        <ele>2437.005</ele>
        <time>2022-08-03T07:48:08Z</time>
      </trkpt>
      <trkpt lat="45.567" lon="6.94">
        <ele>2438.067</ele>
        <time>2022-08-03T07:48:18Z</time>
      </trkpt>
      <trkpt lat="45.567" lon="6.94">
        <ele>2438.603</ele>
        <time>2022-08-03T07:48:27Z</time>
      </trkpt>
      <trkpt lat="45.567" lon="6.94">
        <ele>2438.598</ele>
        <time>2022-08-03T07:48:37Z</time>
      </trkpt>
      <trkpt lat="45.567" lon="6.94001">
        <ele>2438.596</ele>
        <time>2022-08-03T07:48:47Z</time>
      </trkpt>
      <trkpt lat="45.567" lon="6.94001">
        <ele>2438.591</ele>
        <time>2022-08-03T07:48:56Z</time>
      </trkpt>
      <trkpt lat="45.567" lon="6.94001">
        <ele>2438.593</ele>
        <time>2022-08-03T07:49:06Z</time>
      </trkpt>
      <trkpt lat="45.567" lon="6.94">
        <ele>2437.922</ele>
        <time>2022-08-03T07:49:16Z</time>
      </trkpt>
      <trkpt lat="45.56701" lon="6.94">
        <ele>2438.052</ele>
        <time>2022-08-03T07:49:25Z</time>
      </trkpt>
      <trkpt lat="45.567" lon="6.94">
        <ele>2437.26</ele>
        <time>2022-08-03T07:49:35Z</time>
      </trkpt>
      <trkpt lat="45.567" lon="6.94">
        <ele>2437.138</ele>
        <time>2022-08-03T07:49:44Z</time>
      </trkpt>
      <trkpt lat="45.56702" lon="6.94006">
        <ele>2438.939</ele>
        <time>2022-08-03T07:49:53Z</time>
      </trkpt>
      <trkpt lat="45.56701" lon="6.94007">
        <ele>2438.883</ele>
        <time>2022-08-03T07:50:03Z</time>
      </trkpt>
      <trkpt lat="45.56702" lon="6.94006">
        <ele>2440.611</ele>
        <time>2022-08-03T07:50:13Z</time>
      </trkpt>
      <trkpt lat="45.56702" lon="6.9401">
        <ele>2440.269</ele>
        <time>2022-08-03T07:50:23Z</time>
      </trkpt>
      <trkpt lat="45.56702" lon="6.94012">
        <ele>2439.798</ele>
        <time>2022-08-03T07:50:32Z</time>
      </trkpt>
      <trkpt lat="45.56702" lon="6.94014">
        <ele>2439.059</ele>
        <time>2022-08-03T07:50:42Z</time>
      </trkpt>
      <trkpt lat="45.56702" lon="6.94022">
        <ele>2438.835</ele>
        <time>2022-08-03T07:50:51Z</time>
      </trkpt>
      <trkpt lat="45.56702" lon="6.9403">
        <ele>2439.651</ele>
        <time>2022-08-03T07:51:01Z</time>
      </trkpt>
      <trkpt lat="45.56703" lon="6.94037">
        <ele>2440.151</ele>
        <time>2022-08-03T07:51:11Z</time>
      </trkpt>
      <trkpt lat="45.56702" lon="6.94045">
        <ele>2440.246</ele>
        <time>2022-08-03T07:51:21Z</time>
      </trkpt>
      <trkpt lat="45.56702" lon="6.94051">
        <ele>2441.656</ele>
        <time>2022-08-03T07:51:30Z</time>
      </trkpt>
      <trkpt lat="45.56704" lon="6.94056">
        <ele>2441.958</ele>
        <time>2022-08-03T07:51:39Z</time>
      </trkpt>
      <trkpt lat="45.56705" lon="6.94057">
        <ele>2442.491</ele>
        <time>2022-08-03T07:51:48Z</time>
      </trkpt>
      <trkpt lat="45.56706" lon="6.94059">
        <ele>2442.053</ele>
        <time>2022-08-03T07:51:58Z</time>
      </trkpt>
      <trkpt lat="45.56709" lon="6.94063">
        <ele>2441.835</ele>
        <time>2022-08-03T07:52:07Z</time>
      </trkpt>
      <trkpt lat="45.56709" lon="6.94064">
        <ele>2442.148</ele>
        <time>2022-08-03T07:52:16Z</time>
      </trkpt>
      <trkpt lat="45.56709" lon="6.94063">
        <ele>2442.483</ele>
        <time>2022-08-03T07:52:26Z</time>
      </trkpt>
      <trkpt lat="45.56709" lon="6.94064">
        <ele>2442.49</ele>
        <time>2022-08-03T07:52:35Z</time>
      </trkpt>
      <trkpt lat="45.56709" lon="6.94064">
        <ele>2442.504</ele>
        <time>2022-08-03T07:52:45Z</time>
      </trkpt>
      <trkpt lat="45.5671" lon="6.94066">
        <ele>2442.235</ele>
        <time>2022-08-03T07:52:54Z</time>
      </trkpt>
      <trkpt lat="45.56714" lon="6.94073">
        <ele>2441.736</ele>
        <time>2022-08-03T07:53:03Z</time>
      </trkpt>
      <trkpt lat="45.56718" lon="6.9408">
        <ele>2440.775</ele>
        <time>2022-08-03T07:53:12Z</time>
      </trkpt>
      <trkpt lat="45.56723" lon="6.94086">
        <ele>2440.375</ele>
        <time>2022-08-03T07:53:22Z</time>
      </trkpt>
      <trkpt lat="45.56727" lon="6.94096">
        <ele>2441.014</ele>
        <time>2022-08-03T07:53:31Z</time>
      </trkpt>
      <trkpt lat="45.5673" lon="6.94105">
        <ele>2441.393</ele>
        <time>2022-08-03T07:53:40Z</time>
      </trkpt>
      <trkpt lat="45.56732" lon="6.94115">
        <ele>2441.695</ele>
        <time>2022-08-03T07:53:50Z</time>
      </trkpt>
      <trkpt lat="45.56734" lon="6.94123">
        <ele>2441.745</ele>
        <time>2022-08-03T07:54:00Z</time>
      </trkpt>
      <trkpt lat="45.56738" lon="6.94132">
        <ele>2444.005</ele>
        <time>2022-08-03T07:54:09Z</time>
      </trkpt>
      <trkpt lat="45.56741" lon="6.9414">
        <ele>2444.332</ele>
        <time>2022-08-03T07:54:18Z</time>
      </trkpt>
      <trkpt lat="45.56744" lon="6.9415">
        <ele>2444.947</ele>
        <time>2022-08-03T07:54:28Z</time>
      </trkpt>
      <trkpt lat="45.56749" lon="6.94157">
        <ele>2445.766</ele>
        <time>2022-08-03T07:54:37Z</time>
      </trkpt>
      <trkpt lat="45.56754" lon="6.94164">
        <ele>2447.003</ele>
        <time>2022-08-03T07:54:47Z</time>
      </trkpt>
      <trkpt lat="45.5676" lon="6.94172">
        <ele>2447.088</ele>
        <time>2022-08-03T07:54:57Z</time>
      </trkpt>
      <trkpt lat="45.56765" lon="6.94176">
        <ele>2447.963</ele>
        <time>2022-08-03T07:55:07Z</time>
      </trkpt>
      <trkpt lat="45.56766" lon="6.94178">
        <ele>2447.676</ele>
        <time>2022-08-03T07:55:16Z</time>
      </trkpt>
      <trkpt lat="45.56766" lon="6.94177">
        <ele>2448.76</ele>
        <time>2022-08-03T07:55:25Z</time>
      </trkpt>
      <trkpt lat="45.56768" lon="6.94181">
        <ele>2448.05</ele>
        <time>2022-08-03T07:55:35Z</time>
      </trkpt>
      <trkpt lat="45.5677" lon="6.94188">
        <ele>2447.598</ele>
        <time>2022-08-03T07:55:44Z</time>
      </trkpt>
      <trkpt lat="45.56772" lon="6.94195">
        <ele>2446.536</ele>
        <time>2022-08-03T07:55:53Z</time>
      </trkpt>
      <trkpt lat="45.56773" lon="6.94203">
        <ele>2446.044</ele>
        <time>2022-08-03T07:56:03Z</time>
      </trkpt>
      <trkpt lat="45.56776" lon="6.94212">
        <ele>2447.088</ele>
        <time>2022-08-03T07:56:13Z</time>
      </trkpt>
      <trkpt lat="45.56778" lon="6.9422">
        <ele>2448.559</ele>
        <time>2022-08-03T07:56:23Z</time>
      </trkpt>
      <trkpt lat="45.56778" lon="6.9422">
        <ele>2449.84</ele>
        <time>2022-08-03T07:56:32Z</time>
      </trkpt>
      <trkpt lat="45.56779" lon="6.94224">
        <ele>2450.517</ele>
        <time>2022-08-03T07:56:42Z</time>
      </trkpt>
      <trkpt lat="45.56782" lon="6.94232">
        <ele>2450.576</ele>
        <time>2022-08-03T07:56:51Z</time>
      </trkpt>
      <trkpt lat="45.56787" lon="6.94238">
        <ele>2451.402</ele>
        <time>2022-08-03T07:57:01Z</time>
      </trkpt>
      <trkpt lat="45.56789" lon="6.94245">
        <ele>2452.184</ele>
        <time>2022-08-03T07:57:10Z</time>
      </trkpt>
      <trkpt lat="45.5679" lon="6.94252">
        <ele>2453.765</ele>
        <time>2022-08-03T07:57:20Z</time>
      </trkpt>
      <trkpt lat="45.56786" lon="6.94261">
        <ele>2455.302</ele>
        <time>2022-08-03T07:57:29Z</time>
      </trkpt>
      <trkpt lat="45.56788" lon="6.94261">
        <ele>2455.934</ele>
        <time>2022-08-03T07:57:39Z</time>
      </trkpt>
      <trkpt lat="45.56793" lon="6.94261">
        <ele>2457.085</ele>
        <time>2022-08-03T07:57:48Z</time>
      </trkpt>
      <trkpt lat="45.56797" lon="6.94259">
        <ele>2459.019</ele>
        <time>2022-08-03T07:57:58Z</time>
      </trkpt>
      <trkpt lat="45.56801" lon="6.94258">
        <ele>2459.492</ele>
        <time>2022-08-03T07:58:08Z</time>
      </trkpt>
      <trkpt lat="45.56804" lon="6.94262">
        <ele>2460.317</ele>
        <time>2022-08-03T07:58:17Z</time>
      </trkpt>
      <trkpt lat="45.56806" lon="6.94262">
        <ele>2461.571</ele>
        <time>2022-08-03T07:58:27Z</time>
      </trkpt>
      <trkpt lat="45.56804" lon="6.94267">
        <ele>2461.088</ele>
        <time>2022-08-03T07:58:37Z</time>
      </trkpt>
      <trkpt lat="45.56803" lon="6.94272">
        <ele>2462.084</ele>
        <time>2022-08-03T07:58:46Z</time>
      </trkpt>
      <trkpt lat="45.56802" lon="6.94278">
        <ele>2463.128</ele>
        <time>2022-08-03T07:58:56Z</time>
      </trkpt>
      <trkpt lat="45.568" lon="6.94282">
        <ele>2464.516</ele>
        <time>2022-08-03T07:59:05Z</time>
      </trkpt>
      <trkpt lat="45.56798" lon="6.94287">
        <ele>2465.769</ele>
        <time>2022-08-03T07:59:15Z</time>
      </trkpt>
      <trkpt lat="45.56796" lon="6.94296">
        <ele>2468.357</ele>
        <time>2022-08-03T07:59:25Z</time>
      </trkpt>
      <trkpt lat="45.56795" lon="6.94299">
        <ele>2468.927</ele>
        <time>2022-08-03T07:59:35Z</time>
      </trkpt>
      <trkpt lat="45.56795" lon="6.94305">
        <ele>2470.805</ele>
        <time>2022-08-03T07:59:45Z</time>
      </trkpt>
      <trkpt lat="45.56797" lon="6.94312">
        <ele>2470.078</ele>
        <time>2022-08-03T07:59:55Z</time>
      </trkpt>
      <trkpt lat="45.56798" lon="6.94317">
        <ele>2470.741</ele>
        <time>2022-08-03T08:00:05Z</time>
      </trkpt>
      <trkpt lat="45.56799" lon="6.9432">
        <ele>2471.168</ele>
        <time>2022-08-03T08:00:14Z</time>
      </trkpt>
      <trkpt lat="45.56799" lon="6.94323">
        <ele>2471.774</ele>
        <time>2022-08-03T08:00:23Z</time>
      </trkpt>
      <trkpt lat="45.56798" lon="6.94327">
        <ele>2473.521</ele>
        <time>2022-08-03T08:00:33Z</time>
      </trkpt>
      <trkpt lat="45.56799" lon="6.94331">
        <ele>2475.142</ele>
        <time>2022-08-03T08:00:43Z</time>
      </trkpt>
      <trkpt lat="45.56799" lon="6.9433">
        <ele>2475.453</ele>
        <time>2022-08-03T08:00:53Z</time>
      </trkpt>
      <trkpt lat="45.56797" lon="6.94335">
        <ele>2476.684</ele>
        <time>2022-08-03T08:01:02Z</time>
      </trkpt>
      <trkpt lat="45.56797" lon="6.94338">
        <ele>2477.999</ele>
        <time>2022-08-03T08:01:12Z</time>
      </trkpt>
      <trkpt lat="45.56798" lon="6.94338">
        <ele>2478.807</ele>
        <time>2022-08-03T08:01:21Z</time>
      </trkpt>
      <trkpt lat="45.56798" lon="6.94338">
        <ele>2479.096</ele>
        <time>2022-08-03T08:01:30Z</time>
      </trkpt>
      <trkpt lat="45.56798" lon="6.94337">
        <ele>2480.024</ele>
        <time>2022-08-03T08:01:40Z</time>
      </trkpt>
      <trkpt lat="45.56798" lon="6.94339">
        <ele>2479.58</ele>
        <time>2022-08-03T08:01:49Z</time>
      </trkpt>
      <trkpt lat="45.56799" lon="6.9434">
        <ele>2478.615</ele>
        <time>2022-08-03T08:01:59Z</time>
      </trkpt>
      <trkpt lat="45.56799" lon="6.94341">
        <ele>2479.394</ele>
        <time>2022-08-03T08:02:08Z</time>
      </trkpt>
      <trkpt lat="45.56799" lon="6.94341">
        <ele>2479.434</ele>
        <time>2022-08-03T08:02:17Z</time>
      </trkpt>
      <trkpt lat="45.56801" lon="6.94345">
        <ele>2479.177</ele>
        <time>2022-08-03T08:02:27Z</time>
      </trkpt>
      <trkpt lat="45.56803" lon="6.94352">
        <ele>2479.81</ele>
        <time>2022-08-03T08:02:37Z</time>
      </trkpt>
      <trkpt lat="45.56803" lon="6.94359">
        <ele>2481.109</ele>
        <time>2022-08-03T08:02:46Z</time>
      </trkpt>
      <trkpt lat="45.56803" lon="6.94368">
        <ele>2482.948</ele>
        <time>2022-08-03T08:02:55Z</time>
      </trkpt>
      <trkpt lat="45.56801" lon="6.94376">
        <ele>2485.095</ele>
        <time>2022-08-03T08:03:04Z</time>
      </trkpt>
      <trkpt lat="45.56798" lon="6.94385">
        <ele>2486.13</ele>
        <time>2022-08-03T08:03:14Z</time>
      </trkpt>
      <trkpt lat="45.56802" lon="6.94387">
        <ele>2486.969</ele>
        <time>2022-08-03T08:03:24Z</time>
      </trkpt>
      <trkpt lat="45.56807" lon="6.94388">
        <ele>2488.269</ele>
        <time>2022-08-03T08:03:33Z</time>
      </trkpt>
      <trkpt lat="45.56808" lon="6.94393">
        <ele>2489.657</ele>
        <time>2022-08-03T08:03:43Z</time>
      </trkpt>
      <trkpt lat="45.56807" lon="6.94399">
        <ele>2490.93</ele>
        <time>2022-08-03T08:03:52Z</time>
      </trkpt>
      <trkpt lat="45.56806" lon="6.94405">
        <ele>2492.75</ele>
        <time>2022-08-03T08:04:02Z</time>
      </trkpt>
      <trkpt lat="45.56803" lon="6.94411">
        <ele>2493.882</ele>
        <time>2022-08-03T08:04:11Z</time>
      </trkpt>
      <trkpt lat="45.56802" lon="6.94418">
        <ele>2495.234</ele>
        <time>2022-08-03T08:04:21Z</time>
      </trkpt>
      <trkpt lat="45.56802" lon="6.94423">
        <ele>2495.008</ele>
        <time>2022-08-03T08:04:31Z</time>
      </trkpt>
      <trkpt lat="45.56803" lon="6.9443">
        <ele>2495.361</ele>
        <time>2022-08-03T08:04:40Z</time>
      </trkpt>
      <trkpt lat="45.56804" lon="6.94439">
        <ele>2496.586</ele>
        <time>2022-08-03T08:04:49Z</time>
      </trkpt>
      <trkpt lat="45.56804" lon="6.94448">
        <ele>2496.799</ele>
        <time>2022-08-03T08:04:58Z</time>
      </trkpt>
      <trkpt lat="45.56804" lon="6.94455">
        <ele>2498.641</ele>
        <time>2022-08-03T08:05:08Z</time>
      </trkpt>
      <trkpt lat="45.56805" lon="6.94455">
        <ele>2500.04</ele>
        <time>2022-08-03T08:05:17Z</time>
      </trkpt>
      <trkpt lat="45.56805" lon="6.94455">
        <ele>2500.535</ele>
        <time>2022-08-03T08:05:26Z</time>
      </trkpt>
      <trkpt lat="45.56804" lon="6.94456">
        <ele>2500.037</ele>
        <time>2022-08-03T08:05:36Z</time>
      </trkpt>
      <trkpt lat="45.56804" lon="6.94457">
        <ele>2499.179</ele>
        <time>2022-08-03T08:05:45Z</time>
      </trkpt>
      <trkpt lat="45.56808" lon="6.94465">
        <ele>2499.566</ele>
        <time>2022-08-03T08:05:55Z</time>
      </trkpt>
      <trkpt lat="45.56811" lon="6.94472">
        <ele>2500.697</ele>
        <time>2022-08-03T08:06:05Z</time>
      </trkpt>
      <trkpt lat="45.56812" lon="6.94479">
        <ele>2502.017</ele>
        <time>2022-08-03T08:06:15Z</time>
      </trkpt>
      <trkpt lat="45.56815" lon="6.94486">
        <ele>2503.39</ele>
        <time>2022-08-03T08:06:25Z</time>
      </trkpt>
      <trkpt lat="45.56816" lon="6.94491">
        <ele>2505.579</ele>
        <time>2022-08-03T08:06:35Z</time>
      </trkpt>
      <trkpt lat="45.56819" lon="6.94496">
        <ele>2507.374</ele>
        <time>2022-08-03T08:06:45Z</time>
      </trkpt>
      <trkpt lat="45.56821" lon="6.94503">
        <ele>2508.3</ele>
        <time>2022-08-03T08:06:54Z</time>
      </trkpt>
      <trkpt lat="45.56821" lon="6.94504">
        <ele>2510.4</ele>
        <time>2022-08-03T08:07:03Z</time>
      </trkpt>
      <trkpt lat="45.56821" lon="6.94503">
        <ele>2510.253</ele>
        <time>2022-08-03T08:07:13Z</time>
      </trkpt>
      <trkpt lat="45.56821" lon="6.94503">
        <ele>2510.259</ele>
        <time>2022-08-03T08:07:23Z</time>
      </trkpt>
      <trkpt lat="45.56821" lon="6.94503">
        <ele>2510.27</ele>
        <time>2022-08-03T08:07:32Z</time>
      </trkpt>
      <trkpt lat="45.56822" lon="6.94503">
        <ele>2509.435</ele>
        <time>2022-08-03T08:07:42Z</time>
      </trkpt>
      <trkpt lat="45.56823" lon="6.94503">
        <ele>2510.025</ele>
        <time>2022-08-03T08:07:52Z</time>
      </trkpt>
      <trkpt lat="45.56827" lon="6.94503">
        <ele>2511.246</ele>
        <time>2022-08-03T08:08:01Z</time>
      </trkpt>
      <trkpt lat="45.56831" lon="6.94504">
        <ele>2512.868</ele>
        <time>2022-08-03T08:08:11Z</time>
      </trkpt>
      <trkpt lat="45.56834" lon="6.94503">
        <ele>2512.972</ele>
        <time>2022-08-03T08:08:20Z</time>
      </trkpt>
      <trkpt lat="45.56834" lon="6.94503">
        <ele>2512.465</ele>
        <time>2022-08-03T08:08:30Z</time>
      </trkpt>
      <trkpt lat="45.56834" lon="6.94503">
        <ele>2512.482</ele>
        <time>2022-08-03T08:08:40Z</time>
      </trkpt>
      <trkpt lat="45.56834" lon="6.94504">
        <ele>2512.232</ele>
        <time>2022-08-03T08:08:49Z</time>
      </trkpt>
      <trkpt lat="45.56842" lon="6.94511">
        <ele>2512.009</ele>
        <time>2022-08-03T08:08:59Z</time>
      </trkpt>
      <trkpt lat="45.56849" lon="6.94518">
        <ele>2513.384</ele>
        <time>2022-08-03T08:09:09Z</time>
      </trkpt>
      <trkpt lat="45.56853" lon="6.94522">
        <ele>2514.472</ele>
        <time>2022-08-03T08:09:18Z</time>
      </trkpt>
      <trkpt lat="45.56857" lon="6.94524">
        <ele>2516.017</ele>
        <time>2022-08-03T08:09:27Z</time>
      </trkpt>
      <trkpt lat="45.56863" lon="6.94525">
        <ele>2518.008</ele>
        <time>2022-08-03T08:09:37Z</time>
      </trkpt>
      <trkpt lat="45.56868" lon="6.94528">
        <ele>2519.49</ele>
        <time>2022-08-03T08:09:46Z</time>
      </trkpt>
      <trkpt lat="45.56872" lon="6.94534">
        <ele>2520.612</ele>
        <time>2022-08-03T08:09:55Z</time>
      </trkpt>
      <trkpt lat="45.56876" lon="6.94539">
        <ele>2521.063</ele>
        <time>2022-08-03T08:10:05Z</time>
      </trkpt>
      <trkpt lat="45.5688" lon="6.94546">
        <ele>2522.462</ele>
        <time>2022-08-03T08:10:15Z</time>
      </trkpt>
      <trkpt lat="45.56883" lon="6.94552">
        <ele>2522.917</ele>
        <time>2022-08-03T08:10:24Z</time>
      </trkpt>
      <trkpt lat="45.56886" lon="6.94556">
        <ele>2523.494</ele>
        <time>2022-08-03T08:10:33Z</time>
      </trkpt>
      <trkpt lat="45.56892" lon="6.94558">
        <ele>2524.775</ele>
        <time>2022-08-03T08:10:43Z</time>
      </trkpt>
      <trkpt lat="45.56896" lon="6.94564">
        <ele>2525.33</ele>
        <time>2022-08-03T08:10:53Z</time>
      </trkpt>
      <trkpt lat="45.569" lon="6.94567">
        <ele>2526.711</ele>
        <time>2022-08-03T08:11:02Z</time>
      </trkpt>
      <trkpt lat="45.56905" lon="6.94569">
        <ele>2527.579</ele>
        <time>2022-08-03T08:11:11Z</time>
      </trkpt>
      <trkpt lat="45.56909" lon="6.94566">
        <ele>2528.059</ele>
        <time>2022-08-03T08:11:20Z</time>
      </trkpt>
      <trkpt lat="45.56907" lon="6.9456">
        <ele>2528.466</ele>
        <time>2022-08-03T08:11:30Z</time>
      </trkpt>
      <trkpt lat="45.56909" lon="6.94554">
        <ele>2529.77</ele>
        <time>2022-08-03T08:11:39Z</time>
      </trkpt>
      <trkpt lat="45.56912" lon="6.9455">
        <ele>2531.02</ele>
        <time>2022-08-03T08:11:49Z</time>
      </trkpt>
      <trkpt lat="45.56914" lon="6.94549">
        <ele>2531.68</ele>
        <time>2022-08-03T08:11:58Z</time>
      </trkpt>
      <trkpt lat="45.56918" lon="6.94548">
        <ele>2533.397</ele>
        <time>2022-08-03T08:12:07Z</time>
      </trkpt>
      <trkpt lat="45.56921" lon="6.94553">
        <ele>2535.061</ele>
        <time>2022-08-03T08:12:16Z</time>
      </trkpt>
      <trkpt lat="45.56924" lon="6.94557">
        <ele>2537.351</ele>
        <time>2022-08-03T08:12:26Z</time>
      </trkpt>
      <trkpt lat="45.56928" lon="6.94562">
        <ele>2540.033</ele>
        <time>2022-08-03T08:12:36Z</time>
      </trkpt>
      <trkpt lat="45.56929" lon="6.94568">
        <ele>2541.313</ele>
        <time>2022-08-03T08:12:46Z</time>
      </trkpt>
      <trkpt lat="45.56931" lon="6.94576">
        <ele>2542.796</ele>
        <time>2022-08-03T08:12:55Z</time>
      </trkpt>
      <trkpt lat="45.56934" lon="6.94583">
        <ele>2543.566</ele>
        <time>2022-08-03T08:13:05Z</time>
      </trkpt>
      <trkpt lat="45.56937" lon="6.94592">
        <ele>2544.241</ele>
        <time>2022-08-03T08:13:14Z</time>
      </trkpt>
      <trkpt lat="45.56939" lon="6.94598">
        <ele>2545.083</ele>
        <time>2022-08-03T08:13:24Z</time>
      </trkpt>
      <trkpt lat="45.56941" lon="6.94605">
        <ele>2546.467</ele>
        <time>2022-08-03T08:13:33Z</time>
      </trkpt>
      <trkpt lat="45.56943" lon="6.94613">
        <ele>2547.083</ele>
        <time>2022-08-03T08:13:43Z</time>
      </trkpt>
      <trkpt lat="45.56945" lon="6.94619">
        <ele>2546.256</ele>
        <time>2022-08-03T08:13:52Z</time>
      </trkpt>
      <trkpt lat="45.56947" lon="6.94627">
        <ele>2545.759</ele>
        <time>2022-08-03T08:14:02Z</time>
      </trkpt>
      <trkpt lat="45.56948" lon="6.94633">
        <ele>2545.615</ele>
        <time>2022-08-03T08:14:12Z</time>
      </trkpt>
      <trkpt lat="45.56948" lon="6.9464">
        <ele>2546.702</ele>
        <time>2022-08-03T08:14:22Z</time>
      </trkpt>
      <trkpt lat="45.56947" lon="6.94646">
        <ele>2547.681</ele>
        <time>2022-08-03T08:14:32Z</time>
      </trkpt>
      <trkpt lat="45.56946" lon="6.94649">
        <ele>2547.647</ele>
        <time>2022-08-03T08:14:41Z</time>
      </trkpt>
      <trkpt lat="45.56945" lon="6.94655">
        <ele>2549.442</ele>
        <time>2022-08-03T08:14:50Z</time>
      </trkpt>
      <trkpt lat="45.56944" lon="6.94662">
        <ele>2551.914</ele>
        <time>2022-08-03T08:15:00Z</time>
      </trkpt>
      <trkpt lat="45.56942" lon="6.94669">
        <ele>2555.362</ele>
        <time>2022-08-03T08:15:09Z</time>
      </trkpt>
      <trkpt lat="45.56943" lon="6.94675">
        <ele>2556.943</ele>
        <time>2022-08-03T08:15:19Z</time>
      </trkpt>
      <trkpt lat="45.56948" lon="6.9468">
        <ele>2557.194</ele>
        <time>2022-08-03T08:15:28Z</time>
      </trkpt>
      <trkpt lat="45.56952" lon="6.94688">
        <ele>2557.909</ele>
        <time>2022-08-03T08:15:38Z</time>
      </trkpt>
      <trkpt lat="45.56956" lon="6.94692">
        <ele>2557.227</ele>
        <time>2022-08-03T08:15:47Z</time>
      </trkpt>
      <trkpt lat="45.56961" lon="6.94699">
        <ele>2557.313</ele>
        <time>2022-08-03T08:15:57Z</time>
      </trkpt>
      <trkpt lat="45.56964" lon="6.94708">
        <ele>2558.171</ele>
        <time>2022-08-03T08:16:06Z</time>
      </trkpt>
      <trkpt lat="45.56965" lon="6.94718">
        <ele>2558.852</ele>
        <time>2022-08-03T08:16:16Z</time>
      </trkpt>
      <trkpt lat="45.56961" lon="6.94728">
        <ele>2559.834</ele>
        <time>2022-08-03T08:16:26Z</time>
      </trkpt>
      <trkpt lat="45.56963" lon="6.94735">
        <ele>2560.52</ele>
        <time>2022-08-03T08:16:35Z</time>
      </trkpt>
      <trkpt lat="45.56969" lon="6.94736">
        <ele>2560.788</ele>
        <time>2022-08-03T08:16:45Z</time>
      </trkpt>
      <trkpt lat="45.56973" lon="6.94732">
        <ele>2561.202</ele>
        <time>2022-08-03T08:16:54Z</time>
      </trkpt>
      <trkpt lat="45.56978" lon="6.94726">
        <ele>2560.626</ele>
        <time>2022-08-03T08:17:04Z</time>
      </trkpt>
      <trkpt lat="45.56983" lon="6.94723">
        <ele>2560.163</ele>
        <time>2022-08-03T08:17:13Z</time>
      </trkpt>
      <trkpt lat="45.56987" lon="6.94722">
        <ele>2561.945</ele>
        <time>2022-08-03T08:17:23Z</time>
      </trkpt>
      <trkpt lat="45.56989" lon="6.94725">
        <ele>2565.326</ele>
        <time>2022-08-03T08:17:32Z</time>
      </trkpt>
      <trkpt lat="45.56991" lon="6.9473">
        <ele>2567.678</ele>
        <time>2022-08-03T08:17:41Z</time>
      </trkpt>
      <trkpt lat="45.56994" lon="6.94734">
        <ele>2568.823</ele>
        <time>2022-08-03T08:17:50Z</time>
      </trkpt>
      <trkpt lat="45.56998" lon="6.9474">
        <ele>2570.239</ele>
        <time>2022-08-03T08:18:00Z</time>
      </trkpt>
      <trkpt lat="45.57001" lon="6.94743">
        <ele>2572.947</ele>
        <time>2022-08-03T08:18:09Z</time>
      </trkpt>
      <trkpt lat="45.57006" lon="6.94748">
        <ele>2573.531</ele>
        <time>2022-08-03T08:18:19Z</time>
      </trkpt>
      <trkpt lat="45.57009" lon="6.94749">
        <ele>2573.436</ele>
        <time>2022-08-03T08:18:29Z</time>
      </trkpt>
      <trkpt lat="45.57014" lon="6.94753">
        <ele>2574.678</ele>
        <time>2022-08-03T08:18:38Z</time>
      </trkpt>
      <trkpt lat="45.57018" lon="6.94757">
        <ele>2575.982</ele>
        <time>2022-08-03T08:18:48Z</time>
      </trkpt>
      <trkpt lat="45.57022" lon="6.9476">
        <ele>2577.714</ele>
        <time>2022-08-03T08:18:58Z</time>
      </trkpt>
      <trkpt lat="45.57025" lon="6.94761">
        <ele>2578.771</ele>
        <time>2022-08-03T08:19:07Z</time>
      </trkpt>
      <trkpt lat="45.57028" lon="6.94757">
        <ele>2577.467</ele>
        <time>2022-08-03T08:19:17Z</time>
      </trkpt>
      <trkpt lat="45.5703" lon="6.94749">
        <ele>2577.854</ele>
        <time>2022-08-03T08:19:27Z</time>
      </trkpt>
      <trkpt lat="45.57032" lon="6.94746">
        <ele>2578.299</ele>
        <time>2022-08-03T08:19:37Z</time>
      </trkpt>
      <trkpt lat="45.57032" lon="6.94746">
        <ele>2578.947</ele>
        <time>2022-08-03T08:19:46Z</time>
      </trkpt>
      <trkpt lat="45.57032" lon="6.94745">
        <ele>2579.047</ele>
        <time>2022-08-03T08:19:55Z</time>
      </trkpt>
      <trkpt lat="45.57037" lon="6.94735">
        <ele>2577.502</ele>
        <time>2022-08-03T08:20:05Z</time>
      </trkpt>
      <trkpt lat="45.57039" lon="6.94727">
        <ele>2576.881</ele>
        <time>2022-08-03T08:20:14Z</time>
      </trkpt>
      <trkpt lat="45.57043" lon="6.94723">
        <ele>2577.579</ele>
        <time>2022-08-03T08:20:24Z</time>
      </trkpt>
      <trkpt lat="45.57047" lon="6.94719">
        <ele>2579.42</ele>
        <time>2022-08-03T08:20:33Z</time>
      </trkpt>
      <trkpt lat="45.57047" lon="6.94717">
        <ele>2580.274</ele>
        <time>2022-08-03T08:20:43Z</time>
      </trkpt>
      <trkpt lat="45.57047" lon="6.94717">
        <ele>2580.241</ele>
        <time>2022-08-03T08:20:53Z</time>
      </trkpt>
      <trkpt lat="45.5705" lon="6.94717">
        <ele>2582.215</ele>
        <time>2022-08-03T08:21:02Z</time>
      </trkpt>
      <trkpt lat="45.57053" lon="6.94717">
        <ele>2584.58</ele>
        <time>2022-08-03T08:21:11Z</time>
      </trkpt>
      <trkpt lat="45.57059" lon="6.94721">
        <ele>2586.256</ele>
        <time>2022-08-03T08:21:21Z</time>
      </trkpt>
      <trkpt lat="45.57064" lon="6.94725">
        <ele>2588.231</ele>
        <time>2022-08-03T08:21:30Z</time>
      </trkpt>
      <trkpt lat="45.57069" lon="6.94726">
        <ele>2590.035</ele>
        <time>2022-08-03T08:21:39Z</time>
      </trkpt>
      <trkpt lat="45.57074" lon="6.9473">
        <ele>2591.023</ele>
        <time>2022-08-03T08:21:49Z</time>
      </trkpt>
      <trkpt lat="45.57079" lon="6.94733">
        <ele>2592.648</ele>
        <time>2022-08-03T08:21:59Z</time>
      </trkpt>
      <trkpt lat="45.57084" lon="6.94736">
        <ele>2592.859</ele>
        <time>2022-08-03T08:22:09Z</time>
      </trkpt>
      <trkpt lat="45.57089" lon="6.94739">
        <ele>2594.32</ele>
        <time>2022-08-03T08:22:18Z</time>
      </trkpt>
      <trkpt lat="45.57093" lon="6.94744">
        <ele>2595.371</ele>
        <time>2022-08-03T08:22:28Z</time>
      </trkpt>
      <trkpt lat="45.57097" lon="6.94748">
        <ele>2597.207</ele>
        <time>2022-08-03T08:22:38Z</time>
      </trkpt>
      <trkpt lat="45.571" lon="6.94755">
        <ele>2598.887</ele>
        <time>2022-08-03T08:22:47Z</time>
      </trkpt>
      <trkpt lat="45.57104" lon="6.94761">
        <ele>2599.691</ele>
        <time>2022-08-03T08:22:57Z</time>
      </trkpt>
      <trkpt lat="45.57105" lon="6.94766">
        <ele>2600.129</ele>
        <time>2022-08-03T08:23:06Z</time>
      </trkpt>
      <trkpt lat="45.57106" lon="6.94772">
        <ele>2600.741</ele>
        <time>2022-08-03T08:23:16Z</time>
      </trkpt>
      <trkpt lat="45.57109" lon="6.94778">
        <ele>2601.416</ele>
        <time>2022-08-03T08:23:26Z</time>
      </trkpt>
      <trkpt lat="45.5711" lon="6.94779">
        <ele>2600.929</ele>
        <time>2022-08-03T08:23:36Z</time>
      </trkpt>
      <trkpt lat="45.57114" lon="6.94785">
        <ele>2602.63</ele>
        <time>2022-08-03T08:23:45Z</time>
      </trkpt>
      <trkpt lat="45.57116" lon="6.94791">
        <ele>2603.679</ele>
        <time>2022-08-03T08:23:54Z</time>
      </trkpt>
      <trkpt lat="45.57119" lon="6.948">
        <ele>2605.043</ele>
        <time>2022-08-03T08:24:03Z</time>
      </trkpt>
      <trkpt lat="45.5712" lon="6.94808">
        <ele>2605.545</ele>
        <time>2022-08-03T08:24:13Z</time>
      </trkpt>
      <trkpt lat="45.57123" lon="6.94815">
        <ele>2606.483</ele>
        <time>2022-08-03T08:24:22Z</time>
      </trkpt>
      <trkpt lat="45.57125" lon="6.94823">
        <ele>2607.934</ele>
        <time>2022-08-03T08:24:31Z</time>
      </trkpt>
      <trkpt lat="45.57126" lon="6.94833">
        <ele>2608.901</ele>
        <time>2022-08-03T08:24:40Z</time>
      </trkpt>
      <trkpt lat="45.57127" lon="6.94844">
        <ele>2609.405</ele>
        <time>2022-08-03T08:24:50Z</time>
      </trkpt>
      <trkpt lat="45.57128" lon="6.94853">
        <ele>2610.715</ele>
        <time>2022-08-03T08:24:59Z</time>
      </trkpt>
      <trkpt lat="45.5713" lon="6.94862">
        <ele>2611.5</ele>
        <time>2022-08-03T08:25:08Z</time>
      </trkpt>
      <trkpt lat="45.57134" lon="6.94867">
        <ele>2612.776</ele>
        <time>2022-08-03T08:25:17Z</time>
      </trkpt>
      <trkpt lat="45.57137" lon="6.94877">
        <ele>2613.173</ele>
        <time>2022-08-03T08:25:27Z</time>
      </trkpt>
      <trkpt lat="45.57138" lon="6.94888">
        <ele>2613.663</ele>
        <time>2022-08-03T08:25:37Z</time>
      </trkpt>
      <trkpt lat="45.57141" lon="6.94896">
        <ele>2613.211</ele>
        <time>2022-08-03T08:25:46Z</time>
      </trkpt>
      <trkpt lat="45.57145" lon="6.94903">
        <ele>2615.064</ele>
        <time>2022-08-03T08:25:56Z</time>
      </trkpt>
      <trkpt lat="45.57144" lon="6.94913">
        <ele>2614.924</ele>
        <time>2022-08-03T08:26:06Z</time>
      </trkpt>
      <trkpt lat="45.57146" lon="6.94921">
        <ele>2614.838</ele>
        <time>2022-08-03T08:26:15Z</time>
      </trkpt>
      <trkpt lat="45.57148" lon="6.94927">
        <ele>2616.069</ele>
        <time>2022-08-03T08:26:25Z</time>
      </trkpt>
      <trkpt lat="45.57151" lon="6.94933">
        <ele>2617.352</ele>
        <time>2022-08-03T08:26:35Z</time>
      </trkpt>
      <trkpt lat="45.57153" lon="6.94939">
        <ele>2617.792</ele>
        <time>2022-08-03T08:26:44Z</time>
      </trkpt>
      <trkpt lat="45.57154" lon="6.94946">
        <ele>2618.555</ele>
        <time>2022-08-03T08:26:54Z</time>
      </trkpt>
      <trkpt lat="45.57156" lon="6.94952">
        <ele>2618.527</ele>
        <time>2022-08-03T08:27:03Z</time>
      </trkpt>
      <trkpt lat="45.57158" lon="6.94954">
        <ele>2618.092</ele>
        <time>2022-08-03T08:27:12Z</time>
      </trkpt>
      <trkpt lat="45.5716" lon="6.94962">
        <ele>2618.289</ele>
        <time>2022-08-03T08:27:22Z</time>
      </trkpt>
      <trkpt lat="45.57163" lon="6.94968">
        <ele>2620.884</ele>
        <time>2022-08-03T08:27:31Z</time>
      </trkpt>
      <trkpt lat="45.57166" lon="6.94974">
        <ele>2622.136</ele>
        <time>2022-08-03T08:27:41Z</time>
      </trkpt>
      <trkpt lat="45.5717" lon="6.94982">
        <ele>2622.022</ele>
        <time>2022-08-03T08:27:51Z</time>
      </trkpt>
      <trkpt lat="45.57176" lon="6.94986">
        <ele>2622.171</ele>
        <time>2022-08-03T08:28:00Z</time>
      </trkpt>
      <trkpt lat="45.5718" lon="6.94991">
        <ele>2621.667</ele>
        <time>2022-08-03T08:28:10Z</time>
      </trkpt>
      <trkpt lat="45.57181" lon="6.95">
        <ele>2621.818</ele>
        <time>2022-08-03T08:28:20Z</time>
      </trkpt>
      <trkpt lat="45.57187" lon="6.95009">
        <ele>2622.617</ele>
        <time>2022-08-03T08:28:30Z</time>
      </trkpt>
      <trkpt lat="45.57192" lon="6.95019">
        <ele>2623.146</ele>
        <time>2022-08-03T08:28:39Z</time>
      </trkpt>
      <trkpt lat="45.57193" lon="6.9503">
        <ele>2624.156</ele>
        <time>2022-08-03T08:28:49Z</time>
      </trkpt>
      <trkpt lat="45.57194" lon="6.95038">
        <ele>2624.277</ele>
        <time>2022-08-03T08:28:58Z</time>
      </trkpt>
      <trkpt lat="45.57196" lon="6.95048">
        <ele>2623.881</ele>
        <time>2022-08-03T08:29:08Z</time>
      </trkpt>
      <trkpt lat="45.572" lon="6.95056">
        <ele>2624.787</ele>
        <time>2022-08-03T08:29:17Z</time>
      </trkpt>
      <trkpt lat="45.57205" lon="6.95065">
        <ele>2626.006</ele>
        <time>2022-08-03T08:29:27Z</time>
      </trkpt>
      <trkpt lat="45.57209" lon="6.95072">
        <ele>2626.19</ele>
        <time>2022-08-03T08:29:37Z</time>
      </trkpt>
      <trkpt lat="45.57213" lon="6.95079">
        <ele>2626.576</ele>
        <time>2022-08-03T08:29:47Z</time>
      </trkpt>
      <trkpt lat="45.57213" lon="6.95079">
        <ele>2626.412</ele>
        <time>2022-08-03T08:29:57Z</time>
      </trkpt>
      <trkpt lat="45.57213" lon="6.95079">
        <ele>2624.858</ele>
        <time>2022-08-03T08:30:07Z</time>
      </trkpt>
      <trkpt lat="45.57213" lon="6.95079">
        <ele>2625.854</ele>
        <time>2022-08-03T08:30:16Z</time>
      </trkpt>
      <trkpt lat="45.57213" lon="6.95078">
        <ele>2625.626</ele>
        <time>2022-08-03T08:30:26Z</time>
      </trkpt>
      <trkpt lat="45.57213" lon="6.95078">
        <ele>2624.374</ele>
        <time>2022-08-03T08:30:35Z</time>
      </trkpt>
      <trkpt lat="45.57213" lon="6.95079">
        <ele>2624.575</ele>
        <time>2022-08-03T08:30:45Z</time>
      </trkpt>
      <trkpt lat="45.57214" lon="6.95083">
        <ele>2626.577</ele>
        <time>2022-08-03T08:30:55Z</time>
      </trkpt>
      <trkpt lat="45.57218" lon="6.95087">
        <ele>2627.985</ele>
        <time>2022-08-03T08:31:05Z</time>
      </trkpt>
      <trkpt lat="45.57222" lon="6.95096">
        <ele>2628.565</ele>
        <time>2022-08-03T08:31:15Z</time>
      </trkpt>
      <trkpt lat="45.57222" lon="6.95104">
        <ele>2629.781</ele>
        <time>2022-08-03T08:31:25Z</time>
      </trkpt>
      <trkpt lat="45.57224" lon="6.95112">
        <ele>2629.828</ele>
        <time>2022-08-03T08:31:35Z</time>
      </trkpt>
      <trkpt lat="45.57224" lon="6.95118">
        <ele>2631.88</ele>
        <time>2022-08-03T08:31:44Z</time>
      </trkpt>
      <trkpt lat="45.57227" lon="6.95125">
        <ele>2632.857</ele>
        <time>2022-08-03T08:31:54Z</time>
      </trkpt>
      <trkpt lat="45.5723" lon="6.95127">
        <ele>2631.956</ele>
        <time>2022-08-03T08:32:03Z</time>
      </trkpt>
      <trkpt lat="45.57237" lon="6.9513">
        <ele>2632.113</ele>
        <time>2022-08-03T08:32:13Z</time>
      </trkpt>
      <trkpt lat="45.57242" lon="6.95132">
        <ele>2633.335</ele>
        <time>2022-08-03T08:32:22Z</time>
      </trkpt>
      <trkpt lat="45.57245" lon="6.95138">
        <ele>2635.092</ele>
        <time>2022-08-03T08:32:32Z</time>
      </trkpt>
      <trkpt lat="45.57249" lon="6.95145">
        <ele>2636.421</ele>
        <time>2022-08-03T08:32:41Z</time>
      </trkpt>
      <trkpt lat="45.57249" lon="6.95145">
        <ele>2636.665</ele>
        <time>2022-08-03T08:32:50Z</time>
      </trkpt>
      <trkpt lat="45.57252" lon="6.95148">
        <ele>2635.836</ele>
        <time>2022-08-03T08:33:00Z</time>
      </trkpt>
      <trkpt lat="45.57257" lon="6.95153">
        <ele>2636.493</ele>
        <time>2022-08-03T08:33:10Z</time>
      </trkpt>
      <trkpt lat="45.57259" lon="6.95163">
        <ele>2637.833</ele>
        <time>2022-08-03T08:33:19Z</time>
      </trkpt>
      <trkpt lat="45.57261" lon="6.95171">
        <ele>2636.899</ele>
        <time>2022-08-03T08:33:28Z</time>
      </trkpt>
      <trkpt lat="45.57261" lon="6.95182">
        <ele>2637.447</ele>
        <time>2022-08-03T08:33:38Z</time>
      </trkpt>
      <trkpt lat="45.57259" lon="6.95192">
        <ele>2636.638</ele>
        <time>2022-08-03T08:33:47Z</time>
      </trkpt>
      <trkpt lat="45.57258" lon="6.95195">
        <ele>2634.707</ele>
        <time>2022-08-03T08:33:56Z</time>
      </trkpt>
      <trkpt lat="45.57256" lon="6.95199">
        <ele>2635.405</ele>
        <time>2022-08-03T08:34:06Z</time>
      </trkpt>
      <trkpt lat="45.57254" lon="6.95208">
        <ele>2636.596</ele>
        <time>2022-08-03T08:34:15Z</time>
      </trkpt>
      <trkpt lat="45.57251" lon="6.95217">
        <ele>2639.014</ele>
        <time>2022-08-03T08:34:24Z</time>
      </trkpt>
      <trkpt lat="45.57248" lon="6.95226">
        <ele>2641.758</ele>
        <time>2022-08-03T08:34:34Z</time>
      </trkpt>
      <trkpt lat="45.57247" lon="6.95233">
        <ele>2643.623</ele>
        <time>2022-08-03T08:34:44Z</time>
      </trkpt>
      <trkpt lat="45.57251" lon="6.95242">
        <ele>2644.424</ele>
        <time>2022-08-03T08:34:53Z</time>
      </trkpt>
      <trkpt lat="45.5725" lon="6.9525">
        <ele>2645.775</ele>
        <time>2022-08-03T08:35:02Z</time>
      </trkpt>
      <trkpt lat="45.57255" lon="6.95255">
        <ele>2645.523</ele>
        <time>2022-08-03T08:35:12Z</time>
      </trkpt>
      <trkpt lat="45.57264" lon="6.95258">
        <ele>2643.789</ele>
        <time>2022-08-03T08:35:22Z</time>
      </trkpt>
      <trkpt lat="45.5727" lon="6.9526">
        <ele>2644.69</ele>
        <time>2022-08-03T08:35:31Z</time>
      </trkpt>
      <trkpt lat="45.57274" lon="6.95269">
        <ele>2646.245</ele>
        <time>2022-08-03T08:35:41Z</time>
      </trkpt>
      <trkpt lat="45.57275" lon="6.95278">
        <ele>2646.581</ele>
        <time>2022-08-03T08:35:50Z</time>
      </trkpt>
      <trkpt lat="45.57279" lon="6.95281">
        <ele>2647.417</ele>
        <time>2022-08-03T08:36:00Z</time>
      </trkpt>
      <trkpt lat="45.57283" lon="6.95287">
        <ele>2648.21</ele>
        <time>2022-08-03T08:36:09Z</time>
      </trkpt>
      <trkpt lat="45.57286" lon="6.95293">
        <ele>2649.05</ele>
        <time>2022-08-03T08:36:19Z</time>
      </trkpt>
      <trkpt lat="45.57287" lon="6.95298">
        <ele>2649.433</ele>
        <time>2022-08-03T08:36:29Z</time>
      </trkpt>
      <trkpt lat="45.5729" lon="6.95299">
        <ele>2650.182</ele>
        <time>2022-08-03T08:36:39Z</time>
      </trkpt>
      <trkpt lat="45.57291" lon="6.95304">
        <ele>2651.725</ele>
        <time>2022-08-03T08:36:48Z</time>
      </trkpt>
      <trkpt lat="45.57292" lon="6.95306">
        <ele>2652.565</ele>
        <time>2022-08-03T08:36:57Z</time>
      </trkpt>
      <trkpt lat="45.57292" lon="6.95306">
        <ele>2653.518</ele>
        <time>2022-08-03T08:37:07Z</time>
      </trkpt>
      <trkpt lat="45.57292" lon="6.95306">
        <ele>2653.116</ele>
        <time>2022-08-03T08:37:17Z</time>
      </trkpt>
      <trkpt lat="45.57294" lon="6.9531">
        <ele>2653.705</ele>
        <time>2022-08-03T08:37:27Z</time>
      </trkpt>
      <trkpt lat="45.57297" lon="6.95315">
        <ele>2655.11</ele>
        <time>2022-08-03T08:37:37Z</time>
      </trkpt>
      <trkpt lat="45.57301" lon="6.95318">
        <ele>2655.555</ele>
        <time>2022-08-03T08:37:46Z</time>
      </trkpt>
      <trkpt lat="45.57304" lon="6.95321">
        <ele>2656.337</ele>
        <time>2022-08-03T08:37:55Z</time>
      </trkpt>
      <trkpt lat="45.57308" lon="6.95324">
        <ele>2658.278</ele>
        <time>2022-08-03T08:38:05Z</time>
      </trkpt>
      <trkpt lat="45.5731" lon="6.95327">
        <ele>2659.719</ele>
        <time>2022-08-03T08:38:15Z</time>
      </trkpt>
      <trkpt lat="45.57314" lon="6.95328">
        <ele>2661.11</ele>
        <time>2022-08-03T08:38:24Z</time>
      </trkpt>
      <trkpt lat="45.57317" lon="6.9533">
        <ele>2661.423</ele>
        <time>2022-08-03T08:38:33Z</time>
      </trkpt>
      <trkpt lat="45.57321" lon="6.95334">
        <ele>2663.102</ele>
        <time>2022-08-03T08:38:43Z</time>
      </trkpt>
      <trkpt lat="45.57322" lon="6.9534">
        <ele>2664.469</ele>
        <time>2022-08-03T08:38:52Z</time>
      </trkpt>
      <trkpt lat="45.57324" lon="6.95345">
        <ele>2665.756</ele>
        <time>2022-08-03T08:39:01Z</time>
      </trkpt>
      <trkpt lat="45.57324" lon="6.95343">
        <ele>2665.194</ele>
        <time>2022-08-03T08:39:11Z</time>
      </trkpt>
      <trkpt lat="45.57325" lon="6.95344">
        <ele>2664.488</ele>
        <time>2022-08-03T08:39:21Z</time>
      </trkpt>
      <trkpt lat="45.57326" lon="6.95351">
        <ele>2665.793</ele>
        <time>2022-08-03T08:39:30Z</time>
      </trkpt>
      <trkpt lat="45.57327" lon="6.95358">
        <ele>2667.826</ele>
        <time>2022-08-03T08:39:40Z</time>
      </trkpt>
      <trkpt lat="45.57328" lon="6.95365">
        <ele>2669.006</ele>
        <time>2022-08-03T08:39:49Z</time>
      </trkpt>
      <trkpt lat="45.57329" lon="6.95372">
        <ele>2669.785</ele>
        <time>2022-08-03T08:39:59Z</time>
      </trkpt>
      <trkpt lat="45.5733" lon="6.95373">
        <ele>2670.417</ele>
        <time>2022-08-03T08:40:08Z</time>
      </trkpt>
      <trkpt lat="45.5733" lon="6.95377">
        <ele>2671.979</ele>
        <time>2022-08-03T08:40:18Z</time>
      </trkpt>
      <trkpt lat="45.57332" lon="6.95379">
        <ele>2672.609</ele>
        <time>2022-08-03T08:40:28Z</time>
      </trkpt>
      <trkpt lat="45.57331" lon="6.9538">
        <ele>2672.513</ele>
        <time>2022-08-03T08:40:37Z</time>
      </trkpt>
      <trkpt lat="45.57331" lon="6.9538">
        <ele>2672.475</ele>
        <time>2022-08-03T08:40:47Z</time>
      </trkpt>
      <trkpt lat="45.57331" lon="6.9538">
        <ele>2672.474</ele>
        <time>2022-08-03T08:40:56Z</time>
      </trkpt>
      <trkpt lat="45.57331" lon="6.9538">
        <ele>2672.47</ele>
        <time>2022-08-03T08:41:05Z</time>
      </trkpt>
      <trkpt lat="45.57332" lon="6.95383">
        <ele>2672.845</ele>
        <time>2022-08-03T08:41:15Z</time>
      </trkpt>
      <trkpt lat="45.57333" lon="6.95389">
        <ele>2674.559</ele>
        <time>2022-08-03T08:41:24Z</time>
      </trkpt>
      <trkpt lat="45.57331" lon="6.95394">
        <ele>2677.051</ele>
        <time>2022-08-03T08:41:34Z</time>
      </trkpt>
      <trkpt lat="45.5733" lon="6.954">
        <ele>2678.635</ele>
        <time>2022-08-03T08:41:43Z</time>
      </trkpt>
      <trkpt lat="45.57331" lon="6.95405">
        <ele>2679.755</ele>
        <time>2022-08-03T08:41:53Z</time>
      </trkpt>
      <trkpt lat="45.57334" lon="6.95405">
        <ele>2680.315</ele>
        <time>2022-08-03T08:42:02Z</time>
      </trkpt>
      <trkpt lat="45.5734" lon="6.95404">
        <ele>2681.625</ele>
        <time>2022-08-03T08:42:12Z</time>
      </trkpt>
      <trkpt lat="45.57339" lon="6.95403">
        <ele>2684.134</ele>
        <time>2022-08-03T08:42:21Z</time>
      </trkpt>
      <trkpt lat="45.5734" lon="6.95403">
        <ele>2684.959</ele>
        <time>2022-08-03T08:42:31Z</time>
      </trkpt>
      <trkpt lat="45.57344" lon="6.95407">
        <ele>2686.149</ele>
        <time>2022-08-03T08:42:40Z</time>
      </trkpt>
      <trkpt lat="45.57343" lon="6.95415">
        <ele>2688.475</ele>
        <time>2022-08-03T08:42:49Z</time>
      </trkpt>
      <trkpt lat="45.57345" lon="6.95418">
        <ele>2689.269</ele>
        <time>2022-08-03T08:42:58Z</time>
      </trkpt>
      <trkpt lat="45.57345" lon="6.95419">
        <ele>2687.619</ele>
        <time>2022-08-03T08:43:07Z</time>
      </trkpt>
      <trkpt lat="45.57345" lon="6.95418">
        <ele>2687.591</ele>
        <time>2022-08-03T08:43:17Z</time>
      </trkpt>
      <trkpt lat="45.57345" lon="6.95418">
        <ele>2687.577</ele>
        <time>2022-08-03T08:43:27Z</time>
      </trkpt>
      <trkpt lat="45.57345" lon="6.95418">
        <ele>2687.998</ele>
        <time>2022-08-03T08:43:37Z</time>
      </trkpt>
      <trkpt lat="45.57346" lon="6.95418">
        <ele>2687.082</ele>
        <time>2022-08-03T08:43:46Z</time>
      </trkpt>
      <trkpt lat="45.57352" lon="6.95421">
        <ele>2687.362</ele>
        <time>2022-08-03T08:43:56Z</time>
      </trkpt>
      <trkpt lat="45.57356" lon="6.95424">
        <ele>2687.534</ele>
        <time>2022-08-03T08:44:05Z</time>
      </trkpt>
      <trkpt lat="45.57359" lon="6.9543">
        <ele>2688.317</ele>
        <time>2022-08-03T08:44:14Z</time>
      </trkpt>
      <trkpt lat="45.57362" lon="6.95435">
        <ele>2688.874</ele>
        <time>2022-08-03T08:44:24Z</time>
      </trkpt>
      <trkpt lat="45.57365" lon="6.95435">
        <ele>2688.412</ele>
        <time>2022-08-03T08:44:33Z</time>
      </trkpt>
      <trkpt lat="45.57367" lon="6.95435">
        <ele>2688.439</ele>
        <time>2022-08-03T08:44:42Z</time>
      </trkpt>
      <trkpt lat="45.57368" lon="6.95436">
        <ele>2690.043</ele>
        <time>2022-08-03T08:44:52Z</time>
      </trkpt>
      <trkpt lat="45.57372" lon="6.95438">
        <ele>2690.526</ele>
        <time>2022-08-03T08:45:01Z</time>
      </trkpt>
      <trkpt lat="45.5737" lon="6.95438">
        <ele>2691.059</ele>
        <time>2022-08-03T08:45:10Z</time>
      </trkpt>
      <trkpt lat="45.5737" lon="6.95438">
        <ele>2691.603</ele>
        <time>2022-08-03T08:45:19Z</time>
      </trkpt>
      <trkpt lat="45.57374" lon="6.95442">
        <ele>2691.626</ele>
        <time>2022-08-03T08:45:29Z</time>
      </trkpt>
      <trkpt lat="45.57378" lon="6.95443">
        <ele>2691.62</ele>
        <time>2022-08-03T08:45:38Z</time>
      </trkpt>
      <trkpt lat="45.5738" lon="6.9544">
        <ele>2692.208</ele>
        <time>2022-08-03T08:45:48Z</time>
      </trkpt>
      <trkpt lat="45.5738" lon="6.95439">
        <ele>2691.617</ele>
        <time>2022-08-03T08:45:57Z</time>
      </trkpt>
      <trkpt lat="45.57381" lon="6.95438">
        <ele>2692.147</ele>
        <time>2022-08-03T08:46:06Z</time>
      </trkpt>
      <trkpt lat="45.57381" lon="6.95438">
        <ele>2693.348</ele>
        <time>2022-08-03T08:46:16Z</time>
      </trkpt>
      <trkpt lat="45.57381" lon="6.95438">
        <ele>2693.289</ele>
        <time>2022-08-03T08:46:26Z</time>
      </trkpt>
      <trkpt lat="45.57381" lon="6.95438">
        <ele>2693.298</ele>
        <time>2022-08-03T08:46:35Z</time>
      </trkpt>
      <trkpt lat="45.57384" lon="6.95437">
        <ele>2694.34</ele>
        <time>2022-08-03T08:46:44Z</time>
      </trkpt>
      <trkpt lat="45.57386" lon="6.95441">
        <ele>2697.304</ele>
        <time>2022-08-03T08:46:53Z</time>
      </trkpt>
      <trkpt lat="45.57387" lon="6.9544">
        <ele>2696.173</ele>
        <time>2022-08-03T08:47:02Z</time>
      </trkpt>
      <trkpt lat="45.57389" lon="6.95438">
        <ele>2696.813</ele>
        <time>2022-08-03T08:47:12Z</time>
      </trkpt>
      <trkpt lat="45.57389" lon="6.95444">
        <ele>2698.645</ele>
        <time>2022-08-03T08:47:21Z</time>
      </trkpt>
      <trkpt lat="45.57393" lon="6.95451">
        <ele>2700.789</ele>
        <time>2022-08-03T08:47:30Z</time>
      </trkpt>
      <trkpt lat="45.57394" lon="6.95456">
        <ele>2700.905</ele>
        <time>2022-08-03T08:47:40Z</time>
      </trkpt>
      <trkpt lat="45.57394" lon="6.95463">
        <ele>2701.93</ele>
        <time>2022-08-03T08:47:49Z</time>
      </trkpt>
      <trkpt lat="45.57396" lon="6.95471">
        <ele>2702.488</ele>
        <time>2022-08-03T08:47:58Z</time>
      </trkpt>
      <trkpt lat="45.57398" lon="6.95477">
        <ele>2702.751</ele>
        <time>2022-08-03T08:48:08Z</time>
      </trkpt>
      <trkpt lat="45.57401" lon="6.95484">
        <ele>2703.519</ele>
        <time>2022-08-03T08:48:17Z</time>
      </trkpt>
      <trkpt lat="45.57403" lon="6.95492">
        <ele>2703.777</ele>
        <time>2022-08-03T08:48:27Z</time>
      </trkpt>
      <trkpt lat="45.57406" lon="6.95497">
        <ele>2704.377</ele>
        <time>2022-08-03T08:48:37Z</time>
      </trkpt>
      <trkpt lat="45.57406" lon="6.95497">
        <ele>2704.035</ele>
        <time>2022-08-03T08:48:47Z</time>
      </trkpt>
      <trkpt lat="45.5741" lon="6.95501">
        <ele>2705.308</ele>
        <time>2022-08-03T08:48:56Z</time>
      </trkpt>
      <trkpt lat="45.57412" lon="6.95498">
        <ele>2706.272</ele>
        <time>2022-08-03T08:49:05Z</time>
      </trkpt>
      <trkpt lat="45.57416" lon="6.95493">
        <ele>2707.462</ele>
        <time>2022-08-03T08:49:15Z</time>
      </trkpt>
      <trkpt lat="45.5742" lon="6.95493">
        <ele>2708.356</ele>
        <time>2022-08-03T08:49:25Z</time>
      </trkpt>
      <trkpt lat="45.57422" lon="6.95489">
        <ele>2709.375</ele>
        <time>2022-08-03T08:49:35Z</time>
      </trkpt>
      <trkpt lat="45.57424" lon="6.95487">
        <ele>2712.102</ele>
        <time>2022-08-03T08:49:45Z</time>
      </trkpt>
      <trkpt lat="45.57427" lon="6.95484">
        <ele>2713.262</ele>
        <time>2022-08-03T08:49:54Z</time>
      </trkpt>
      <trkpt lat="45.57431" lon="6.95479">
        <ele>2714.064</ele>
        <time>2022-08-03T08:50:03Z</time>
      </trkpt>
      <trkpt lat="45.57435" lon="6.95476">
        <ele>2715.865</ele>
        <time>2022-08-03T08:50:13Z</time>
      </trkpt>
      <trkpt lat="45.5744" lon="6.95474">
        <ele>2716.002</ele>
        <time>2022-08-03T08:50:22Z</time>
      </trkpt>
      <trkpt lat="45.57445" lon="6.95473">
        <ele>2716.184</ele>
        <time>2022-08-03T08:50:31Z</time>
      </trkpt>
      <trkpt lat="45.5745" lon="6.95478">
        <ele>2718.61</ele>
        <time>2022-08-03T08:50:41Z</time>
      </trkpt>
      <trkpt lat="45.57454" lon="6.95482">
        <ele>2718.977</ele>
        <time>2022-08-03T08:50:50Z</time>
      </trkpt>
      <trkpt lat="45.57459" lon="6.95485">
        <ele>2719.942</ele>
        <time>2022-08-03T08:51:00Z</time>
      </trkpt>
      <trkpt lat="45.57464" lon="6.95488">
        <ele>2720.819</ele>
        <time>2022-08-03T08:51:09Z</time>
      </trkpt>
      <trkpt lat="45.57469" lon="6.9549">
        <ele>2721.018</ele>
        <time>2022-08-03T08:51:18Z</time>
      </trkpt>
      <trkpt lat="45.57474" lon="6.95492">
        <ele>2721.078</ele>
        <time>2022-08-03T08:51:28Z</time>
      </trkpt>
      <trkpt lat="45.5748" lon="6.95495">
        <ele>2721.685</ele>
        <time>2022-08-03T08:51:37Z</time>
      </trkpt>
      <trkpt lat="45.57486" lon="6.95498">
        <ele>2721.955</ele>
        <time>2022-08-03T08:51:46Z</time>
      </trkpt>
      <trkpt lat="45.57492" lon="6.95501">
        <ele>2723.355</ele>
        <time>2022-08-03T08:51:56Z</time>
      </trkpt>
      <trkpt lat="45.57496" lon="6.95502">
        <ele>2723.917</ele>
        <time>2022-08-03T08:52:05Z</time>
      </trkpt>
      <trkpt lat="45.57496" lon="6.95507">
        <ele>2727.651</ele>
        <time>2022-08-03T08:52:15Z</time>
      </trkpt>
      <trkpt lat="45.57493" lon="6.95512">
        <ele>2730.053</ele>
        <time>2022-08-03T08:52:24Z</time>
      </trkpt>
      <trkpt lat="45.57495" lon="6.95518">
        <ele>2731.371</ele>
        <time>2022-08-03T08:52:34Z</time>
      </trkpt>
      <trkpt lat="45.57501" lon="6.9552">
        <ele>2731.202</ele>
        <time>2022-08-03T08:52:43Z</time>
      </trkpt>
      <trkpt lat="45.57506" lon="6.95523">
        <ele>2731.108</ele>
        <time>2022-08-03T08:52:52Z</time>
      </trkpt>
      <trkpt lat="45.5751" lon="6.95522">
        <ele>2732.048</ele>
        <time>2022-08-03T08:53:02Z</time>
      </trkpt>
      <trkpt lat="45.57515" lon="6.95524">
        <ele>2732.134</ele>
        <time>2022-08-03T08:53:11Z</time>
      </trkpt>
      <trkpt lat="45.57521" lon="6.95523">
        <ele>2734.499</ele>
        <time>2022-08-03T08:53:21Z</time>
      </trkpt>
      <trkpt lat="45.57527" lon="6.95523">
        <ele>2735.063</ele>
        <time>2022-08-03T08:53:30Z</time>
      </trkpt>
      <trkpt lat="45.57531" lon="6.95524">
        <ele>2736.855</ele>
        <time>2022-08-03T08:53:40Z</time>
      </trkpt>
      <trkpt lat="45.57537" lon="6.95526">
        <ele>2738.471</ele>
        <time>2022-08-03T08:53:49Z</time>
      </trkpt>
      <trkpt lat="45.57541" lon="6.95521">
        <ele>2738.909</ele>
        <time>2022-08-03T08:53:59Z</time>
      </trkpt>
      <trkpt lat="45.57544" lon="6.9552">
        <ele>2738.466</ele>
        <time>2022-08-03T08:54:09Z</time>
      </trkpt>
      <trkpt lat="45.57548" lon="6.95518">
        <ele>2737.606</ele>
        <time>2022-08-03T08:54:19Z</time>
      </trkpt>
      <trkpt lat="45.57552" lon="6.95516">
        <ele>2738.538</ele>
        <time>2022-08-03T08:54:28Z</time>
      </trkpt>
      <trkpt lat="45.57553" lon="6.95515">
        <ele>2738.607</ele>
        <time>2022-08-03T08:54:38Z</time>
      </trkpt>
      <trkpt lat="45.57552" lon="6.95515">
        <ele>2738.29</ele>
        <time>2022-08-03T08:54:47Z</time>
      </trkpt>
      <trkpt lat="45.57557" lon="6.95512">
        <ele>2738.217</ele>
        <time>2022-08-03T08:54:57Z</time>
      </trkpt>
      <trkpt lat="45.57556" lon="6.95514">
        <ele>2739.273</ele>
        <time>2022-08-03T08:55:07Z</time>
      </trkpt>
      <trkpt lat="45.57556" lon="6.95514">
        <ele>2739.515</ele>
        <time>2022-08-03T08:55:16Z</time>
      </trkpt>
      <trkpt lat="45.57556" lon="6.95513">
        <ele>2739.839</ele>
        <time>2022-08-03T08:55:26Z</time>
      </trkpt>
      <trkpt lat="45.57559" lon="6.95513">
        <ele>2738.068</ele>
        <time>2022-08-03T08:55:35Z</time>
      </trkpt>
      <trkpt lat="45.57567" lon="6.95514">
        <ele>2735.131</ele>
        <time>2022-08-03T08:55:45Z</time>
      </trkpt>
      <trkpt lat="45.5757" lon="6.95514">
        <ele>2734.116</ele>
        <time>2022-08-03T08:55:54Z</time>
      </trkpt>
      <trkpt lat="45.57571" lon="6.95514">
        <ele>2733.818</ele>
        <time>2022-08-03T08:56:04Z</time>
      </trkpt>
      <trkpt lat="45.57571" lon="6.95513">
        <ele>2733.563</ele>
        <time>2022-08-03T08:56:14Z</time>
      </trkpt>
      <trkpt lat="45.57574" lon="6.95508">
        <ele>2731.854</ele>
        <time>2022-08-03T08:56:23Z</time>
      </trkpt>
      <trkpt lat="45.5758" lon="6.95506">
        <ele>2729.874</ele>
        <time>2022-08-03T08:56:33Z</time>
      </trkpt>
      <trkpt lat="45.57587" lon="6.95507">
        <ele>2728.276</ele>
        <time>2022-08-03T08:56:43Z</time>
      </trkpt>
      <trkpt lat="45.57593" lon="6.95508">
        <ele>2727</ele>
        <time>2022-08-03T08:56:52Z</time>
      </trkpt>
      <trkpt lat="45.576" lon="6.95511">
        <ele>2728.141</ele>
        <time>2022-08-03T08:57:01Z</time>
      </trkpt>
      <trkpt lat="45.576" lon="6.9551">
        <ele>2727.848</ele>
        <time>2022-08-03T08:57:11Z</time>
      </trkpt>
      <trkpt lat="45.57602" lon="6.95512">
        <ele>2728.316</ele>
        <time>2022-08-03T08:57:20Z</time>
      </trkpt>
      <trkpt lat="45.57611" lon="6.95516">
        <ele>2728.174</ele>
        <time>2022-08-03T08:57:30Z</time>
      </trkpt>
      <trkpt lat="45.57618" lon="6.95523">
        <ele>2728.998</ele>
        <time>2022-08-03T08:57:39Z</time>
      </trkpt>
      <trkpt lat="45.57625" lon="6.95529">
        <ele>2728.89</ele>
        <time>2022-08-03T08:57:49Z</time>
      </trkpt>
      <trkpt lat="45.57631" lon="6.95538">
        <ele>2728.253</ele>
        <time>2022-08-03T08:57:59Z</time>
      </trkpt>
      <trkpt lat="45.57636" lon="6.95548">
        <ele>2727.987</ele>
        <time>2022-08-03T08:58:09Z</time>
      </trkpt>
      <trkpt lat="45.57641" lon="6.95559">
        <ele>2727.305</ele>
        <time>2022-08-03T08:58:19Z</time>
      </trkpt>
      <trkpt lat="45.57643" lon="6.95568">
        <ele>2728.347</ele>
        <time>2022-08-03T08:58:29Z</time>
      </trkpt>
      <trkpt lat="45.57647" lon="6.95573">
        <ele>2727.278</ele>
        <time>2022-08-03T08:58:38Z</time>
      </trkpt>
      <trkpt lat="45.57653" lon="6.95582">
        <ele>2726.184</ele>
        <time>2022-08-03T08:58:48Z</time>
      </trkpt>
      <trkpt lat="45.57662" lon="6.95585">
        <ele>2725.7</ele>
        <time>2022-08-03T08:58:57Z</time>
      </trkpt>
      <trkpt lat="45.57669" lon="6.95586">
        <ele>2726.147</ele>
        <time>2022-08-03T08:59:07Z</time>
      </trkpt>
      <trkpt lat="45.57676" lon="6.9558">
        <ele>2725.21</ele>
        <time>2022-08-03T08:59:17Z</time>
      </trkpt>
      <trkpt lat="45.57682" lon="6.95577">
        <ele>2726.989</ele>
        <time>2022-08-03T08:59:27Z</time>
      </trkpt>
      <trkpt lat="45.57682" lon="6.95577">
        <ele>2729.03</ele>
        <time>2022-08-03T08:59:37Z</time>
      </trkpt>
      <trkpt lat="45.57682" lon="6.95577">
        <ele>2729.244</ele>
        <time>2022-08-03T08:59:46Z</time>
      </trkpt>
      <trkpt lat="45.57681" lon="6.95575">
        <ele>2728.257</ele>
        <time>2022-08-03T08:59:56Z</time>
      </trkpt>
      <trkpt lat="45.5768" lon="6.95572">
        <ele>2728.605</ele>
        <time>2022-08-03T09:00:05Z</time>
      </trkpt>
      <trkpt lat="45.5768" lon="6.95572">
        <ele>2728.716</ele>
        <time>2022-08-03T09:00:15Z</time>
      </trkpt>
      <trkpt lat="45.5768" lon="6.95571">
        <ele>2729.015</ele>
        <time>2022-08-03T09:00:25Z</time>
      </trkpt>
      <trkpt lat="45.57679" lon="6.95572">
        <ele>2730.12</ele>
        <time>2022-08-03T09:00:35Z</time>
      </trkpt>
      <trkpt lat="45.57678" lon="6.95573">
        <ele>2730.705</ele>
        <time>2022-08-03T09:00:44Z</time>
      </trkpt>
      <trkpt lat="45.57678" lon="6.95573">
        <ele>2730.593</ele>
        <time>2022-08-03T09:00:54Z</time>
      </trkpt>
      <trkpt lat="45.57678" lon="6.95572">
        <ele>2730.437</ele>
        <time>2022-08-03T09:01:04Z</time>
      </trkpt>
      <trkpt lat="45.57678" lon="6.95572">
        <ele>2731.296</ele>
        <time>2022-08-03T09:01:14Z</time>
      </trkpt>
      <trkpt lat="45.57678" lon="6.95572">
        <ele>2730.579</ele>
        <time>2022-08-03T09:01:23Z</time>
      </trkpt>
      <trkpt lat="45.57678" lon="6.95572">
        <ele>2730.695</ele>
        <time>2022-08-03T09:01:32Z</time>
      </trkpt>
      <trkpt lat="45.57678" lon="6.95572">
        <ele>2731.331</ele>
        <time>2022-08-03T09:01:41Z</time>
      </trkpt>
      <trkpt lat="45.57678" lon="6.95572">
        <ele>2731.116</ele>
        <time>2022-08-03T09:01:51Z</time>
      </trkpt>
      <trkpt lat="45.57678" lon="6.95573">
        <ele>2731.446</ele>
        <time>2022-08-03T09:02:01Z</time>
      </trkpt>
      <trkpt lat="45.57678" lon="6.95573">
        <ele>2732.353</ele>
        <time>2022-08-03T09:02:10Z</time>
      </trkpt>
      <trkpt lat="45.57677" lon="6.95574">
        <ele>2733.434</ele>
        <time>2022-08-03T09:02:19Z</time>
      </trkpt>
      <trkpt lat="45.57677" lon="6.95573">
        <ele>2733.792</ele>
        <time>2022-08-03T09:02:29Z</time>
      </trkpt>
      <trkpt lat="45.57676" lon="6.95575">
        <ele>2733.98</ele>
        <time>2022-08-03T09:02:39Z</time>
      </trkpt>
      <trkpt lat="45.57672" lon="6.95578">
        <ele>2732.792</ele>
        <time>2022-08-03T09:02:49Z</time>
      </trkpt>
      <trkpt lat="45.57666" lon="6.95582">
        <ele>2731.729</ele>
        <time>2022-08-03T09:02:58Z</time>
      </trkpt>
      <trkpt lat="45.5766" lon="6.95582">
        <ele>2731.833</ele>
        <time>2022-08-03T09:03:08Z</time>
      </trkpt>
      <trkpt lat="45.57654" lon="6.95585">
        <ele>2732.141</ele>
        <time>2022-08-03T09:03:17Z</time>
      </trkpt>
      <trkpt lat="45.57646" lon="6.95591">
        <ele>2733.325</ele>
        <time>2022-08-03T09:03:26Z</time>
      </trkpt>
      <trkpt lat="45.5764" lon="6.95594">
        <ele>2732.77</ele>
        <time>2022-08-03T09:03:35Z</time>
      </trkpt>
      <trkpt lat="45.57634" lon="6.95603">
        <ele>2733.376</ele>
        <time>2022-08-03T09:03:45Z</time>
      </trkpt>
      <trkpt lat="45.57628" lon="6.95611">
        <ele>2732.874</ele>
        <time>2022-08-03T09:03:54Z</time>
      </trkpt>
      <trkpt lat="45.57625" lon="6.95621">
        <ele>2732.89</ele>
        <time>2022-08-03T09:04:04Z</time>
      </trkpt>
      <trkpt lat="45.5762" lon="6.95627">
        <ele>2732.577</ele>
        <time>2022-08-03T09:04:13Z</time>
      </trkpt>
      <trkpt lat="45.57615" lon="6.95635">
        <ele>2733.179</ele>
        <time>2022-08-03T09:04:23Z</time>
      </trkpt>
      <trkpt lat="45.57612" lon="6.95646">
        <ele>2734.05</ele>
        <time>2022-08-03T09:04:33Z</time>
      </trkpt>
      <trkpt lat="45.57607" lon="6.95649">
        <ele>2734.805</ele>
        <time>2022-08-03T09:04:42Z</time>
      </trkpt>
      <trkpt lat="45.57607" lon="6.95649">
        <ele>2734.213</ele>
        <time>2022-08-03T09:04:51Z</time>
      </trkpt>
      <trkpt lat="45.57606" lon="6.95649">
        <ele>2734.76</ele>
        <time>2022-08-03T09:05:01Z</time>
      </trkpt>
      <trkpt lat="45.57606" lon="6.95649">
        <ele>2734.766</ele>
        <time>2022-08-03T09:05:10Z</time>
      </trkpt>
      <trkpt lat="45.57606" lon="6.95649">
        <ele>2734.752</ele>
        <time>2022-08-03T09:05:19Z</time>
      </trkpt>
      <trkpt lat="45.57607" lon="6.95649">
        <ele>2735.22</ele>
        <time>2022-08-03T09:05:28Z</time>
      </trkpt>
      <trkpt lat="45.57608" lon="6.95649">
        <ele>2734.139</ele>
        <time>2022-08-03T09:05:38Z</time>
      </trkpt>
      <trkpt lat="45.57608" lon="6.95649">
        <ele>2734.147</ele>
        <time>2022-08-03T09:05:48Z</time>
      </trkpt>
      <trkpt lat="45.57609" lon="6.95649">
        <ele>2734.313</ele>
        <time>2022-08-03T09:05:58Z</time>
      </trkpt>
      <trkpt lat="45.57609" lon="6.95649">
        <ele>2733.655</ele>
        <time>2022-08-03T09:06:07Z</time>
      </trkpt>
      <trkpt lat="45.57609" lon="6.95649">
        <ele>2733.633</ele>
        <time>2022-08-03T09:06:17Z</time>
      </trkpt>
      <trkpt lat="45.57609" lon="6.95649">
        <ele>2733.184</ele>
        <time>2022-08-03T09:06:26Z</time>
      </trkpt>
      <trkpt lat="45.5761" lon="6.95647">
        <ele>2731.348</ele>
        <time>2022-08-03T09:06:35Z</time>
      </trkpt>
      <trkpt lat="45.57611" lon="6.95647">
        <ele>2731.082</ele>
        <time>2022-08-03T09:06:44Z</time>
      </trkpt>
      <trkpt lat="45.57611" lon="6.95646">
        <ele>2730.618</ele>
        <time>2022-08-03T09:06:54Z</time>
      </trkpt>
      <trkpt lat="45.57609" lon="6.95646">
        <ele>2733.731</ele>
        <time>2022-08-03T09:07:03Z</time>
      </trkpt>
      <trkpt lat="45.57609" lon="6.95647">
        <ele>2735.309</ele>
        <time>2022-08-03T09:07:12Z</time>
      </trkpt>
      <trkpt lat="45.57608" lon="6.95647">
        <ele>2735.572</ele>
        <time>2022-08-03T09:07:22Z</time>
      </trkpt>
      <trkpt lat="45.57608" lon="6.95647">
        <ele>2735.709</ele>
        <time>2022-08-03T09:07:32Z</time>
      </trkpt>
      <trkpt lat="45.57608" lon="6.95647">
        <ele>2735.696</ele>
        <time>2022-08-03T09:07:41Z</time>
      </trkpt>
      <trkpt lat="45.57608" lon="6.95647">
        <ele>2735.693</ele>
        <time>2022-08-03T09:07:51Z</time>
      </trkpt>
      <trkpt lat="45.57609" lon="6.95647">
        <ele>2735.225</ele>
        <time>2022-08-03T09:08:00Z</time>
      </trkpt>
      <trkpt lat="45.57609" lon="6.95647">
        <ele>2735.722</ele>
        <time>2022-08-03T09:08:09Z</time>
      </trkpt>
      <trkpt lat="45.5761" lon="6.95647">
        <ele>2735.393</ele>
        <time>2022-08-03T09:08:19Z</time>
      </trkpt>
      <trkpt lat="45.57611" lon="6.95647">
        <ele>2733.52</ele>
        <time>2022-08-03T09:08:29Z</time>
      </trkpt>
      <trkpt lat="45.57611" lon="6.95647">
        <ele>2734.702</ele>
        <time>2022-08-03T09:08:39Z</time>
      </trkpt>
      <trkpt lat="45.57612" lon="6.95643">
        <ele>2734.746</ele>
        <time>2022-08-03T09:08:48Z</time>
      </trkpt>
      <trkpt lat="45.57613" lon="6.95643">
        <ele>2735.675</ele>
        <time>2022-08-03T09:08:58Z</time>
      </trkpt>
      <trkpt lat="45.57614" lon="6.95639">
        <ele>2734.717</ele>
        <time>2022-08-03T09:09:08Z</time>
      </trkpt>
      <trkpt lat="45.57614" lon="6.95639">
        <ele>2734.786</ele>
        <time>2022-08-03T09:09:18Z</time>
      </trkpt>
      <trkpt lat="45.57615" lon="6.95638">
        <ele>2733.892</ele>
        <time>2022-08-03T09:09:27Z</time>
      </trkpt>
      <trkpt lat="45.57617" lon="6.95634">
        <ele>2733.712</ele>
        <time>2022-08-03T09:09:37Z</time>
      </trkpt>
      <trkpt lat="45.57618" lon="6.95624">
        <ele>2733.158</ele>
        <time>2022-08-03T09:09:47Z</time>
      </trkpt>
      <trkpt lat="45.57619" lon="6.95614">
        <ele>2734.84</ele>
        <time>2022-08-03T09:09:57Z</time>
      </trkpt>
      <trkpt lat="45.57619" lon="6.95603">
        <ele>2735.172</ele>
        <time>2022-08-03T09:10:07Z</time>
      </trkpt>
      <trkpt lat="45.5762" lon="6.95592">
        <ele>2735.838</ele>
        <time>2022-08-03T09:10:16Z</time>
      </trkpt>
      <trkpt lat="45.57621" lon="6.95581">
        <ele>2736.081</ele>
        <time>2022-08-03T09:10:25Z</time>
      </trkpt>
      <trkpt lat="45.57624" lon="6.95569">
        <ele>2736.303</ele>
        <time>2022-08-03T09:10:35Z</time>
      </trkpt>
      <trkpt lat="45.57622" lon="6.95559">
        <ele>2736.288</ele>
        <time>2022-08-03T09:10:44Z</time>
      </trkpt>
      <trkpt lat="45.5762" lon="6.9555">
        <ele>2735.138</ele>
        <time>2022-08-03T09:10:54Z</time>
      </trkpt>
      <trkpt lat="45.57616" lon="6.95541">
        <ele>2734.884</ele>
        <time>2022-08-03T09:11:03Z</time>
      </trkpt>
      <trkpt lat="45.57611" lon="6.95534">
        <ele>2733.374</ele>
        <time>2022-08-03T09:11:13Z</time>
      </trkpt>
      <trkpt lat="45.57609" lon="6.95527">
        <ele>2732.123</ele>
        <time>2022-08-03T09:11:22Z</time>
      </trkpt>
      <trkpt lat="45.57607" lon="6.95519">
        <ele>2730.712</ele>
        <time>2022-08-03T09:11:32Z</time>
      </trkpt>
      <trkpt lat="45.576" lon="6.95514">
        <ele>2730.826</ele>
        <time>2022-08-03T09:11:42Z</time>
      </trkpt>
      <trkpt lat="45.57593" lon="6.9551">
        <ele>2730.933</ele>
        <time>2022-08-03T09:11:51Z</time>
      </trkpt>
      <trkpt lat="45.57587" lon="6.95507">
        <ele>2730.571</ele>
        <time>2022-08-03T09:12:00Z</time>
      </trkpt>
      <trkpt lat="45.57585" lon="6.95504">
        <ele>2729.752</ele>
        <time>2022-08-03T09:12:10Z</time>
      </trkpt>
      <trkpt lat="45.57578" lon="6.95502">
        <ele>2730.62</ele>
        <time>2022-08-03T09:12:19Z</time>
      </trkpt>
      <trkpt lat="45.57572" lon="6.95493">
        <ele>2731.149</ele>
        <time>2022-08-03T09:12:29Z</time>
      </trkpt>
      <trkpt lat="45.57568" lon="6.95483">
        <ele>2730.449</ele>
        <time>2022-08-03T09:12:38Z</time>
      </trkpt>
      <trkpt lat="45.57563" lon="6.95472">
        <ele>2729.558</ele>
        <time>2022-08-03T09:12:47Z</time>
      </trkpt>
      <trkpt lat="45.57558" lon="6.9546">
        <ele>2729.713</ele>
        <time>2022-08-03T09:12:56Z</time>
      </trkpt>
      <trkpt lat="45.57553" lon="6.95449">
        <ele>2730.426</ele>
        <time>2022-08-03T09:13:06Z</time>
      </trkpt>
      <trkpt lat="45.57547" lon="6.95452">
        <ele>2732.955</ele>
        <time>2022-08-03T09:13:15Z</time>
      </trkpt>
      <trkpt lat="45.5754" lon="6.95449">
        <ele>2734.672</ele>
        <time>2022-08-03T09:13:25Z</time>
      </trkpt>
      <trkpt lat="45.57533" lon="6.9545">
        <ele>2733.888</ele>
        <time>2022-08-03T09:13:35Z</time>
      </trkpt>
      <trkpt lat="45.57528" lon="6.95445">
        <ele>2732.973</ele>
        <time>2022-08-03T09:13:45Z</time>
      </trkpt>
      <trkpt lat="45.5752" lon="6.95443">
        <ele>2731.226</ele>
        <time>2022-08-03T09:13:55Z</time>
      </trkpt>
      <trkpt lat="45.57522" lon="6.95433">
        <ele>2730.815</ele>
        <time>2022-08-03T09:14:04Z</time>
      </trkpt>
      <trkpt lat="45.5752" lon="6.95425">
        <ele>2733.537</ele>
        <time>2022-08-03T09:14:14Z</time>
      </trkpt>
      <trkpt lat="45.57515" lon="6.95419">
        <ele>2734.468</ele>
        <time>2022-08-03T09:14:23Z</time>
      </trkpt>
      <trkpt lat="45.5751" lon="6.95419">
        <ele>2732.229</ele>
        <time>2022-08-03T09:14:33Z</time>
      </trkpt>
      <trkpt lat="45.57504" lon="6.95421">
        <ele>2731.566</ele>
        <time>2022-08-03T09:14:42Z</time>
      </trkpt>
      <trkpt lat="45.57496" lon="6.9542">
        <ele>2730.085</ele>
        <time>2022-08-03T09:14:51Z</time>
      </trkpt>
      <trkpt lat="45.57494" lon="6.95412">
        <ele>2729.07</ele>
        <time>2022-08-03T09:15:01Z</time>
      </trkpt>
      <trkpt lat="45.57493" lon="6.9541">
        <ele>2729.264</ele>
        <time>2022-08-03T09:15:11Z</time>
      </trkpt>
      <trkpt lat="45.57488" lon="6.95398">
        <ele>2727.589</ele>
        <time>2022-08-03T09:15:21Z</time>
      </trkpt>
      <trkpt lat="45.57485" lon="6.95385">
        <ele>2726.588</ele>
        <time>2022-08-03T09:15:30Z</time>
      </trkpt>
      <trkpt lat="45.57483" lon="6.95374">
        <ele>2725.284</ele>
        <time>2022-08-03T09:15:39Z</time>
      </trkpt>
      <trkpt lat="45.57481" lon="6.95369">
        <ele>2725.769</ele>
        <time>2022-08-03T09:15:49Z</time>
      </trkpt>
      <trkpt lat="45.5748" lon="6.95367">
        <ele>2726.333</ele>
        <time>2022-08-03T09:15:59Z</time>
      </trkpt>
      <trkpt lat="45.5748" lon="6.95364">
        <ele>2725.685</ele>
        <time>2022-08-03T09:16:09Z</time>
      </trkpt>
      <trkpt lat="45.5748" lon="6.95364">
        <ele>2725.477</ele>
        <time>2022-08-03T09:16:18Z</time>
      </trkpt>
      <trkpt lat="45.57479" lon="6.95362">
        <ele>2725.311</ele>
        <time>2022-08-03T09:16:27Z</time>
      </trkpt>
      <trkpt lat="45.57478" lon="6.95349">
        <ele>2726.039</ele>
        <time>2022-08-03T09:16:37Z</time>
      </trkpt>
      <trkpt lat="45.57476" lon="6.95336">
        <ele>2727.083</ele>
        <time>2022-08-03T09:16:47Z</time>
      </trkpt>
      <trkpt lat="45.57475" lon="6.95333">
        <ele>2726.872</ele>
        <time>2022-08-03T09:16:56Z</time>
      </trkpt>
      <trkpt lat="45.57477" lon="6.95321">
        <ele>2725.6</ele>
        <time>2022-08-03T09:17:06Z</time>
      </trkpt>
      <trkpt lat="45.57476" lon="6.95311">
        <ele>2723.757</ele>
        <time>2022-08-03T09:17:15Z</time>
      </trkpt>
      <trkpt lat="45.57475" lon="6.953">
        <ele>2721.923</ele>
        <time>2022-08-03T09:17:24Z</time>
      </trkpt>
      <trkpt lat="45.57475" lon="6.95293">
        <ele>2721.799</ele>
        <time>2022-08-03T09:17:34Z</time>
      </trkpt>
      <trkpt lat="45.57475" lon="6.95292">
        <ele>2722.165</ele>
        <time>2022-08-03T09:17:43Z</time>
      </trkpt>
      <trkpt lat="45.57472" lon="6.9529">
        <ele>2720.766</ele>
        <time>2022-08-03T09:17:53Z</time>
      </trkpt>
      <trkpt lat="45.57469" lon="6.95285">
        <ele>2719.013</ele>
        <time>2022-08-03T09:18:03Z</time>
      </trkpt>
      <trkpt lat="45.57463" lon="6.95282">
        <ele>2717.689</ele>
        <time>2022-08-03T09:18:12Z</time>
      </trkpt>
      <trkpt lat="45.57459" lon="6.95282">
        <ele>2716.365</ele>
        <time>2022-08-03T09:18:22Z</time>
      </trkpt>
      <trkpt lat="45.57461" lon="6.95282">
        <ele>2716.327</ele>
        <time>2022-08-03T09:18:31Z</time>
      </trkpt>
      <trkpt lat="45.57455" lon="6.95282">
        <ele>2716.55</ele>
        <time>2022-08-03T09:18:41Z</time>
      </trkpt>
      <trkpt lat="45.5745" lon="6.95284">
        <ele>2715.534</ele>
        <time>2022-08-03T09:18:51Z</time>
      </trkpt>
      <trkpt lat="45.57446" lon="6.95281">
        <ele>2713.963</ele>
        <time>2022-08-03T09:19:00Z</time>
      </trkpt>
      <trkpt lat="45.5744" lon="6.9528">
        <ele>2712.049</ele>
        <time>2022-08-03T09:19:10Z</time>
      </trkpt>
      <trkpt lat="45.57436" lon="6.9527">
        <ele>2709.725</ele>
        <time>2022-08-03T09:19:19Z</time>
      </trkpt>
      <trkpt lat="45.57427" lon="6.95265">
        <ele>2708.041</ele>
        <time>2022-08-03T09:19:29Z</time>
      </trkpt>
      <trkpt lat="45.57421" lon="6.95255">
        <ele>2705.245</ele>
        <time>2022-08-03T09:19:39Z</time>
      </trkpt>
      <trkpt lat="45.57414" lon="6.95245">
        <ele>2704.357</ele>
        <time>2022-08-03T09:19:48Z</time>
      </trkpt>
      <trkpt lat="45.57407" lon="6.95235">
        <ele>2703.744</ele>
        <time>2022-08-03T09:19:57Z</time>
      </trkpt>
      <trkpt lat="45.57409" lon="6.95222">
        <ele>2702.368</ele>
        <time>2022-08-03T09:20:07Z</time>
      </trkpt>
      <trkpt lat="45.57408" lon="6.95217">
        <ele>2701.441</ele>
        <time>2022-08-03T09:20:16Z</time>
      </trkpt>
      <trkpt lat="45.57409" lon="6.95217">
        <ele>2701.394</ele>
        <time>2022-08-03T09:20:26Z</time>
      </trkpt>
      <trkpt lat="45.57407" lon="6.95219">
        <ele>2702.156</ele>
        <time>2022-08-03T09:20:36Z</time>
      </trkpt>
      <trkpt lat="45.57398" lon="6.95218">
        <ele>2703.849</ele>
        <time>2022-08-03T09:20:46Z</time>
      </trkpt>
      <trkpt lat="45.57391" lon="6.95218">
        <ele>2705.37</ele>
        <time>2022-08-03T09:20:55Z</time>
      </trkpt>
      <trkpt lat="45.57385" lon="6.9522">
        <ele>2704.706</ele>
        <time>2022-08-03T09:21:05Z</time>
      </trkpt>
      <trkpt lat="45.57385" lon="6.95219">
        <ele>2704.515</ele>
        <time>2022-08-03T09:21:14Z</time>
      </trkpt>
      <trkpt lat="45.57384" lon="6.95219">
        <ele>2704.201</ele>
        <time>2022-08-03T09:21:24Z</time>
      </trkpt>
      <trkpt lat="45.57378" lon="6.95221">
        <ele>2702.799</ele>
        <time>2022-08-03T09:21:34Z</time>
      </trkpt>
      <trkpt lat="45.57375" lon="6.95231">
        <ele>2702.625</ele>
        <time>2022-08-03T09:21:44Z</time>
      </trkpt>
      <trkpt lat="45.57375" lon="6.95238">
        <ele>2701.131</ele>
        <time>2022-08-03T09:21:53Z</time>
      </trkpt>
      <trkpt lat="45.57376" lon="6.9525">
        <ele>2701.214</ele>
        <time>2022-08-03T09:22:03Z</time>
      </trkpt>
      <trkpt lat="45.57374" lon="6.95262">
        <ele>2701.374</ele>
        <time>2022-08-03T09:22:12Z</time>
      </trkpt>
      <trkpt lat="45.57374" lon="6.95275">
        <ele>2700.564</ele>
        <time>2022-08-03T09:22:22Z</time>
      </trkpt>
      <trkpt lat="45.57369" lon="6.95286">
        <ele>2699.549</ele>
        <time>2022-08-03T09:22:32Z</time>
      </trkpt>
      <trkpt lat="45.57364" lon="6.95293">
        <ele>2697.916</ele>
        <time>2022-08-03T09:22:42Z</time>
      </trkpt>
      <trkpt lat="45.57365" lon="6.95292">
        <ele>2698.036</ele>
        <time>2022-08-03T09:22:51Z</time>
      </trkpt>
      <trkpt lat="45.57365" lon="6.95292">
        <ele>2698.105</ele>
        <time>2022-08-03T09:23:01Z</time>
      </trkpt>
      <trkpt lat="45.57358" lon="6.95286">
        <ele>2697.569</ele>
        <time>2022-08-03T09:23:10Z</time>
      </trkpt>
      <trkpt lat="45.57356" lon="6.95283">
        <ele>2696.238</ele>
        <time>2022-08-03T09:23:19Z</time>
      </trkpt>
      <trkpt lat="45.57352" lon="6.95278">
        <ele>2695.288</ele>
        <time>2022-08-03T09:23:29Z</time>
      </trkpt>
      <trkpt lat="45.5735" lon="6.95277">
        <ele>2693.609</ele>
        <time>2022-08-03T09:23:38Z</time>
      </trkpt>
      <trkpt lat="45.57349" lon="6.95273">
        <ele>2691.155</ele>
        <time>2022-08-03T09:23:48Z</time>
      </trkpt>
      <trkpt lat="45.57347" lon="6.95269">
        <ele>2690.338</ele>
        <time>2022-08-03T09:23:57Z</time>
      </trkpt>
      <trkpt lat="45.57342" lon="6.95265">
        <ele>2690.009</ele>
        <time>2022-08-03T09:24:06Z</time>
      </trkpt>
      <trkpt lat="45.57341" lon="6.9526">
        <ele>2689.626</ele>
        <time>2022-08-03T09:24:16Z</time>
      </trkpt>
      <trkpt lat="45.57341" lon="6.9526">
        <ele>2689.224</ele>
        <time>2022-08-03T09:24:26Z</time>
      </trkpt>
      <trkpt lat="45.5734" lon="6.9526">
        <ele>2690.437</ele>
        <time>2022-08-03T09:24:35Z</time>
      </trkpt>
      <trkpt lat="45.57338" lon="6.95254">
        <ele>2689.338</ele>
        <time>2022-08-03T09:24:45Z</time>
      </trkpt>
      <trkpt lat="45.57336" lon="6.9525">
        <ele>2687.551</ele>
        <time>2022-08-03T09:24:55Z</time>
      </trkpt>
      <trkpt lat="45.57334" lon="6.95247">
        <ele>2685.039</ele>
        <time>2022-08-03T09:25:05Z</time>
      </trkpt>
      <trkpt lat="45.5733" lon="6.95245">
        <ele>2682.57</ele>
        <time>2022-08-03T09:25:14Z</time>
      </trkpt>
      <trkpt lat="45.57328" lon="6.95243">
        <ele>2681.164</ele>
        <time>2022-08-03T09:25:23Z</time>
      </trkpt>
      <trkpt lat="45.57325" lon="6.95244">
        <ele>2679.761</ele>
        <time>2022-08-03T09:25:33Z</time>
      </trkpt>
      <trkpt lat="45.57321" lon="6.9524">
        <ele>2678.159</ele>
        <time>2022-08-03T09:25:42Z</time>
      </trkpt>
      <trkpt lat="45.57317" lon="6.95235">
        <ele>2677.006</ele>
        <time>2022-08-03T09:25:51Z</time>
      </trkpt>
      <trkpt lat="45.57312" lon="6.95231">
        <ele>2674.732</ele>
        <time>2022-08-03T09:26:01Z</time>
      </trkpt>
      <trkpt lat="45.57307" lon="6.95225">
        <ele>2672.492</ele>
        <time>2022-08-03T09:26:10Z</time>
      </trkpt>
      <trkpt lat="45.57302" lon="6.95217">
        <ele>2669.677</ele>
        <time>2022-08-03T09:26:19Z</time>
      </trkpt>
      <trkpt lat="45.57301" lon="6.95206">
        <ele>2668.813</ele>
        <time>2022-08-03T09:26:28Z</time>
      </trkpt>
      <trkpt lat="45.57301" lon="6.95205">
        <ele>2668.956</ele>
        <time>2022-08-03T09:26:38Z</time>
      </trkpt>
      <trkpt lat="45.57301" lon="6.95204">
        <ele>2669.131</ele>
        <time>2022-08-03T09:26:47Z</time>
      </trkpt>
      <trkpt lat="45.57302" lon="6.95201">
        <ele>2668.635</ele>
        <time>2022-08-03T09:26:57Z</time>
      </trkpt>
      <trkpt lat="45.57299" lon="6.952">
        <ele>2667.187</ele>
        <time>2022-08-03T09:27:07Z</time>
      </trkpt>
      <trkpt lat="45.57298" lon="6.95196">
        <ele>2665.837</ele>
        <time>2022-08-03T09:27:16Z</time>
      </trkpt>
      <trkpt lat="45.57296" lon="6.9519">
        <ele>2663.77</ele>
        <time>2022-08-03T09:27:26Z</time>
      </trkpt>
      <trkpt lat="45.57294" lon="6.95186">
        <ele>2662.193</ele>
        <time>2022-08-03T09:27:35Z</time>
      </trkpt>
      <trkpt lat="45.57292" lon="6.9518">
        <ele>2660.187</ele>
        <time>2022-08-03T09:27:44Z</time>
      </trkpt>
      <trkpt lat="45.57289" lon="6.95174">
        <ele>2658.306</ele>
        <time>2022-08-03T09:27:54Z</time>
      </trkpt>
      <trkpt lat="45.57287" lon="6.95171">
        <ele>2656.933</ele>
        <time>2022-08-03T09:28:04Z</time>
      </trkpt>
      <trkpt lat="45.57287" lon="6.9517">
        <ele>2656.135</ele>
        <time>2022-08-03T09:28:13Z</time>
      </trkpt>
      <trkpt lat="45.57287" lon="6.9517">
        <ele>2656.104</ele>
        <time>2022-08-03T09:28:23Z</time>
      </trkpt>
      <trkpt lat="45.57287" lon="6.9517">
        <ele>2656.467</ele>
        <time>2022-08-03T09:28:33Z</time>
      </trkpt>
      <trkpt lat="45.57287" lon="6.95168">
        <ele>2656.045</ele>
        <time>2022-08-03T09:28:42Z</time>
      </trkpt>
      <trkpt lat="45.57287" lon="6.95166">
        <ele>2655.73</ele>
        <time>2022-08-03T09:28:52Z</time>
      </trkpt>
      <trkpt lat="45.57284" lon="6.95158">
        <ele>2654.621</ele>
        <time>2022-08-03T09:29:01Z</time>
      </trkpt>
      <trkpt lat="45.5728" lon="6.95152">
        <ele>2651.68</ele>
        <time>2022-08-03T09:29:11Z</time>
      </trkpt>
      <trkpt lat="45.57277" lon="6.95144">
        <ele>2650.75</ele>
        <time>2022-08-03T09:29:21Z</time>
      </trkpt>
      <trkpt lat="45.57273" lon="6.95139">
        <ele>2650.383</ele>
        <time>2022-08-03T09:29:31Z</time>
      </trkpt>
      <trkpt lat="45.57272" lon="6.95138">
        <ele>2650.389</ele>
        <time>2022-08-03T09:29:40Z</time>
      </trkpt>
      <trkpt lat="45.57269" lon="6.95136">
        <ele>2650.123</ele>
        <time>2022-08-03T09:29:50Z</time>
      </trkpt>
      <trkpt lat="45.57265" lon="6.95135">
        <ele>2647.017</ele>
        <time>2022-08-03T09:29:59Z</time>
      </trkpt>
      <trkpt lat="45.57262" lon="6.95128">
        <ele>2645.001</ele>
        <time>2022-08-03T09:30:09Z</time>
      </trkpt>
      <trkpt lat="45.57256" lon="6.95132">
        <ele>2641.638</ele>
        <time>2022-08-03T09:30:19Z</time>
      </trkpt>
      <trkpt lat="45.57251" lon="6.9513">
        <ele>2640.204</ele>
        <time>2022-08-03T09:30:28Z</time>
      </trkpt>
      <trkpt lat="45.57247" lon="6.95134">
        <ele>2637.057</ele>
        <time>2022-08-03T09:30:38Z</time>
      </trkpt>
      <trkpt lat="45.57249" lon="6.95141">
        <ele>2634.885</ele>
        <time>2022-08-03T09:30:47Z</time>
      </trkpt>
      <trkpt lat="45.57245" lon="6.9514">
        <ele>2634.246</ele>
        <time>2022-08-03T09:30:56Z</time>
      </trkpt>
      <trkpt lat="45.57237" lon="6.95133">
        <ele>2633.915</ele>
        <time>2022-08-03T09:31:06Z</time>
      </trkpt>
      <trkpt lat="45.57232" lon="6.95131">
        <ele>2632.9</ele>
        <time>2022-08-03T09:31:15Z</time>
      </trkpt>
      <trkpt lat="45.57233" lon="6.95132">
        <ele>2632.016</ele>
        <time>2022-08-03T09:31:25Z</time>
      </trkpt>
      <trkpt lat="45.57233" lon="6.95131">
        <ele>2630.277</ele>
        <time>2022-08-03T09:31:34Z</time>
      </trkpt>
      <trkpt lat="45.57233" lon="6.9513">
        <ele>2629.823</ele>
        <time>2022-08-03T09:31:44Z</time>
      </trkpt>
      <trkpt lat="45.57232" lon="6.95131">
        <ele>2630.867</ele>
        <time>2022-08-03T09:31:54Z</time>
      </trkpt>
      <trkpt lat="45.57224" lon="6.95124">
        <ele>2631.767</ele>
        <time>2022-08-03T09:32:03Z</time>
      </trkpt>
      <trkpt lat="45.57222" lon="6.95114">
        <ele>2629.572</ele>
        <time>2022-08-03T09:32:13Z</time>
      </trkpt>
      <trkpt lat="45.57222" lon="6.95105">
        <ele>2627.453</ele>
        <time>2022-08-03T09:32:22Z</time>
      </trkpt>
      <trkpt lat="45.57221" lon="6.95097">
        <ele>2626.765</ele>
        <time>2022-08-03T09:32:32Z</time>
      </trkpt>
      <trkpt lat="45.57217" lon="6.95088">
        <ele>2626.125</ele>
        <time>2022-08-03T09:32:42Z</time>
      </trkpt>
      <trkpt lat="45.57211" lon="6.9508">
        <ele>2626.245</ele>
        <time>2022-08-03T09:32:52Z</time>
      </trkpt>
      <trkpt lat="45.57208" lon="6.95075">
        <ele>2626.289</ele>
        <time>2022-08-03T09:33:01Z</time>
      </trkpt>
      <trkpt lat="45.572" lon="6.95066">
        <ele>2625.6</ele>
        <time>2022-08-03T09:33:11Z</time>
      </trkpt>
      <trkpt lat="45.57195" lon="6.95053">
        <ele>2623.995</ele>
        <time>2022-08-03T09:33:21Z</time>
      </trkpt>
      <trkpt lat="45.57191" lon="6.95039">
        <ele>2622.436</ele>
        <time>2022-08-03T09:33:31Z</time>
      </trkpt>
      <trkpt lat="45.57189" lon="6.95025">
        <ele>2622.494</ele>
        <time>2022-08-03T09:33:40Z</time>
      </trkpt>
      <trkpt lat="45.57183" lon="6.9501">
        <ele>2621.924</ele>
        <time>2022-08-03T09:33:50Z</time>
      </trkpt>
      <trkpt lat="45.57178" lon="6.94999">
        <ele>2621.218</ele>
        <time>2022-08-03T09:33:59Z</time>
      </trkpt>
      <trkpt lat="45.57173" lon="6.94986">
        <ele>2620.894</ele>
        <time>2022-08-03T09:34:09Z</time>
      </trkpt>
      <trkpt lat="45.57166" lon="6.94977">
        <ele>2621.06</ele>
        <time>2022-08-03T09:34:18Z</time>
      </trkpt>
      <trkpt lat="45.5716" lon="6.94965">
        <ele>2618.942</ele>
        <time>2022-08-03T09:34:28Z</time>
      </trkpt>
      <trkpt lat="45.57158" lon="6.94954">
        <ele>2616.345</ele>
        <time>2022-08-03T09:34:38Z</time>
      </trkpt>
      <trkpt lat="45.57154" lon="6.94945">
        <ele>2616.384</ele>
        <time>2022-08-03T09:34:47Z</time>
      </trkpt>
      <trkpt lat="45.57153" lon="6.9494">
        <ele>2615.133</ele>
        <time>2022-08-03T09:34:56Z</time>
      </trkpt>
      <trkpt lat="45.57148" lon="6.94929">
        <ele>2613.121</ele>
        <time>2022-08-03T09:35:06Z</time>
      </trkpt>
      <trkpt lat="45.57144" lon="6.94919">
        <ele>2611.145</ele>
        <time>2022-08-03T09:35:15Z</time>
      </trkpt>
      <trkpt lat="45.57143" lon="6.94906">
        <ele>2611.9</ele>
        <time>2022-08-03T09:35:24Z</time>
      </trkpt>
      <trkpt lat="45.57141" lon="6.94895">
        <ele>2611.59</ele>
        <time>2022-08-03T09:35:33Z</time>
      </trkpt>
      <trkpt lat="45.57137" lon="6.94881">
        <ele>2610.673</ele>
        <time>2022-08-03T09:35:43Z</time>
      </trkpt>
      <trkpt lat="45.57134" lon="6.94867">
        <ele>2610.053</ele>
        <time>2022-08-03T09:35:52Z</time>
      </trkpt>
      <trkpt lat="45.57128" lon="6.94857">
        <ele>2608.277</ele>
        <time>2022-08-03T09:36:02Z</time>
      </trkpt>
      <trkpt lat="45.57126" lon="6.94844">
        <ele>2607.241</ele>
        <time>2022-08-03T09:36:11Z</time>
      </trkpt>
      <trkpt lat="45.57125" lon="6.94832">
        <ele>2606.175</ele>
        <time>2022-08-03T09:36:20Z</time>
      </trkpt>
      <trkpt lat="45.57122" lon="6.94818">
        <ele>2605.957</ele>
        <time>2022-08-03T09:36:30Z</time>
      </trkpt>
      <trkpt lat="45.57119" lon="6.94807">
        <ele>2603.847</ele>
        <time>2022-08-03T09:36:40Z</time>
      </trkpt>
      <trkpt lat="45.57116" lon="6.94793">
        <ele>2603.253</ele>
        <time>2022-08-03T09:36:49Z</time>
      </trkpt>
      <trkpt lat="45.57111" lon="6.94784">
        <ele>2602.211</ele>
        <time>2022-08-03T09:36:58Z</time>
      </trkpt>
      <trkpt lat="45.57106" lon="6.94773">
        <ele>2600.432</ele>
        <time>2022-08-03T09:37:08Z</time>
      </trkpt>
      <trkpt lat="45.57101" lon="6.9476">
        <ele>2600.104</ele>
        <time>2022-08-03T09:37:18Z</time>
      </trkpt>
      <trkpt lat="45.57095" lon="6.94751">
        <ele>2598.962</ele>
        <time>2022-08-03T09:37:27Z</time>
      </trkpt>
      <trkpt lat="45.57089" lon="6.94744">
        <ele>2596.236</ele>
        <time>2022-08-03T09:37:37Z</time>
      </trkpt>
      <trkpt lat="45.57081" lon="6.94738">
        <ele>2593.388</ele>
        <time>2022-08-03T09:37:46Z</time>
      </trkpt>
      <trkpt lat="45.57072" lon="6.94734">
        <ele>2591.341</ele>
        <time>2022-08-03T09:37:56Z</time>
      </trkpt>
      <trkpt lat="45.57065" lon="6.94728">
        <ele>2589.663</ele>
        <time>2022-08-03T09:38:05Z</time>
      </trkpt>
      <trkpt lat="45.57057" lon="6.94723">
        <ele>2587.872</ele>
        <time>2022-08-03T09:38:14Z</time>
      </trkpt>
      <trkpt lat="45.57052" lon="6.9472">
        <ele>2586.781</ele>
        <time>2022-08-03T09:38:24Z</time>
      </trkpt>
      <trkpt lat="45.57046" lon="6.9472">
        <ele>2583.892</ele>
        <time>2022-08-03T09:38:34Z</time>
      </trkpt>
      <trkpt lat="45.57039" lon="6.94721">
        <ele>2580.687</ele>
        <time>2022-08-03T09:38:44Z</time>
      </trkpt>
      <trkpt lat="45.57033" lon="6.94725">
        <ele>2578.309</ele>
        <time>2022-08-03T09:38:54Z</time>
      </trkpt>
      <trkpt lat="45.57028" lon="6.94727">
        <ele>2576.043</ele>
        <time>2022-08-03T09:39:03Z</time>
      </trkpt>
      <trkpt lat="45.5702" lon="6.94725">
        <ele>2574.66</ele>
        <time>2022-08-03T09:39:13Z</time>
      </trkpt>
      <trkpt lat="45.57013" lon="6.9472">
        <ele>2571.915</ele>
        <time>2022-08-03T09:39:22Z</time>
      </trkpt>
      <trkpt lat="45.57004" lon="6.94719">
        <ele>2571.249</ele>
        <time>2022-08-03T09:39:32Z</time>
      </trkpt>
      <trkpt lat="45.56995" lon="6.94717">
        <ele>2570.425</ele>
        <time>2022-08-03T09:39:42Z</time>
      </trkpt>
      <trkpt lat="45.56988" lon="6.94713">
        <ele>2567.867</ele>
        <time>2022-08-03T09:39:52Z</time>
      </trkpt>
      <trkpt lat="45.5698" lon="6.94709">
        <ele>2564.521</ele>
        <time>2022-08-03T09:40:02Z</time>
      </trkpt>
      <trkpt lat="45.56975" lon="6.94701">
        <ele>2562.031</ele>
        <time>2022-08-03T09:40:11Z</time>
      </trkpt>
      <trkpt lat="45.56972" lon="6.94684">
        <ele>2560.614</ele>
        <time>2022-08-03T09:40:21Z</time>
      </trkpt>
      <trkpt lat="45.56966" lon="6.94671">
        <ele>2560.058</ele>
        <time>2022-08-03T09:40:31Z</time>
      </trkpt>
      <trkpt lat="45.56961" lon="6.94658">
        <ele>2560.309</ele>
        <time>2022-08-03T09:40:40Z</time>
      </trkpt>
      <trkpt lat="45.5696" lon="6.94642">
        <ele>2558.892</ele>
        <time>2022-08-03T09:40:50Z</time>
      </trkpt>
      <trkpt lat="45.56962" lon="6.94627">
        <ele>2557.583</ele>
        <time>2022-08-03T09:41:00Z</time>
      </trkpt>
      <trkpt lat="45.56961" lon="6.94613">
        <ele>2557.449</ele>
        <time>2022-08-03T09:41:09Z</time>
      </trkpt>
      <trkpt lat="45.56961" lon="6.94601">
        <ele>2556.46</ele>
        <time>2022-08-03T09:41:18Z</time>
      </trkpt>
      <trkpt lat="45.5696" lon="6.94584">
        <ele>2556.475</ele>
        <time>2022-08-03T09:41:28Z</time>
      </trkpt>
      <trkpt lat="45.56957" lon="6.94572">
        <ele>2555.89</ele>
        <time>2022-08-03T09:41:37Z</time>
      </trkpt>
      <trkpt lat="45.56957" lon="6.94556">
        <ele>2553.835</ele>
        <time>2022-08-03T09:41:47Z</time>
      </trkpt>
      <trkpt lat="45.56956" lon="6.9454">
        <ele>2553.093</ele>
        <time>2022-08-03T09:41:57Z</time>
      </trkpt>
      <trkpt lat="45.56957" lon="6.94525">
        <ele>2552.373</ele>
        <time>2022-08-03T09:42:07Z</time>
      </trkpt>
      <trkpt lat="45.56955" lon="6.94509">
        <ele>2551.137</ele>
        <time>2022-08-03T09:42:17Z</time>
      </trkpt>
      <trkpt lat="45.56954" lon="6.94494">
        <ele>2550.651</ele>
        <time>2022-08-03T09:42:26Z</time>
      </trkpt>
      <trkpt lat="45.5695" lon="6.9448">
        <ele>2550.626</ele>
        <time>2022-08-03T09:42:36Z</time>
      </trkpt>
      <trkpt lat="45.56946" lon="6.94465">
        <ele>2550.025</ele>
        <time>2022-08-03T09:42:46Z</time>
      </trkpt>
      <trkpt lat="45.56942" lon="6.94449">
        <ele>2548.902</ele>
        <time>2022-08-03T09:42:56Z</time>
      </trkpt>
      <trkpt lat="45.56943" lon="6.94443">
        <ele>2547.589</ele>
        <time>2022-08-03T09:43:06Z</time>
      </trkpt>
      <trkpt lat="45.5694" lon="6.94427">
        <ele>2546.552</ele>
        <time>2022-08-03T09:43:16Z</time>
      </trkpt>
      <trkpt lat="45.56939" lon="6.94411">
        <ele>2545.176</ele>
        <time>2022-08-03T09:43:25Z</time>
      </trkpt>
      <trkpt lat="45.56939" lon="6.94403">
        <ele>2543.728</ele>
        <time>2022-08-03T09:43:34Z</time>
      </trkpt>
      <trkpt lat="45.56942" lon="6.94395">
        <ele>2542.145</ele>
        <time>2022-08-03T09:43:43Z</time>
      </trkpt>
      <trkpt lat="45.56944" lon="6.94379">
        <ele>2540.27</ele>
        <time>2022-08-03T09:43:53Z</time>
      </trkpt>
      <trkpt lat="45.56946" lon="6.94365">
        <ele>2539.94</ele>
        <time>2022-08-03T09:44:02Z</time>
      </trkpt>
      <trkpt lat="45.56942" lon="6.94353">
        <ele>2539.316</ele>
        <time>2022-08-03T09:44:11Z</time>
      </trkpt>
      <trkpt lat="45.56942" lon="6.9434">
        <ele>2538.927</ele>
        <time>2022-08-03T09:44:20Z</time>
      </trkpt>
      <trkpt lat="45.56943" lon="6.94332">
        <ele>2536.273</ele>
        <time>2022-08-03T09:44:30Z</time>
      </trkpt>
      <trkpt lat="45.56944" lon="6.94329">
        <ele>2537.087</ele>
        <time>2022-08-03T09:44:40Z</time>
      </trkpt>
      <trkpt lat="45.56944" lon="6.94328">
        <ele>2536.293</ele>
        <time>2022-08-03T09:44:49Z</time>
      </trkpt>
      <trkpt lat="45.56945" lon="6.94328">
        <ele>2536.462</ele>
        <time>2022-08-03T09:44:58Z</time>
      </trkpt>
      <trkpt lat="45.56945" lon="6.94328">
        <ele>2535.944</ele>
        <time>2022-08-03T09:45:08Z</time>
      </trkpt>
      <trkpt lat="45.56944" lon="6.94328">
        <ele>2535.938</ele>
        <time>2022-08-03T09:45:18Z</time>
      </trkpt>
      <trkpt lat="45.56944" lon="6.94328">
        <ele>2535.937</ele>
        <time>2022-08-03T09:45:28Z</time>
      </trkpt>
      <trkpt lat="45.56946" lon="6.94324">
        <ele>2534.915</ele>
        <time>2022-08-03T09:45:37Z</time>
      </trkpt>
      <trkpt lat="45.56945" lon="6.94324">
        <ele>2535.798</ele>
        <time>2022-08-03T09:45:47Z</time>
      </trkpt>
      <trkpt lat="45.56945" lon="6.94324">
        <ele>2534.86</ele>
        <time>2022-08-03T09:45:56Z</time>
      </trkpt>
      <trkpt lat="45.56944" lon="6.94324">
        <ele>2535.591</ele>
        <time>2022-08-03T09:46:05Z</time>
      </trkpt>
      <trkpt lat="45.56945" lon="6.94325">
        <ele>2535.759</ele>
        <time>2022-08-03T09:46:15Z</time>
      </trkpt>
      <trkpt lat="45.56946" lon="6.94324">
        <ele>2534.398</ele>
        <time>2022-08-03T09:46:24Z</time>
      </trkpt>
      <trkpt lat="45.56946" lon="6.94324">
        <ele>2534.34</ele>
        <time>2022-08-03T09:46:34Z</time>
      </trkpt>
      <trkpt lat="45.56947" lon="6.94321">
        <ele>2532.253</ele>
        <time>2022-08-03T09:46:44Z</time>
      </trkpt>
      <trkpt lat="45.56949" lon="6.94314">
        <ele>2529.751</ele>
        <time>2022-08-03T09:46:53Z</time>
      </trkpt>
      <trkpt lat="45.56951" lon="6.94307">
        <ele>2528.855</ele>
        <time>2022-08-03T09:47:02Z</time>
      </trkpt>
      <trkpt lat="45.56952" lon="6.94301">
        <ele>2528.953</ele>
        <time>2022-08-03T09:47:12Z</time>
      </trkpt>
      <trkpt lat="45.56952" lon="6.94301">
        <ele>2529.08</ele>
        <time>2022-08-03T09:47:21Z</time>
      </trkpt>
      <trkpt lat="45.56952" lon="6.94301">
        <ele>2528.927</ele>
        <time>2022-08-03T09:47:31Z</time>
      </trkpt>
      <trkpt lat="45.56953" lon="6.94297">
        <ele>2528.576</ele>
        <time>2022-08-03T09:47:40Z</time>
      </trkpt>
      <trkpt lat="45.56952" lon="6.94286">
        <ele>2525.989</ele>
        <time>2022-08-03T09:47:50Z</time>
      </trkpt>
      <trkpt lat="45.56953" lon="6.94275">
        <ele>2523.883</ele>
        <time>2022-08-03T09:48:00Z</time>
      </trkpt>
      <trkpt lat="45.56951" lon="6.94263">
        <ele>2521.913</ele>
        <time>2022-08-03T09:48:09Z</time>
      </trkpt>
      <trkpt lat="45.56949" lon="6.94254">
        <ele>2520.39</ele>
        <time>2022-08-03T09:48:18Z</time>
      </trkpt>
      <trkpt lat="45.56947" lon="6.94244">
        <ele>2518.985</ele>
        <time>2022-08-03T09:48:28Z</time>
      </trkpt>
      <trkpt lat="45.56947" lon="6.94234">
        <ele>2518.198</ele>
        <time>2022-08-03T09:48:37Z</time>
      </trkpt>
      <trkpt lat="45.56947" lon="6.94225">
        <ele>2516.805</ele>
        <time>2022-08-03T09:48:46Z</time>
      </trkpt>
      <trkpt lat="45.56948" lon="6.94223">
        <ele>2516.618</ele>
        <time>2022-08-03T09:48:56Z</time>
      </trkpt>
      <trkpt lat="45.56948" lon="6.94217">
        <ele>2514.686</ele>
        <time>2022-08-03T09:49:05Z</time>
      </trkpt>
      <trkpt lat="45.5695" lon="6.94207">
        <ele>2511.568</ele>
        <time>2022-08-03T09:49:15Z</time>
      </trkpt>
      <trkpt lat="45.5695" lon="6.94196">
        <ele>2511.878</ele>
        <time>2022-08-03T09:49:24Z</time>
      </trkpt>
      <trkpt lat="45.56951" lon="6.94184">
        <ele>2511.848</ele>
        <time>2022-08-03T09:49:33Z</time>
      </trkpt>
      <trkpt lat="45.5695" lon="6.94171">
        <ele>2511.322</ele>
        <time>2022-08-03T09:49:43Z</time>
      </trkpt>
      <trkpt lat="45.56947" lon="6.94157">
        <ele>2511.239</ele>
        <time>2022-08-03T09:49:53Z</time>
      </trkpt>
      <trkpt lat="45.56944" lon="6.94148">
        <ele>2509.915</ele>
        <time>2022-08-03T09:50:02Z</time>
      </trkpt>
      <trkpt lat="45.56944" lon="6.9414">
        <ele>2509.457</ele>
        <time>2022-08-03T09:50:12Z</time>
      </trkpt>
      <trkpt lat="45.56943" lon="6.94129">
        <ele>2508.14</ele>
        <time>2022-08-03T09:50:22Z</time>
      </trkpt>
      <trkpt lat="45.56942" lon="6.94123">
        <ele>2507.31</ele>
        <time>2022-08-03T09:50:31Z</time>
      </trkpt>
      <trkpt lat="45.56939" lon="6.94114">
        <ele>2506.432</ele>
        <time>2022-08-03T09:50:41Z</time>
      </trkpt>
      <trkpt lat="45.56939" lon="6.94107">
        <ele>2505.159</ele>
        <time>2022-08-03T09:50:50Z</time>
      </trkpt>
      <trkpt lat="45.56939" lon="6.94097">
        <ele>2506.322</ele>
        <time>2022-08-03T09:50:59Z</time>
      </trkpt>
      <trkpt lat="45.56939" lon="6.94093">
        <ele>2504.82</ele>
        <time>2022-08-03T09:51:08Z</time>
      </trkpt>
      <trkpt lat="45.56938" lon="6.9409">
        <ele>2503.347</ele>
        <time>2022-08-03T09:51:18Z</time>
      </trkpt>
      <trkpt lat="45.56934" lon="6.94084">
        <ele>2500.985</ele>
        <time>2022-08-03T09:51:28Z</time>
      </trkpt>
      <trkpt lat="45.56931" lon="6.94076">
        <ele>2499.934</ele>
        <time>2022-08-03T09:51:38Z</time>
      </trkpt>
      <trkpt lat="45.56925" lon="6.94073">
        <ele>2498.49</ele>
        <time>2022-08-03T09:51:48Z</time>
      </trkpt>
      <trkpt lat="45.56919" lon="6.94068">
        <ele>2497.168</ele>
        <time>2022-08-03T09:51:58Z</time>
      </trkpt>
      <trkpt lat="45.5691" lon="6.94063">
        <ele>2497.286</ele>
        <time>2022-08-03T09:52:08Z</time>
      </trkpt>
      <trkpt lat="45.56902" lon="6.94057">
        <ele>2497.592</ele>
        <time>2022-08-03T09:52:17Z</time>
      </trkpt>
      <trkpt lat="45.56893" lon="6.94051">
        <ele>2497.247</ele>
        <time>2022-08-03T09:52:26Z</time>
      </trkpt>
      <trkpt lat="45.56883" lon="6.94044">
        <ele>2496.633</ele>
        <time>2022-08-03T09:52:36Z</time>
      </trkpt>
      <trkpt lat="45.56876" lon="6.9404">
        <ele>2497.205</ele>
        <time>2022-08-03T09:52:45Z</time>
      </trkpt>
      <trkpt lat="45.5687" lon="6.94032">
        <ele>2496.393</ele>
        <time>2022-08-03T09:52:54Z</time>
      </trkpt>
      <trkpt lat="45.56862" lon="6.94022">
        <ele>2494.82</ele>
        <time>2022-08-03T09:53:04Z</time>
      </trkpt>
      <trkpt lat="45.56852" lon="6.94019">
        <ele>2494.193</ele>
        <time>2022-08-03T09:53:14Z</time>
      </trkpt>
      <trkpt lat="45.56846" lon="6.94005">
        <ele>2492.266</ele>
        <time>2022-08-03T09:53:24Z</time>
      </trkpt>
      <trkpt lat="45.5684" lon="6.93997">
        <ele>2491.637</ele>
        <time>2022-08-03T09:53:34Z</time>
      </trkpt>
      <trkpt lat="45.56832" lon="6.93989">
        <ele>2491.021</ele>
        <time>2022-08-03T09:53:43Z</time>
      </trkpt>
      <trkpt lat="45.56822" lon="6.93984">
        <ele>2490.974</ele>
        <time>2022-08-03T09:53:52Z</time>
      </trkpt>
      <trkpt lat="45.5681" lon="6.93978">
        <ele>2489.82</ele>
        <time>2022-08-03T09:54:02Z</time>
      </trkpt>
      <trkpt lat="45.56802" lon="6.93969">
        <ele>2489.292</ele>
        <time>2022-08-03T09:54:11Z</time>
      </trkpt>
      <trkpt lat="45.56793" lon="6.93959">
        <ele>2486.601</ele>
        <time>2022-08-03T09:54:21Z</time>
      </trkpt>
      <trkpt lat="45.56785" lon="6.9395">
        <ele>2484.841</ele>
        <time>2022-08-03T09:54:30Z</time>
      </trkpt>
      <trkpt lat="45.56775" lon="6.93941">
        <ele>2483.73</ele>
        <time>2022-08-03T09:54:39Z</time>
      </trkpt>
      <trkpt lat="45.56764" lon="6.93932">
        <ele>2482.737</ele>
        <time>2022-08-03T09:54:49Z</time>
      </trkpt>
      <trkpt lat="45.56757" lon="6.9392">
        <ele>2481.501</ele>
        <time>2022-08-03T09:54:58Z</time>
      </trkpt>
      <trkpt lat="45.56751" lon="6.93905">
        <ele>2479.393</ele>
        <time>2022-08-03T09:55:08Z</time>
      </trkpt>
      <trkpt lat="45.56749" lon="6.93889">
        <ele>2478.74</ele>
        <time>2022-08-03T09:55:18Z</time>
      </trkpt>
      <trkpt lat="45.56748" lon="6.93875">
        <ele>2478.388</ele>
        <time>2022-08-03T09:55:27Z</time>
      </trkpt>
      <trkpt lat="45.56746" lon="6.93865">
        <ele>2478.45</ele>
        <time>2022-08-03T09:55:36Z</time>
      </trkpt>
      <trkpt lat="45.56746" lon="6.93858">
        <ele>2478.129</ele>
        <time>2022-08-03T09:55:46Z</time>
      </trkpt>
      <trkpt lat="45.56744" lon="6.93845">
        <ele>2476.801</ele>
        <time>2022-08-03T09:55:56Z</time>
      </trkpt>
      <trkpt lat="45.56743" lon="6.93831">
        <ele>2474.59</ele>
        <time>2022-08-03T09:56:06Z</time>
      </trkpt>
      <trkpt lat="45.56743" lon="6.93816">
        <ele>2473.09</ele>
        <time>2022-08-03T09:56:15Z</time>
      </trkpt>
      <trkpt lat="45.56741" lon="6.93802">
        <ele>2473.205</ele>
        <time>2022-08-03T09:56:24Z</time>
      </trkpt>
      <trkpt lat="45.56743" lon="6.93791">
        <ele>2473.183</ele>
        <time>2022-08-03T09:56:33Z</time>
      </trkpt>
      <trkpt lat="45.56744" lon="6.93778">
        <ele>2472.892</ele>
        <time>2022-08-03T09:56:43Z</time>
      </trkpt>
      <trkpt lat="45.56746" lon="6.93766">
        <ele>2471.598</ele>
        <time>2022-08-03T09:56:52Z</time>
      </trkpt>
      <trkpt lat="45.56749" lon="6.93754">
        <ele>2471.778</ele>
        <time>2022-08-03T09:57:01Z</time>
      </trkpt>
      <trkpt lat="45.56752" lon="6.93739">
        <ele>2471.6</ele>
        <time>2022-08-03T09:57:11Z</time>
      </trkpt>
      <trkpt lat="45.56756" lon="6.93726">
        <ele>2473.055</ele>
        <time>2022-08-03T09:57:20Z</time>
      </trkpt>
      <trkpt lat="45.5676" lon="6.93715">
        <ele>2473.912</ele>
        <time>2022-08-03T09:57:30Z</time>
      </trkpt>
      <trkpt lat="45.5676" lon="6.93715">
        <ele>2474.856</ele>
        <time>2022-08-03T09:57:40Z</time>
      </trkpt>
      <trkpt lat="45.56759" lon="6.93715">
        <ele>2474.848</ele>
        <time>2022-08-03T09:57:49Z</time>
      </trkpt>
      <trkpt lat="45.56762" lon="6.93702">
        <ele>2472.601</ele>
        <time>2022-08-03T09:57:59Z</time>
      </trkpt>
      <trkpt lat="45.56765" lon="6.93689">
        <ele>2471.142</ele>
        <time>2022-08-03T09:58:09Z</time>
      </trkpt>
      <trkpt lat="45.56766" lon="6.93684">
        <ele>2471.189</ele>
        <time>2022-08-03T09:58:18Z</time>
      </trkpt>
      <trkpt lat="45.5677" lon="6.9367">
        <ele>2470.489</ele>
        <time>2022-08-03T09:58:28Z</time>
      </trkpt>
      <trkpt lat="45.56774" lon="6.93659">
        <ele>2470.587</ele>
        <time>2022-08-03T09:58:37Z</time>
      </trkpt>
      <trkpt lat="45.56778" lon="6.93645">
        <ele>2471.831</ele>
        <time>2022-08-03T09:58:47Z</time>
      </trkpt>
      <trkpt lat="45.5678" lon="6.93634">
        <ele>2470.548</ele>
        <time>2022-08-03T09:58:57Z</time>
      </trkpt>
      <trkpt lat="45.56785" lon="6.93623">
        <ele>2470.355</ele>
        <time>2022-08-03T09:59:06Z</time>
      </trkpt>
      <trkpt lat="45.56787" lon="6.93621">
        <ele>2471.318</ele>
        <time>2022-08-03T09:59:16Z</time>
      </trkpt>
      <trkpt lat="45.56787" lon="6.93622">
        <ele>2470.971</ele>
        <time>2022-08-03T09:59:26Z</time>
      </trkpt>
      <trkpt lat="45.5679" lon="6.93613">
        <ele>2471.248</ele>
        <time>2022-08-03T09:59:35Z</time>
      </trkpt>
      <trkpt lat="45.56793" lon="6.93604">
        <ele>2469.129</ele>
        <time>2022-08-03T09:59:44Z</time>
      </trkpt>
      <trkpt lat="45.56797" lon="6.93591">
        <ele>2466.742</ele>
        <time>2022-08-03T09:59:53Z</time>
      </trkpt>
      <trkpt lat="45.56801" lon="6.93579">
        <ele>2464.41</ele>
        <time>2022-08-03T10:00:02Z</time>
      </trkpt>
      <trkpt lat="45.56802" lon="6.93566">
        <ele>2461.943</ele>
        <time>2022-08-03T10:00:11Z</time>
      </trkpt>
      <trkpt lat="45.56805" lon="6.93553">
        <ele>2459.433</ele>
        <time>2022-08-03T10:00:21Z</time>
      </trkpt>
      <trkpt lat="45.56808" lon="6.9354">
        <ele>2457.393</ele>
        <time>2022-08-03T10:00:31Z</time>
      </trkpt>
      <trkpt lat="45.5681" lon="6.93526">
        <ele>2455.699</ele>
        <time>2022-08-03T10:00:40Z</time>
      </trkpt>
      <trkpt lat="45.56809" lon="6.93511">
        <ele>2453.506</ele>
        <time>2022-08-03T10:00:50Z</time>
      </trkpt>
      <trkpt lat="45.56809" lon="6.93502">
        <ele>2453.178</ele>
        <time>2022-08-03T10:00:59Z</time>
      </trkpt>
      <trkpt lat="45.5681" lon="6.93504">
        <ele>2454.243</ele>
        <time>2022-08-03T10:01:09Z</time>
      </trkpt>
      <trkpt lat="45.56809" lon="6.93503">
        <ele>2454.826</ele>
        <time>2022-08-03T10:01:18Z</time>
      </trkpt>
      <trkpt lat="45.56809" lon="6.93503">
        <ele>2454.817</ele>
        <time>2022-08-03T10:01:27Z</time>
      </trkpt>
      <trkpt lat="45.56809" lon="6.93504">
        <ele>2454.442</ele>
        <time>2022-08-03T10:01:36Z</time>
      </trkpt>
      <trkpt lat="45.56809" lon="6.93504">
        <ele>2453.624</ele>
        <time>2022-08-03T10:01:46Z</time>
      </trkpt>
      <trkpt lat="45.56809" lon="6.93502">
        <ele>2453.213</ele>
        <time>2022-08-03T10:01:56Z</time>
      </trkpt>
      <trkpt lat="45.56811" lon="6.93489">
        <ele>2450.355</ele>
        <time>2022-08-03T10:02:05Z</time>
      </trkpt>
      <trkpt lat="45.56815" lon="6.93477">
        <ele>2448.15</ele>
        <time>2022-08-03T10:02:14Z</time>
      </trkpt>
      <trkpt lat="45.5681" lon="6.93469">
        <ele>2445.838</ele>
        <time>2022-08-03T10:02:23Z</time>
      </trkpt>
      <trkpt lat="45.56807" lon="6.9347">
        <ele>2445.924</ele>
        <time>2022-08-03T10:02:33Z</time>
      </trkpt>
      <trkpt lat="45.56804" lon="6.93457">
        <ele>2443.82</ele>
        <time>2022-08-03T10:02:43Z</time>
      </trkpt>
      <trkpt lat="45.56803" lon="6.93444">
        <ele>2441.867</ele>
        <time>2022-08-03T10:02:52Z</time>
      </trkpt>
      <trkpt lat="45.56803" lon="6.93426">
        <ele>2442.665</ele>
        <time>2022-08-03T10:03:02Z</time>
      </trkpt>
      <trkpt lat="45.56804" lon="6.93414">
        <ele>2439.015</ele>
        <time>2022-08-03T10:03:11Z</time>
      </trkpt>
      <trkpt lat="45.56805" lon="6.93398">
        <ele>2436.881</ele>
        <time>2022-08-03T10:03:21Z</time>
      </trkpt>
      <trkpt lat="45.56805" lon="6.93383">
        <ele>2434.568</ele>
        <time>2022-08-03T10:03:30Z</time>
      </trkpt>
      <trkpt lat="45.56805" lon="6.93367">
        <ele>2433.936</ele>
        <time>2022-08-03T10:03:39Z</time>
      </trkpt>
      <trkpt lat="45.56806" lon="6.93353">
        <ele>2433.152</ele>
        <time>2022-08-03T10:03:48Z</time>
      </trkpt>
      <trkpt lat="45.56808" lon="6.9334">
        <ele>2431.703</ele>
        <time>2022-08-03T10:03:58Z</time>
      </trkpt>
      <trkpt lat="45.56812" lon="6.93328">
        <ele>2429.052</ele>
        <time>2022-08-03T10:04:08Z</time>
      </trkpt>
      <trkpt lat="45.56815" lon="6.93313">
        <ele>2426.306</ele>
        <time>2022-08-03T10:04:18Z</time>
      </trkpt>
      <trkpt lat="45.56818" lon="6.93296">
        <ele>2425.558</ele>
        <time>2022-08-03T10:04:28Z</time>
      </trkpt>
      <trkpt lat="45.56818" lon="6.93282">
        <ele>2425.757</ele>
        <time>2022-08-03T10:04:37Z</time>
      </trkpt>
      <trkpt lat="45.56818" lon="6.93266">
        <ele>2425.816</ele>
        <time>2022-08-03T10:04:47Z</time>
      </trkpt>
      <trkpt lat="45.56815" lon="6.93255">
        <ele>2424.66</ele>
        <time>2022-08-03T10:04:56Z</time>
      </trkpt>
      <trkpt lat="45.56811" lon="6.93248">
        <ele>2423.86</ele>
        <time>2022-08-03T10:05:06Z</time>
      </trkpt>
      <trkpt lat="45.56809" lon="6.93238">
        <ele>2421.513</ele>
        <time>2022-08-03T10:05:15Z</time>
      </trkpt>
      <trkpt lat="45.56806" lon="6.93229">
        <ele>2420.826</ele>
        <time>2022-08-03T10:05:24Z</time>
      </trkpt>
      <trkpt lat="45.56801" lon="6.93219">
        <ele>2418.319</ele>
        <time>2022-08-03T10:05:34Z</time>
      </trkpt>
      <trkpt lat="45.5679" lon="6.93217">
        <ele>2418.137</ele>
        <time>2022-08-03T10:05:44Z</time>
      </trkpt>
      <trkpt lat="45.56778" lon="6.93216">
        <ele>2418.941</ele>
        <time>2022-08-03T10:05:54Z</time>
      </trkpt>
      <trkpt lat="45.56768" lon="6.93212">
        <ele>2419.442</ele>
        <time>2022-08-03T10:06:04Z</time>
      </trkpt>
      <trkpt lat="45.56761" lon="6.93204">
        <ele>2417.286</ele>
        <time>2022-08-03T10:06:13Z</time>
      </trkpt>
      <trkpt lat="45.56753" lon="6.93196">
        <ele>2414.936</ele>
        <time>2022-08-03T10:06:23Z</time>
      </trkpt>
      <trkpt lat="45.56747" lon="6.93188">
        <ele>2412.901</ele>
        <time>2022-08-03T10:06:32Z</time>
      </trkpt>
      <trkpt lat="45.5674" lon="6.93184">
        <ele>2409.789</ele>
        <time>2022-08-03T10:06:41Z</time>
      </trkpt>
      <trkpt lat="45.56735" lon="6.93179">
        <ele>2408.013</ele>
        <time>2022-08-03T10:06:50Z</time>
      </trkpt>
      <trkpt lat="45.56727" lon="6.93172">
        <ele>2405.105</ele>
        <time>2022-08-03T10:07:00Z</time>
      </trkpt>
      <trkpt lat="45.5672" lon="6.93165">
        <ele>2402.187</ele>
        <time>2022-08-03T10:07:09Z</time>
      </trkpt>
      <trkpt lat="45.56712" lon="6.93156">
        <ele>2399.274</ele>
        <time>2022-08-03T10:07:19Z</time>
      </trkpt>
      <trkpt lat="45.56704" lon="6.93152">
        <ele>2397.811</ele>
        <time>2022-08-03T10:07:28Z</time>
      </trkpt>
      <trkpt lat="45.56693" lon="6.93148">
        <ele>2396.385</ele>
        <time>2022-08-03T10:07:38Z</time>
      </trkpt>
      <trkpt lat="45.56681" lon="6.93144">
        <ele>2395.493</ele>
        <time>2022-08-03T10:07:48Z</time>
      </trkpt>
      <trkpt lat="45.56671" lon="6.93147">
        <ele>2393.591</ele>
        <time>2022-08-03T10:07:58Z</time>
      </trkpt>
      <trkpt lat="45.56659" lon="6.93145">
        <ele>2392.93</ele>
        <time>2022-08-03T10:08:08Z</time>
      </trkpt>
      <trkpt lat="45.56649" lon="6.93147">
        <ele>2393.525</ele>
        <time>2022-08-03T10:08:17Z</time>
      </trkpt>
      <trkpt lat="45.56639" lon="6.93149">
        <ele>2392.492</ele>
        <time>2022-08-03T10:08:27Z</time>
      </trkpt>
      <trkpt lat="45.56629" lon="6.93151">
        <ele>2392.365</ele>
        <time>2022-08-03T10:08:36Z</time>
      </trkpt>
      <trkpt lat="45.56619" lon="6.93156">
        <ele>2390.234</ele>
        <time>2022-08-03T10:08:45Z</time>
      </trkpt>
      <trkpt lat="45.56606" lon="6.93159">
        <ele>2388.435</ele>
        <time>2022-08-03T10:08:55Z</time>
      </trkpt>
      <trkpt lat="45.56593" lon="6.93163">
        <ele>2386.763</ele>
        <time>2022-08-03T10:09:05Z</time>
      </trkpt>
      <trkpt lat="45.56583" lon="6.93168">
        <ele>2385.32</ele>
        <time>2022-08-03T10:09:14Z</time>
      </trkpt>
      <trkpt lat="45.56574" lon="6.93175">
        <ele>2384.347</ele>
        <time>2022-08-03T10:09:23Z</time>
      </trkpt>
      <trkpt lat="45.56563" lon="6.93184">
        <ele>2383.184</ele>
        <time>2022-08-03T10:09:32Z</time>
      </trkpt>
      <trkpt lat="45.56552" lon="6.93189">
        <ele>2383.561</ele>
        <time>2022-08-03T10:09:42Z</time>
      </trkpt>
      <trkpt lat="45.56543" lon="6.93192">
        <ele>2384.998</ele>
        <time>2022-08-03T10:09:52Z</time>
      </trkpt>
      <trkpt lat="45.56541" lon="6.9319">
        <ele>2385.261</ele>
        <time>2022-08-03T10:10:01Z</time>
      </trkpt>
      <trkpt lat="45.5654" lon="6.93189">
        <ele>2386.74</ele>
        <time>2022-08-03T10:10:11Z</time>
      </trkpt>
      <trkpt lat="45.56541" lon="6.93185">
        <ele>2387.799</ele>
        <time>2022-08-03T10:10:20Z</time>
      </trkpt>
      <trkpt lat="45.56541" lon="6.93186">
        <ele>2388.809</ele>
        <time>2022-08-03T10:10:30Z</time>
      </trkpt>
      <trkpt lat="45.56542" lon="6.93187">
        <ele>2388.642</ele>
        <time>2022-08-03T10:10:39Z</time>
      </trkpt>
      <trkpt lat="45.56544" lon="6.93188">
        <ele>2386.838</ele>
        <time>2022-08-03T10:10:49Z</time>
      </trkpt>
      <trkpt lat="45.56544" lon="6.93187">
        <ele>2386.094</ele>
        <time>2022-08-03T10:10:59Z</time>
      </trkpt>
      <trkpt lat="45.56544" lon="6.93187">
        <ele>2385.616</ele>
        <time>2022-08-03T10:11:09Z</time>
      </trkpt>
      <trkpt lat="45.56544" lon="6.93187">
        <ele>2385.178</ele>
        <time>2022-08-03T10:11:18Z</time>
      </trkpt>
      <trkpt lat="45.56542" lon="6.93188">
        <ele>2387.594</ele>
        <time>2022-08-03T10:11:28Z</time>
      </trkpt>
      <trkpt lat="45.56542" lon="6.93187">
        <ele>2388.41</ele>
        <time>2022-08-03T10:11:37Z</time>
      </trkpt>
      <trkpt lat="45.56542" lon="6.93189">
        <ele>2386.724</ele>
        <time>2022-08-03T10:11:47Z</time>
      </trkpt>
      <trkpt lat="45.56541" lon="6.93189">
        <ele>2385.926</ele>
        <time>2022-08-03T10:11:56Z</time>
      </trkpt>
      <trkpt lat="45.56542" lon="6.9319">
        <ele>2384.669</ele>
        <time>2022-08-03T10:12:06Z</time>
      </trkpt>
      <trkpt lat="45.56541" lon="6.93191">
        <ele>2383.719</ele>
        <time>2022-08-03T10:12:15Z</time>
      </trkpt>
      <trkpt lat="45.5654" lon="6.93191">
        <ele>2383.518</ele>
        <time>2022-08-03T10:12:25Z</time>
      </trkpt>
      <trkpt lat="45.5654" lon="6.93192">
        <ele>2383.498</ele>
        <time>2022-08-03T10:12:34Z</time>
      </trkpt>
      <trkpt lat="45.5654" lon="6.93193">
        <ele>2383.689</ele>
        <time>2022-08-03T10:12:43Z</time>
      </trkpt>
      <trkpt lat="45.5654" lon="6.93194">
        <ele>2384.001</ele>
        <time>2022-08-03T10:12:53Z</time>
      </trkpt>
      <trkpt lat="45.5654" lon="6.93194">
        <ele>2383.906</ele>
        <time>2022-08-03T10:13:03Z</time>
      </trkpt>
      <trkpt lat="45.5654" lon="6.93194">
        <ele>2383.902</ele>
        <time>2022-08-03T10:13:13Z</time>
      </trkpt>
      <trkpt lat="45.5654" lon="6.93194">
        <ele>2383.837</ele>
        <time>2022-08-03T10:13:23Z</time>
      </trkpt>
      <trkpt lat="45.5654" lon="6.93195">
        <ele>2382.933</ele>
        <time>2022-08-03T10:13:32Z</time>
      </trkpt>
      <trkpt lat="45.5654" lon="6.93195">
        <ele>2383.097</ele>
        <time>2022-08-03T10:13:42Z</time>
      </trkpt>
      <trkpt lat="45.5654" lon="6.93195">
        <ele>2383.097</ele>
        <time>2022-08-03T10:13:51Z</time>
      </trkpt>
      <trkpt lat="45.5654" lon="6.93195">
        <ele>2383.112</ele>
        <time>2022-08-03T10:14:00Z</time>
      </trkpt>
      <trkpt lat="45.5654" lon="6.93195">
        <ele>2383.033</ele>
        <time>2022-08-03T10:14:10Z</time>
      </trkpt>
      <trkpt lat="45.5654" lon="6.93195">
        <ele>2383.022</ele>
        <time>2022-08-03T10:14:19Z</time>
      </trkpt>
      <trkpt lat="45.5654" lon="6.93195">
        <ele>2383.087</ele>
        <time>2022-08-03T10:14:29Z</time>
      </trkpt>
      <trkpt lat="45.5654" lon="6.93195">
        <ele>2383.092</ele>
        <time>2022-08-03T10:14:39Z</time>
      </trkpt>
      <trkpt lat="45.5654" lon="6.93195">
        <ele>2383.132</ele>
        <time>2022-08-03T10:14:49Z</time>
      </trkpt>
      <trkpt lat="45.5654" lon="6.93195">
        <ele>2383.099</ele>
        <time>2022-08-03T10:14:58Z</time>
      </trkpt>
      <trkpt lat="45.56541" lon="6.93195">
        <ele>2383.442</ele>
        <time>2022-08-03T10:15:07Z</time>
      </trkpt>
      <trkpt lat="45.56542" lon="6.93195">
        <ele>2383.599</ele>
        <time>2022-08-03T10:15:17Z</time>
      </trkpt>
      <trkpt lat="45.56542" lon="6.93195">
        <ele>2383.598</ele>
        <time>2022-08-03T10:15:27Z</time>
      </trkpt>
      <trkpt lat="45.56542" lon="6.93195">
        <ele>2383.543</ele>
        <time>2022-08-03T10:15:37Z</time>
      </trkpt>
      <trkpt lat="45.56542" lon="6.93195">
        <ele>2383.546</ele>
        <time>2022-08-03T10:15:47Z</time>
      </trkpt>
      <trkpt lat="45.56542" lon="6.93195">
        <ele>2383.537</ele>
        <time>2022-08-03T10:15:56Z</time>
      </trkpt>
      <trkpt lat="45.56542" lon="6.93195">
        <ele>2383.526</ele>
        <time>2022-08-03T10:16:06Z</time>
      </trkpt>
      <trkpt lat="45.56542" lon="6.93195">
        <ele>2383.522</ele>
        <time>2022-08-03T10:16:16Z</time>
      </trkpt>
      <trkpt lat="45.56542" lon="6.93195">
        <ele>2383.531</ele>
        <time>2022-08-03T10:16:25Z</time>
      </trkpt>
      <trkpt lat="45.56542" lon="6.93195">
        <ele>2383.527</ele>
        <time>2022-08-03T10:16:34Z</time>
      </trkpt>
      <trkpt lat="45.56542" lon="6.93195">
        <ele>2383.528</ele>
        <time>2022-08-03T10:16:44Z</time>
      </trkpt>
      <trkpt lat="45.56542" lon="6.93195">
        <ele>2383.514</ele>
        <time>2022-08-03T10:16:53Z</time>
      </trkpt>
      <trkpt lat="45.56542" lon="6.93195">
        <ele>2383.521</ele>
        <time>2022-08-03T10:17:02Z</time>
      </trkpt>
      <trkpt lat="45.56542" lon="6.93195">
        <ele>2383.565</ele>
        <time>2022-08-03T10:17:12Z</time>
      </trkpt>
      <trkpt lat="45.56542" lon="6.93195">
        <ele>2383.56</ele>
        <time>2022-08-03T10:17:22Z</time>
      </trkpt>
      <trkpt lat="45.56542" lon="6.93195">
        <ele>2383.562</ele>
        <time>2022-08-03T10:17:31Z</time>
      </trkpt>
      <trkpt lat="45.56542" lon="6.93195">
        <ele>2383.555</ele>
        <time>2022-08-03T10:17:41Z</time>
      </trkpt>
      <trkpt lat="45.56542" lon="6.93195">
        <ele>2383.537</ele>
        <time>2022-08-03T10:17:51Z</time>
      </trkpt>
      <trkpt lat="45.56542" lon="6.93195">
        <ele>2383.539</ele>
        <time>2022-08-03T10:18:00Z</time>
      </trkpt>
      <trkpt lat="45.56542" lon="6.93195">
        <ele>2383.543</ele>
        <time>2022-08-03T10:18:10Z</time>
      </trkpt>
      <trkpt lat="45.56542" lon="6.93195">
        <ele>2383.554</ele>
        <time>2022-08-03T10:18:19Z</time>
      </trkpt>
      <trkpt lat="45.56542" lon="6.93195">
        <ele>2383.563</ele>
        <time>2022-08-03T10:18:29Z</time>
      </trkpt>
      <trkpt lat="45.56542" lon="6.93195">
        <ele>2383.566</ele>
        <time>2022-08-03T10:18:38Z</time>
      </trkpt>
      <trkpt lat="45.56542" lon="6.93195">
        <ele>2383.572</ele>
        <time>2022-08-03T10:18:47Z</time>
      </trkpt>
      <trkpt lat="45.56542" lon="6.93195">
        <ele>2383.58</ele>
        <time>2022-08-03T10:18:57Z</time>
      </trkpt>
      <trkpt lat="45.56542" lon="6.93195">
        <ele>2383.585</ele>
        <time>2022-08-03T10:19:06Z</time>
      </trkpt>
      <trkpt lat="45.56542" lon="6.93195">
        <ele>2383.597</ele>
        <time>2022-08-03T10:19:16Z</time>
      </trkpt>
      <trkpt lat="45.56542" lon="6.93195">
        <ele>2383.596</ele>
        <time>2022-08-03T10:19:26Z</time>
      </trkpt>
      <trkpt lat="45.56542" lon="6.93195">
        <ele>2383.584</ele>
        <time>2022-08-03T10:19:35Z</time>
      </trkpt>
      <trkpt lat="45.56542" lon="6.93195">
        <ele>2383.567</ele>
        <time>2022-08-03T10:19:45Z</time>
      </trkpt>
      <trkpt lat="45.56542" lon="6.93195">
        <ele>2383.53</ele>
        <time>2022-08-03T10:19:54Z</time>
      </trkpt>
      <trkpt lat="45.56542" lon="6.93195">
        <ele>2383.521</ele>
        <time>2022-08-03T10:20:04Z</time>
      </trkpt>
      <trkpt lat="45.56542" lon="6.93195">
        <ele>2383.526</ele>
        <time>2022-08-03T10:20:14Z</time>
      </trkpt>
      <trkpt lat="45.56542" lon="6.93195">
        <ele>2383.54</ele>
        <time>2022-08-03T10:20:24Z</time>
      </trkpt>
      <trkpt lat="45.56542" lon="6.93196">
        <ele>2385.188</ele>
        <time>2022-08-03T10:20:33Z</time>
      </trkpt>
      <trkpt lat="45.56542" lon="6.93197">
        <ele>2385.274</ele>
        <time>2022-08-03T10:20:42Z</time>
      </trkpt>
      <trkpt lat="45.56542" lon="6.93197">
        <ele>2385.257</ele>
        <time>2022-08-03T10:20:51Z</time>
      </trkpt>
      <trkpt lat="45.56542" lon="6.93197">
        <ele>2385.239</ele>
        <time>2022-08-03T10:21:01Z</time>
      </trkpt>
      <trkpt lat="45.56542" lon="6.93195">
        <ele>2382.764</ele>
        <time>2022-08-03T10:21:11Z</time>
      </trkpt>
      <trkpt lat="45.56541" lon="6.93194">
        <ele>2382.436</ele>
        <time>2022-08-03T10:21:21Z</time>
      </trkpt>
      <trkpt lat="45.56541" lon="6.93193">
        <ele>2383.38</ele>
        <time>2022-08-03T10:21:30Z</time>
      </trkpt>
      <trkpt lat="45.56542" lon="6.93195">
        <ele>2384.239</ele>
        <time>2022-08-03T10:21:40Z</time>
      </trkpt>
      <trkpt lat="45.56541" lon="6.93198">
        <ele>2382.783</ele>
        <time>2022-08-03T10:21:49Z</time>
      </trkpt>
      <trkpt lat="45.5654" lon="6.93202">
        <ele>2383.778</ele>
        <time>2022-08-03T10:21:59Z</time>
      </trkpt>
      <trkpt lat="45.56539" lon="6.93211">
        <ele>2381.181</ele>
        <time>2022-08-03T10:22:09Z</time>
      </trkpt>
      <trkpt lat="45.56531" lon="6.93221">
        <ele>2381.045</ele>
        <time>2022-08-03T10:22:19Z</time>
      </trkpt>
      <trkpt lat="45.56531" lon="6.93225">
        <ele>2380.352</ele>
        <time>2022-08-03T10:22:29Z</time>
      </trkpt>
      <trkpt lat="45.5653" lon="6.93234">
        <ele>2379.363</ele>
        <time>2022-08-03T10:22:39Z</time>
      </trkpt>
      <trkpt lat="45.56525" lon="6.93245">
        <ele>2378.812</ele>
        <time>2022-08-03T10:22:49Z</time>
      </trkpt>
      <trkpt lat="45.5652" lon="6.93256">
        <ele>2378.027</ele>
        <time>2022-08-03T10:22:58Z</time>
      </trkpt>
      <trkpt lat="45.56515" lon="6.93268">
        <ele>2376.51</ele>
        <time>2022-08-03T10:23:07Z</time>
      </trkpt>
      <trkpt lat="45.56508" lon="6.9328">
        <ele>2376.53</ele>
        <time>2022-08-03T10:23:17Z</time>
      </trkpt>
      <trkpt lat="45.56502" lon="6.93289">
        <ele>2375.973</ele>
        <time>2022-08-03T10:23:27Z</time>
      </trkpt>
      <trkpt lat="45.565" lon="6.93303">
        <ele>2375.477</ele>
        <time>2022-08-03T10:23:37Z</time>
      </trkpt>
      <trkpt lat="45.56496" lon="6.93312">
        <ele>2375.197</ele>
        <time>2022-08-03T10:23:46Z</time>
      </trkpt>
      <trkpt lat="45.56487" lon="6.9332">
        <ele>2374.88</ele>
        <time>2022-08-03T10:23:56Z</time>
      </trkpt>
      <trkpt lat="45.56479" lon="6.93329">
        <ele>2374.937</ele>
        <time>2022-08-03T10:24:05Z</time>
      </trkpt>
      <trkpt lat="45.56472" lon="6.93339">
        <ele>2374.271</ele>
        <time>2022-08-03T10:24:15Z</time>
      </trkpt>
      <trkpt lat="45.56463" lon="6.93347">
        <ele>2373.928</ele>
        <time>2022-08-03T10:24:24Z</time>
      </trkpt>
      <trkpt lat="45.56453" lon="6.93356">
        <ele>2374.385</ele>
        <time>2022-08-03T10:24:34Z</time>
      </trkpt>
      <trkpt lat="45.56444" lon="6.93367">
        <ele>2374.542</ele>
        <time>2022-08-03T10:24:44Z</time>
      </trkpt>
      <trkpt lat="45.56436" lon="6.93377">
        <ele>2373.904</ele>
        <time>2022-08-03T10:24:54Z</time>
      </trkpt>
      <trkpt lat="45.56429" lon="6.9339">
        <ele>2375.716</ele>
        <time>2022-08-03T10:25:04Z</time>
      </trkpt>
      <trkpt lat="45.56425" lon="6.93403">
        <ele>2376.582</ele>
        <time>2022-08-03T10:25:13Z</time>
      </trkpt>
      <trkpt lat="45.5642" lon="6.93415">
        <ele>2376.266</ele>
        <time>2022-08-03T10:25:22Z</time>
      </trkpt>
      <trkpt lat="45.56416" lon="6.93428">
        <ele>2376.868</ele>
        <time>2022-08-03T10:25:31Z</time>
      </trkpt>
      <trkpt lat="45.56414" lon="6.93444">
        <ele>2376.48</ele>
        <time>2022-08-03T10:25:41Z</time>
      </trkpt>
      <trkpt lat="45.56408" lon="6.93456">
        <ele>2375.529</ele>
        <time>2022-08-03T10:25:50Z</time>
      </trkpt>
      <trkpt lat="45.56401" lon="6.93469">
        <ele>2374.28</ele>
        <time>2022-08-03T10:26:00Z</time>
      </trkpt>
      <trkpt lat="45.56392" lon="6.9348">
        <ele>2373.435</ele>
        <time>2022-08-03T10:26:10Z</time>
      </trkpt>
      <trkpt lat="45.56388" lon="6.93492">
        <ele>2371.006</ele>
        <time>2022-08-03T10:26:20Z</time>
      </trkpt>
      <trkpt lat="45.56385" lon="6.93506">
        <ele>2368.934</ele>
        <time>2022-08-03T10:26:29Z</time>
      </trkpt>
      <trkpt lat="45.56382" lon="6.93517">
        <ele>2367.101</ele>
        <time>2022-08-03T10:26:38Z</time>
      </trkpt>
      <trkpt lat="45.56378" lon="6.93528">
        <ele>2364.055</ele>
        <time>2022-08-03T10:26:48Z</time>
      </trkpt>
      <trkpt lat="45.56379" lon="6.93539">
        <ele>2361.145</ele>
        <time>2022-08-03T10:26:57Z</time>
      </trkpt>
      <trkpt lat="45.56374" lon="6.93549">
        <ele>2359.433</ele>
        <time>2022-08-03T10:27:07Z</time>
      </trkpt>
      <trkpt lat="45.5637" lon="6.93561">
        <ele>2357.1</ele>
        <time>2022-08-03T10:27:17Z</time>
      </trkpt>
      <trkpt lat="45.56363" lon="6.93569">
        <ele>2354.864</ele>
        <time>2022-08-03T10:27:26Z</time>
      </trkpt>
      <trkpt lat="45.56357" lon="6.93577">
        <ele>2353.168</ele>
        <time>2022-08-03T10:27:35Z</time>
      </trkpt>
      <trkpt lat="45.56352" lon="6.93583">
        <ele>2350.115</ele>
        <time>2022-08-03T10:27:45Z</time>
      </trkpt>
      <trkpt lat="45.56349" lon="6.9359">
        <ele>2348.015</ele>
        <time>2022-08-03T10:27:54Z</time>
      </trkpt>
      <trkpt lat="45.5635" lon="6.93601">
        <ele>2345.06</ele>
        <time>2022-08-03T10:28:04Z</time>
      </trkpt>
      <trkpt lat="45.56348" lon="6.93614">
        <ele>2342.861</ele>
        <time>2022-08-03T10:28:13Z</time>
      </trkpt>
      <trkpt lat="45.5634" lon="6.93621">
        <ele>2340.648</ele>
        <time>2022-08-03T10:28:22Z</time>
      </trkpt>
      <trkpt lat="45.56332" lon="6.9363">
        <ele>2337.771</ele>
        <time>2022-08-03T10:28:32Z</time>
      </trkpt>
      <trkpt lat="45.56329" lon="6.93639">
        <ele>2335.688</ele>
        <time>2022-08-03T10:28:42Z</time>
      </trkpt>
      <trkpt lat="45.56332" lon="6.93647">
        <ele>2333.469</ele>
        <time>2022-08-03T10:28:52Z</time>
      </trkpt>
      <trkpt lat="45.56334" lon="6.93656">
        <ele>2331.428</ele>
        <time>2022-08-03T10:29:01Z</time>
      </trkpt>
      <trkpt lat="45.56328" lon="6.93661">
        <ele>2328.389</ele>
        <time>2022-08-03T10:29:10Z</time>
      </trkpt>
      <trkpt lat="45.5632" lon="6.93665">
        <ele>2326.348</ele>
        <time>2022-08-03T10:29:19Z</time>
      </trkpt>
      <trkpt lat="45.56311" lon="6.9367">
        <ele>2324.109</ele>
        <time>2022-08-03T10:29:29Z</time>
      </trkpt>
      <trkpt lat="45.56306" lon="6.93677">
        <ele>2322.017</ele>
        <time>2022-08-03T10:29:38Z</time>
      </trkpt>
      <trkpt lat="45.56301" lon="6.93686">
        <ele>2319.929</ele>
        <time>2022-08-03T10:29:48Z</time>
      </trkpt>
      <trkpt lat="45.56298" lon="6.93693">
        <ele>2318.912</ele>
        <time>2022-08-03T10:29:57Z</time>
      </trkpt>
      <trkpt lat="45.56294" lon="6.937">
        <ele>2316.927</ele>
        <time>2022-08-03T10:30:06Z</time>
      </trkpt>
      <trkpt lat="45.56288" lon="6.93709">
        <ele>2314.571</ele>
        <time>2022-08-03T10:30:16Z</time>
      </trkpt>
      <trkpt lat="45.56284" lon="6.9372">
        <ele>2311.863</ele>
        <time>2022-08-03T10:30:26Z</time>
      </trkpt>
      <trkpt lat="45.56278" lon="6.93728">
        <ele>2309.167</ele>
        <time>2022-08-03T10:30:35Z</time>
      </trkpt>
      <trkpt lat="45.56276" lon="6.93739">
        <ele>2305.872</ele>
        <time>2022-08-03T10:30:44Z</time>
      </trkpt>
      <trkpt lat="45.56267" lon="6.93746">
        <ele>2302.639</ele>
        <time>2022-08-03T10:30:54Z</time>
      </trkpt>
      <trkpt lat="45.5626" lon="6.93748">
        <ele>2299.568</ele>
        <time>2022-08-03T10:31:03Z</time>
      </trkpt>
      <trkpt lat="45.56251" lon="6.93752">
        <ele>2296.92</ele>
        <time>2022-08-03T10:31:13Z</time>
      </trkpt>
      <trkpt lat="45.56251" lon="6.93761">
        <ele>2294.651</ele>
        <time>2022-08-03T10:31:22Z</time>
      </trkpt>
      <trkpt lat="45.56249" lon="6.93773">
        <ele>2292.016</ele>
        <time>2022-08-03T10:31:32Z</time>
      </trkpt>
      <trkpt lat="45.56248" lon="6.93783">
        <ele>2288.869</ele>
        <time>2022-08-03T10:31:42Z</time>
      </trkpt>
      <trkpt lat="45.56251" lon="6.93795">
        <ele>2286.196</ele>
        <time>2022-08-03T10:31:52Z</time>
      </trkpt>
      <trkpt lat="45.56248" lon="6.93806">
        <ele>2283.528</ele>
        <time>2022-08-03T10:32:02Z</time>
      </trkpt>
      <trkpt lat="45.56242" lon="6.93811">
        <ele>2281.698</ele>
        <time>2022-08-03T10:32:12Z</time>
      </trkpt>
      <trkpt lat="45.56243" lon="6.93811">
        <ele>2281.259</ele>
        <time>2022-08-03T10:32:21Z</time>
      </trkpt>
      <trkpt lat="45.56242" lon="6.93813">
        <ele>2281.361</ele>
        <time>2022-08-03T10:32:31Z</time>
      </trkpt>
      <trkpt lat="45.56242" lon="6.93814">
        <ele>2280.875</ele>
        <time>2022-08-03T10:32:40Z</time>
      </trkpt>
      <trkpt lat="45.56242" lon="6.93815">
        <ele>2280.955</ele>
        <time>2022-08-03T10:32:50Z</time>
      </trkpt>
      <trkpt lat="45.56242" lon="6.93815">
        <ele>2281.004</ele>
        <time>2022-08-03T10:32:59Z</time>
      </trkpt>
      <trkpt lat="45.56242" lon="6.93815">
        <ele>2281.001</ele>
        <time>2022-08-03T10:33:08Z</time>
      </trkpt>
      <trkpt lat="45.56241" lon="6.93815">
        <ele>2279.19</ele>
        <time>2022-08-03T10:33:18Z</time>
      </trkpt>
      <trkpt lat="45.56238" lon="6.93823">
        <ele>2277.207</ele>
        <time>2022-08-03T10:33:27Z</time>
      </trkpt>
      <trkpt lat="45.56232" lon="6.9383">
        <ele>2275.388</ele>
        <time>2022-08-03T10:33:36Z</time>
      </trkpt>
      <trkpt lat="45.56229" lon="6.93831">
        <ele>2275.201</ele>
        <time>2022-08-03T10:33:45Z</time>
      </trkpt>
      <trkpt lat="45.56224" lon="6.93835">
        <ele>2273.08</ele>
        <time>2022-08-03T10:33:55Z</time>
      </trkpt>
      <trkpt lat="45.56215" lon="6.93838">
        <ele>2270.757</ele>
        <time>2022-08-03T10:34:05Z</time>
      </trkpt>
      <trkpt lat="45.56206" lon="6.9384">
        <ele>2267.695</ele>
        <time>2022-08-03T10:34:15Z</time>
      </trkpt>
      <trkpt lat="45.56197" lon="6.93843">
        <ele>2265.101</ele>
        <time>2022-08-03T10:34:24Z</time>
      </trkpt>
      <trkpt lat="45.56188" lon="6.93848">
        <ele>2262.827</ele>
        <time>2022-08-03T10:34:34Z</time>
      </trkpt>
      <trkpt lat="45.5618" lon="6.93853">
        <ele>2260.726</ele>
        <time>2022-08-03T10:34:44Z</time>
      </trkpt>
      <trkpt lat="45.56171" lon="6.93855">
        <ele>2261.088</ele>
        <time>2022-08-03T10:34:53Z</time>
      </trkpt>
      <trkpt lat="45.56164" lon="6.93859">
        <ele>2258.77</ele>
        <time>2022-08-03T10:35:03Z</time>
      </trkpt>
      <trkpt lat="45.5616" lon="6.93865">
        <ele>2257.393</ele>
        <time>2022-08-03T10:35:13Z</time>
      </trkpt>
      <trkpt lat="45.5615" lon="6.93877">
        <ele>2254.505</ele>
        <time>2022-08-03T10:35:23Z</time>
      </trkpt>
      <trkpt lat="45.56143" lon="6.93886">
        <ele>2254.23</ele>
        <time>2022-08-03T10:35:33Z</time>
      </trkpt>
      <trkpt lat="45.56135" lon="6.93892">
        <ele>2252.273</ele>
        <time>2022-08-03T10:35:43Z</time>
      </trkpt>
      <trkpt lat="45.56127" lon="6.93897">
        <ele>2252.133</ele>
        <time>2022-08-03T10:35:53Z</time>
      </trkpt>
      <trkpt lat="45.56119" lon="6.93901">
        <ele>2252.171</ele>
        <time>2022-08-03T10:36:02Z</time>
      </trkpt>
      <trkpt lat="45.56109" lon="6.93904">
        <ele>2251.677</ele>
        <time>2022-08-03T10:36:12Z</time>
      </trkpt>
      <trkpt lat="45.56099" lon="6.93911">
        <ele>2250.465</ele>
        <time>2022-08-03T10:36:21Z</time>
      </trkpt>
      <trkpt lat="45.56092" lon="6.93922">
        <ele>2249.164</ele>
        <time>2022-08-03T10:36:30Z</time>
      </trkpt>
      <trkpt lat="45.56085" lon="6.93935">
        <ele>2246.49</ele>
        <time>2022-08-03T10:36:40Z</time>
      </trkpt>
      <trkpt lat="45.56082" lon="6.9395">
        <ele>2242.916</ele>
        <time>2022-08-03T10:36:50Z</time>
      </trkpt>
      <trkpt lat="45.56074" lon="6.93963">
        <ele>2242.204</ele>
        <time>2022-08-03T10:37:00Z</time>
      </trkpt>
      <trkpt lat="45.56063" lon="6.93963">
        <ele>2242.364</ele>
        <time>2022-08-03T10:37:09Z</time>
      </trkpt>
      <trkpt lat="45.56052" lon="6.93961">
        <ele>2242.153</ele>
        <time>2022-08-03T10:37:19Z</time>
      </trkpt>
      <trkpt lat="45.5604" lon="6.93962">
        <ele>2240.522</ele>
        <time>2022-08-03T10:37:29Z</time>
      </trkpt>
      <trkpt lat="45.5603" lon="6.93963">
        <ele>2238.799</ele>
        <time>2022-08-03T10:37:38Z</time>
      </trkpt>
      <trkpt lat="45.5602" lon="6.93965">
        <ele>2237.496</ele>
        <time>2022-08-03T10:37:47Z</time>
      </trkpt>
      <trkpt lat="45.56009" lon="6.93965">
        <ele>2236.906</ele>
        <time>2022-08-03T10:37:57Z</time>
      </trkpt>
      <trkpt lat="45.55997" lon="6.93962">
        <ele>2236.397</ele>
        <time>2022-08-03T10:38:07Z</time>
      </trkpt>
      <trkpt lat="45.55987" lon="6.93956">
        <ele>2235.353</ele>
        <time>2022-08-03T10:38:16Z</time>
      </trkpt>
      <trkpt lat="45.55977" lon="6.93956">
        <ele>2233.747</ele>
        <time>2022-08-03T10:38:25Z</time>
      </trkpt>
      <trkpt lat="45.55969" lon="6.93965">
        <ele>2230.138</ele>
        <time>2022-08-03T10:38:35Z</time>
      </trkpt>
      <trkpt lat="45.55968" lon="6.93965">
        <ele>2229.634</ele>
        <time>2022-08-03T10:38:45Z</time>
      </trkpt>
      <trkpt lat="45.55968" lon="6.93965">
        <ele>2229.499</ele>
        <time>2022-08-03T10:38:55Z</time>
      </trkpt>
      <trkpt lat="45.55968" lon="6.93965">
        <ele>2229.472</ele>
        <time>2022-08-03T10:39:05Z</time>
      </trkpt>
      <trkpt lat="45.55968" lon="6.93965">
        <ele>2229.463</ele>
        <time>2022-08-03T10:39:14Z</time>
      </trkpt>
      <trkpt lat="45.55968" lon="6.93966">
        <ele>2228.26</ele>
        <time>2022-08-03T10:39:23Z</time>
      </trkpt>
      <trkpt lat="45.55965" lon="6.93976">
        <ele>2227.295</ele>
        <time>2022-08-03T10:39:32Z</time>
      </trkpt>
      <trkpt lat="45.5596" lon="6.93986">
        <ele>2224.17</ele>
        <time>2022-08-03T10:39:42Z</time>
      </trkpt>
      <trkpt lat="45.5595" lon="6.93988">
        <ele>2223.179</ele>
        <time>2022-08-03T10:39:52Z</time>
      </trkpt>
      <trkpt lat="45.55942" lon="6.93988">
        <ele>2221.371</ele>
        <time>2022-08-03T10:40:01Z</time>
      </trkpt>
      <trkpt lat="45.55936" lon="6.93989">
        <ele>2220.79</ele>
        <time>2022-08-03T10:40:11Z</time>
      </trkpt>
      <trkpt lat="45.55928" lon="6.93991">
        <ele>2219.563</ele>
        <time>2022-08-03T10:40:20Z</time>
      </trkpt>
      <trkpt lat="45.55917" lon="6.93992">
        <ele>2218.149</ele>
        <time>2022-08-03T10:40:30Z</time>
      </trkpt>
      <trkpt lat="45.55907" lon="6.94002">
        <ele>2216.003</ele>
        <time>2022-08-03T10:40:40Z</time>
      </trkpt>
      <trkpt lat="45.55895" lon="6.93997">
        <ele>2215.112</ele>
        <time>2022-08-03T10:40:50Z</time>
      </trkpt>
      <trkpt lat="45.55889" lon="6.93985">
        <ele>2214.47</ele>
        <time>2022-08-03T10:40:59Z</time>
      </trkpt>
      <trkpt lat="45.55882" lon="6.93972">
        <ele>2213.652</ele>
        <time>2022-08-03T10:41:08Z</time>
      </trkpt>
      <trkpt lat="45.55873" lon="6.93962">
        <ele>2212.579</ele>
        <time>2022-08-03T10:41:17Z</time>
      </trkpt>
      <trkpt lat="45.55863" lon="6.93955">
        <ele>2210.088</ele>
        <time>2022-08-03T10:41:27Z</time>
      </trkpt>
      <trkpt lat="45.55853" lon="6.9395">
        <ele>2210.09</ele>
        <time>2022-08-03T10:41:36Z</time>
      </trkpt>
      <trkpt lat="45.55845" lon="6.93939">
        <ele>2208.415</ele>
        <time>2022-08-03T10:41:45Z</time>
      </trkpt>
      <trkpt lat="45.55841" lon="6.93924">
        <ele>2208.648</ele>
        <time>2022-08-03T10:41:54Z</time>
      </trkpt>
      <trkpt lat="45.55834" lon="6.93915">
        <ele>2209.363</ele>
        <time>2022-08-03T10:42:04Z</time>
      </trkpt>
      <trkpt lat="45.55826" lon="6.93913">
        <ele>2211.729</ele>
        <time>2022-08-03T10:42:14Z</time>
      </trkpt>
      <trkpt lat="45.55825" lon="6.93904">
        <ele>2213.032</ele>
        <time>2022-08-03T10:42:24Z</time>
      </trkpt>
      <trkpt lat="45.55823" lon="6.939">
        <ele>2214.894</ele>
        <time>2022-08-03T10:42:34Z</time>
      </trkpt>
      <trkpt lat="45.55822" lon="6.93893">
        <ele>2217.266</ele>
        <time>2022-08-03T10:42:44Z</time>
      </trkpt>
      <trkpt lat="45.55819" lon="6.93891">
        <ele>2218.945</ele>
        <time>2022-08-03T10:42:53Z</time>
      </trkpt>
      <trkpt lat="45.55817" lon="6.93881">
        <ele>2219.585</ele>
        <time>2022-08-03T10:43:03Z</time>
      </trkpt>
      <trkpt lat="45.55815" lon="6.93873">
        <ele>2221.363</ele>
        <time>2022-08-03T10:43:12Z</time>
      </trkpt>
      <trkpt lat="45.55813" lon="6.93866">
        <ele>2223.006</ele>
        <time>2022-08-03T10:43:22Z</time>
      </trkpt>
      <trkpt lat="45.55811" lon="6.93862">
        <ele>2224.568</ele>
        <time>2022-08-03T10:43:31Z</time>
      </trkpt>
      <trkpt lat="45.55807" lon="6.93855">
        <ele>2224.846</ele>
        <time>2022-08-03T10:43:41Z</time>
      </trkpt>
      <trkpt lat="45.55804" lon="6.93847">
        <ele>2226.64</ele>
        <time>2022-08-03T10:43:50Z</time>
      </trkpt>
      <trkpt lat="45.55803" lon="6.9384">
        <ele>2227.642</ele>
        <time>2022-08-03T10:43:59Z</time>
      </trkpt>
      <trkpt lat="45.55802" lon="6.93832">
        <ele>2228.969</ele>
        <time>2022-08-03T10:44:09Z</time>
      </trkpt>
      <trkpt lat="45.55802" lon="6.93823">
        <ele>2231.05</ele>
        <time>2022-08-03T10:44:19Z</time>
      </trkpt>
      <trkpt lat="45.55797" lon="6.93821">
        <ele>2233.417</ele>
        <time>2022-08-03T10:44:29Z</time>
      </trkpt>
      <trkpt lat="45.55791" lon="6.93817">
        <ele>2234.255</ele>
        <time>2022-08-03T10:44:38Z</time>
      </trkpt>
      <trkpt lat="45.55786" lon="6.93809">
        <ele>2234.669</ele>
        <time>2022-08-03T10:44:47Z</time>
      </trkpt>
      <trkpt lat="45.5578" lon="6.938">
        <ele>2234.815</ele>
        <time>2022-08-03T10:44:57Z</time>
      </trkpt>
      <trkpt lat="45.55774" lon="6.93793">
        <ele>2235.027</ele>
        <time>2022-08-03T10:45:06Z</time>
      </trkpt>
      <trkpt lat="45.55765" lon="6.93786">
        <ele>2234.51</ele>
        <time>2022-08-03T10:45:16Z</time>
      </trkpt>
      <trkpt lat="45.55757" lon="6.93778">
        <ele>2235.147</ele>
        <time>2022-08-03T10:45:26Z</time>
      </trkpt>
      <trkpt lat="45.55751" lon="6.9377">
        <ele>2234.479</ele>
        <time>2022-08-03T10:45:35Z</time>
      </trkpt>
      <trkpt lat="45.55745" lon="6.9376">
        <ele>2235.088</ele>
        <time>2022-08-03T10:45:44Z</time>
      </trkpt>
      <trkpt lat="45.55738" lon="6.93749">
        <ele>2235.595</ele>
        <time>2022-08-03T10:45:54Z</time>
      </trkpt>
      <trkpt lat="45.55732" lon="6.93739">
        <ele>2235.452</ele>
        <time>2022-08-03T10:46:04Z</time>
      </trkpt>
      <trkpt lat="45.55726" lon="6.93731">
        <ele>2234.94</ele>
        <time>2022-08-03T10:46:13Z</time>
      </trkpt>
      <trkpt lat="45.55718" lon="6.93721">
        <ele>2233.527</ele>
        <time>2022-08-03T10:46:23Z</time>
      </trkpt>
      <trkpt lat="45.55711" lon="6.93712">
        <ele>2232.252</ele>
        <time>2022-08-03T10:46:33Z</time>
      </trkpt>
      <trkpt lat="45.55705" lon="6.93703">
        <ele>2231.161</ele>
        <time>2022-08-03T10:46:42Z</time>
      </trkpt>
      <trkpt lat="45.557" lon="6.93695">
        <ele>2228.948</ele>
        <time>2022-08-03T10:46:51Z</time>
      </trkpt>
      <trkpt lat="45.55696" lon="6.93686">
        <ele>2226.936</ele>
        <time>2022-08-03T10:47:01Z</time>
      </trkpt>
      <trkpt lat="45.55692" lon="6.93678">
        <ele>2224.463</ele>
        <time>2022-08-03T10:47:10Z</time>
      </trkpt>
      <trkpt lat="45.55691" lon="6.93669">
        <ele>2222.429</ele>
        <time>2022-08-03T10:47:19Z</time>
      </trkpt>
      <trkpt lat="45.55688" lon="6.93659">
        <ele>2220.256</ele>
        <time>2022-08-03T10:47:29Z</time>
      </trkpt>
      <trkpt lat="45.55686" lon="6.93648">
        <ele>2218.192</ele>
        <time>2022-08-03T10:47:39Z</time>
      </trkpt>
      <trkpt lat="45.55683" lon="6.9364">
        <ele>2215.867</ele>
        <time>2022-08-03T10:47:48Z</time>
      </trkpt>
      <trkpt lat="45.55678" lon="6.93635">
        <ele>2212.472</ele>
        <time>2022-08-03T10:47:58Z</time>
      </trkpt>
      <trkpt lat="45.55676" lon="6.93627">
        <ele>2210.966</ele>
        <time>2022-08-03T10:48:07Z</time>
      </trkpt>
      <trkpt lat="45.55672" lon="6.93621">
        <ele>2208.165</ele>
        <time>2022-08-03T10:48:17Z</time>
      </trkpt>
      <trkpt lat="45.55665" lon="6.9362">
        <ele>2205.912</ele>
        <time>2022-08-03T10:48:26Z</time>
      </trkpt>
      <trkpt lat="45.55658" lon="6.93619">
        <ele>2202.717</ele>
        <time>2022-08-03T10:48:35Z</time>
      </trkpt>
      <trkpt lat="45.55651" lon="6.93614">
        <ele>2199.962</ele>
        <time>2022-08-03T10:48:45Z</time>
      </trkpt>
      <trkpt lat="45.55647" lon="6.93606">
        <ele>2197.58</ele>
        <time>2022-08-03T10:48:55Z</time>
      </trkpt>
      <trkpt lat="45.55642" lon="6.93596">
        <ele>2196.058</ele>
        <time>2022-08-03T10:49:04Z</time>
      </trkpt>
      <trkpt lat="45.55645" lon="6.93584">
        <ele>2195.141</ele>
        <time>2022-08-03T10:49:14Z</time>
      </trkpt>
      <trkpt lat="45.55645" lon="6.9357">
        <ele>2193.441</ele>
        <time>2022-08-03T10:49:24Z</time>
      </trkpt>
      <trkpt lat="45.55644" lon="6.93554">
        <ele>2191.006</ele>
        <time>2022-08-03T10:49:34Z</time>
      </trkpt>
      <trkpt lat="45.55643" lon="6.93538">
        <ele>2190.341</ele>
        <time>2022-08-03T10:49:44Z</time>
      </trkpt>
      <trkpt lat="45.5564" lon="6.93525">
        <ele>2187.92</ele>
        <time>2022-08-03T10:49:53Z</time>
      </trkpt>
      <trkpt lat="45.55638" lon="6.93511">
        <ele>2185.17</ele>
        <time>2022-08-03T10:50:03Z</time>
      </trkpt>
      <trkpt lat="45.55633" lon="6.93498">
        <ele>2182.481</ele>
        <time>2022-08-03T10:50:13Z</time>
      </trkpt>
      <trkpt lat="45.55626" lon="6.93485">
        <ele>2180.541</ele>
        <time>2022-08-03T10:50:23Z</time>
      </trkpt>
      <trkpt lat="45.55617" lon="6.93477">
        <ele>2178.237</ele>
        <time>2022-08-03T10:50:32Z</time>
      </trkpt>
      <trkpt lat="45.55606" lon="6.93475">
        <ele>2175.254</ele>
        <time>2022-08-03T10:50:42Z</time>
      </trkpt>
      <trkpt lat="45.55597" lon="6.93469">
        <ele>2174.403</ele>
        <time>2022-08-03T10:50:51Z</time>
      </trkpt>
      <trkpt lat="45.5559" lon="6.93457">
        <ele>2173.32</ele>
        <time>2022-08-03T10:51:00Z</time>
      </trkpt>
      <trkpt lat="45.55585" lon="6.93444">
        <ele>2171.862</ele>
        <time>2022-08-03T10:51:10Z</time>
      </trkpt>
      <trkpt lat="45.5558" lon="6.9343">
        <ele>2170.482</ele>
        <time>2022-08-03T10:51:20Z</time>
      </trkpt>
      <trkpt lat="45.55575" lon="6.93417">
        <ele>2168.723</ele>
        <time>2022-08-03T10:51:30Z</time>
      </trkpt>
      <trkpt lat="45.55572" lon="6.93404">
        <ele>2168.142</ele>
        <time>2022-08-03T10:51:39Z</time>
      </trkpt>
      <trkpt lat="45.55571" lon="6.9339">
        <ele>2167.372</ele>
        <time>2022-08-03T10:51:49Z</time>
      </trkpt>
      <trkpt lat="45.55567" lon="6.93375">
        <ele>2165.662</ele>
        <time>2022-08-03T10:51:59Z</time>
      </trkpt>
      <trkpt lat="45.55563" lon="6.93361">
        <ele>2165.375</ele>
        <time>2022-08-03T10:52:09Z</time>
      </trkpt>
      <trkpt lat="45.55558" lon="6.93346">
        <ele>2164.538</ele>
        <time>2022-08-03T10:52:19Z</time>
      </trkpt>
      <trkpt lat="45.55553" lon="6.93332">
        <ele>2163.944</ele>
        <time>2022-08-03T10:52:28Z</time>
      </trkpt>
      <trkpt lat="45.55548" lon="6.93317">
        <ele>2161.575</ele>
        <time>2022-08-03T10:52:38Z</time>
      </trkpt>
      <trkpt lat="45.55544" lon="6.93302">
        <ele>2160.903</ele>
        <time>2022-08-03T10:52:48Z</time>
      </trkpt>
      <trkpt lat="45.55544" lon="6.93288">
        <ele>2158.635</ele>
        <time>2022-08-03T10:52:57Z</time>
      </trkpt>
      <trkpt lat="45.55542" lon="6.93271">
        <ele>2158.334</ele>
        <time>2022-08-03T10:53:07Z</time>
      </trkpt>
      <trkpt lat="45.5554" lon="6.93257">
        <ele>2157.222</ele>
        <time>2022-08-03T10:53:16Z</time>
      </trkpt>
      <trkpt lat="45.55539" lon="6.93242">
        <ele>2155.041</ele>
        <time>2022-08-03T10:53:25Z</time>
      </trkpt>
      <trkpt lat="45.55538" lon="6.93225">
        <ele>2152.883</ele>
        <time>2022-08-03T10:53:35Z</time>
      </trkpt>
      <trkpt lat="45.55536" lon="6.9321">
        <ele>2151.207</ele>
        <time>2022-08-03T10:53:45Z</time>
      </trkpt>
      <trkpt lat="45.55531" lon="6.93198">
        <ele>2151.194</ele>
        <time>2022-08-03T10:53:54Z</time>
      </trkpt>
      <trkpt lat="45.5553" lon="6.93186">
        <ele>2150.154</ele>
        <time>2022-08-03T10:54:04Z</time>
      </trkpt>
      <trkpt lat="45.55528" lon="6.93173">
        <ele>2149.088</ele>
        <time>2022-08-03T10:54:13Z</time>
      </trkpt>
      <trkpt lat="45.55526" lon="6.9316">
        <ele>2147.698</ele>
        <time>2022-08-03T10:54:23Z</time>
      </trkpt>
      <trkpt lat="45.55524" lon="6.93147">
        <ele>2145.736</ele>
        <time>2022-08-03T10:54:33Z</time>
      </trkpt>
      <trkpt lat="45.55525" lon="6.93139">
        <ele>2145.279</ele>
        <time>2022-08-03T10:54:42Z</time>
      </trkpt>
      <trkpt lat="45.55525" lon="6.93138">
        <ele>2146.301</ele>
        <time>2022-08-03T10:54:52Z</time>
      </trkpt>
      <trkpt lat="45.55525" lon="6.93138">
        <ele>2146.194</ele>
        <time>2022-08-03T10:55:02Z</time>
      </trkpt>
      <trkpt lat="45.55525" lon="6.93139">
        <ele>2145.508</ele>
        <time>2022-08-03T10:55:11Z</time>
      </trkpt>
      <trkpt lat="45.55525" lon="6.93135">
        <ele>2144.414</ele>
        <time>2022-08-03T10:55:21Z</time>
      </trkpt>
      <trkpt lat="45.55528" lon="6.93128">
        <ele>2141.342</ele>
        <time>2022-08-03T10:55:30Z</time>
      </trkpt>
      <trkpt lat="45.55535" lon="6.93127">
        <ele>2138.807</ele>
        <time>2022-08-03T10:55:40Z</time>
      </trkpt>
      <trkpt lat="45.55538" lon="6.93119">
        <ele>2136.509</ele>
        <time>2022-08-03T10:55:49Z</time>
      </trkpt>
      <trkpt lat="45.55539" lon="6.9311">
        <ele>2136.56</ele>
        <time>2022-08-03T10:55:58Z</time>
      </trkpt>
      <trkpt lat="45.55538" lon="6.93102">
        <ele>2135.193</ele>
        <time>2022-08-03T10:56:07Z</time>
      </trkpt>
      <trkpt lat="45.55539" lon="6.93094">
        <ele>2132.511</ele>
        <time>2022-08-03T10:56:17Z</time>
      </trkpt>
      <trkpt lat="45.55537" lon="6.93088">
        <ele>2130.925</ele>
        <time>2022-08-03T10:56:26Z</time>
      </trkpt>
      <trkpt lat="45.55538" lon="6.93081">
        <ele>2129.809</ele>
        <time>2022-08-03T10:56:35Z</time>
      </trkpt>
      <trkpt lat="45.55536" lon="6.93074">
        <ele>2128.687</ele>
        <time>2022-08-03T10:56:45Z</time>
      </trkpt>
      <trkpt lat="45.55535" lon="6.93066">
        <ele>2126.816</ele>
        <time>2022-08-03T10:56:55Z</time>
      </trkpt>
      <trkpt lat="45.55533" lon="6.93057">
        <ele>2125.07</ele>
        <time>2022-08-03T10:57:05Z</time>
      </trkpt>
      <trkpt lat="45.55531" lon="6.93047">
        <ele>2124.507</ele>
        <time>2022-08-03T10:57:14Z</time>
      </trkpt>
      <trkpt lat="45.55532" lon="6.93043">
        <ele>2123.981</ele>
        <time>2022-08-03T10:57:24Z</time>
      </trkpt>
      <trkpt lat="45.5553" lon="6.93035">
        <ele>2121.63</ele>
        <time>2022-08-03T10:57:33Z</time>
      </trkpt>
      <trkpt lat="45.55528" lon="6.93026">
        <ele>2119.802</ele>
        <time>2022-08-03T10:57:43Z</time>
      </trkpt>
      <trkpt lat="45.55533" lon="6.9303">
        <ele>2118.414</ele>
        <time>2022-08-03T10:57:52Z</time>
      </trkpt>
      <trkpt lat="45.55537" lon="6.93031">
        <ele>2113.917</ele>
        <time>2022-08-03T10:58:01Z</time>
      </trkpt>
      <trkpt lat="45.55542" lon="6.93031">
        <ele>2112.466</ele>
        <time>2022-08-03T10:58:11Z</time>
      </trkpt>
      <trkpt lat="45.55543" lon="6.93031">
        <ele>2111.701</ele>
        <time>2022-08-03T10:58:21Z</time>
      </trkpt>
      <trkpt lat="45.55542" lon="6.93028">
        <ele>2111.369</ele>
        <time>2022-08-03T10:58:30Z</time>
      </trkpt>
      <trkpt lat="45.55542" lon="6.93025">
        <ele>2110.264</ele>
        <time>2022-08-03T10:58:39Z</time>
      </trkpt>
      <trkpt lat="45.55543" lon="6.93026">
        <ele>2109.795</ele>
        <time>2022-08-03T10:58:49Z</time>
      </trkpt>
      <trkpt lat="45.55543" lon="6.93026">
        <ele>2109.778</ele>
        <time>2022-08-03T10:58:58Z</time>
      </trkpt>
      <trkpt lat="45.55543" lon="6.93026">
        <ele>2109.777</ele>
        <time>2022-08-03T10:59:08Z</time>
      </trkpt>
      <trkpt lat="45.55543" lon="6.93026">
        <ele>2109.773</ele>
        <time>2022-08-03T10:59:17Z</time>
      </trkpt>
      <trkpt lat="45.55543" lon="6.93026">
        <ele>2109.815</ele>
        <time>2022-08-03T10:59:27Z</time>
      </trkpt>
      <trkpt lat="45.55543" lon="6.93026">
        <ele>2109.808</ele>
        <time>2022-08-03T10:59:37Z</time>
      </trkpt>
      <trkpt lat="45.55543" lon="6.93026">
        <ele>2109.798</ele>
        <time>2022-08-03T10:59:46Z</time>
      </trkpt>
      <trkpt lat="45.55543" lon="6.93026">
        <ele>2109.798</ele>
        <time>2022-08-03T10:59:56Z</time>
      </trkpt>
      <trkpt lat="45.55543" lon="6.93026">
        <ele>2109.85</ele>
        <time>2022-08-03T11:00:06Z</time>
      </trkpt>
      <trkpt lat="45.55541" lon="6.93024">
        <ele>2109.236</ele>
        <time>2022-08-03T11:00:16Z</time>
      </trkpt>
      <trkpt lat="45.55541" lon="6.93023">
        <ele>2108.437</ele>
        <time>2022-08-03T11:00:25Z</time>
      </trkpt>
      <trkpt lat="45.55539" lon="6.93015">
        <ele>2108.955</ele>
        <time>2022-08-03T11:00:35Z</time>
      </trkpt>
      <trkpt lat="45.55537" lon="6.93016">
        <ele>2106.771</ele>
        <time>2022-08-03T11:00:44Z</time>
      </trkpt>
      <trkpt lat="45.55538" lon="6.93008">
        <ele>2103.152</ele>
        <time>2022-08-03T11:00:53Z</time>
      </trkpt>
      <trkpt lat="45.5554" lon="6.93002">
        <ele>2103.137</ele>
        <time>2022-08-03T11:01:03Z</time>
      </trkpt>
      <trkpt lat="45.55538" lon="6.92993">
        <ele>2102.316</ele>
        <time>2022-08-03T11:01:13Z</time>
      </trkpt>
      <trkpt lat="45.55537" lon="6.92991">
        <ele>2099.961</ele>
        <time>2022-08-03T11:01:23Z</time>
      </trkpt>
      <trkpt lat="45.55531" lon="6.92981">
        <ele>2100.194</ele>
        <time>2022-08-03T11:01:32Z</time>
      </trkpt>
      <trkpt lat="45.55523" lon="6.92975">
        <ele>2097.322</ele>
        <time>2022-08-03T11:01:42Z</time>
      </trkpt>
      <trkpt lat="45.55516" lon="6.92969">
        <ele>2094.75</ele>
        <time>2022-08-03T11:01:51Z</time>
      </trkpt>
      <trkpt lat="45.55508" lon="6.92961">
        <ele>2091.647</ele>
        <time>2022-08-03T11:02:00Z</time>
      </trkpt>
      <trkpt lat="45.555" lon="6.9295">
        <ele>2089.447</ele>
        <time>2022-08-03T11:02:10Z</time>
      </trkpt>
      <trkpt lat="45.55495" lon="6.9294">
        <ele>2088.171</ele>
        <time>2022-08-03T11:02:20Z</time>
      </trkpt>
      <trkpt lat="45.5549" lon="6.92931">
        <ele>2086.324</ele>
        <time>2022-08-03T11:02:29Z</time>
      </trkpt>
      <trkpt lat="45.55482" lon="6.9294">
        <ele>2082.983</ele>
        <time>2022-08-03T11:02:39Z</time>
      </trkpt>
      <trkpt lat="45.55482" lon="6.92955">
        <ele>2081.871</ele>
        <time>2022-08-03T11:02:49Z</time>
      </trkpt>
      <trkpt lat="45.5548" lon="6.92958">
        <ele>2077.253</ele>
        <time>2022-08-03T11:02:59Z</time>
      </trkpt>
      <trkpt lat="45.55477" lon="6.92968">
        <ele>2076.172</ele>
        <time>2022-08-03T11:03:08Z</time>
      </trkpt>
      <trkpt lat="45.55477" lon="6.92976">
        <ele>2073.641</ele>
        <time>2022-08-03T11:03:18Z</time>
      </trkpt>
      <trkpt lat="45.55476" lon="6.92976">
        <ele>2073.679</ele>
        <time>2022-08-03T11:03:27Z</time>
      </trkpt>
      <trkpt lat="45.55475" lon="6.92976">
        <ele>2076.455</ele>
        <time>2022-08-03T11:03:37Z</time>
      </trkpt>
      <trkpt lat="45.55475" lon="6.92976">
        <ele>2076.324</ele>
        <time>2022-08-03T11:03:46Z</time>
      </trkpt>
      <trkpt lat="45.55475" lon="6.92975">
        <ele>2076.016</ele>
        <time>2022-08-03T11:03:55Z</time>
      </trkpt>
      <trkpt lat="45.55474" lon="6.92975">
        <ele>2076.654</ele>
        <time>2022-08-03T11:04:04Z</time>
      </trkpt>
      <trkpt lat="45.55474" lon="6.92975">
        <ele>2076.323</ele>
        <time>2022-08-03T11:04:14Z</time>
      </trkpt>
      <trkpt lat="45.55473" lon="6.92976">
        <ele>2076.955</ele>
        <time>2022-08-03T11:04:23Z</time>
      </trkpt>
      <trkpt lat="45.55471" lon="6.9298">
        <ele>2075.863</ele>
        <time>2022-08-03T11:04:33Z</time>
      </trkpt>
      <trkpt lat="45.55466" lon="6.92984">
        <ele>2076.822</ele>
        <time>2022-08-03T11:04:43Z</time>
      </trkpt>
      <trkpt lat="45.55463" lon="6.92988">
        <ele>2074.123</ele>
        <time>2022-08-03T11:04:52Z</time>
      </trkpt>
      <trkpt lat="45.55454" lon="6.92988">
        <ele>2075.265</ele>
        <time>2022-08-03T11:05:02Z</time>
      </trkpt>
      <trkpt lat="45.55447" lon="6.92989">
        <ele>2075.519</ele>
        <time>2022-08-03T11:05:11Z</time>
      </trkpt>
      <trkpt lat="45.5544" lon="6.92987">
        <ele>2073.334</ele>
        <time>2022-08-03T11:05:21Z</time>
      </trkpt>
      <trkpt lat="45.55432" lon="6.92989">
        <ele>2070.097</ele>
        <time>2022-08-03T11:05:31Z</time>
      </trkpt>
      <trkpt lat="45.55428" lon="6.92989">
        <ele>2067.434</ele>
        <time>2022-08-03T11:05:41Z</time>
      </trkpt>
      <trkpt lat="45.55422" lon="6.92987">
        <ele>2064.773</ele>
        <time>2022-08-03T11:05:50Z</time>
      </trkpt>
      <trkpt lat="45.55413" lon="6.92988">
        <ele>2062.054</ele>
        <time>2022-08-03T11:05:59Z</time>
      </trkpt>
      <trkpt lat="45.55408" lon="6.92984">
        <ele>2060.98</ele>
        <time>2022-08-03T11:06:08Z</time>
      </trkpt>
      <trkpt lat="45.55404" lon="6.92974">
        <ele>2060.125</ele>
        <time>2022-08-03T11:06:18Z</time>
      </trkpt>
      <trkpt lat="45.55402" lon="6.92968">
        <ele>2058.38</ele>
        <time>2022-08-03T11:06:27Z</time>
      </trkpt>
      <trkpt lat="45.55403" lon="6.92957">
        <ele>2057.89</ele>
        <time>2022-08-03T11:06:36Z</time>
      </trkpt>
      <trkpt lat="45.55402" lon="6.92943">
        <ele>2053.194</ele>
        <time>2022-08-03T11:06:46Z</time>
      </trkpt>
      <trkpt lat="45.55401" lon="6.92937">
        <ele>2051.346</ele>
        <time>2022-08-03T11:06:55Z</time>
      </trkpt>
      <trkpt lat="45.554" lon="6.92925">
        <ele>2049.511</ele>
        <time>2022-08-03T11:07:05Z</time>
      </trkpt>
      <trkpt lat="45.55402" lon="6.92915">
        <ele>2046.687</ele>
        <time>2022-08-03T11:07:15Z</time>
      </trkpt>
      <trkpt lat="45.55407" lon="6.92905">
        <ele>2046.033</ele>
        <time>2022-08-03T11:07:25Z</time>
      </trkpt>
      <trkpt lat="45.55408" lon="6.92901">
        <ele>2044.694</ele>
        <time>2022-08-03T11:07:34Z</time>
      </trkpt>
      <trkpt lat="45.55409" lon="6.92893">
        <ele>2045.304</ele>
        <time>2022-08-03T11:07:43Z</time>
      </trkpt>
      <trkpt lat="45.55411" lon="6.92883">
        <ele>2041.017</ele>
        <time>2022-08-03T11:07:53Z</time>
      </trkpt>
      <trkpt lat="45.55411" lon="6.92874">
        <ele>2040.205</ele>
        <time>2022-08-03T11:08:02Z</time>
      </trkpt>
      <trkpt lat="45.55412" lon="6.92868">
        <ele>2038.176</ele>
        <time>2022-08-03T11:08:11Z</time>
      </trkpt>
      <trkpt lat="45.55415" lon="6.92862">
        <ele>2040.088</ele>
        <time>2022-08-03T11:08:20Z</time>
      </trkpt>
      <trkpt lat="45.55415" lon="6.92853">
        <ele>2033.802</ele>
        <time>2022-08-03T11:08:30Z</time>
      </trkpt>
      <trkpt lat="45.55415" lon="6.92838">
        <ele>2035.093</ele>
        <time>2022-08-03T11:08:40Z</time>
      </trkpt>
      <trkpt lat="45.55416" lon="6.92825">
        <ele>2032.13</ele>
        <time>2022-08-03T11:08:50Z</time>
      </trkpt>
      <trkpt lat="45.55416" lon="6.92815">
        <ele>2031.788</ele>
        <time>2022-08-03T11:09:00Z</time>
      </trkpt>
      <trkpt lat="45.55417" lon="6.9281">
        <ele>2031.293</ele>
        <time>2022-08-03T11:09:10Z</time>
      </trkpt>
      <trkpt lat="45.55418" lon="6.92797">
        <ele>2029.541</ele>
        <time>2022-08-03T11:09:19Z</time>
      </trkpt>
      <trkpt lat="45.5542" lon="6.92789">
        <ele>2025.634</ele>
        <time>2022-08-03T11:09:28Z</time>
      </trkpt>
      <trkpt lat="45.5542" lon="6.92785">
        <ele>2022.478</ele>
        <time>2022-08-03T11:09:38Z</time>
      </trkpt>
      <trkpt lat="45.55418" lon="6.92777">
        <ele>2022.659</ele>
        <time>2022-08-03T11:09:47Z</time>
      </trkpt>
      <trkpt lat="45.55419" lon="6.92768">
        <ele>2021.118</ele>
        <time>2022-08-03T11:09:56Z</time>
      </trkpt>
      <trkpt lat="45.55417" lon="6.9276">
        <ele>2019.04</ele>
        <time>2022-08-03T11:10:05Z</time>
      </trkpt>
      <trkpt lat="45.55417" lon="6.92749">
        <ele>2017.319</ele>
        <time>2022-08-03T11:10:15Z</time>
      </trkpt>
      <trkpt lat="45.55415" lon="6.92741">
        <ele>2015.635</ele>
        <time>2022-08-03T11:10:25Z</time>
      </trkpt>
      <trkpt lat="45.55414" lon="6.92727">
        <ele>2014.273</ele>
        <time>2022-08-03T11:10:35Z</time>
      </trkpt>
      <trkpt lat="45.55414" lon="6.92717">
        <ele>2013.08</ele>
        <time>2022-08-03T11:10:44Z</time>
      </trkpt>
      <trkpt lat="45.55417" lon="6.92707">
        <ele>2009.993</ele>
        <time>2022-08-03T11:10:54Z</time>
      </trkpt>
      <trkpt lat="45.55415" lon="6.92699">
        <ele>2008.039</ele>
        <time>2022-08-03T11:11:03Z</time>
      </trkpt>
      <trkpt lat="45.55416" lon="6.92685">
        <ele>2003.689</ele>
        <time>2022-08-03T11:11:13Z</time>
      </trkpt>
      <trkpt lat="45.55415" lon="6.92674">
        <ele>2003.476</ele>
        <time>2022-08-03T11:11:22Z</time>
      </trkpt>
      <trkpt lat="45.55414" lon="6.92661">
        <ele>2001.106</ele>
        <time>2022-08-03T11:11:32Z</time>
      </trkpt>
      <trkpt lat="45.55411" lon="6.92651">
        <ele>1999.434</ele>
        <time>2022-08-03T11:11:42Z</time>
      </trkpt>
      <trkpt lat="45.55411" lon="6.92643">
        <ele>1998.012</ele>
        <time>2022-08-03T11:11:51Z</time>
      </trkpt>
      <trkpt lat="45.55408" lon="6.92634">
        <ele>1993.501</ele>
        <time>2022-08-03T11:12:00Z</time>
      </trkpt>
      <trkpt lat="45.55403" lon="6.92625">
        <ele>1992.48</ele>
        <time>2022-08-03T11:12:10Z</time>
      </trkpt>
      <trkpt lat="45.55397" lon="6.92623">
        <ele>1991.192</ele>
        <time>2022-08-03T11:12:19Z</time>
      </trkpt>
      <trkpt lat="45.55391" lon="6.92616">
        <ele>1987.595</ele>
        <time>2022-08-03T11:12:29Z</time>
      </trkpt>
      <trkpt lat="45.55385" lon="6.92607">
        <ele>1985.689</ele>
        <time>2022-08-03T11:12:39Z</time>
      </trkpt>
      <trkpt lat="45.55381" lon="6.926">
        <ele>1986.107</ele>
        <time>2022-08-03T11:12:48Z</time>
      </trkpt>
      <trkpt lat="45.55374" lon="6.92593">
        <ele>1986.242</ele>
        <time>2022-08-03T11:12:58Z</time>
      </trkpt>
      <trkpt lat="45.5537" lon="6.92579">
        <ele>1983.365</ele>
        <time>2022-08-03T11:13:08Z</time>
      </trkpt>
      <trkpt lat="45.55366" lon="6.92571">
        <ele>1983.91</ele>
        <time>2022-08-03T11:13:17Z</time>
      </trkpt>
      <trkpt lat="45.55357" lon="6.92567">
        <ele>1982.944</ele>
        <time>2022-08-03T11:13:26Z</time>
      </trkpt>
      <trkpt lat="45.55348" lon="6.92559">
        <ele>1979.006</ele>
        <time>2022-08-03T11:13:36Z</time>
      </trkpt>
      <trkpt lat="45.55343" lon="6.92547">
        <ele>1978.232</ele>
        <time>2022-08-03T11:13:46Z</time>
      </trkpt>
      <trkpt lat="45.55336" lon="6.92539">
        <ele>1975.554</ele>
        <time>2022-08-03T11:13:56Z</time>
      </trkpt>
      <trkpt lat="45.55338" lon="6.92529">
        <ele>1970.269</ele>
        <time>2022-08-03T11:14:05Z</time>
      </trkpt>
      <trkpt lat="45.55344" lon="6.92523">
        <ele>1969.824</ele>
        <time>2022-08-03T11:14:15Z</time>
      </trkpt>
      <trkpt lat="45.55354" lon="6.92517">
        <ele>1968.185</ele>
        <time>2022-08-03T11:14:25Z</time>
      </trkpt>
      <trkpt lat="45.55362" lon="6.92516">
        <ele>1967.326</ele>
        <time>2022-08-03T11:14:35Z</time>
      </trkpt>
      <trkpt lat="45.55368" lon="6.92514">
        <ele>1965.244</ele>
        <time>2022-08-03T11:14:44Z</time>
      </trkpt>
      <trkpt lat="45.55374" lon="6.92514">
        <ele>1963.63</ele>
        <time>2022-08-03T11:14:53Z</time>
      </trkpt>
      <trkpt lat="45.55381" lon="6.92512">
        <ele>1963.597</ele>
        <time>2022-08-03T11:15:03Z</time>
      </trkpt>
      <trkpt lat="45.55386" lon="6.92506">
        <ele>1960.687</ele>
        <time>2022-08-03T11:15:13Z</time>
      </trkpt>
      <trkpt lat="45.55394" lon="6.92503">
        <ele>1957.416</ele>
        <time>2022-08-03T11:15:22Z</time>
      </trkpt>
      <trkpt lat="45.55402" lon="6.92508">
        <ele>1954.96</ele>
        <time>2022-08-03T11:15:31Z</time>
      </trkpt>
      <trkpt lat="45.55409" lon="6.92513">
        <ele>1953.223</ele>
        <time>2022-08-03T11:15:41Z</time>
      </trkpt>
      <trkpt lat="45.55417" lon="6.92522">
        <ele>1951.109</ele>
        <time>2022-08-03T11:15:50Z</time>
      </trkpt>
      <trkpt lat="45.55425" lon="6.92526">
        <ele>1948.547</ele>
        <time>2022-08-03T11:16:00Z</time>
      </trkpt>
      <trkpt lat="45.55433" lon="6.92525">
        <ele>1948.933</ele>
        <time>2022-08-03T11:16:10Z</time>
      </trkpt>
      <trkpt lat="45.55439" lon="6.92519">
        <ele>1948.609</ele>
        <time>2022-08-03T11:16:19Z</time>
      </trkpt>
      <trkpt lat="45.55444" lon="6.9251">
        <ele>1949.742</ele>
        <time>2022-08-03T11:16:28Z</time>
      </trkpt>
      <trkpt lat="45.5544" lon="6.92513">
        <ele>1946.7</ele>
        <time>2022-08-03T11:16:37Z</time>
      </trkpt>
      <trkpt lat="45.55436" lon="6.92505">
        <ele>1941.967</ele>
        <time>2022-08-03T11:16:47Z</time>
      </trkpt>
      <trkpt lat="45.55434" lon="6.92494">
        <ele>1941.498</ele>
        <time>2022-08-03T11:16:57Z</time>
      </trkpt>
      <trkpt lat="45.55429" lon="6.92483">
        <ele>1940.94</ele>
        <time>2022-08-03T11:17:07Z</time>
      </trkpt>
      <trkpt lat="45.55429" lon="6.92471">
        <ele>1937.241</ele>
        <time>2022-08-03T11:17:17Z</time>
      </trkpt>
      <trkpt lat="45.5543" lon="6.92456">
        <ele>1938.053</ele>
        <time>2022-08-03T11:17:26Z</time>
      </trkpt>
      <trkpt lat="45.55433" lon="6.92446">
        <ele>1935.599</ele>
        <time>2022-08-03T11:17:35Z</time>
      </trkpt>
      <trkpt lat="45.55433" lon="6.92435">
        <ele>1935.548</ele>
        <time>2022-08-03T11:17:44Z</time>
      </trkpt>
      <trkpt lat="45.55435" lon="6.92432">
        <ele>1935.3</ele>
        <time>2022-08-03T11:17:54Z</time>
      </trkpt>
      <trkpt lat="45.55437" lon="6.92424">
        <ele>1934.164</ele>
        <time>2022-08-03T11:18:03Z</time>
      </trkpt>
      <trkpt lat="45.55433" lon="6.92423">
        <ele>1930.465</ele>
        <time>2022-08-03T11:18:12Z</time>
      </trkpt>
      <trkpt lat="45.55425" lon="6.92419">
        <ele>1926.979</ele>
        <time>2022-08-03T11:18:21Z</time>
      </trkpt>
      <trkpt lat="45.55419" lon="6.92417">
        <ele>1924.63</ele>
        <time>2022-08-03T11:18:31Z</time>
      </trkpt>
      <trkpt lat="45.55411" lon="6.9241">
        <ele>1923.035</ele>
        <time>2022-08-03T11:18:41Z</time>
      </trkpt>
      <trkpt lat="45.55403" lon="6.92414">
        <ele>1924.007</ele>
        <time>2022-08-03T11:18:51Z</time>
      </trkpt>
      <trkpt lat="45.55393" lon="6.92411">
        <ele>1922.152</ele>
        <time>2022-08-03T11:19:00Z</time>
      </trkpt>
      <trkpt lat="45.55389" lon="6.92403">
        <ele>1922.276</ele>
        <time>2022-08-03T11:19:09Z</time>
      </trkpt>
      <trkpt lat="45.55382" lon="6.92391">
        <ele>1921.853</ele>
        <time>2022-08-03T11:19:19Z</time>
      </trkpt>
      <trkpt lat="45.55374" lon="6.92384">
        <ele>1919.218</ele>
        <time>2022-08-03T11:19:29Z</time>
      </trkpt>
      <trkpt lat="45.55363" lon="6.92378">
        <ele>1914.97</ele>
        <time>2022-08-03T11:19:39Z</time>
      </trkpt>
      <trkpt lat="45.55353" lon="6.92365">
        <ele>1913.779</ele>
        <time>2022-08-03T11:19:49Z</time>
      </trkpt>
      <trkpt lat="45.5535" lon="6.92357">
        <ele>1912.001</ele>
        <time>2022-08-03T11:19:58Z</time>
      </trkpt>
      <trkpt lat="45.55347" lon="6.92348">
        <ele>1908.182</ele>
        <time>2022-08-03T11:20:07Z</time>
      </trkpt>
      <trkpt lat="45.55342" lon="6.92338">
        <ele>1908.805</ele>
        <time>2022-08-03T11:20:17Z</time>
      </trkpt>
      <trkpt lat="45.55343" lon="6.92339">
        <ele>1907.021</ele>
        <time>2022-08-03T11:20:26Z</time>
      </trkpt>
      <trkpt lat="45.55343" lon="6.92338">
        <ele>1905.851</ele>
        <time>2022-08-03T11:20:36Z</time>
      </trkpt>
      <trkpt lat="45.55343" lon="6.92334">
        <ele>1903.872</ele>
        <time>2022-08-03T11:20:45Z</time>
      </trkpt>
      <trkpt lat="45.55344" lon="6.92333">
        <ele>1905.837</ele>
        <time>2022-08-03T11:20:55Z</time>
      </trkpt>
      <trkpt lat="45.55348" lon="6.92333">
        <ele>1906.914</ele>
        <time>2022-08-03T11:21:05Z</time>
      </trkpt>
      <trkpt lat="45.55351" lon="6.92333">
        <ele>1906.59</ele>
        <time>2022-08-03T11:21:14Z</time>
      </trkpt>
      <trkpt lat="45.55359" lon="6.92337">
        <ele>1903.301</ele>
        <time>2022-08-03T11:21:23Z</time>
      </trkpt>
      <trkpt lat="45.55361" lon="6.92338">
        <ele>1904.319</ele>
        <time>2022-08-03T11:21:32Z</time>
      </trkpt>
      <trkpt lat="45.55369" lon="6.92343">
        <ele>1901.068</ele>
        <time>2022-08-03T11:21:41Z</time>
      </trkpt>
      <trkpt lat="45.55378" lon="6.92339">
        <ele>1899.106</ele>
        <time>2022-08-03T11:21:50Z</time>
      </trkpt>
      <trkpt lat="45.55386" lon="6.92334">
        <ele>1895.547</ele>
        <time>2022-08-03T11:22:00Z</time>
      </trkpt>
      <trkpt lat="45.55393" lon="6.92328">
        <ele>1891.952</ele>
        <time>2022-08-03T11:22:09Z</time>
      </trkpt>
      <trkpt lat="45.55395" lon="6.92327">
        <ele>1891.801</ele>
        <time>2022-08-03T11:22:19Z</time>
      </trkpt>
      <trkpt lat="45.55397" lon="6.92321">
        <ele>1891.806</ele>
        <time>2022-08-03T11:22:29Z</time>
      </trkpt>
      <trkpt lat="45.55405" lon="6.92317">
        <ele>1889.376</ele>
        <time>2022-08-03T11:22:39Z</time>
      </trkpt>
      <trkpt lat="45.55413" lon="6.9232">
        <ele>1887.025</ele>
        <time>2022-08-03T11:22:48Z</time>
      </trkpt>
      <trkpt lat="45.55423" lon="6.92314">
        <ele>1886.795</ele>
        <time>2022-08-03T11:22:58Z</time>
      </trkpt>
      <trkpt lat="45.55429" lon="6.92303">
        <ele>1885.717</ele>
        <time>2022-08-03T11:23:07Z</time>
      </trkpt>
      <trkpt lat="45.55439" lon="6.92292">
        <ele>1885.598</ele>
        <time>2022-08-03T11:23:17Z</time>
      </trkpt>
      <trkpt lat="45.55446" lon="6.92276">
        <ele>1886.17</ele>
        <time>2022-08-03T11:23:27Z</time>
      </trkpt>
      <trkpt lat="45.5545" lon="6.92263">
        <ele>1884.045</ele>
        <time>2022-08-03T11:23:37Z</time>
      </trkpt>
      <trkpt lat="45.55456" lon="6.92254">
        <ele>1883.498</ele>
        <time>2022-08-03T11:23:47Z</time>
      </trkpt>
      <trkpt lat="45.55457" lon="6.92252">
        <ele>1882.587</ele>
        <time>2022-08-03T11:23:56Z</time>
      </trkpt>
      <trkpt lat="45.55461" lon="6.92245">
        <ele>1883.783</ele>
        <time>2022-08-03T11:24:05Z</time>
      </trkpt>
      <trkpt lat="45.55466" lon="6.9223">
        <ele>1884.204</ele>
        <time>2022-08-03T11:24:15Z</time>
      </trkpt>
      <trkpt lat="45.55468" lon="6.92225">
        <ele>1884.029</ele>
        <time>2022-08-03T11:24:25Z</time>
      </trkpt>
      <trkpt lat="45.55468" lon="6.92225">
        <ele>1883.902</ele>
        <time>2022-08-03T11:24:34Z</time>
      </trkpt>
      <trkpt lat="45.55469" lon="6.92224">
        <ele>1883.686</ele>
        <time>2022-08-03T11:24:43Z</time>
      </trkpt>
      <trkpt lat="45.55468" lon="6.92224">
        <ele>1882.532</ele>
        <time>2022-08-03T11:24:53Z</time>
      </trkpt>
      <trkpt lat="45.55467" lon="6.92225">
        <ele>1881.62</ele>
        <time>2022-08-03T11:25:02Z</time>
      </trkpt>
      <trkpt lat="45.55467" lon="6.92224">
        <ele>1884.326</ele>
        <time>2022-08-03T11:25:12Z</time>
      </trkpt>
      <trkpt lat="45.55468" lon="6.92223">
        <ele>1884.431</ele>
        <time>2022-08-03T11:25:21Z</time>
      </trkpt>
      <trkpt lat="45.55466" lon="6.92219">
        <ele>1883.984</ele>
        <time>2022-08-03T11:25:31Z</time>
      </trkpt>
      <trkpt lat="45.55462" lon="6.92206">
        <ele>1885.772</ele>
        <time>2022-08-03T11:25:40Z</time>
      </trkpt>
      <trkpt lat="45.55465" lon="6.92192">
        <ele>1884.815</ele>
        <time>2022-08-03T11:25:49Z</time>
      </trkpt>
      <trkpt lat="45.55464" lon="6.92182">
        <ele>1884.701</ele>
        <time>2022-08-03T11:25:58Z</time>
      </trkpt>
      <trkpt lat="45.55469" lon="6.9218">
        <ele>1886.423</ele>
        <time>2022-08-03T11:26:08Z</time>
      </trkpt>
      <trkpt lat="45.55465" lon="6.92179">
        <ele>1886.996</ele>
        <time>2022-08-03T11:26:18Z</time>
      </trkpt>
      <trkpt lat="45.55467" lon="6.92178">
        <ele>1885.975</ele>
        <time>2022-08-03T11:26:28Z</time>
      </trkpt>
      <trkpt lat="45.55463" lon="6.92169">
        <ele>1886.355</ele>
        <time>2022-08-03T11:26:38Z</time>
      </trkpt>
      <trkpt lat="45.55462" lon="6.92168">
        <ele>1884.328</ele>
        <time>2022-08-03T11:26:48Z</time>
      </trkpt>
      <trkpt lat="45.55463" lon="6.92169">
        <ele>1884.718</ele>
        <time>2022-08-03T11:26:57Z</time>
      </trkpt>
      <trkpt lat="45.55462" lon="6.92167">
        <ele>1884.389</ele>
        <time>2022-08-03T11:27:07Z</time>
      </trkpt>
      <trkpt lat="45.55461" lon="6.92166">
        <ele>1884.943</ele>
        <time>2022-08-03T11:27:16Z</time>
      </trkpt>
      <trkpt lat="45.55452" lon="6.92164">
        <ele>1883.049</ele>
        <time>2022-08-03T11:27:26Z</time>
      </trkpt>
      <trkpt lat="45.55442" lon="6.92159">
        <ele>1882.742</ele>
        <time>2022-08-03T11:27:36Z</time>
      </trkpt>
      <trkpt lat="45.55433" lon="6.92152">
        <ele>1883.255</ele>
        <time>2022-08-03T11:27:46Z</time>
      </trkpt>
      <trkpt lat="45.55424" lon="6.92142">
        <ele>1884.103</ele>
        <time>2022-08-03T11:27:56Z</time>
      </trkpt>
      <trkpt lat="45.55421" lon="6.92139">
        <ele>1883.546</ele>
        <time>2022-08-03T11:28:06Z</time>
      </trkpt>
      <trkpt lat="45.55418" lon="6.92136">
        <ele>1883.564</ele>
        <time>2022-08-03T11:28:16Z</time>
      </trkpt>
      <trkpt lat="45.55408" lon="6.92128">
        <ele>1880.682</ele>
        <time>2022-08-03T11:28:25Z</time>
      </trkpt>
      <trkpt lat="45.55399" lon="6.92119">
        <ele>1880.651</ele>
        <time>2022-08-03T11:28:35Z</time>
      </trkpt>
      <trkpt lat="45.55393" lon="6.9211">
        <ele>1881.629</ele>
        <time>2022-08-03T11:28:44Z</time>
      </trkpt>
      <trkpt lat="45.55385" lon="6.92103">
        <ele>1882.669</ele>
        <time>2022-08-03T11:28:53Z</time>
      </trkpt>
      <trkpt lat="45.55376" lon="6.92095">
        <ele>1881.835</ele>
        <time>2022-08-03T11:29:03Z</time>
      </trkpt>
      <trkpt lat="45.55368" lon="6.92082">
        <ele>1882.194</ele>
        <time>2022-08-03T11:29:13Z</time>
      </trkpt>
      <trkpt lat="45.55359" lon="6.92074">
        <ele>1885.031</ele>
        <time>2022-08-03T11:29:22Z</time>
      </trkpt>
      <trkpt lat="45.55352" lon="6.92064">
        <ele>1884.816</ele>
        <time>2022-08-03T11:29:31Z</time>
      </trkpt>
      <trkpt lat="45.55349" lon="6.92048">
        <ele>1886.066</ele>
        <time>2022-08-03T11:29:41Z</time>
      </trkpt>
      <trkpt lat="45.55344" lon="6.92035">
        <ele>1885.855</ele>
        <time>2022-08-03T11:29:51Z</time>
      </trkpt>
      <trkpt lat="45.55339" lon="6.92021">
        <ele>1885.857</ele>
        <time>2022-08-03T11:30:01Z</time>
      </trkpt>
      <trkpt lat="45.55339" lon="6.9202">
        <ele>1886.168</ele>
        <time>2022-08-03T11:30:10Z</time>
      </trkpt>
      <trkpt lat="45.55339" lon="6.9202">
        <ele>1886.027</ele>
        <time>2022-08-03T11:30:19Z</time>
      </trkpt>
      <trkpt lat="45.55337" lon="6.92015">
        <ele>1885.7</ele>
        <time>2022-08-03T11:30:29Z</time>
      </trkpt>
      <trkpt lat="45.55331" lon="6.92">
        <ele>1884.693</ele>
        <time>2022-08-03T11:30:39Z</time>
      </trkpt>
      <trkpt lat="45.5533" lon="6.91984">
        <ele>1882.261</ele>
        <time>2022-08-03T11:30:48Z</time>
      </trkpt>
      <trkpt lat="45.55331" lon="6.91965">
        <ele>1883.759</ele>
        <time>2022-08-03T11:30:58Z</time>
      </trkpt>
      <trkpt lat="45.55331" lon="6.91949">
        <ele>1881.687</ele>
        <time>2022-08-03T11:31:08Z</time>
      </trkpt>
      <trkpt lat="45.55329" lon="6.91942">
        <ele>1880.246</ele>
        <time>2022-08-03T11:31:17Z</time>
      </trkpt>
      <trkpt lat="45.55327" lon="6.91926">
        <ele>1877.578</ele>
        <time>2022-08-03T11:31:27Z</time>
      </trkpt>
      <trkpt lat="45.55324" lon="6.91915">
        <ele>1876.992</ele>
        <time>2022-08-03T11:31:36Z</time>
      </trkpt>
      <trkpt lat="45.5532" lon="6.91905">
        <ele>1878.758</ele>
        <time>2022-08-03T11:31:46Z</time>
      </trkpt>
      <trkpt lat="45.55318" lon="6.91896">
        <ele>1877.466</ele>
        <time>2022-08-03T11:31:55Z</time>
      </trkpt>
      <trkpt lat="45.55318" lon="6.91887">
        <ele>1878.501</ele>
        <time>2022-08-03T11:32:04Z</time>
      </trkpt>
      <trkpt lat="45.55319" lon="6.91879">
        <ele>1876.003</ele>
        <time>2022-08-03T11:32:14Z</time>
      </trkpt>
      <trkpt lat="45.55322" lon="6.91871">
        <ele>1875.953</ele>
        <time>2022-08-03T11:32:23Z</time>
      </trkpt>
      <trkpt lat="45.55322" lon="6.91865">
        <ele>1876.854</ele>
        <time>2022-08-03T11:32:33Z</time>
      </trkpt>
      <trkpt lat="45.55323" lon="6.91854">
        <ele>1878.521</ele>
        <time>2022-08-03T11:32:43Z</time>
      </trkpt>
      <trkpt lat="45.55327" lon="6.91853">
        <ele>1880.768</ele>
        <time>2022-08-03T11:32:52Z</time>
      </trkpt>
      <trkpt lat="45.55329" lon="6.91852">
        <ele>1878.84</ele>
        <time>2022-08-03T11:33:01Z</time>
      </trkpt>
      <trkpt lat="45.5533" lon="6.91851">
        <ele>1875.88</ele>
        <time>2022-08-03T11:33:11Z</time>
      </trkpt>
      <trkpt lat="45.5533" lon="6.91851">
        <ele>1876.716</ele>
        <time>2022-08-03T11:33:20Z</time>
      </trkpt>
      <trkpt lat="45.55326" lon="6.91854">
        <ele>1876.67</ele>
        <time>2022-08-03T11:33:30Z</time>
      </trkpt>
      <trkpt lat="45.55322" lon="6.91858">
        <ele>1874.519</ele>
        <time>2022-08-03T11:33:39Z</time>
      </trkpt>
      <trkpt lat="45.55321" lon="6.91858">
        <ele>1873.245</ele>
        <time>2022-08-03T11:33:49Z</time>
      </trkpt>
      <trkpt lat="45.5532" lon="6.9186">
        <ele>1871.736</ele>
        <time>2022-08-03T11:33:59Z</time>
      </trkpt>
      <trkpt lat="45.55314" lon="6.91855">
        <ele>1867.275</ele>
        <time>2022-08-03T11:34:09Z</time>
      </trkpt>
      <trkpt lat="45.55315" lon="6.9185">
        <ele>1867.081</ele>
        <time>2022-08-03T11:34:18Z</time>
      </trkpt>
      <trkpt lat="45.55316" lon="6.91845">
        <ele>1862.869</ele>
        <time>2022-08-03T11:34:28Z</time>
      </trkpt>
      <trkpt lat="45.55311" lon="6.91847">
        <ele>1860.983</ele>
        <time>2022-08-03T11:34:37Z</time>
      </trkpt>
      <trkpt lat="45.5531" lon="6.91846">
        <ele>1858.018</ele>
        <time>2022-08-03T11:34:47Z</time>
      </trkpt>
      <trkpt lat="45.5531" lon="6.91842">
        <ele>1857.882</ele>
        <time>2022-08-03T11:34:56Z</time>
      </trkpt>
      <trkpt lat="45.5531" lon="6.91834">
        <ele>1858.599</ele>
        <time>2022-08-03T11:35:06Z</time>
      </trkpt>
      <trkpt lat="45.55307" lon="6.91825">
        <ele>1856.761</ele>
        <time>2022-08-03T11:35:15Z</time>
      </trkpt>
      <trkpt lat="45.55304" lon="6.91817">
        <ele>1855.255</ele>
        <time>2022-08-03T11:35:24Z</time>
      </trkpt>
      <trkpt lat="45.55301" lon="6.91808">
        <ele>1852.645</ele>
        <time>2022-08-03T11:35:34Z</time>
      </trkpt>
      <trkpt lat="45.55301" lon="6.91804">
        <ele>1852.577</ele>
        <time>2022-08-03T11:35:43Z</time>
      </trkpt>
      <trkpt lat="45.553" lon="6.91794">
        <ele>1853.072</ele>
        <time>2022-08-03T11:35:53Z</time>
      </trkpt>
      <trkpt lat="45.55298" lon="6.91784">
        <ele>1848.876</ele>
        <time>2022-08-03T11:36:02Z</time>
      </trkpt>
      <trkpt lat="45.55294" lon="6.91775">
        <ele>1846.618</ele>
        <time>2022-08-03T11:36:11Z</time>
      </trkpt>
      <trkpt lat="45.5529" lon="6.91766">
        <ele>1843.414</ele>
        <time>2022-08-03T11:36:20Z</time>
      </trkpt>
      <trkpt lat="45.55288" lon="6.91755">
        <ele>1842.606</ele>
        <time>2022-08-03T11:36:30Z</time>
      </trkpt>
      <trkpt lat="45.55289" lon="6.91756">
        <ele>1843.205</ele>
        <time>2022-08-03T11:36:39Z</time>
      </trkpt>
      <trkpt lat="45.5529" lon="6.91741">
        <ele>1840.215</ele>
        <time>2022-08-03T11:36:49Z</time>
      </trkpt>
      <trkpt lat="45.55296" lon="6.91729">
        <ele>1839.553</ele>
        <time>2022-08-03T11:36:58Z</time>
      </trkpt>
      <trkpt lat="45.55294" lon="6.91721">
        <ele>1838.707</ele>
        <time>2022-08-03T11:37:07Z</time>
      </trkpt>
      <trkpt lat="45.55287" lon="6.91712">
        <ele>1836.967</ele>
        <time>2022-08-03T11:37:16Z</time>
      </trkpt>
      <trkpt lat="45.55286" lon="6.91706">
        <ele>1837.974</ele>
        <time>2022-08-03T11:37:26Z</time>
      </trkpt>
      <trkpt lat="45.55284" lon="6.91697">
        <ele>1836.391</ele>
        <time>2022-08-03T11:37:36Z</time>
      </trkpt>
      <trkpt lat="45.55281" lon="6.91686">
        <ele>1833.637</ele>
        <time>2022-08-03T11:37:46Z</time>
      </trkpt>
      <trkpt lat="45.5528" lon="6.91684">
        <ele>1833.67</ele>
        <time>2022-08-03T11:37:56Z</time>
      </trkpt>
      <trkpt lat="45.5528" lon="6.91684">
        <ele>1833.587</ele>
        <time>2022-08-03T11:38:06Z</time>
      </trkpt>
      <trkpt lat="45.55281" lon="6.91671">
        <ele>1834.085</ele>
        <time>2022-08-03T11:38:15Z</time>
      </trkpt>
      <trkpt lat="45.55278" lon="6.91661">
        <ele>1831.648</ele>
        <time>2022-08-03T11:38:24Z</time>
      </trkpt>
      <trkpt lat="45.55277" lon="6.91653">
        <ele>1830.474</ele>
        <time>2022-08-03T11:38:33Z</time>
      </trkpt>
      <trkpt lat="45.55276" lon="6.91644">
        <ele>1830.44</ele>
        <time>2022-08-03T11:38:43Z</time>
      </trkpt>
      <trkpt lat="45.55274" lon="6.91636">
        <ele>1830.252</ele>
        <time>2022-08-03T11:38:52Z</time>
      </trkpt>
      <trkpt lat="45.55274" lon="6.9162">
        <ele>1831.827</ele>
        <time>2022-08-03T11:39:02Z</time>
      </trkpt>
      <trkpt lat="45.55275" lon="6.91609">
        <ele>1832.389</ele>
        <time>2022-08-03T11:39:11Z</time>
      </trkpt>
      <trkpt lat="45.55274" lon="6.91596">
        <ele>1832.908</ele>
        <time>2022-08-03T11:39:20Z</time>
      </trkpt>
      <trkpt lat="45.55272" lon="6.91581">
        <ele>1834.881</ele>
        <time>2022-08-03T11:39:30Z</time>
      </trkpt>
      <trkpt lat="45.55271" lon="6.91566">
        <ele>1834.889</ele>
        <time>2022-08-03T11:39:40Z</time>
      </trkpt>
      <trkpt lat="45.55268" lon="6.91553">
        <ele>1834.693</ele>
        <time>2022-08-03T11:39:49Z</time>
      </trkpt>
      <trkpt lat="45.55266" lon="6.91539">
        <ele>1835.485</ele>
        <time>2022-08-03T11:39:59Z</time>
      </trkpt>
      <trkpt lat="45.55263" lon="6.91526">
        <ele>1834.919</ele>
        <time>2022-08-03T11:40:08Z</time>
      </trkpt>
      <trkpt lat="45.55259" lon="6.91512">
        <ele>1834.03</ele>
        <time>2022-08-03T11:40:18Z</time>
      </trkpt>
      <trkpt lat="45.55256" lon="6.91496">
        <ele>1835.67</ele>
        <time>2022-08-03T11:40:28Z</time>
      </trkpt>
      <trkpt lat="45.55252" lon="6.91483">
        <ele>1836.376</ele>
        <time>2022-08-03T11:40:37Z</time>
      </trkpt>
      <trkpt lat="45.55248" lon="6.91467">
        <ele>1835.358</ele>
        <time>2022-08-03T11:40:47Z</time>
      </trkpt>
      <trkpt lat="45.55246" lon="6.91452">
        <ele>1834.485</ele>
        <time>2022-08-03T11:40:57Z</time>
      </trkpt>
      <trkpt lat="45.55248" lon="6.91437">
        <ele>1834.996</ele>
        <time>2022-08-03T11:41:06Z</time>
      </trkpt>
      <trkpt lat="45.55252" lon="6.91423">
        <ele>1833.255</ele>
        <time>2022-08-03T11:41:16Z</time>
      </trkpt>
      <trkpt lat="45.55255" lon="6.91406">
        <ele>1830.626</ele>
        <time>2022-08-03T11:41:26Z</time>
      </trkpt>
      <trkpt lat="45.55256" lon="6.91394">
        <ele>1828.864</ele>
        <time>2022-08-03T11:41:36Z</time>
      </trkpt>
      <trkpt lat="45.55254" lon="6.91381">
        <ele>1826.95</ele>
        <time>2022-08-03T11:41:45Z</time>
      </trkpt>
      <trkpt lat="45.55251" lon="6.91365">
        <ele>1826.485</ele>
        <time>2022-08-03T11:41:55Z</time>
      </trkpt>
      <trkpt lat="45.55245" lon="6.91351">
        <ele>1826.641</ele>
        <time>2022-08-03T11:42:05Z</time>
      </trkpt>
      <trkpt lat="45.55239" lon="6.9134">
        <ele>1826.803</ele>
        <time>2022-08-03T11:42:15Z</time>
      </trkpt>
      <trkpt lat="45.5523" lon="6.91334">
        <ele>1826.05</ele>
        <time>2022-08-03T11:42:25Z</time>
      </trkpt>
      <trkpt lat="45.55221" lon="6.9133">
        <ele>1826.254</ele>
        <time>2022-08-03T11:42:34Z</time>
      </trkpt>
      <trkpt lat="45.55214" lon="6.91321">
        <ele>1824.96</ele>
        <time>2022-08-03T11:42:43Z</time>
      </trkpt>
      <trkpt lat="45.55206" lon="6.91322">
        <ele>1824.523</ele>
        <time>2022-08-03T11:42:52Z</time>
      </trkpt>
      <trkpt lat="45.552" lon="6.91326">
        <ele>1824.73</ele>
        <time>2022-08-03T11:43:01Z</time>
      </trkpt>
      <trkpt lat="45.55199" lon="6.91339">
        <ele>1823.951</ele>
        <time>2022-08-03T11:43:11Z</time>
      </trkpt>
      <trkpt lat="45.55197" lon="6.91344">
        <ele>1823.467</ele>
        <time>2022-08-03T11:43:20Z</time>
      </trkpt>
      <trkpt lat="45.55195" lon="6.91348">
        <ele>1823.858</ele>
        <time>2022-08-03T11:43:30Z</time>
      </trkpt>
      <trkpt lat="45.55195" lon="6.91352">
        <ele>1823.291</ele>
        <time>2022-08-03T11:43:39Z</time>
      </trkpt>
      <trkpt lat="45.55194" lon="6.91352">
        <ele>1823.021</ele>
        <time>2022-08-03T11:43:49Z</time>
      </trkpt>
      <trkpt lat="45.55194" lon="6.91351">
        <ele>1823.098</ele>
        <time>2022-08-03T11:43:58Z</time>
      </trkpt>
      <trkpt lat="45.55194" lon="6.91353">
        <ele>1822.083</ele>
        <time>2022-08-03T11:44:07Z</time>
      </trkpt>
      <trkpt lat="45.55195" lon="6.91353">
        <ele>1822.326</ele>
        <time>2022-08-03T11:44:16Z</time>
      </trkpt>
      <trkpt lat="45.55195" lon="6.91353">
        <ele>1822.311</ele>
        <time>2022-08-03T11:44:25Z</time>
      </trkpt>
      <trkpt lat="45.55193" lon="6.91353">
        <ele>1821.953</ele>
        <time>2022-08-03T11:44:35Z</time>
      </trkpt>
      <trkpt lat="45.55193" lon="6.91353">
        <ele>1821.93</ele>
        <time>2022-08-03T11:44:45Z</time>
      </trkpt>
      <trkpt lat="45.55192" lon="6.91354">
        <ele>1823.134</ele>
        <time>2022-08-03T11:44:54Z</time>
      </trkpt>
      <trkpt lat="45.55191" lon="6.91355">
        <ele>1823.653</ele>
        <time>2022-08-03T11:45:03Z</time>
      </trkpt>
      <trkpt lat="45.55191" lon="6.91355">
        <ele>1823.682</ele>
        <time>2022-08-03T11:45:13Z</time>
      </trkpt>
      <trkpt lat="45.55191" lon="6.91355">
        <ele>1823.697</ele>
        <time>2022-08-03T11:45:22Z</time>
      </trkpt>
      <trkpt lat="45.5519" lon="6.91354">
        <ele>1823.563</ele>
        <time>2022-08-03T11:45:32Z</time>
      </trkpt>
      <trkpt lat="45.55184" lon="6.91354">
        <ele>1822.676</ele>
        <time>2022-08-03T11:45:41Z</time>
      </trkpt>
      <trkpt lat="45.55182" lon="6.91355">
        <ele>1822.391</ele>
        <time>2022-08-03T11:45:51Z</time>
      </trkpt>
      <trkpt lat="45.55181" lon="6.91354">
        <ele>1821.666</ele>
        <time>2022-08-03T11:46:00Z</time>
      </trkpt>
      <trkpt lat="45.55182" lon="6.91354">
        <ele>1821.201</ele>
        <time>2022-08-03T11:46:09Z</time>
      </trkpt>
      <trkpt lat="45.55183" lon="6.91354">
        <ele>1821.142</ele>
        <time>2022-08-03T11:46:19Z</time>
      </trkpt>
      <trkpt lat="45.5518" lon="6.91355">
        <ele>1820.892</ele>
        <time>2022-08-03T11:46:28Z</time>
      </trkpt>
      <trkpt lat="45.55173" lon="6.91355">
        <ele>1820.656</ele>
        <time>2022-08-03T11:46:37Z</time>
      </trkpt>
      <trkpt lat="45.55165" lon="6.91359">
        <ele>1823.381</ele>
        <time>2022-08-03T11:46:47Z</time>
      </trkpt>
      <trkpt lat="45.55159" lon="6.91357">
        <ele>1823.003</ele>
        <time>2022-08-03T11:46:56Z</time>
      </trkpt>
      <trkpt lat="45.55152" lon="6.91354">
        <ele>1824.203</ele>
        <time>2022-08-03T11:47:06Z</time>
      </trkpt>
      <trkpt lat="45.55151" lon="6.9135">
        <ele>1826.12</ele>
        <time>2022-08-03T11:47:15Z</time>
      </trkpt>
      <trkpt lat="45.55152" lon="6.91343">
        <ele>1827.274</ele>
        <time>2022-08-03T11:47:25Z</time>
      </trkpt>
      <trkpt lat="45.55152" lon="6.9134">
        <ele>1826.907</ele>
        <time>2022-08-03T11:47:35Z</time>
      </trkpt>
      <trkpt lat="45.55153" lon="6.91342">
        <ele>1827.466</ele>
        <time>2022-08-03T11:47:44Z</time>
      </trkpt>
      <trkpt lat="45.55155" lon="6.91342">
        <ele>1828.069</ele>
        <time>2022-08-03T11:47:54Z</time>
      </trkpt>
      <trkpt lat="45.55156" lon="6.91341">
        <ele>1827.053</ele>
        <time>2022-08-03T11:48:03Z</time>
      </trkpt>
      <trkpt lat="45.55155" lon="6.91341">
        <ele>1827.656</ele>
        <time>2022-08-03T11:48:12Z</time>
      </trkpt>
      <trkpt lat="45.55156" lon="6.91341">
        <ele>1827.538</ele>
        <time>2022-08-03T11:48:22Z</time>
      </trkpt>
      <trkpt lat="45.55155" lon="6.9134">
        <ele>1828.207</ele>
        <time>2022-08-03T11:48:31Z</time>
      </trkpt>
      <trkpt lat="45.55156" lon="6.9134">
        <ele>1827.714</ele>
        <time>2022-08-03T11:48:40Z</time>
      </trkpt>
      <trkpt lat="45.55154" lon="6.91339">
        <ele>1829.53</ele>
        <time>2022-08-03T11:48:50Z</time>
      </trkpt>
      <trkpt lat="45.55154" lon="6.9134">
        <ele>1829.832</ele>
        <time>2022-08-03T11:49:00Z</time>
      </trkpt>
      <trkpt lat="45.55154" lon="6.91341">
        <ele>1829.184</ele>
        <time>2022-08-03T11:49:09Z</time>
      </trkpt>
      <trkpt lat="45.55155" lon="6.91347">
        <ele>1828.111</ele>
        <time>2022-08-03T11:49:18Z</time>
      </trkpt>
      <trkpt lat="45.55156" lon="6.91344">
        <ele>1827.717</ele>
        <time>2022-08-03T11:49:28Z</time>
      </trkpt>
      <trkpt lat="45.55156" lon="6.91344">
        <ele>1828.123</ele>
        <time>2022-08-03T11:49:37Z</time>
      </trkpt>
      <trkpt lat="45.55156" lon="6.91344">
        <ele>1827.56</ele>
        <time>2022-08-03T11:49:46Z</time>
      </trkpt>
      <trkpt lat="45.55155" lon="6.91348">
        <ele>1826.526</ele>
        <time>2022-08-03T11:49:56Z</time>
      </trkpt>
      <trkpt lat="45.55152" lon="6.91353">
        <ele>1824.022</ele>
        <time>2022-08-03T11:50:06Z</time>
      </trkpt>
      <trkpt lat="45.55152" lon="6.91358">
        <ele>1823.501</ele>
        <time>2022-08-03T11:50:16Z</time>
      </trkpt>
      <trkpt lat="45.55152" lon="6.9136">
        <ele>1824.488</ele>
        <time>2022-08-03T11:50:25Z</time>
      </trkpt>
      <trkpt lat="45.55145" lon="6.91358">
        <ele>1823.843</ele>
        <time>2022-08-03T11:50:35Z</time>
      </trkpt>
      <trkpt lat="45.55138" lon="6.91356">
        <ele>1823.174</ele>
        <time>2022-08-03T11:50:44Z</time>
      </trkpt>
      <trkpt lat="45.55132" lon="6.91356">
        <ele>1822.824</ele>
        <time>2022-08-03T11:50:54Z</time>
      </trkpt>
      <trkpt lat="45.55128" lon="6.91357">
        <ele>1822.392</ele>
        <time>2022-08-03T11:51:03Z</time>
      </trkpt>
      <trkpt lat="45.55125" lon="6.91358">
        <ele>1822.624</ele>
        <time>2022-08-03T11:51:12Z</time>
      </trkpt>
      <trkpt lat="45.55116" lon="6.91362">
        <ele>1824.492</ele>
        <time>2022-08-03T11:51:22Z</time>
      </trkpt>
      <trkpt lat="45.55114" lon="6.91363">
        <ele>1823.168</ele>
        <time>2022-08-03T11:51:31Z</time>
      </trkpt>
      <trkpt lat="45.55103" lon="6.91366">
        <ele>1824.889</ele>
        <time>2022-08-03T11:51:41Z</time>
      </trkpt>
      <trkpt lat="45.55091" lon="6.91368">
        <ele>1826.474</ele>
        <time>2022-08-03T11:51:51Z</time>
      </trkpt>
      <trkpt lat="45.5508" lon="6.91366">
        <ele>1823.871</ele>
        <time>2022-08-03T11:52:01Z</time>
      </trkpt>
      <trkpt lat="45.5507" lon="6.91361">
        <ele>1824.162</ele>
        <time>2022-08-03T11:52:11Z</time>
      </trkpt>
      <trkpt lat="45.55061" lon="6.91361">
        <ele>1823.097</ele>
        <time>2022-08-03T11:52:20Z</time>
      </trkpt>
      <trkpt lat="45.55051" lon="6.91365">
        <ele>1821.492</ele>
        <time>2022-08-03T11:52:30Z</time>
      </trkpt>
      <trkpt lat="45.55041" lon="6.91371">
        <ele>1819.383</ele>
        <time>2022-08-03T11:52:40Z</time>
      </trkpt>
      <trkpt lat="45.5503" lon="6.91374">
        <ele>1817.69</ele>
        <time>2022-08-03T11:52:50Z</time>
      </trkpt>
      <trkpt lat="45.5502" lon="6.91374">
        <ele>1819.158</ele>
        <time>2022-08-03T11:52:59Z</time>
      </trkpt>
      <trkpt lat="45.55011" lon="6.91373">
        <ele>1818.307</ele>
        <time>2022-08-03T11:53:08Z</time>
      </trkpt>
      <trkpt lat="45.54999" lon="6.9137">
        <ele>1817.608</ele>
        <time>2022-08-03T11:53:18Z</time>
      </trkpt>
      <trkpt lat="45.54989" lon="6.91361">
        <ele>1819.213</ele>
        <time>2022-08-03T11:53:28Z</time>
      </trkpt>
      <trkpt lat="45.5498" lon="6.91351">
        <ele>1817.946</ele>
        <time>2022-08-03T11:53:37Z</time>
      </trkpt>
      <trkpt lat="45.5497" lon="6.91348">
        <ele>1817.503</ele>
        <time>2022-08-03T11:53:46Z</time>
      </trkpt>
      <trkpt lat="45.54959" lon="6.91351">
        <ele>1816.295</ele>
        <time>2022-08-03T11:53:56Z</time>
      </trkpt>
      <trkpt lat="45.54949" lon="6.91353">
        <ele>1814.813</ele>
        <time>2022-08-03T11:54:06Z</time>
      </trkpt>
      <trkpt lat="45.5494" lon="6.91357">
        <ele>1811.553</ele>
        <time>2022-08-03T11:54:15Z</time>
      </trkpt>
      <trkpt lat="45.54931" lon="6.91361">
        <ele>1810.691</ele>
        <time>2022-08-03T11:54:24Z</time>
      </trkpt>
      <trkpt lat="45.54919" lon="6.91364">
        <ele>1810.354</ele>
        <time>2022-08-03T11:54:34Z</time>
      </trkpt>
      <trkpt lat="45.54908" lon="6.91366">
        <ele>1809.867</ele>
        <time>2022-08-03T11:54:44Z</time>
      </trkpt>
      <trkpt lat="45.54899" lon="6.91372">
        <ele>1808.207</ele>
        <time>2022-08-03T11:54:53Z</time>
      </trkpt>
      <trkpt lat="45.54888" lon="6.91372">
        <ele>1807.094</ele>
        <time>2022-08-03T11:55:03Z</time>
      </trkpt>
      <trkpt lat="45.54877" lon="6.9137">
        <ele>1805.061</ele>
        <time>2022-08-03T11:55:12Z</time>
      </trkpt>
      <trkpt lat="45.54866" lon="6.91371">
        <ele>1804.524</ele>
        <time>2022-08-03T11:55:22Z</time>
      </trkpt>
      <trkpt lat="45.54857" lon="6.91377">
        <ele>1802.146</ele>
        <time>2022-08-03T11:55:31Z</time>
      </trkpt>
      <trkpt lat="45.54847" lon="6.91387">
        <ele>1800.591</ele>
        <time>2022-08-03T11:55:41Z</time>
      </trkpt>
      <trkpt lat="45.54843" lon="6.91391">
        <ele>1799.456</ele>
        <time>2022-08-03T11:55:51Z</time>
      </trkpt>
      <trkpt lat="45.54833" lon="6.91395">
        <ele>1799.267</ele>
        <time>2022-08-03T11:56:00Z</time>
      </trkpt>
      <trkpt lat="45.54824" lon="6.914">
        <ele>1799.568</ele>
        <time>2022-08-03T11:56:09Z</time>
      </trkpt>
      <trkpt lat="45.54814" lon="6.91405">
        <ele>1797.799</ele>
        <time>2022-08-03T11:56:19Z</time>
      </trkpt>
      <trkpt lat="45.54806" lon="6.91415">
        <ele>1795.088</ele>
        <time>2022-08-03T11:56:29Z</time>
      </trkpt>
      <trkpt lat="45.54798" lon="6.91424">
        <ele>1794.027</ele>
        <time>2022-08-03T11:56:38Z</time>
      </trkpt>
      <trkpt lat="45.54788" lon="6.91432">
        <ele>1792.406</ele>
        <time>2022-08-03T11:56:48Z</time>
      </trkpt>
      <trkpt lat="45.54777" lon="6.9144">
        <ele>1791.545</ele>
        <time>2022-08-03T11:56:58Z</time>
      </trkpt>
      <trkpt lat="45.54768" lon="6.9145">
        <ele>1791.103</ele>
        <time>2022-08-03T11:57:08Z</time>
      </trkpt>
      <trkpt lat="45.54758" lon="6.91459">
        <ele>1789.846</ele>
        <time>2022-08-03T11:57:18Z</time>
      </trkpt>
      <trkpt lat="45.5475" lon="6.91466">
        <ele>1788.698</ele>
        <time>2022-08-03T11:57:27Z</time>
      </trkpt>
      <trkpt lat="45.54742" lon="6.91474">
        <ele>1787.921</ele>
        <time>2022-08-03T11:57:37Z</time>
      </trkpt>
      <trkpt lat="45.54732" lon="6.91483">
        <ele>1788.49</ele>
        <time>2022-08-03T11:57:47Z</time>
      </trkpt>
      <trkpt lat="45.54724" lon="6.91494">
        <ele>1788.909</ele>
        <time>2022-08-03T11:57:56Z</time>
      </trkpt>
      <trkpt lat="45.54717" lon="6.91504">
        <ele>1786.467</ele>
        <time>2022-08-03T11:58:05Z</time>
      </trkpt>
      <trkpt lat="45.54709" lon="6.91512">
        <ele>1784.633</ele>
        <time>2022-08-03T11:58:14Z</time>
      </trkpt>
      <trkpt lat="45.547" lon="6.91518">
        <ele>1783.432</ele>
        <time>2022-08-03T11:58:23Z</time>
      </trkpt>
      <trkpt lat="45.54692" lon="6.91526">
        <ele>1783.077</ele>
        <time>2022-08-03T11:58:32Z</time>
      </trkpt>
      <trkpt lat="45.54683" lon="6.91534">
        <ele>1781.126</ele>
        <time>2022-08-03T11:58:42Z</time>
      </trkpt>
      <trkpt lat="45.54674" lon="6.91543">
        <ele>1779.375</ele>
        <time>2022-08-03T11:58:51Z</time>
      </trkpt>
      <trkpt lat="45.54666" lon="6.91553">
        <ele>1779.159</ele>
        <time>2022-08-03T11:59:00Z</time>
      </trkpt>
      <trkpt lat="45.54657" lon="6.9156">
        <ele>1777.539</ele>
        <time>2022-08-03T11:59:09Z</time>
      </trkpt>
      <trkpt lat="45.54646" lon="6.91557">
        <ele>1775.441</ele>
        <time>2022-08-03T11:59:19Z</time>
      </trkpt>
      <trkpt lat="45.54637" lon="6.91548">
        <ele>1773.906</ele>
        <time>2022-08-03T11:59:29Z</time>
      </trkpt>
      <trkpt lat="45.54627" lon="6.91544">
        <ele>1772.251</ele>
        <time>2022-08-03T11:59:38Z</time>
      </trkpt>
      <trkpt lat="45.54616" lon="6.91549">
        <ele>1771.951</ele>
        <time>2022-08-03T11:59:48Z</time>
      </trkpt>
      <trkpt lat="45.54607" lon="6.91558">
        <ele>1770.454</ele>
        <time>2022-08-03T11:59:58Z</time>
      </trkpt>
      <trkpt lat="45.54601" lon="6.9157">
        <ele>1769.133</ele>
        <time>2022-08-03T12:00:07Z</time>
      </trkpt>
      <trkpt lat="45.54598" lon="6.91587">
        <ele>1768.467</ele>
        <time>2022-08-03T12:00:17Z</time>
      </trkpt>
      <trkpt lat="45.54594" lon="6.91602">
        <ele>1767.065</ele>
        <time>2022-08-03T12:00:27Z</time>
      </trkpt>
      <trkpt lat="45.54587" lon="6.91617">
        <ele>1766.669</ele>
        <time>2022-08-03T12:00:37Z</time>
      </trkpt>
      <trkpt lat="45.54579" lon="6.91627">
        <ele>1766.748</ele>
        <time>2022-08-03T12:00:46Z</time>
      </trkpt>
      <trkpt lat="45.54572" lon="6.91638">
        <ele>1765.321</ele>
        <time>2022-08-03T12:00:56Z</time>
      </trkpt>
      <trkpt lat="45.54563" lon="6.91645">
        <ele>1764.138</ele>
        <time>2022-08-03T12:01:05Z</time>
      </trkpt>
      <trkpt lat="45.54553" lon="6.91647">
        <ele>1761.316</ele>
        <time>2022-08-03T12:01:15Z</time>
      </trkpt>
      <trkpt lat="45.54544" lon="6.91645">
        <ele>1758.475</ele>
        <time>2022-08-03T12:01:24Z</time>
      </trkpt>
      <trkpt lat="45.54535" lon="6.91645">
        <ele>1756.493</ele>
        <time>2022-08-03T12:01:33Z</time>
      </trkpt>
      <trkpt lat="45.54527" lon="6.91642">
        <ele>1755.334</ele>
        <time>2022-08-03T12:01:43Z</time>
      </trkpt>
      <trkpt lat="45.5452" lon="6.91635">
        <ele>1754.301</ele>
        <time>2022-08-03T12:01:52Z</time>
      </trkpt>
      <trkpt lat="45.54519" lon="6.91621">
        <ele>1752.631</ele>
        <time>2022-08-03T12:02:01Z</time>
      </trkpt>
      <trkpt lat="45.54522" lon="6.91608">
        <ele>1751.677</ele>
        <time>2022-08-03T12:02:11Z</time>
      </trkpt>
      <trkpt lat="45.54525" lon="6.91593">
        <ele>1750.328</ele>
        <time>2022-08-03T12:02:21Z</time>
      </trkpt>
      <trkpt lat="45.54526" lon="6.91577">
        <ele>1749.846</ele>
        <time>2022-08-03T12:02:31Z</time>
      </trkpt>
      <trkpt lat="45.54527" lon="6.91562">
        <ele>1748.652</ele>
        <time>2022-08-03T12:02:40Z</time>
      </trkpt>
      <trkpt lat="45.54529" lon="6.91549">
        <ele>1746.34</ele>
        <time>2022-08-03T12:02:50Z</time>
      </trkpt>
      <trkpt lat="45.54531" lon="6.91538">
        <ele>1745.155</ele>
        <time>2022-08-03T12:03:00Z</time>
      </trkpt>
      <trkpt lat="45.54539" lon="6.91528">
        <ele>1743.296</ele>
        <time>2022-08-03T12:03:10Z</time>
      </trkpt>
      <trkpt lat="45.54547" lon="6.91525">
        <ele>1740.57</ele>
        <time>2022-08-03T12:03:19Z</time>
      </trkpt>
      <trkpt lat="45.54556" lon="6.91521">
        <ele>1737.369</ele>
        <time>2022-08-03T12:03:28Z</time>
      </trkpt>
      <trkpt lat="45.54563" lon="6.91512">
        <ele>1737.139</ele>
        <time>2022-08-03T12:03:37Z</time>
      </trkpt>
      <trkpt lat="45.54569" lon="6.91499">
        <ele>1736.075</ele>
        <time>2022-08-03T12:03:46Z</time>
      </trkpt>
      <trkpt lat="45.54569" lon="6.91483">
        <ele>1735.366</ele>
        <time>2022-08-03T12:03:56Z</time>
      </trkpt>
      <trkpt lat="45.54565" lon="6.9147">
        <ele>1733.102</ele>
        <time>2022-08-03T12:04:05Z</time>
      </trkpt>
      <trkpt lat="45.54568" lon="6.91455">
        <ele>1730.739</ele>
        <time>2022-08-03T12:04:15Z</time>
      </trkpt>
      <trkpt lat="45.54574" lon="6.91443">
        <ele>1728.682</ele>
        <time>2022-08-03T12:04:25Z</time>
      </trkpt>
      <trkpt lat="45.5458" lon="6.91431">
        <ele>1727.598</ele>
        <time>2022-08-03T12:04:34Z</time>
      </trkpt>
      <trkpt lat="45.54584" lon="6.91415">
        <ele>1725.723</ele>
        <time>2022-08-03T12:04:44Z</time>
      </trkpt>
      <trkpt lat="45.54585" lon="6.91401">
        <ele>1724.565</ele>
        <time>2022-08-03T12:04:53Z</time>
      </trkpt>
      <trkpt lat="45.54588" lon="6.91386">
        <ele>1722.86</ele>
        <time>2022-08-03T12:05:03Z</time>
      </trkpt>
      <trkpt lat="45.54597" lon="6.91381">
        <ele>1720.34</ele>
        <time>2022-08-03T12:05:12Z</time>
      </trkpt>
      <trkpt lat="45.54606" lon="6.91379">
        <ele>1718.066</ele>
        <time>2022-08-03T12:05:21Z</time>
      </trkpt>
      <trkpt lat="45.54614" lon="6.91371">
        <ele>1716.442</ele>
        <time>2022-08-03T12:05:31Z</time>
      </trkpt>
      <trkpt lat="45.54621" lon="6.91361">
        <ele>1715.939</ele>
        <time>2022-08-03T12:05:40Z</time>
      </trkpt>
      <trkpt lat="45.54629" lon="6.9135">
        <ele>1715.077</ele>
        <time>2022-08-03T12:05:50Z</time>
      </trkpt>
      <trkpt lat="45.54635" lon="6.9134">
        <ele>1713.167</ele>
        <time>2022-08-03T12:05:59Z</time>
      </trkpt>
      <trkpt lat="45.54632" lon="6.91329">
        <ele>1711.395</ele>
        <time>2022-08-03T12:06:08Z</time>
      </trkpt>
      <trkpt lat="45.54623" lon="6.91332">
        <ele>1711.713</ele>
        <time>2022-08-03T12:06:18Z</time>
      </trkpt>
      <trkpt lat="45.54617" lon="6.9134">
        <ele>1711.014</ele>
        <time>2022-08-03T12:06:28Z</time>
      </trkpt>
      <trkpt lat="45.54608" lon="6.91347">
        <ele>1708.607</ele>
        <time>2022-08-03T12:06:38Z</time>
      </trkpt>
      <trkpt lat="45.54599" lon="6.91354">
        <ele>1708.472</ele>
        <time>2022-08-03T12:06:48Z</time>
      </trkpt>
      <trkpt lat="45.54589" lon="6.9136">
        <ele>1708.126</ele>
        <time>2022-08-03T12:06:58Z</time>
      </trkpt>
      <trkpt lat="45.54577" lon="6.91363">
        <ele>1708.603</ele>
        <time>2022-08-03T12:07:07Z</time>
      </trkpt>
      <trkpt lat="45.54567" lon="6.91367">
        <ele>1707.368</ele>
        <time>2022-08-03T12:07:17Z</time>
      </trkpt>
      <trkpt lat="45.54559" lon="6.91375">
        <ele>1706.318</ele>
        <time>2022-08-03T12:07:26Z</time>
      </trkpt>
      <trkpt lat="45.5455" lon="6.91382">
        <ele>1706.738</ele>
        <time>2022-08-03T12:07:35Z</time>
      </trkpt>
      <trkpt lat="45.54541" lon="6.9139">
        <ele>1705.113</ele>
        <time>2022-08-03T12:07:44Z</time>
      </trkpt>
      <trkpt lat="45.54531" lon="6.91399">
        <ele>1704.465</ele>
        <time>2022-08-03T12:07:54Z</time>
      </trkpt>
      <trkpt lat="45.54523" lon="6.91409">
        <ele>1702.249</ele>
        <time>2022-08-03T12:08:04Z</time>
      </trkpt>
      <trkpt lat="45.54515" lon="6.91417">
        <ele>1701.497</ele>
        <time>2022-08-03T12:08:13Z</time>
      </trkpt>
      <trkpt lat="45.54506" lon="6.91425">
        <ele>1701.34</ele>
        <time>2022-08-03T12:08:23Z</time>
      </trkpt>
      <trkpt lat="45.54497" lon="6.91433">
        <ele>1701.829</ele>
        <time>2022-08-03T12:08:33Z</time>
      </trkpt>
      <trkpt lat="45.54489" lon="6.91442">
        <ele>1703.441</ele>
        <time>2022-08-03T12:08:43Z</time>
      </trkpt>
      <trkpt lat="45.54481" lon="6.91447">
        <ele>1704.318</ele>
        <time>2022-08-03T12:08:53Z</time>
      </trkpt>
      <trkpt lat="45.54473" lon="6.91451">
        <ele>1700.655</ele>
        <time>2022-08-03T12:09:02Z</time>
      </trkpt>
      <trkpt lat="45.54465" lon="6.91455">
        <ele>1698.836</ele>
        <time>2022-08-03T12:09:12Z</time>
      </trkpt>
      <trkpt lat="45.54456" lon="6.9146">
        <ele>1697.971</ele>
        <time>2022-08-03T12:09:22Z</time>
      </trkpt>
      <trkpt lat="45.54447" lon="6.91464">
        <ele>1696.469</ele>
        <time>2022-08-03T12:09:32Z</time>
      </trkpt>
      <trkpt lat="45.54439" lon="6.91467">
        <ele>1694.565</ele>
        <time>2022-08-03T12:09:42Z</time>
      </trkpt>
      <trkpt lat="45.54435" lon="6.91468">
        <ele>1692.882</ele>
        <time>2022-08-03T12:09:52Z</time>
      </trkpt>
      <trkpt lat="45.54431" lon="6.91471">
        <ele>1693.527</ele>
        <time>2022-08-03T12:10:02Z</time>
      </trkpt>
      <trkpt lat="45.54429" lon="6.91473">
        <ele>1693.609</ele>
        <time>2022-08-03T12:10:11Z</time>
      </trkpt>
      <trkpt lat="45.54429" lon="6.91473">
        <ele>1693.628</ele>
        <time>2022-08-03T12:10:20Z</time>
      </trkpt>
      <trkpt lat="45.54426" lon="6.9147">
        <ele>1694.503</ele>
        <time>2022-08-03T12:10:30Z</time>
      </trkpt>
      <trkpt lat="45.54425" lon="6.9147">
        <ele>1695.954</ele>
        <time>2022-08-03T12:10:40Z</time>
      </trkpt>
      <trkpt lat="45.54425" lon="6.9147">
        <ele>1695.97</ele>
        <time>2022-08-03T12:10:50Z</time>
      </trkpt>
      <trkpt lat="45.54425" lon="6.9147">
        <ele>1695.976</ele>
        <time>2022-08-03T12:10:59Z</time>
      </trkpt>
      <trkpt lat="45.54427" lon="6.9147">
        <ele>1697.455</ele>
        <time>2022-08-03T12:11:08Z</time>
      </trkpt>
      <trkpt lat="45.54429" lon="6.91473">
        <ele>1695.248</ele>
        <time>2022-08-03T12:11:17Z</time>
      </trkpt>
      <trkpt lat="45.54427" lon="6.91471">
        <ele>1694.351</ele>
        <time>2022-08-03T12:11:27Z</time>
      </trkpt>
      <trkpt lat="45.54427" lon="6.91471">
        <ele>1694.773</ele>
        <time>2022-08-03T12:11:36Z</time>
      </trkpt>
      <trkpt lat="45.54427" lon="6.91471">
        <ele>1694.794</ele>
        <time>2022-08-03T12:11:46Z</time>
      </trkpt>
      <trkpt lat="45.54427" lon="6.91471">
        <ele>1694.783</ele>
        <time>2022-08-03T12:11:55Z</time>
      </trkpt>
      <trkpt lat="45.54427" lon="6.91472">
        <ele>1695.454</ele>
        <time>2022-08-03T12:12:05Z</time>
      </trkpt>
      <trkpt lat="45.54427" lon="6.91473">
        <ele>1695.755</ele>
        <time>2022-08-03T12:12:14Z</time>
      </trkpt>
      <trkpt lat="45.54427" lon="6.91473">
        <ele>1695.794</ele>
        <time>2022-08-03T12:12:24Z</time>
      </trkpt>
      <trkpt lat="45.54427" lon="6.91473">
        <ele>1695.794</ele>
        <time>2022-08-03T12:12:33Z</time>
      </trkpt>
      <trkpt lat="45.54427" lon="6.91473">
        <ele>1695.797</ele>
        <time>2022-08-03T12:12:42Z</time>
      </trkpt>
      <trkpt lat="45.54427" lon="6.91473">
        <ele>1695.795</ele>
        <time>2022-08-03T12:12:52Z</time>
      </trkpt>
      <trkpt lat="45.54427" lon="6.91473">
        <ele>1695.806</ele>
        <time>2022-08-03T12:13:01Z</time>
      </trkpt>
      <trkpt lat="45.54427" lon="6.91473">
        <ele>1695.809</ele>
        <time>2022-08-03T12:13:10Z</time>
      </trkpt>
      <trkpt lat="45.54427" lon="6.91473">
        <ele>1695.803</ele>
        <time>2022-08-03T12:13:20Z</time>
      </trkpt>
      <trkpt lat="45.54427" lon="6.91473">
        <ele>1695.792</ele>
        <time>2022-08-03T12:13:29Z</time>
      </trkpt>
      <trkpt lat="45.54427" lon="6.91473">
        <ele>1695.798</ele>
        <time>2022-08-03T12:13:39Z</time>
      </trkpt>
      <trkpt lat="45.54427" lon="6.91473">
        <ele>1695.799</ele>
        <time>2022-08-03T12:13:49Z</time>
      </trkpt>
      <trkpt lat="45.54427" lon="6.91473">
        <ele>1695.8</ele>
        <time>2022-08-03T12:13:58Z</time>
      </trkpt>
    </trkseg>
  </trk>
</gpx>